ECMWFFLT1_sfc_thetae_000.txt.gz
Theta_e
344 345 348 347 348 349 351 353 354 354 354 352 351 348 348 348 348 346 344 345 344 345 345 345 343 343 341 340 341 341 342 343 343 340 339 340 339 341 340 340 341 342 341 340 341 340 341 343 342 341 341 342 341 342 342 342 342 341 342 342 342 342 344
341 344 345 346 347 349 352 355 354 352 354 352 350 350 348 349 348 344 344 346 346 345 346 345 344 344 341 341 342 343 342 341 340 340 340 340 340 341 341 341 341 341 341 341 341 341 342 340 341 340 340 340 340 341 341 342 342 341 339 340 340 340 343
343 344 345 345 346 348 352 353 354 351 352 349 347 347 347 350 348 346 346 346 346 346 346 346 346 345 345 344 342 342 342 340 339 339 338 336 336 338 341 343 342 341 340 342 341 340 341 340 341 341 340 340 339 340 340 340 341 340 340 340 340 339 340
344 345 345 347 350 351 351 351 352 349 348 348 346 347 349 351 349 347 347 345 346 346 345 347 346 346 345 344 342 341 342 342 340 338 338 338 337 338 340 341 341 341 339 339 340 339 340 341 340 340 340 340 339 339 339 339 339 340 340 340 338 338 339
347 347 345 345 345 347 348 349 348 347 344 344 346 349 351 351 348 346 346 346 345 345 345 346 345 345 346 344 341 341 340 339 340 341 339 338 339 340 340 340 340 340 339 339 340 340 340 340 339 339 339 340 339 338 338 339 339 340 341 342 340 341 338
345 347 345 343 345 348 348 346 344 341 341 341 345 348 349 346 343 341 344 347 346 345 347 347 346 346 345 344 343 342 342 341 340 340 339 339 338 337 337 338 339 339 338 339 339 339 339 339 339 339 339 338 337 338 338 338 338 339 340 341 343 342 337
345 347 344 343 344 346 346 342 339 340 342 343 346 349 345 341 340 339 341 344 344 345 344 344 344 343 344 343 343 342 341 340 340 340 339 338 338 338 338 339 339 338 339 341 340 340 339 339 340 341 341 342 342 341 342 341 340 341 342 342 342 339 339
346 346 345 344 343 343 343 342 341 340 342 343 345 344 340 340 340 337 338 339 340 338 339 340 341 343 345 344 342 341 340 340 339 339 339 337 337 338 339 339 338 339 340 338 339 340 339 340 340 341 341 341 342 343 345 344 341 340 342 340 341 340 340
347 349 346 344 343 343 343 343 342 342 344 345 346 344 342 341 338 338 340 338 339 339 337 335 337 342 345 343 341 342 341 341 340 339 338 337 336 335 334 333 336 337 338 337 337 339 339 339 340 340 342 342 342 344 346 344 342 341 340 341 340 340 337
347 348 348 344 345 344 344 345 345 346 347 348 348 345 342 341 341 340 340 338 338 338 338 338 338 338 343 343 341 342 341 341 340 338 335 334 335 334 334 333 335 336 335 336 337 337 340 341 341 342 343 343 343 344 344 343 343 341 339 340 339 338 338
347 350 350 348 346 346 347 347 347 349 350 351 349 347 347 347 346 343 343 339 336 337 338 341 342 340 340 340 340 340 341 340 339 337 336 335 333 334 333 332 332 334 335 336 337 339 339 340 341 342 343 343 343 342 343 341 341 341 341 341 341 339 336
348 350 351 350 349 348 347 349 351 351 351 351 350 348 350 351 349 347 346 344 339 337 338 339 341 340 339 337 338 340 340 339 338 336 335 335 334 334 335 335 335 334 332 333 331 333 333 334 335 339 342 343 342 343 343 344 344 343 343 341 340 339 339
349 350 352 349 349 348 350 352 352 351 351 350 348 349 351 350 348 346 347 347 341 340 341 343 343 343 340 337 336 338 339 338 337 336 335 335 335 336 334 334 332 332 332 332 331 331 332 333 334 335 339 342 343 342 341 342 343 343 343 341 339 337 337
347 349 351 350 349 348 349 351 351 351 351 350 349 350 349 349 347 347 349 346 342 341 340 339 343 343 341 339 339 340 338 338 337 336 336 336 337 336 335 335 335 335 335 333 331 329 330 330 332 333 335 335 338 341 343 343 343 343 343 341 338 337 336
344 345 347 347 348 349 349 349 351 351 350 350 350 349 348 346 347 348 350 344 344 340 341 343 343 343 340 340 340 341 340 339 338 337 337 336 337 336 336 336 336 335 334 333 331 331 331 333 333 334 334 335 337 342 344 342 341 342 342 338 336 336 335
341 343 344 345 347 348 349 350 351 352 352 351 349 349 347 347 349 348 346 342 341 343 341 342 344 343 341 339 340 341 340 339 339 338 337 336 336 337 337 334 334 333 333 332 331 332 332 335 335 334 335 334 335 338 342 341 343 337 330 329 334 334 334
340 340 342 345 347 347 349 350 351 352 351 351 350 349 347 348 348 347 338 337 338 341 342 342 344 343 341 341 342 341 340 339 338 338 336 337 336 336 337 336 334 333 332 332 333 332 336 335 334 333 333 333 335 337 340 341 342 332 325 325 325 334 335
338 340 341 343 345 346 348 348 349 350 350 349 349 346 346 346 343 342 337 337 337 337 340 342 343 341 341 342 342 341 339 337 337 337 335 335 336 337 337 335 334 333 333 332 331 332 332 332 333 334 334 335 336 337 339 339 335 326 324 325 325 326 334
338 340 341 343 344 345 346 346 348 349 348 349 346 343 343 346 338 341 340 339 340 341 339 341 341 340 340 341 340 340 338 338 337 336 336 336 336 337 336 335 333 332 331 329 331 331 332 333 331 333 334 335 334 333 335 337 332 324 323 323 322 323 328
337 340 341 342 344 345 347 347 348 348 349 349 345 338 338 340 338 341 340 338 341 341 342 342 340 338 339 340 339 339 338 336 336 335 335 336 336 336 336 334 332 331 330 330 331 331 330 331 331 332 333 332 332 333 334 336 329 325 323 321 321 321 325
337 339 341 342 343 344 347 348 350 349 349 344 337 337 338 337 340 343 338 338 337 340 343 342 338 338 338 337 337 337 338 336 336 336 337 337 337 338 337 333 332 331 330 328 328 329 330 330 331 332 332 331 330 330 330 331 327 324 322 320 318 318 322
336 337 339 342 344 345 348 348 349 349 346 341 338 336 336 337 338 336 335 337 336 339 340 339 338 336 337 336 336 336 336 336 336 336 339 337 337 336 334 331 331 330 330 331 330 331 331 332 332 333 333 333 331 329 331 329 323 321 320 318 317 318 333
334 337 340 343 343 346 351 350 350 351 352 349 340 339 337 338 338 336 335 334 335 337 336 335 336 336 336 335 334 334 335 336 335 335 336 336 335 335 332 330 329 329 331 331 330 327 327 329 327 330 332 332 332 329 330 332 326 317 317 315 316 319 334
336 339 341 341 346 349 351 351 350 354 345 339 342 340 339 339 337 337 336 335 335 333 333 333 334 335 335 333 335 335 337 337 337 335 334 335 334 334 331 330 330 330 332 329 327 326 328 327 325 327 332 330 330 328 330 326 323 313 312 311 314 322 335
336 338 341 343 344 347 348 350 351 347 347 344 341 341 344 343 338 337 338 336 333 331 331 332 334 334 332 333 335 337 337 336 335 334 333 334 333 333 330 330 330 330 333 331 329 329 333 330 330 331 331 327 326 329 329 330 325 311 312 311 314 322 338
340 340 342 345 347 350 351 351 352 345 338 343 346 347 349 347 338 337 335 334 332 330 330 333 335 335 335 334 335 337 338 337 336 336 335 334 334 335 334 333 331 331 330 329 328 328 330 333 330 329 330 330 331 331 327 330 332 328 311 311 311 314 336
341 342 343 343 344 348 347 349 351 346 347 346 350 349 350 346 342 338 338 338 336 333 332 335 336 335 334 335 337 336 336 336 335 334 334 332 335 337 334 332 330 330 333 331 328 330 331 331 330 328 329 329 330 329 330 330 326 327 316 312 311 314 317
339 341 342 344 346 346 348 345 348 346 339 350 350 347 349 351 347 344 343 340 337 337 334 336 336 335 337 342 340 336 335 335 336 335 333 333 338 336 333 333 333 331 329 331 333 331 331 331 329 330 330 331 330 331 331 330 329 337 324 314 311 310 313
340 339 339 342 344 344 344 345 345 341 335 335 335 347 350 349 347 345 344 343 343 338 336 337 339 345 344 340 336 336 336 335 335 335 335 339 337 334 332 334 332 332 332 332 332 331 330 331 330 329 327 327 328 329 329 333 331 325 331 322 316 313 311
342 341 340 339 340 343 340 345 345 344 339 333 343 348 347 347 346 345 344 345 346 345 345 348 348 343 336 335 335 333 332 332 334 336 338 337 336 334 332 331 332 331 331 332 330 329 329 331 329 328 326 325 327 328 330 331 330 329 324 330 321 313 308
340 340 339 336 333 341 341 341 345 344 345 346 348 347 347 346 344 343 343 346 348 349 348 346 342 336 334 333 332 333 333 333 334 335 335 335 334 332 330 330 330 329 331 330 327 328 328 328 327 326 324 325 325 329 328 328 332 333 328 324 322 314 308
341 341 340 341 343 343 342 342 342 344 344 345 344 345 346 345 344 342 344 346 348 349 344 342 337 334 333 331 331 331 333 332 331 332 334 333 331 331 330 330 328 327 328 328 326 327 327 328 328 327 325 326 326 326 326 328 329 331 334 327 325 321 316
341 340 340 339 341 340 339 339 337 338 339 340 344 342 339 341 341 342 345 347 348 342 341 338 335 333 332 331 330 333 333 329 326 326 329 332 331 329 328 328 327 327 327 326 324 325 326 327 327 327 326 327 326 327 326 325 330 331 328 326 325 326 326
341 341 343 344 342 339 338 337 336 335 336 338 341 342 340 337 339 341 342 342 337 335 336 336 333 332 331 331 330 331 331 328 324 325 326 327 327 325 326 330 329 327 324 325 325 326 326 326 326 326 326 324 323 324 325 325 326 325 320 319 319 318 320
339 339 339 338 339 341 343 342 340 342 339 340 341 340 337 337 337 336 341 336 335 338 335 333 331 331 330 330 328 329 327 327 329 328 327 327 329 327 326 329 326 324 326 331 328 327 324 324 324 326 325 324 325 326 323 323 321 319 306 306 301 304 309
340 340 341 343 344 345 343 341 342 340 340 340 337 337 337 338 337 335 333 335 337 337 336 335 332 329 326 328 326 325 326 328 327 327 326 324 323 324 326 309 300 308 325 324 309 303 299 304 321 319 323 324 325 322 319 316 315 302 296 295 294 294 294
338 338 337 340 340 340 340 340 338 339 338 338 336 335 335 334 334 335 332 335 335 334 336 333 330 326 324 326 325 325 326 325 324 326 328 327 326 325 324 325 317 299 298 305 307 300 295 295 296 298 303 314 322 315 307 305 298 294 294 294 293 293 294
340 338 337 336 337 337 336 335 334 334 335 335 334 333 333 332 333 334 332 334 333 334 335 333 330 327 326 326 326 328 326 325 325 325 324 325 326 326 325 323 323 315 300 297 299 298 295 295 294 294 296 298 304 310 317 305 298 294 294 294 294 293 295

ECMWFFLT1_sfc_thetae_003.txt.gz
Theta_e
337 335 338 340 342 342 342 344 347 350 351 352 354 350 349 349 349 349 347 348 348 350 348 346 344 341 340 340 343 344 343 344 345 342 341 341 342 341 340 340 339 340 340 340 341 341 343 345 345 344 343 343 342 342 343 343 342 341 342 342 342 341 340
336 335 336 339 336 336 340 344 350 351 345 352 352 349 347 349 349 348 347 347 347 348 345 345 343 342 341 341 343 344 343 343 343 344 343 343 342 342 341 340 341 342 342 342 342 343 343 343 343 342 342 342 342 342 341 342 342 342 340 341 339 339 340
339 338 338 342 344 342 341 341 349 346 347 346 347 346 346 349 351 349 347 345 346 346 346 345 345 344 344 343 342 343 345 343 342 341 342 340 340 337 340 340 342 341 341 342 342 342 342 342 343 343 342 341 341 341 341 340 340 339 340 340 339 337 337
341 339 339 343 346 341 339 342 346 345 349 348 342 341 346 351 352 349 347 346 346 345 346 346 346 344 345 344 344 344 344 344 342 340 340 340 339 339 339 341 342 342 340 340 341 340 341 341 341 341 341 341 340 340 341 340 339 339 339 339 339 339 339
338 340 337 339 344 344 338 341 347 348 350 346 344 345 344 350 350 347 347 346 346 346 346 346 346 346 346 343 341 343 342 341 342 342 341 340 341 339 338 339 339 340 339 340 341 341 341 341 340 340 339 340 339 339 338 338 338 339 339 339 339 340 339
336 339 338 337 341 344 343 343 345 346 340 340 340 339 342 346 346 342 344 346 346 346 347 347 347 345 343 344 345 343 343 342 342 343 342 342 341 340 338 338 339 339 338 339 340 340 340 340 339 339 338 337 336 337 338 337 337 338 339 340 340 341 339
338 341 345 343 340 339 345 342 345 345 346 343 339 341 344 344 341 340 342 343 343 345 345 344 345 345 345 344 343 343 341 342 343 343 342 341 341 339 339 339 340 339 340 340 340 340 338 339 340 340 339 338 339 338 340 341 340 340 340 339 340 340 340
340 341 341 346 344 347 344 345 343 342 345 342 340 342 341 342 342 340 342 342 341 340 340 341 344 345 345 344 342 341 342 342 342 342 343 341 340 339 338 337 337 339 341 338 340 340 338 339 338 339 338 338 338 339 339 341 342 340 339 339 338 338 338
339 345 346 344 344 343 345 343 341 342 343 343 345 345 343 344 341 341 342 343 342 340 341 340 343 345 347 345 342 342 342 342 341 341 340 339 338 336 334 333 335 336 336 337 337 339 339 338 338 339 340 339 339 341 341 343 341 341 341 338 338 340 340
339 346 348 348 343 341 342 341 344 345 342 344 347 347 346 343 344 342 341 341 341 338 339 338 337 339 344 344 342 341 342 342 342 340 338 336 337 336 335 332 333 336 336 335 334 334 338 339 339 339 339 338 339 339 340 341 341 341 340 337 338 340 340
341 347 348 347 345 344 344 342 345 345 345 348 349 346 348 345 343 342 341 339 337 338 339 339 339 337 339 343 342 341 342 341 341 340 340 338 334 335 334 332 331 334 334 334 335 335 336 336 337 337 337 335 337 341 343 340 336 337 338 338 339 340 339
344 348 350 349 345 342 340 343 346 348 348 348 347 347 348 348 343 342 341 341 339 338 340 340 340 339 339 338 338 340 340 341 341 339 338 337 336 336 336 335 335 334 333 334 333 334 333 334 334 334 335 336 336 338 341 341 339 338 337 337 339 339 339
340 348 351 350 347 344 347 348 346 346 347 346 347 348 346 344 342 341 343 341 338 339 339 340 341 342 340 339 336 338 339 339 339 339 338 337 337 337 336 334 333 333 334 334 333 332 332 332 333 334 334 335 335 334 336 340 339 340 336 334 335 338 340
345 342 350 353 348 346 347 348 347 347 347 347 347 347 346 345 342 342 342 340 338 337 337 338 341 342 341 340 337 338 336 338 339 339 339 338 339 338 337 336 336 337 338 337 335 332 332 331 331 332 333 334 334 334 335 337 342 341 338 335 335 335 337
337 336 344 350 351 349 349 347 348 348 350 351 350 347 346 346 345 345 345 341 341 337 339 342 343 343 342 342 339 339 340 340 339 339 339 338 338 337 337 337 337 338 337 336 335 334 333 333 332 333 333 333 334 335 335 337 341 341 338 338 339 338 336
338 337 340 347 351 351 351 351 352 353 354 353 348 347 347 347 345 343 343 341 340 340 341 343 344 344 343 340 339 341 341 341 341 340 340 338 337 338 338 337 337 337 337 335 334 335 334 335 334 332 332 331 333 334 335 338 340 337 334 334 338 336 335
330 335 336 341 352 352 353 354 355 355 354 349 347 348 348 346 345 345 341 338 337 340 341 341 344 344 344 341 341 341 342 341 340 340 339 340 338 338 338 338 339 339 337 336 335 335 335 334 332 331 331 331 332 334 336 337 338 330 326 327 330 334 335
330 335 338 342 347 353 354 354 356 356 352 348 347 348 347 346 346 341 338 337 337 338 340 342 342 342 344 343 343 341 340 339 339 339 338 339 338 338 338 339 338 338 338 336 334 334 333 332 332 332 333 332 333 334 335 335 332 324 325 327 327 330 336
333 332 335 341 345 351 353 354 356 356 353 349 348 346 346 346 343 342 338 339 340 342 341 341 340 341 343 344 343 341 340 339 338 337 337 338 338 339 339 338 338 337 336 334 333 332 333 333 331 332 332 332 332 331 332 334 326 323 324 325 324 325 329
332 331 334 338 344 348 352 355 355 356 354 351 350 346 346 347 345 341 340 337 340 341 342 341 341 342 342 343 342 339 338 338 337 336 337 337 338 338 338 338 337 337 335 333 334 333 331 330 331 332 334 334 333 333 332 331 325 322 323 323 322 323 327
336 338 338 342 345 348 352 355 355 356 354 351 348 348 346 341 340 342 338 339 339 341 342 340 339 340 340 340 340 339 337 337 336 336 336 337 338 339 339 338 340 338 334 331 331 331 332 331 331 333 335 332 333 332 331 330 322 318 320 320 319 321 325
333 336 339 343 348 350 353 353 353 353 354 352 349 344 342 340 338 337 338 339 338 340 341 341 340 339 340 339 338 337 337 336 336 337 337 337 338 339 339 339 340 338 335 332 330 332 332 331 331 330 331 333 332 331 329 330 323 320 318 318 318 320 333
333 337 341 346 347 349 354 355 355 352 353 350 346 341 341 338 337 338 338 337 336 339 338 338 339 339 339 338 338 336 335 335 334 335 336 335 335 336 337 338 338 336 334 331 331 330 329 331 330 332 330 331 331 330 330 329 326 319 315 315 317 321 335
335 340 343 345 350 350 354 354 353 354 351 347 345 342 340 338 337 338 338 337 335 335 335 336 336 337 339 339 339 337 336 336 336 336 335 335 333 333 335 336 337 334 334 331 329 328 328 331 332 332 333 332 331 329 329 329 325 316 315 312 314 319 335
334 339 344 346 346 348 349 353 353 353 351 347 341 340 340 340 338 336 336 336 333 334 334 336 336 335 336 338 338 338 336 335 335 336 336 335 333 334 334 334 335 335 335 331 330 330 333 332 331 331 332 329 329 331 328 328 325 320 318 315 313 319 332
340 342 345 347 349 352 355 355 354 350 344 340 341 342 343 338 336 337 335 334 333 332 333 336 338 339 339 339 339 337 337 336 337 338 336 334 333 335 334 335 334 334 333 333 330 327 327 327 328 330 331 331 329 328 328 328 329 330 317 312 312 314 328
344 343 344 344 348 352 353 353 352 345 343 344 345 341 339 337 335 335 338 341 340 338 337 339 340 341 341 340 337 335 335 335 337 338 336 335 332 335 334 334 333 334 333 328 329 330 331 331 331 330 331 330 331 330 331 331 330 330 318 314 312 311 313
341 341 343 346 352 352 353 351 351 346 341 344 343 340 337 339 340 339 342 342 340 341 340 342 340 340 340 340 338 335 335 337 339 336 333 333 335 335 336 335 334 332 331 329 330 331 333 334 333 331 330 330 331 330 333 332 332 331 323 318 313 311 309
342 340 340 349 351 353 349 347 343 338 338 338 338 338 337 337 339 340 342 342 344 345 345 342 340 340 340 341 338 337 337 339 337 335 334 333 336 337 336 335 333 333 332 332 331 331 332 333 333 332 330 329 328 332 331 333 332 329 330 320 315 311 309
344 341 345 346 344 346 342 344 341 337 338 335 338 339 338 340 340 340 341 343 347 348 348 345 341 341 340 339 337 338 339 336 334 334 335 336 336 334 335 335 335 334 333 332 332 332 331 329 330 331 329 326 326 329 333 334 334 328 324 327 320 313 308
339 339 339 334 335 342 338 339 341 335 337 336 338 344 347 347 347 347 347 349 349 346 347 346 343 339 337 340 340 339 335 337 336 336 335 336 334 334 332 334 333 330 330 331 331 330 328 327 328 328 331 328 326 326 331 333 330 332 330 324 320 315 311
341 340 335 336 339 341 339 340 340 337 336 345 347 348 346 347 346 347 348 347 348 348 346 346 346 345 343 340 337 334 335 335 335 335 334 334 333 332 331 331 330 329 327 327 329 329 328 328 328 327 325 324 327 331 332 330 332 332 331 328 325 321 317
339 337 337 339 344 344 339 336 334 335 340 341 345 344 340 341 344 345 345 345 344 348 348 348 344 340 338 334 332 333 335 335 331 329 332 331 331 330 331 330 328 327 329 328 329 326 327 327 328 324 324 325 323 326 326 328 330 331 327 324 323 323 323
342 343 345 346 344 343 341 339 336 335 336 337 340 343 341 338 338 341 343 338 338 341 344 344 341 337 336 333 333 334 334 332 327 327 326 326 329 330 330 329 327 325 325 326 329 329 329 329 329 329 326 326 324 323 326 326 328 323 316 316 315 315 317
345 342 340 340 341 343 341 340 339 341 340 342 342 341 341 339 335 332 337 338 337 338 339 338 337 336 334 333 333 333 332 329 328 333 331 333 333 330 335 333 326 328 328 329 324 323 323 325 325 326 328 329 327 325 323 323 322 314 300 305 300 303 308
338 336 336 341 342 343 343 342 340 340 341 340 340 340 339 339 338 334 327 330 337 338 338 337 334 331 330 328 328 330 329 330 327 328 329 328 329 326 323 306 300 308 324 323 308 301 299 305 317 315 320 324 324 320 318 316 312 298 294 293 293 293 294
335 336 336 338 337 339 340 340 340 341 340 340 338 338 336 337 335 336 330 337 336 336 338 337 333 330 327 327 327 328 328 327 328 328 328 326 326 327 325 324 315 297 296 302 304 299 295 295 296 298 302 313 320 310 302 302 297 294 293 293 293 292 293
335 336 331 334 337 338 337 336 337 337 337 336 335 334 335 330 331 335 330 335 335 336 338 336 332 330 327 327 327 332 330 328 328 326 326 326 326 328 326 327 326 316 299 295 298 298 295 295 295 296 297 297 302 308 315 305 298 294 293 293 293 293 292

ECMWFFLT1_sfc_thetae_006.txt.gz
Theta_e
332 334 337 339 339 339 344 344 344 344 349 352 352 353 353 354 356 354 351 353 352 351 353 354 352 352 349 351 350 350 349 353 351 349 353 355 352 350 344 347 342 345 344 347 345 346 346 349 348 347 349 348 348 348 348 349 347 345 346 347 346 345 343
330 332 334 336 338 339 345 346 345 348 350 351 352 354 353 353 354 351 352 352 352 351 352 351 351 349 350 350 351 351 350 349 350 347 349 348 347 350 346 348 349 344 347 346 347 348 348 346 347 348 346 347 346 347 345 346 346 346 344 345 345 346 344
333 333 334 336 337 339 347 346 347 348 350 349 348 351 352 353 353 352 351 350 352 352 352 350 350 349 350 351 349 350 349 349 347 346 344 344 345 342 345 350 344 346 348 345 345 346 348 348 348 348 346 345 345 346 346 344 345 345 345 345 344 342 343
338 341 343 343 340 343 346 346 350 347 350 350 351 350 352 354 353 353 351 350 351 351 348 349 348 349 348 349 349 350 349 350 348 346 345 346 342 345 346 346 346 345 349 344 344 343 344 346 344 346 345 345 345 345 344 343 342 344 344 344 345 343 344
339 343 340 344 346 345 343 348 348 348 348 348 350 353 353 354 352 351 350 349 348 349 349 349 346 349 351 351 348 348 349 349 348 347 347 347 348 348 343 339 343 344 344 342 347 349 344 347 344 343 344 345 342 343 344 345 344 345 343 344 343 343 344
337 337 337 339 337 343 343 344 345 344 348 347 349 351 350 350 348 346 346 348 348 348 350 350 350 351 350 349 348 348 350 349 349 349 347 347 347 344 342 342 339 341 339 346 344 346 345 345 343 342 340 338 338 339 340 341 341 341 341 342 342 342 342
337 343 342 339 343 345 342 340 342 347 348 351 353 351 347 346 346 346 345 344 344 347 347 347 348 349 349 349 349 350 347 346 346 345 345 344 345 344 344 344 344 343 343 347 346 345 342 343 344 344 342 341 341 340 341 342 342 343 343 342 342 342 342
337 341 341 340 337 341 338 341 348 346 346 348 347 345 343 345 347 346 343 341 341 342 342 342 347 349 348 349 349 347 346 345 345 345 346 344 345 343 343 342 342 344 345 341 344 344 341 343 342 343 343 340 341 342 342 342 342 341 341 341 341 338 339
340 345 344 339 341 341 340 344 347 348 349 347 346 345 344 344 345 345 342 341 342 342 342 342 343 347 350 348 347 347 347 347 346 346 345 344 343 338 337 337 341 341 340 339 340 347 346 345 343 345 344 342 341 342 341 342 342 344 342 341 340 338 338
343 348 347 343 341 342 341 343 348 349 349 349 348 347 344 345 347 344 339 337 339 340 342 342 343 343 348 348 345 345 346 346 346 343 339 336 340 337 336 335 336 342 345 337 342 342 347 343 341 342 342 341 341 340 341 341 343 344 342 341 340 339 338
337 351 347 347 347 346 345 344 345 348 347 347 346 345 344 343 346 344 342 338 339 339 341 342 344 343 344 344 342 341 345 343 342 341 342 340 335 336 334 333 333 339 336 340 340 344 345 346 345 344 342 341 342 341 340 341 342 342 341 341 341 339 337
350 353 351 350 350 351 348 348 348 349 349 347 346 346 346 346 345 343 342 341 342 341 341 342 340 344 343 341 342 344 342 343 342 340 341 340 338 337 338 339 341 337 335 343 335 341 338 341 340 340 341 343 342 341 340 341 343 343 342 340 340 339 338
344 353 352 350 355 350 352 352 350 348 349 349 347 347 348 345 345 343 346 345 343 342 342 341 339 342 340 340 341 343 342 342 343 343 340 343 342 342 339 335 333 333 335 335 335 333 333 335 337 342 342 342 343 342 341 340 340 343 343 342 341 339 338
344 336 350 353 353 350 349 351 349 348 348 348 347 346 350 348 347 346 347 343 340 340 342 340 343 342 342 342 345 345 343 342 344 343 345 344 347 346 343 342 344 341 344 340 336 334 335 332 335 336 339 338 337 337 339 338 338 342 343 344 342 340 338
332 333 341 350 355 351 349 352 349 347 346 346 345 345 348 347 347 349 345 342 350 341 344 344 344 342 341 344 345 346 347 347 346 346 346 344 346 345 344 343 346 344 343 343 340 337 335 335 335 338 338 337 337 338 340 338 337 338 342 342 341 340 337
325 332 334 345 347 350 354 350 352 352 348 346 346 347 347 347 347 346 342 343 341 347 347 344 344 343 343 343 344 347 346 347 347 347 346 345 344 344 344 342 344 341 341 341 340 340 340 341 340 334 334 336 339 338 337 337 339 338 334 335 340 339 337
330 330 332 338 350 349 348 348 348 351 351 348 347 349 348 348 346 343 337 335 338 343 343 342 345 345 345 345 346 346 346 346 345 346 345 345 343 344 344 344 343 344 343 343 342 341 341 339 338 333 334 334 333 333 335 337 337 333 328 329 333 336 337
329 329 335 340 340 348 349 348 351 350 349 348 348 350 349 347 344 340 337 338 339 339 341 342 345 344 346 346 347 347 346 344 345 344 345 345 344 344 344 344 344 343 343 342 340 342 342 338 338 338 337 335 333 334 337 336 334 326 326 328 328 331 336
332 334 340 345 350 350 351 349 352 352 350 348 348 348 347 347 340 337 338 341 342 342 338 339 343 345 347 347 347 345 345 345 344 344 344 344 344 345 345 345 343 342 341 339 341 341 340 340 339 339 339 337 339 334 334 333 330 324 324 325 325 326 329
329 329 333 335 338 343 353 353 350 354 356 346 347 348 349 344 339 340 339 339 338 337 337 341 343 346 346 346 346 345 345 344 343 342 343 344 344 345 344 343 342 342 340 340 342 341 338 337 337 337 338 340 339 339 336 335 329 323 322 322 322 324 327
336 336 336 337 342 339 356 355 355 355 347 346 347 345 343 340 339 338 339 338 337 335 337 341 341 344 345 345 346 346 345 344 343 342 343 343 344 345 343 342 343 342 341 339 338 338 338 338 338 339 337 340 336 335 334 332 326 320 319 318 319 321 324
328 329 331 337 344 347 357 356 357 351 348 348 348 348 344 338 337 335 335 336 333 333 337 343 344 343 344 344 345 346 344 343 343 342 342 343 343 343 342 343 345 345 345 342 338 337 335 335 337 336 335 338 338 333 335 330 320 319 318 316 316 319 327
326 328 332 345 338 344 362 360 358 353 352 351 350 350 342 338 337 335 332 333 331 332 338 342 343 343 343 343 344 345 344 342 341 341 341 342 341 341 341 343 343 343 347 340 336 334 333 333 333 335 335 334 333 333 334 332 325 316 316 316 315 319 330
329 332 334 337 348 347 363 362 362 356 353 352 352 350 344 340 336 334 332 331 331 335 339 339 339 341 343 343 343 344 344 342 341 341 341 341 339 339 341 340 342 343 343 337 335 332 331 331 332 335 337 334 333 328 330 329 327 318 314 314 314 321 329
328 329 335 339 343 346 350 361 363 358 358 354 351 349 342 338 338 335 334 335 335 337 337 339 341 342 343 344 345 346 345 343 342 341 340 341 339 339 339 339 339 340 341 336 335 334 337 335 331 332 334 330 328 333 329 328 324 315 314 315 316 323 330
336 335 340 345 345 353 363 364 364 355 352 348 348 342 336 340 337 335 336 336 335 335 338 340 343 345 346 345 346 347 346 344 344 342 341 341 342 342 343 341 339 339 335 334 333 333 334 333 330 329 328 327 327 327 330 328 332 329 315 314 313 314 326
334 333 335 334 341 354 358 360 359 352 350 349 343 335 338 336 334 332 334 338 340 340 343 346 348 347 346 348 345 345 344 344 344 342 341 343 343 341 337 338 337 337 337 332 332 335 333 332 332 330 331 331 329 329 329 331 330 330 316 315 314 313 317
331 332 332 339 353 354 355 352 357 350 346 343 334 337 336 335 334 335 341 343 342 347 354 354 354 350 349 347 346 344 343 342 344 342 342 344 342 341 342 340 342 339 338 335 336 337 335 334 334 333 329 326 326 326 326 328 330 329 324 317 312 312 310
337 335 337 351 353 353 348 341 339 343 340 334 335 335 335 337 339 343 348 346 351 356 358 357 356 355 353 349 347 344 344 346 345 342 340 339 340 338 336 339 334 330 332 337 337 335 333 332 333 334 331 329 328 329 328 328 330 328 329 320 314 310 310
343 343 342 346 347 346 337 337 337 339 342 336 336 335 337 338 345 347 349 344 352 349 345 345 346 346 349 351 350 346 344 344 341 343 345 342 340 338 339 337 333 332 331 336 337 335 333 333 332 334 329 328 329 329 331 329 331 327 323 325 318 311 306
340 340 340 342 346 346 341 338 339 340 338 340 347 352 354 351 348 347 348 348 350 345 345 345 345 342 339 338 340 345 345 345 342 340 339 339 338 336 336 332 334 335 334 334 334 335 333 332 330 329 329 328 327 329 329 330 329 328 326 323 319 314 310
341 342 339 339 344 343 340 340 340 341 344 342 345 352 351 350 350 349 347 349 347 347 345 343 342 338 337 338 341 342 339 333 334 337 336 337 337 335 337 332 333 334 335 333 332 332 333 332 333 329 328 329 329 329 329 329 330 329 327 321 319 316 314
339 339 338 335 337 340 345 337 335 337 339 343 343 341 336 337 340 346 348 346 346 343 345 340 337 336 337 337 339 339 337 332 331 333 336 335 334 335 333 337 336 335 333 334 332 330 329 328 328 328 325 325 325 328 328 329 327 320 316 317 316 315 315
339 341 345 344 343 343 339 340 338 339 340 340 339 338 336 335 335 338 340 337 337 341 342 340 336 336 334 334 334 335 334 336 332 334 329 330 330 329 334 332 329 329 329 326 327 326 325 325 326 326 322 324 325 325 326 325 319 312 310 312 312 310 310
335 335 341 339 339 339 338 339 338 342 341 341 341 339 339 337 333 330 337 340 339 341 343 341 340 338 337 336 336 335 339 335 335 333 333 334 335 323 316 318 324 327 320 315 317 319 320 322 322 322 321 322 324 323 321 319 314 309 301 304 299 303 305
334 335 341 341 342 343 340 340 343 344 342 341 342 340 339 338 337 332 326 334 337 339 343 342 338 335 331 332 332 332 332 332 328 329 331 329 332 322 313 305 299 308 322 314 305 301 301 306 315 313 319 319 313 314 313 311 308 299 294 293 293 293 294
338 338 339 339 340 341 342 344 343 342 341 341 342 339 337 337 333 337 333 339 340 337 340 338 338 335 329 330 327 327 330 328 328 330 337 334 330 328 321 316 308 295 297 302 301 298 294 294 295 299 304 316 312 306 303 302 297 294 293 293 293 292 292
338 336 334 336 338 340 342 341 339 338 337 340 339 338 340 331 333 339 333 338 336 337 341 336 338 336 331 328 330 337 337 331 335 333 331 332 333 333 329 324 317 312 297 295 299 297 293 294 294 294 296 299 305 309 312 304 298 294 294 293 293 293 293

ECMWFFLT1_sfc_thetae_009.txt.gz
Theta_e
331 332 332 332 333 336 336 337 340 341 342 342 348 349 351 352 351 349 347 344 343 343 342 343 342 343 340 340 339 338 338 339 337 341 332 335 342 336 339 337 336 338 336 336 338 337 339 342 339 340 341 341 340 340 339 340 339 342 338 338 339 338 336
329 331 331 331 332 336 337 338 339 341 342 342 348 348 350 351 350 348 346 344 343 342 342 342 342 342 339 340 340 338 338 338 341 346 342 343 343 338 336 337 334 336 336 335 336 339 338 338 339 340 339 340 338 339 339 338 337 337 337 336 336 335 336
327 329 330 330 332 335 337 338 338 340 341 343 347 348 349 350 350 347 345 344 342 341 343 342 342 340 339 340 339 336 338 339 341 338 335 336 337 335 335 339 336 334 334 339 338 337 340 339 339 336 337 336 337 338 338 337 337 337 337 336 336 335 333
327 328 330 331 332 336 338 338 338 340 342 344 346 347 348 350 349 347 346 345 342 341 342 341 341 337 339 339 337 338 338 339 339 336 337 336 337 337 338 335 334 334 336 337 340 340 339 336 334 337 344 338 337 337 338 337 336 335 335 335 334 335 335
327 328 331 331 332 336 338 337 338 340 342 344 346 348 348 351 349 347 346 345 343 342 343 341 341 336 340 339 339 340 338 337 338 337 338 337 339 337 333 332 334 335 336 336 334 336 336 336 336 335 336 336 336 335 335 337 337 337 336 335 334 335 335
326 329 331 332 333 336 338 338 338 340 342 343 345 346 348 350 348 346 345 345 343 344 343 341 340 338 337 338 340 341 341 339 337 337 337 338 336 335 332 333 332 332 334 334 339 338 337 334 333 335 333 334 333 332 333 333 335 335 335 334 333 334 335
327 330 331 332 333 335 339 338 338 341 343 344 346 348 349 349 347 346 345 344 344 343 341 340 338 340 337 339 338 341 339 339 337 337 337 337 337 333 332 332 335 333 332 334 333 335 333 334 334 334 334 334 335 333 333 334 334 336 335 334 334 334 334
330 331 332 332 334 337 339 339 339 341 344 344 345 347 347 348 346 345 343 343 345 343 341 340 338 341 339 339 339 338 338 337 337 337 337 336 335 336 334 333 333 334 335 333 334 335 333 333 334 336 336 334 333 334 335 335 334 334 335 334 334 333 336
331 333 332 333 333 336 339 340 341 342 343 343 344 345 346 346 344 344 343 342 343 343 340 340 340 341 341 338 338 337 336 337 335 336 336 335 336 334 335 334 333 334 334 333 333 336 334 334 334 335 334 334 334 333 333 334 334 335 335 334 333 332 332
329 332 333 333 333 333 336 339 341 341 342 342 344 344 344 345 344 343 342 341 341 341 340 340 342 342 340 339 339 338 337 337 337 337 336 335 336 335 335 335 333 335 334 334 334 333 337 336 335 335 334 334 334 333 333 334 334 334 335 334 333 332 332
331 333 333 332 332 332 333 335 338 340 342 343 343 344 344 343 343 342 341 340 339 339 340 340 342 341 339 338 338 338 337 337 338 337 336 336 336 335 335 333 331 335 335 333 332 332 333 335 336 334 334 334 333 333 333 334 334 334 335 335 335 334 333
334 335 335 334 333 333 333 333 339 340 341 343 344 344 343 342 342 342 341 339 339 339 339 339 342 340 338 337 337 336 336 336 337 336 335 335 334 333 333 332 332 329 331 332 333 333 333 331 332 333 330 331 332 332 331 331 332 334 335 335 336 335 334
336 335 335 334 334 334 334 334 338 341 341 342 343 344 343 342 342 342 340 338 338 339 339 339 340 340 338 336 335 335 334 336 335 335 334 335 334 333 333 333 330 330 330 332 331 331 330 329 329 330 331 332 333 334 332 332 331 331 333 335 335 334 332
345 337 337 336 338 336 334 334 337 340 342 342 342 342 342 341 341 342 338 336 336 338 339 339 339 338 337 336 335 335 334 336 336 336 335 336 336 335 334 332 332 332 333 333 330 330 330 329 329 329 332 331 330 329 329 329 328 329 332 334 335 334 334
334 339 339 338 338 341 336 335 337 340 342 343 343 342 341 340 339 341 339 336 335 337 338 338 339 338 337 336 336 335 335 336 336 337 337 338 336 336 334 332 332 333 332 331 333 335 331 331 331 330 330 330 329 329 330 333 333 333 335 336 336 335 335
325 329 337 340 340 341 340 338 338 340 342 342 342 341 341 340 339 339 339 336 337 336 336 338 338 337 337 336 337 338 337 337 337 337 336 336 335 334 333 332 332 333 332 333 333 332 335 333 332 333 330 328 329 331 332 330 333 337 337 338 338 335 336
322 324 329 340 343 341 342 342 341 340 341 342 342 342 341 341 340 339 338 337 335 335 334 337 336 336 335 334 337 338 338 337 338 337 336 335 334 334 333 333 334 333 332 332 333 333 333 334 332 330 329 328 328 326 328 331 336 333 327 330 335 334 332
328 329 329 329 342 342 341 342 343 342 342 342 343 343 342 341 341 338 334 335 336 337 336 335 334 333 333 333 337 338 335 336 336 336 335 335 334 334 333 333 333 333 333 333 334 334 335 333 332 331 331 330 328 327 329 332 334 326 326 328 328 331 331
327 327 327 329 339 341 342 342 342 344 344 343 343 343 342 341 335 332 333 334 336 336 337 338 336 334 333 335 336 337 335 335 335 334 334 334 334 334 334 333 333 333 333 333 335 335 334 333 333 331 331 331 329 329 329 328 330 325 324 325 325 326 327
325 325 326 328 329 340 343 343 342 342 345 344 343 343 342 337 334 333 334 335 335 335 335 336 335 336 337 337 338 338 336 336 335 334 334 334 335 334 334 333 333 333 334 334 335 334 333 332 330 329 329 328 327 329 330 329 328 324 322 321 322 323 326
329 331 329 327 325 326 336 343 342 342 342 345 344 337 334 333 334 334 333 334 333 333 334 334 335 336 337 336 336 338 337 336 335 335 334 335 334 334 333 333 333 334 334 334 332 332 331 331 330 330 330 331 332 331 332 333 327 323 321 319 318 320 324
323 325 323 324 324 325 325 341 345 345 345 343 336 334 334 332 332 331 332 333 333 333 333 333 333 335 337 337 338 339 337 336 335 334 334 334 334 333 333 333 333 333 334 335 334 333 332 330 329 329 328 329 331 330 327 329 324 320 318 316 316 320 325
320 321 325 332 329 332 340 346 348 347 338 335 334 333 332 332 334 333 332 332 332 332 333 332 331 331 332 336 340 340 338 336 335 334 333 333 333 332 333 333 333 334 337 335 332 330 330 329 329 328 327 327 329 328 325 327 320 316 315 315 315 318 322
326 327 326 342 342 343 347 355 345 336 334 333 333 332 331 331 332 332 331 331 332 331 331 330 330 331 332 335 339 340 339 337 336 334 333 333 332 332 332 334 335 336 338 332 330 330 330 329 328 327 328 328 328 327 324 324 320 314 312 313 314 320 324
326 334 336 337 339 339 335 334 334 334 334 331 329 331 332 332 333 332 330 329 330 331 329 329 329 330 332 335 339 340 340 338 336 334 333 332 332 332 332 332 333 335 336 332 331 329 329 330 327 326 326 327 325 329 323 323 323 316 314 314 313 319 323
333 336 337 337 336 332 333 336 335 334 333 331 330 331 330 331 331 332 331 331 331 330 329 329 330 331 334 338 339 340 339 338 336 334 333 332 332 332 332 333 334 332 333 330 329 328 328 330 326 324 325 325 324 326 324 325 326 326 316 313 312 313 321
332 329 327 336 335 337 333 334 334 334 333 331 330 331 331 333 331 330 329 329 329 329 330 331 332 334 337 338 338 338 339 338 336 334 334 333 333 333 334 333 330 331 329 328 328 328 328 328 327 326 322 323 325 324 326 327 326 326 316 311 311 312 315
335 333 341 340 336 333 331 331 331 331 332 331 330 331 331 331 329 328 327 327 326 328 333 336 337 338 337 337 336 336 338 336 335 335 334 334 334 332 330 332 332 330 329 329 328 328 327 326 326 324 321 323 325 324 323 326 329 325 321 311 310 309 310
340 340 336 333 332 334 332 329 329 329 330 331 331 331 331 330 329 329 330 329 332 336 339 336 336 337 337 337 337 336 336 335 336 335 335 335 334 333 330 328 327 327 327 326 326 327 327 326 326 324 323 323 320 322 323 323 325 325 323 313 306 306 309
339 339 336 335 334 332 332 330 329 328 329 330 330 330 329 329 330 331 334 337 339 339 337 335 335 335 337 339 340 338 337 336 337 336 334 334 333 331 329 328 327 327 325 324 324 324 325 325 325 325 321 320 320 321 323 323 323 324 321 317 311 307 305
334 338 337 335 333 334 332 330 328 328 328 329 328 329 329 331 336 339 336 339 340 336 336 336 335 333 333 333 333 333 332 333 333 333 333 332 331 328 327 327 327 325 324 323 324 324 325 324 323 323 320 320 320 320 321 322 323 322 319 319 314 310 307
330 333 336 338 336 334 334 333 331 330 328 328 330 334 335 337 340 338 339 341 339 338 337 336 336 335 334 332 330 328 329 329 331 332 332 331 330 329 327 327 329 327 326 326 326 325 324 323 323 322 322 321 320 320 321 322 320 315 314 317 315 312 310
334 332 330 330 334 337 336 335 334 335 335 335 334 333 336 339 341 340 342 341 341 339 336 334 334 334 332 330 330 327 325 326 328 331 332 327 326 326 325 324 320 322 326 326 325 324 323 322 324 320 319 320 320 320 321 319 313 310 310 311 310 309 310
332 334 332 330 332 335 335 336 335 334 331 330 332 332 331 330 330 333 338 342 341 339 337 335 335 333 330 330 330 329 328 327 335 332 327 324 325 324 324 325 325 324 320 317 318 319 319 319 320 319 317 317 319 318 319 315 310 307 305 305 307 307 306
332 331 331 332 332 333 332 333 334 335 334 333 334 332 331 331 332 331 335 337 338 337 336 334 336 333 332 331 328 327 332 330 331 327 325 321 311 307 306 309 317 315 311 310 309 313 317 318 317 316 316 316 312 313 316 311 308 307 303 304 301 301 304
332 333 332 332 332 332 333 333 333 335 335 335 336 334 332 330 330 334 337 338 338 340 336 335 333 332 330 329 329 330 330 326 322 323 326 319 313 309 308 305 297 303 312 310 306 303 301 307 312 312 313 308 306 308 309 308 307 302 294 293 293 293 294
332 332 332 331 330 330 330 332 336 335 331 330 331 330 328 328 331 332 337 339 338 340 338 336 332 331 329 329 328 328 327 324 323 326 325 321 315 313 311 308 305 295 295 301 302 298 294 294 297 302 308 310 305 305 303 304 299 294 294 293 292 292 292
333 333 334 333 331 330 333 335 332 331 330 330 331 330 329 329 330 331 334 334 336 336 333 333 330 329 327 323 325 330 330 324 325 326 326 325 319 314 312 309 307 306 297 294 296 295 293 293 294 295 298 303 307 305 306 301 296 294 293 293 293 293 292

ECMWFFLT1_sfc_thetae_012.txt.gz
Theta_e
333 335 336 337 338 339 339 340 342 342 343 343 345 346 348 349 350 350 350 349 348 345 340 339 338 335 334 333 336 334 333 332 331 332 332 331 334 337 333 331 330 330 331 331 332 332 335 337 335 335 336 336 335 336 335 337 336 340 335 335 335 335 333
331 333 335 336 336 338 338 339 341 342 342 342 344 346 348 349 350 349 349 347 346 343 339 339 339 336 336 334 334 334 333 332 334 339 334 337 339 334 334 332 331 331 332 331 331 333 335 335 335 334 335 337 335 334 335 335 335 333 333 333 332 330 331
330 332 334 334 334 336 337 338 340 341 341 342 344 345 347 349 350 349 348 346 343 342 339 338 340 337 337 336 333 333 333 333 336 336 333 335 334 332 333 334 331 331 331 332 332 334 338 333 334 335 333 333 332 333 334 334 334 334 333 332 332 333 330
329 331 333 333 334 335 336 338 339 341 342 342 344 346 347 349 350 350 349 346 343 341 338 338 339 338 336 336 333 333 333 333 336 335 333 334 334 332 332 333 332 331 331 331 336 336 337 335 334 332 341 332 332 332 333 334 333 332 333 332 331 332 331
328 330 332 332 332 333 334 336 339 340 341 342 344 347 348 349 350 350 348 346 344 341 339 339 339 340 337 337 335 334 334 334 334 333 332 333 334 333 332 333 330 330 330 332 335 337 334 332 330 331 331 332 332 332 332 331 331 332 332 331 330 331 332
327 328 330 330 331 332 334 336 338 340 341 341 343 345 348 349 350 349 348 345 343 342 341 340 338 340 336 336 335 334 334 336 335 334 333 333 334 333 332 332 330 329 329 332 335 332 332 331 332 332 331 332 332 330 330 329 330 331 331 331 331 331 333
326 328 329 330 330 332 334 335 337 340 341 341 344 346 348 349 349 348 347 345 343 340 340 339 338 338 336 336 335 335 334 334 335 334 334 333 334 333 331 330 332 329 330 331 331 332 332 331 331 330 331 330 332 330 329 329 330 331 331 330 330 330 331
326 327 328 329 330 331 334 335 336 338 341 341 342 344 346 348 349 348 346 345 343 341 340 340 338 337 336 336 335 334 334 334 335 334 334 334 332 331 330 329 330 330 331 329 330 331 331 330 330 331 331 330 330 330 331 330 330 331 331 331 330 330 332
325 328 328 329 329 330 334 335 336 336 338 339 340 343 345 347 348 347 346 345 342 340 340 340 339 336 336 335 335 335 335 335 333 333 333 333 332 330 330 330 329 332 331 330 330 332 331 330 330 330 330 330 331 330 330 330 330 331 330 330 330 330 330
324 326 328 329 330 330 332 335 336 335 336 338 339 341 343 346 347 347 346 344 342 340 340 340 339 336 336 335 335 335 335 334 333 333 332 331 332 331 331 331 331 333 331 330 330 330 332 332 331 330 330 330 331 330 330 330 330 330 330 331 331 330 330
325 327 328 328 328 329 331 333 334 335 336 337 339 341 342 344 346 346 345 344 342 341 341 339 339 336 336 334 334 335 334 334 333 333 332 332 332 332 332 332 331 331 331 330 330 330 330 332 333 331 330 331 330 330 329 330 330 330 330 331 332 331 331
326 327 327 328 329 329 331 333 335 335 336 337 339 340 342 344 345 345 344 344 343 342 340 339 338 336 335 335 335 333 333 333 332 332 332 332 332 333 333 332 331 330 332 332 330 330 330 330 331 333 330 330 330 330 329 329 330 330 330 331 332 332 332
326 327 328 328 329 329 331 332 334 335 336 338 339 340 342 343 344 344 343 342 343 342 340 338 337 337 335 335 333 334 333 332 332 332 332 333 333 333 333 333 332 330 329 332 330 329 329 329 327 329 328 327 327 329 330 329 329 328 328 329 330 331 331
334 327 328 329 328 328 328 331 334 335 336 337 339 340 342 343 344 343 342 341 342 342 340 339 337 337 334 334 334 334 332 333 334 334 334 335 335 334 333 333 331 328 328 331 328 327 327 326 327 327 328 328 328 329 328 326 325 324 325 327 329 331 331
326 327 328 328 328 328 328 329 331 334 336 338 339 339 340 342 342 343 342 341 341 341 339 339 338 336 334 334 334 334 333 334 335 335 335 336 334 333 333 332 331 329 329 330 328 330 328 328 327 326 326 326 327 327 327 327 327 327 327 327 329 330 331
328 327 328 329 329 330 330 330 330 332 336 337 338 339 340 341 341 341 340 340 339 338 339 339 338 336 335 334 334 335 334 334 335 334 334 334 333 333 333 332 331 329 329 329 328 329 330 328 328 328 328 327 327 326 327 328 330 334 334 334 331 330 332
328 328 328 330 330 330 331 331 331 331 334 336 338 339 341 341 340 339 338 338 338 337 337 338 337 335 333 334 335 335 334 334 334 334 333 333 333 333 333 332 331 330 329 328 329 329 330 330 328 329 329 328 327 326 327 328 329 330 327 330 334 334 331
324 325 328 331 333 333 334 336 335 332 332 336 338 339 340 338 335 335 334 335 336 336 336 337 336 334 334 334 334 334 334 334 334 333 333 334 333 333 333 332 330 329 328 328 328 329 329 329 329 329 328 329 327 326 327 326 329 325 326 328 328 333 333
319 321 322 327 333 337 338 338 339 337 335 336 338 339 339 337 335 334 333 333 334 335 336 336 336 335 334 334 334 334 334 334 334 333 333 334 334 333 332 330 329 329 329 329 330 330 329 329 329 329 329 329 328 328 328 327 327 325 325 325 325 326 328
319 320 322 326 332 336 338 339 339 340 339 337 338 339 340 337 336 336 335 332 333 333 334 334 334 333 334 334 333 333 334 334 334 334 334 335 334 333 331 330 329 329 329 330 331 330 330 329 329 330 329 330 329 329 328 326 326 324 322 322 322 323 325
318 320 320 322 325 330 334 336 336 336 338 337 338 336 334 332 332 333 331 332 331 332 333 333 332 331 331 332 333 335 335 335 334 335 335 334 333 332 331 330 329 329 329 330 329 329 329 329 329 330 331 329 328 327 326 327 325 322 320 318 317 319 323
321 323 322 323 321 320 324 335 337 337 335 335 333 333 332 331 332 330 330 332 333 333 333 333 333 333 333 333 334 333 334 334 334 333 333 332 332 331 330 330 329 329 330 330 329 330 330 330 330 329 329 329 327 326 326 326 317 318 317 316 316 319 322
321 320 320 322 323 327 331 338 336 334 333 331 331 331 331 331 331 331 331 331 332 333 332 331 331 331 333 333 333 333 333 334 335 333 331 331 331 330 330 330 329 330 331 330 330 329 329 329 329 329 327 327 326 325 325 323 319 315 315 315 315 317 319
323 333 339 338 336 336 335 334 332 332 330 329 330 330 331 331 331 331 330 331 331 331 330 330 330 332 332 332 333 333 333 334 334 334 333 331 330 331 331 331 331 330 332 330 329 329 330 329 328 328 327 326 325 325 322 321 320 316 312 313 314 318 318
337 338 337 337 336 334 333 332 331 330 330 329 328 329 331 331 330 330 329 330 330 329 328 329 330 330 331 331 332 332 333 335 336 334 333 332 331 331 331 331 331 331 332 331 330 330 329 330 327 324 323 325 325 331 323 319 319 316 312 312 312 318 317
333 333 333 335 336 335 333 333 331 329 328 328 328 330 330 330 330 329 329 330 330 328 328 329 330 331 331 330 330 332 335 337 337 335 333 332 332 332 331 332 331 330 331 331 330 329 327 329 326 322 323 324 324 325 322 321 322 322 314 313 311 313 318
334 335 334 334 335 338 332 331 330 329 328 328 329 329 329 329 329 328 328 328 328 328 328 329 330 331 330 330 331 332 336 338 337 335 334 333 332 332 332 331 330 330 332 330 328 325 325 325 325 324 321 321 322 321 322 322 321 321 312 307 309 311 315
334 334 335 337 338 335 332 330 328 328 327 328 329 329 329 328 328 327 327 326 326 328 329 329 329 329 329 329 330 332 334 337 338 337 335 334 332 329 329 329 329 328 328 326 326 324 322 322 324 323 321 321 321 320 318 324 328 320 312 309 306 308 310
331 331 331 331 331 333 333 329 328 327 326 327 328 329 329 328 327 327 327 325 326 328 328 329 329 329 329 330 330 332 334 336 337 337 336 334 332 330 327 326 326 325 326 323 321 321 321 321 322 322 319 319 316 315 318 319 325 320 314 307 305 305 307
332 331 331 331 332 332 332 329 328 327 327 327 328 328 329 329 327 327 326 325 327 327 329 329 329 329 329 331 331 331 330 331 331 330 330 329 328 328 325 324 324 323 321 321 322 320 318 319 322 321 319 318 315 315 319 318 319 319 318 313 307 305 304
331 331 331 330 330 332 331 330 327 327 327 327 327 328 328 328 327 328 326 326 327 327 328 328 329 329 329 328 328 328 329 330 330 331 330 328 328 326 325 323 321 320 321 322 319 319 318 320 322 321 319 316 316 315 316 320 318 316 317 317 313 309 306
330 331 331 330 330 330 329 329 328 327 326 326 327 328 329 328 328 328 328 330 332 331 331 331 330 328 327 328 329 328 329 328 328 329 329 327 327 326 324 322 323 319 318 319 318 318 319 318 321 319 317 316 316 316 317 316 311 309 310 316 314 311 309
328 330 330 329 329 331 327 327 326 326 326 325 326 327 327 328 330 331 335 333 331 330 330 330 329 328 327 327 327 328 328 327 327 327 326 324 323 324 325 323 321 321 321 320 319 320 319 321 321 319 317 317 316 317 319 314 308 305 305 305 306 307 309
328 327 328 329 331 329 327 326 325 325 325 325 326 327 327 330 333 335 334 333 333 331 330 330 329 328 327 326 325 326 326 326 334 327 321 320 321 320 319 319 320 320 321 321 321 319 318 320 320 318 318 315 315 316 319 313 307 306 304 303 304 305 304
326 325 327 330 329 329 327 327 327 327 328 328 328 329 328 328 332 336 334 334 333 329 330 329 330 329 327 326 324 325 328 328 327 321 318 311 308 305 305 307 313 313 308 308 307 312 318 317 315 315 313 312 310 315 318 313 308 308 305 305 303 302 303
325 326 326 328 330 331 331 330 329 328 328 328 327 326 326 328 332 334 334 335 335 333 330 331 332 330 328 326 325 326 328 327 324 320 316 311 309 308 306 303 296 300 310 308 306 302 300 307 311 312 308 305 304 307 308 307 307 300 295 294 293 293 294
325 325 326 328 330 330 330 330 331 331 328 325 325 326 327 328 329 329 331 332 334 334 332 332 330 328 327 326 325 326 327 325 323 320 315 312 311 310 309 306 304 295 294 299 300 297 294 296 300 303 306 310 305 305 302 301 297 294 293 293 293 292 292
329 327 328 328 329 330 330 330 329 327 325 324 323 323 325 326 327 328 330 329 330 329 333 333 330 328 326 326 325 328 327 322 323 321 316 313 312 311 311 309 307 306 298 294 295 295 293 294 296 297 299 301 305 304 304 300 296 294 293 293 293 293 292

ECMWFFLT1_sfc_thetae_015.txt.gz
Theta_e
330 333 336 338 339 339 340 342 343 343 344 344 345 346 347 348 348 348 348 348 348 347 348 348 346 344 344 341 337 333 334 333 333 330 329 328 330 332 330 330 330 329 329 328 328 333 333 335 335 335 334 335 332 334 332 336 334 336 333 333 332 333 330
329 332 335 337 338 339 340 342 343 343 343 344 345 346 347 347 348 348 348 348 348 348 348 347 346 342 342 340 336 332 332 332 333 335 331 332 336 332 331 330 329 329 329 329 330 332 334 334 333 332 332 335 333 332 332 333 333 332 332 330 330 329 329
328 331 334 336 337 338 339 341 342 344 343 344 345 346 347 347 348 348 348 348 348 348 348 347 346 342 339 338 335 332 332 330 331 332 329 330 333 332 331 331 329 329 330 330 331 331 335 333 332 331 331 333 333 331 331 330 331 331 330 329 329 330 327
328 331 334 336 337 338 339 340 342 343 344 344 344 346 346 347 348 349 349 348 348 348 347 347 345 342 338 335 334 332 331 330 331 331 330 331 332 331 331 330 329 329 330 329 331 332 335 333 331 330 339 330 329 329 328 330 330 330 331 330 329 329 329
328 330 333 335 335 336 337 339 340 342 343 345 345 346 347 348 349 349 349 349 349 348 348 347 346 343 339 335 334 333 332 330 331 331 330 332 332 331 330 330 329 329 329 330 330 334 332 331 329 330 331 330 328 328 330 329 330 331 330 329 329 329 329
326 328 331 334 335 336 337 338 340 342 343 343 344 344 346 347 348 348 349 349 348 349 348 346 344 342 338 335 334 333 332 331 332 332 331 332 331 329 329 331 330 329 328 329 332 332 331 331 330 330 329 330 331 330 329 329 329 329 329 327 329 329 330
326 328 330 332 334 335 335 337 339 340 342 344 344 345 346 346 347 348 349 348 348 347 346 345 343 341 338 336 333 334 332 331 332 331 331 332 331 330 329 330 332 329 329 329 330 331 330 329 330 329 329 329 331 329 328 328 327 327 326 326 328 328 328
326 327 329 331 333 334 335 336 338 339 341 342 342 342 343 345 346 347 347 348 348 347 346 344 342 340 338 336 334 332 332 332 332 332 331 331 331 331 330 330 331 329 329 328 329 330 330 329 329 330 329 328 328 328 328 328 327 327 326 328 328 328 329
326 328 329 330 331 332 333 334 336 338 339 339 340 341 342 344 345 346 347 347 347 346 345 344 343 340 338 336 334 333 333 332 332 332 331 331 331 331 331 331 330 330 329 328 328 330 330 329 329 329 328 327 328 328 327 328 328 328 327 328 328 328 328
324 326 327 329 330 331 332 333 334 335 337 338 339 339 341 343 344 346 347 347 347 345 345 344 342 340 337 336 335 334 333 333 333 332 331 331 331 331 331 331 330 331 329 329 328 328 330 329 328 327 327 327 328 328 328 328 328 328 328 329 328 328 328
324 325 326 327 327 328 329 330 331 333 336 337 338 339 340 342 343 345 346 347 346 346 346 344 342 339 337 336 335 335 333 334 334 332 332 332 331 331 331 330 330 331 330 329 328 328 328 330 330 328 327 328 328 328 328 329 329 328 328 329 329 329 328
323 324 325 325 326 326 326 330 332 333 334 336 338 338 339 341 343 344 345 346 347 346 345 343 342 339 336 335 335 334 334 334 333 332 332 332 332 332 331 331 330 330 332 330 329 328 328 328 328 331 329 328 328 328 328 328 328 328 328 328 329 329 329
323 323 324 325 326 327 327 327 330 332 333 335 337 338 339 340 342 344 345 345 346 346 344 343 341 337 335 334 334 333 334 333 333 334 333 333 332 332 331 331 331 330 330 332 331 329 328 328 328 330 330 330 329 329 328 328 327 327 327 327 327 328 328
329 323 324 325 325 325 325 327 329 331 332 333 335 337 338 340 342 343 344 345 346 345 344 343 339 334 333 334 334 334 334 334 335 334 334 334 333 332 331 332 331 331 331 332 330 329 329 328 328 328 330 329 327 327 328 327 327 326 326 326 326 327 327
321 322 323 324 324 325 325 326 327 330 331 333 334 335 337 338 340 342 344 345 345 345 343 341 334 332 333 334 334 334 334 335 335 335 335 334 332 332 332 332 333 333 331 331 331 331 329 329 328 326 327 327 327 327 329 328 327 326 325 324 324 325 325
321 322 323 323 324 325 326 327 328 329 331 332 333 334 335 337 338 340 342 343 344 344 342 337 333 332 333 333 334 334 333 335 334 334 334 334 333 333 333 332 332 332 330 329 329 329 329 327 327 327 326 326 326 326 327 327 327 331 331 331 327 325 326
321 322 322 323 324 325 326 326 326 328 329 331 332 334 335 337 338 340 341 342 342 342 339 335 332 333 333 333 334 332 334 334 334 334 334 333 333 333 333 332 332 332 331 329 328 328 328 328 326 327 327 327 327 326 327 327 328 330 327 328 332 330 326
321 321 321 323 324 324 325 326 326 326 328 331 333 334 335 336 337 338 339 341 340 339 337 335 333 333 333 333 333 333 333 333 331 332 333 333 333 333 328 328 330 331 330 329 328 328 328 328 327 327 327 328 327 327 328 327 330 325 325 326 327 330 330
321 321 322 323 326 328 328 330 330 330 329 330 333 335 336 337 337 337 336 337 336 336 335 333 333 332 333 333 334 333 332 331 331 332 333 333 333 332 330 331 332 331 330 329 328 328 327 327 328 327 327 327 327 327 328 328 328 324 324 324 324 325 327
321 322 323 325 329 332 333 333 333 334 333 331 332 336 337 339 337 334 335 335 335 335 334 333 332 332 333 333 333 331 330 331 332 332 332 333 333 332 331 331 331 332 331 330 329 327 327 327 327 327 327 327 327 328 328 328 327 323 322 321 321 322 325
318 321 322 323 325 329 331 333 333 334 333 333 334 335 336 335 333 331 333 334 334 334 333 333 332 332 332 332 331 331 329 330 331 332 332 332 331 330 330 330 331 331 331 330 328 327 327 327 327 327 328 328 329 328 328 329 326 321 320 319 318 319 323
317 318 318 320 323 324 328 332 334 335 334 335 335 335 335 332 331 331 331 333 333 333 333 333 331 331 332 332 331 330 329 330 331 332 332 330 331 331 330 330 331 331 330 330 328 328 328 328 328 328 328 329 329 328 328 328 322 320 319 318 316 319 322
316 317 318 318 321 323 328 331 333 335 334 333 333 333 332 331 331 330 330 331 332 332 332 332 331 331 331 332 331 332 332 332 332 331 331 331 329 329 330 330 331 331 331 329 327 326 326 327 327 329 328 329 328 327 326 325 321 315 314 315 315 318 317
322 322 327 329 331 332 331 332 333 334 333 331 331 331 331 330 330 329 329 330 331 331 331 331 330 331 332 331 331 332 333 332 331 331 331 330 330 330 331 331 332 331 331 328 327 326 327 327 327 328 329 328 326 325 324 324 321 314 313 312 313 318 317
333 335 335 334 333 333 332 331 332 333 331 329 329 329 330 330 330 329 328 329 330 330 330 329 330 331 331 331 331 333 333 332 332 331 331 330 331 331 331 331 331 331 330 329 327 327 327 329 327 325 324 325 326 331 327 321 319 315 313 312 312 317 316
333 334 334 334 333 332 332 332 332 329 329 330 329 329 329 330 330 330 329 329 330 329 329 329 330 331 332 331 332 333 332 332 332 331 331 330 331 331 330 331 330 328 327 328 328 327 326 328 326 324 323 324 325 327 322 319 321 319 311 312 311 313 317
333 334 334 333 332 337 330 329 329 329 329 328 328 329 330 330 329 329 329 329 329 328 329 330 331 331 331 331 332 332 332 331 331 330 330 331 331 330 329 327 326 326 327 328 327 326 325 324 324 323 323 322 322 321 321 320 320 320 310 307 309 311 315
332 333 334 335 334 330 326 326 326 325 326 326 329 330 330 329 329 329 329 328 327 329 329 329 329 330 330 330 330 330 330 331 331 332 333 332 331 328 326 325 327 327 327 326 325 324 322 323 323 323 321 319 320 320 317 323 326 317 310 308 307 308 310
327 328 329 329 328 329 328 325 324 325 325 328 329 329 329 329 328 328 328 326 325 328 328 328 328 328 328 327 328 329 329 330 334 335 334 332 331 328 326 326 327 326 326 325 323 322 321 321 322 321 320 318 318 317 319 320 324 318 314 306 304 303 305
327 328 330 331 331 329 329 325 325 325 326 327 328 327 327 326 326 327 326 323 325 327 328 327 327 327 327 329 327 327 329 330 331 330 331 331 330 329 328 326 324 324 324 323 322 320 319 319 320 321 320 319 317 316 320 320 320 317 315 310 305 302 301
329 330 329 329 330 331 329 327 326 325 324 325 326 326 326 325 327 328 324 323 326 326 326 326 327 326 326 325 326 327 327 328 329 330 329 331 331 329 328 324 323 322 321 321 320 319 318 317 319 319 319 318 317 316 319 319 316 314 316 314 310 307 306
329 330 330 329 327 329 329 327 325 323 324 324 325 326 327 325 327 327 325 327 328 326 326 327 327 326 325 326 327 328 329 329 330 330 330 330 329 329 327 325 324 323 320 320 319 318 316 318 319 318 318 317 315 316 319 317 314 310 310 316 314 311 308
327 328 328 328 328 330 326 325 325 324 325 324 325 326 327 328 329 329 329 328 328 328 328 328 328 328 328 328 328 328 328 328 328 327 326 325 324 324 325 324 323 322 321 319 318 317 317 319 319 319 317 317 315 316 319 315 309 305 304 303 304 306 307
327 328 328 328 328 328 325 326 325 325 325 324 324 325 328 330 329 328 328 328 329 328 327 328 327 326 325 325 325 325 325 325 331 328 322 321 321 321 320 320 321 320 319 318 318 317 317 319 320 319 318 317 315 317 319 313 307 304 303 301 304 305 304
326 325 325 327 328 328 325 324 324 324 324 324 324 327 330 330 329 329 328 328 328 327 326 327 329 327 325 324 324 324 328 326 328 325 322 314 308 305 304 306 311 313 309 307 307 312 319 320 319 319 318 317 315 317 318 316 312 310 305 305 304 303 303
324 325 325 327 327 325 325 326 325 325 325 325 326 328 330 329 329 330 331 331 330 329 328 328 327 327 326 325 325 325 325 326 324 319 316 312 310 307 305 302 295 298 308 307 307 303 300 309 314 315 311 306 304 308 314 314 310 298 295 294 293 294 295
325 325 326 327 326 325 325 325 327 326 325 324 326 329 329 328 330 330 329 328 330 330 328 326 324 324 325 325 324 324 324 324 319 316 313 311 310 308 307 305 304 295 295 299 300 298 296 297 300 303 306 311 303 302 302 301 296 294 293 293 292 292 292
324 325 327 328 327 326 326 326 325 324 324 325 327 327 327 328 328 326 326 326 327 327 325 326 326 324 324 325 323 324 326 322 320 317 313 310 309 309 309 307 306 305 298 295 294 295 294 295 295 296 299 302 304 302 301 297 294 293 293 293 293 292 292

ECMWFFLT1_sfc_thetae_018.txt.gz
Theta_e
327 329 331 333 334 336 338 339 340 340 341 341 342 344 345 346 347 347 347 347 347 347 347 348 348 348 348 348 347 346 343 341 339 336 334 333 333 332 331 332 333 332 331 332 332 333 335 338 338 338 337 339 337 337 337 339 338 338 337 338 337 337 335
326 328 331 333 334 336 338 340 341 341 342 342 343 344 345 346 347 347 347 347 347 347 348 348 348 348 348 348 346 344 341 339 338 339 334 333 336 333 332 332 333 331 331 332 332 334 336 337 337 337 336 339 338 336 336 338 338 337 337 336 335 335 336
326 328 330 332 334 335 337 339 341 342 343 343 344 344 345 346 348 348 348 347 347 348 348 348 349 348 348 348 345 342 341 338 337 336 332 331 332 332 333 333 332 332 332 332 333 335 337 336 336 336 336 336 338 336 336 336 338 337 336 336 336 336 334
326 327 330 333 335 336 338 339 341 342 344 344 344 345 346 347 348 349 349 348 347 348 347 347 348 348 347 347 345 341 339 337 336 335 333 332 332 333 332 332 332 332 332 332 334 335 337 336 336 334 340 335 336 336 335 335 336 336 336 335 334 334 334
326 328 329 331 333 335 337 338 340 342 343 344 345 346 347 348 349 349 349 349 349 348 348 348 349 349 348 347 345 342 339 336 335 334 332 333 334 333 332 331 331 331 332 332 333 336 337 335 334 334 335 335 334 334 334 334 334 335 335 335 334 334 334
324 326 328 330 333 335 337 339 340 342 343 343 344 345 347 347 348 348 349 349 349 349 349 349 348 349 346 345 344 341 338 336 334 334 332 333 333 332 332 332 331 331 330 331 334 334 334 335 334 334 333 334 333 333 333 333 334 334 335 334 334 333 334
324 326 328 330 332 334 336 338 340 342 343 344 345 346 347 347 347 348 349 348 349 348 348 348 348 348 347 344 342 341 336 333 333 332 333 333 332 332 332 332 333 331 331 332 332 333 332 333 333 334 334 333 335 334 333 333 333 333 333 333 333 333 333
325 326 328 330 332 333 335 337 339 341 343 344 344 344 345 346 347 347 347 348 349 349 348 348 348 347 347 344 340 338 334 333 333 333 333 332 332 332 331 331 333 332 332 330 331 333 332 332 333 334 333 332 332 334 334 333 333 332 332 332 331 332 333
325 327 328 330 331 333 335 337 338 340 341 342 343 344 344 345 346 346 347 348 348 348 348 349 348 348 347 342 337 336 335 334 333 332 332 332 331 331 331 331 332 332 331 330 330 332 332 332 332 333 333 332 333 332 332 332 332 332 331 331 331 332 332
324 325 327 329 331 333 335 336 338 338 339 341 342 343 343 344 345 346 347 347 348 348 348 349 348 347 344 339 336 335 335 334 333 332 331 331 331 331 333 332 332 333 331 330 330 330 332 332 331 332 331 331 332 331 331 331 331 331 331 331 331 331 331
323 325 326 327 329 331 333 334 335 337 338 339 341 342 343 344 344 345 346 347 347 348 349 349 349 346 342 337 335 335 335 334 333 332 331 332 332 332 332 332 332 333 331 330 330 330 330 332 332 331 330 330 330 330 330 331 331 331 331 331 332 331 332
322 324 325 326 328 328 330 333 334 336 337 339 340 341 342 343 344 344 345 346 348 348 348 348 348 345 340 336 335 334 334 334 333 332 331 332 332 333 332 333 332 332 333 332 330 330 330 329 330 332 330 330 330 330 330 331 331 331 331 331 332 332 332
322 323 324 325 326 328 329 330 332 334 336 337 339 340 341 341 342 343 344 345 346 348 348 348 346 342 337 335 335 334 334 334 333 333 333 334 333 333 333 332 333 332 332 333 331 330 330 330 329 331 332 331 330 330 330 331 331 331 331 331 332 332 332
328 322 324 324 325 325 327 329 330 332 333 335 337 339 340 341 342 342 343 344 345 347 347 346 343 338 337 335 335 334 334 334 335 334 334 335 334 333 333 333 333 332 332 333 332 331 330 330 330 330 331 331 331 331 332 331 331 330 330 331 331 331 331
320 321 321 322 323 325 325 326 328 330 331 333 335 336 338 339 340 341 342 343 345 346 346 345 341 337 336 335 335 335 335 335 335 335 335 335 334 333 333 333 333 333 332 332 332 332 331 332 331 330 330 331 331 331 332 330 330 330 330 329 329 330 329
319 320 321 321 322 323 325 326 327 329 330 331 333 335 336 337 338 339 341 342 343 345 344 342 339 336 335 335 335 335 335 335 335 334 335 335 334 333 333 333 334 334 332 332 333 332 333 331 331 330 330 329 329 330 330 330 331 333 331 331 331 329 328
319 320 320 322 322 323 324 325 326 327 329 330 331 333 335 336 338 339 340 341 343 344 341 340 337 336 335 335 335 336 336 335 335 334 334 334 334 333 332 333 333 333 333 333 333 331 331 331 330 329 329 328 328 328 329 330 331 330 326 327 331 332 330
318 319 320 320 321 322 323 324 325 326 328 329 331 332 333 334 335 337 338 340 342 342 339 338 336 335 335 335 335 335 336 335 335 333 332 331 332 332 333 333 333 332 332 332 332 331 331 330 330 330 329 329 328 329 330 330 330 324 324 326 327 330 333
318 319 320 320 322 324 324 325 326 327 328 330 331 332 333 335 335 336 338 340 342 341 337 337 335 335 335 335 335 335 335 335 334 333 331 328 329 331 333 332 332 331 331 331 332 332 331 330 330 329 329 329 329 328 330 330 327 324 324 324 324 325 328
319 320 320 321 323 325 325 327 328 328 329 331 333 335 336 337 336 337 339 341 340 338 337 336 335 335 335 335 335 334 333 333 333 330 327 327 329 330 331 331 331 330 330 330 330 330 330 330 329 329 329 329 329 329 330 330 327 323 321 321 321 322 325
320 322 322 323 325 327 328 329 330 330 330 330 332 334 335 335 337 337 338 338 338 338 336 335 335 334 334 334 334 333 332 332 332 328 327 328 328 328 330 331 331 329 329 330 330 330 330 330 329 329 330 330 330 329 329 330 325 322 321 319 318 319 324
321 323 324 326 327 329 329 330 331 332 332 334 333 334 335 336 336 335 336 337 337 337 336 335 334 334 334 333 333 332 332 332 330 328 328 330 329 329 329 331 331 330 331 332 332 332 331 331 330 330 330 330 330 329 330 331 323 321 319 317 317 320 327
323 325 326 327 329 330 331 333 334 334 335 334 334 334 335 334 334 334 334 335 335 336 335 334 333 333 333 334 333 332 332 330 328 328 328 329 328 328 329 330 331 331 332 331 331 331 330 330 330 331 330 330 330 330 330 331 325 317 316 315 315 320 325
320 322 322 324 326 328 331 333 334 335 335 333 333 333 333 332 333 333 333 333 334 334 333 333 333 333 333 333 333 332 331 330 329 329 329 329 327 329 330 332 332 332 334 332 331 330 330 331 330 331 331 330 330 331 330 330 324 315 312 312 314 320 323
330 330 329 327 328 330 332 333 334 333 332 332 331 329 331 331 332 332 332 332 333 333 333 332 333 333 333 334 333 332 331 331 330 330 329 329 329 330 331 332 332 333 334 333 332 331 332 332 330 330 330 331 331 332 331 329 322 311 311 311 311 320 322
330 331 331 331 331 331 332 334 334 331 330 330 328 329 330 331 331 332 331 332 332 332 332 332 333 334 335 335 333 332 331 331 331 331 330 330 330 331 332 333 333 332 332 332 332 331 331 331 331 329 329 330 332 332 331 327 326 323 311 309 311 317 323
332 332 331 331 332 335 330 329 329 328 328 327 328 329 330 331 331 330 331 330 330 330 332 334 334 334 334 334 333 332 332 331 332 331 331 331 331 332 333 333 332 331 331 331 331 330 330 330 330 329 327 327 328 328 326 326 325 321 309 307 309 312 318
332 333 333 336 335 331 328 328 327 327 327 327 329 330 330 330 330 329 329 329 329 331 332 333 333 333 333 333 333 332 332 332 333 333 333 333 332 332 332 331 332 331 331 331 330 329 328 327 328 327 325 325 325 325 324 327 326 319 310 308 307 308 312
330 330 329 329 329 333 329 326 325 325 326 328 329 329 329 330 330 330 330 328 330 330 331 331 332 332 332 332 332 333 333 333 334 333 334 334 333 331 329 329 329 329 329 328 327 326 325 326 326 325 323 322 321 320 322 324 325 318 315 307 304 303 306
327 328 329 331 330 330 329 325 326 325 326 327 327 328 329 330 329 329 329 328 328 329 331 330 330 331 331 333 332 332 332 332 333 333 333 332 331 331 330 329 329 329 328 328 326 325 324 324 325 325 323 322 321 319 321 323 325 317 314 309 303 301 301
327 328 328 328 330 333 328 327 325 325 325 326 327 327 328 329 330 331 327 326 329 329 329 329 329 330 330 329 330 330 331 332 332 332 331 332 331 329 329 329 329 327 327 326 325 324 324 324 324 323 321 321 321 320 320 321 320 319 315 310 306 303 303
327 328 328 328 329 332 329 327 326 325 325 325 326 327 328 328 330 329 327 328 330 329 329 329 329 329 328 329 329 330 331 331 331 332 332 332 331 330 331 330 328 327 325 324 324 324 324 323 321 320 320 321 321 320 320 319 318 317 318 317 314 310 307
327 327 328 328 329 332 328 327 325 325 325 325 326 326 327 327 329 328 328 329 329 329 329 329 329 329 329 329 330 330 331 331 330 330 330 330 330 330 330 330 329 327 325 324 323 321 321 321 320 320 319 319 320 321 320 318 316 316 315 312 312 313 312
326 327 326 327 330 330 327 326 325 325 325 325 325 327 329 329 329 329 329 329 329 329 329 330 330 329 328 328 329 329 330 330 335 331 328 329 329 328 328 326 326 325 324 322 321 320 320 321 322 321 320 320 320 320 319 317 315 314 312 309 310 310 307
325 325 325 326 328 328 326 326 326 326 325 325 326 328 329 329 329 329 329 329 329 329 329 329 330 328 327 327 328 328 331 329 332 330 328 318 311 306 306 310 314 320 318 313 315 321 322 322 322 324 323 323 320 319 317 317 315 316 308 311 305 307 307
324 324 324 327 327 326 327 328 326 326 326 325 326 329 329 328 328 329 329 329 329 330 330 330 328 327 327 327 327 327 329 327 326 323 319 315 311 308 305 301 296 300 312 311 308 304 301 305 321 324 322 318 314 316 321 320 320 304 298 297 295 295 297
325 325 326 327 325 324 325 325 328 326 326 325 327 329 329 328 328 328 329 329 329 330 330 329 328 327 327 326 324 324 325 325 322 319 316 314 312 311 309 305 303 294 294 299 301 298 297 297 302 308 311 316 310 305 303 304 298 295 294 293 293 292 292
325 325 327 328 326 325 325 325 326 326 326 326 328 329 328 328 328 328 328 328 328 328 328 328 328 326 324 324 324 327 329 323 322 318 315 312 312 313 312 310 309 307 297 293 294 295 294 295 297 299 300 302 306 303 303 298 294 293 293 293 293 292 292

ECMWFFLT1_sfc_thetae_021.txt.gz
Theta_e
335 336 338 340 341 340 341 344 345 345 347 348 349 349 350 352 353 355 355 356 356 357 359 359 359 359 359 360 361 362 361 361 361 359 356 355 353 352 350 349 350 351 350 348 348 349 349 352 353 353 353 353 351 351 351 351 350 348 348 348 347 346 344
332 334 336 339 340 341 343 344 347 346 347 348 348 350 350 353 354 354 355 357 357 357 359 359 359 359 360 360 361 362 361 360 360 358 356 354 353 352 350 350 349 349 350 350 350 351 351 350 351 352 352 352 350 351 349 351 350 349 346 347 346 345 346
332 333 335 337 339 340 343 344 346 347 348 347 348 349 350 353 355 355 355 356 357 358 360 359 359 359 360 361 361 361 361 360 358 356 354 352 350 348 349 350 349 349 348 350 350 349 349 349 351 351 350 350 349 350 349 350 350 348 348 348 346 345 345
333 333 335 339 341 344 344 344 346 346 347 347 348 349 351 355 356 356 357 357 357 358 358 359 359 359 359 360 360 360 360 359 357 355 353 352 350 349 347 347 349 348 348 347 347 348 348 349 348 350 349 349 348 348 348 348 347 348 348 348 346 346 345
334 335 335 337 338 341 342 344 345 347 347 347 349 352 354 355 356 356 357 357 357 357 358 359 359 360 360 360 359 360 359 358 356 354 353 351 351 349 347 344 345 345 346 347 347 348 348 348 348 348 348 349 347 348 348 348 347 348 347 348 345 345 344
333 334 335 336 337 340 342 343 344 346 347 347 349 351 352 352 353 353 354 356 357 358 359 360 359 359 359 359 360 359 359 357 355 354 352 350 349 347 346 345 344 345 345 346 345 346 347 347 346 346 345 344 344 344 345 346 346 346 346 347 345 344 342
333 335 336 337 338 339 341 342 343 346 348 348 350 352 351 350 351 352 353 354 355 356 357 357 358 358 359 359 359 359 357 355 353 352 350 348 348 347 347 347 346 345 346 346 344 345 345 345 345 345 344 343 344 343 343 345 344 346 346 345 344 345 344
335 335 337 338 338 339 340 343 344 346 348 350 350 349 349 350 351 352 352 353 354 354 355 355 357 359 359 360 359 358 356 354 352 351 349 348 347 347 347 346 346 346 347 344 344 344 342 343 343 344 344 343 343 344 344 344 345 344 344 344 343 343 344
334 337 337 336 338 338 340 344 345 347 349 350 350 351 351 351 351 352 353 354 354 354 355 355 357 359 361 360 358 357 356 353 350 349 347 346 346 343 343 344 345 345 344 343 342 343 342 341 341 343 343 342 342 343 343 344 344 344 343 343 343 342 342
334 336 338 338 339 339 343 345 347 349 350 351 351 352 352 352 353 353 353 353 354 354 355 356 357 358 360 359 357 357 355 351 349 348 346 345 345 343 342 341 343 344 344 342 341 337 341 343 342 341 341 340 341 341 342 343 343 343 343 343 343 342 342
334 338 339 338 340 342 344 344 346 349 349 351 352 352 353 353 353 353 354 354 354 355 356 357 358 358 358 358 356 354 353 351 348 347 346 345 344 344 342 340 340 341 342 340 340 338 339 340 340 340 339 338 339 340 341 341 342 342 342 342 342 342 341
336 337 338 339 341 342 341 345 349 350 351 352 351 351 353 354 353 353 354 355 355 355 356 357 358 358 357 356 354 353 352 350 348 346 345 344 342 342 340 340 342 342 341 340 338 337 338 340 338 338 337 337 338 340 341 342 342 342 342 341 342 342 341
334 337 338 337 341 342 346 346 346 348 350 350 350 352 353 353 353 353 355 355 355 356 356 358 358 358 357 355 353 352 351 350 348 346 345 344 343 343 342 340 341 341 339 339 337 335 335 337 338 338 337 338 338 338 339 340 340 342 342 342 342 341 341
333 334 336 340 340 341 342 345 347 348 349 350 350 353 352 353 354 354 355 354 355 355 355 357 358 358 356 355 353 352 350 351 350 347 346 345 345 343 341 341 343 343 343 340 336 336 336 336 337 337 337 338 339 339 340 340 340 342 343 342 341 341 341
330 331 334 335 339 342 343 344 346 347 348 349 350 350 351 352 353 355 355 355 356 354 355 357 358 357 356 354 352 352 352 351 351 347 345 344 344 343 343 342 342 342 342 339 335 336 337 337 337 336 336 338 338 338 339 339 339 341 342 341 340 341 340
330 331 332 334 338 339 342 344 346 347 348 349 349 350 350 351 352 353 352 353 354 355 355 358 358 357 355 353 353 353 352 350 349 346 344 343 342 339 338 339 340 340 340 336 334 335 338 337 338 337 337 337 337 337 338 339 340 336 330 333 341 343 343
331 331 332 336 339 339 341 343 345 347 347 348 348 349 350 351 352 352 351 352 353 354 356 358 358 357 355 353 353 353 351 350 348 346 343 343 343 342 340 337 336 335 336 335 334 336 338 338 336 335 336 336 335 336 337 338 339 330 327 327 330 339 343
331 333 333 335 337 338 340 341 343 344 345 346 348 349 350 351 351 350 350 352 353 353 355 355 356 355 355 354 353 352 351 349 348 346 343 343 341 341 339 338 338 336 335 334 334 336 336 335 336 336 336 336 335 334 336 338 332 326 325 326 327 331 340
332 333 334 336 337 338 338 338 341 343 344 345 346 347 349 351 349 349 351 352 354 354 355 355 355 355 354 353 352 351 351 349 347 345 344 343 342 340 338 337 337 335 331 329 331 335 335 334 335 335 335 336 336 335 336 337 331 325 324 325 325 326 332
334 333 334 334 337 337 339 340 341 343 346 347 348 347 350 350 349 351 353 354 356 356 355 355 355 355 353 352 351 350 349 349 347 344 343 343 341 339 337 336 334 333 332 331 332 333 335 335 335 336 336 335 336 336 337 338 331 323 322 322 322 324 328
333 333 334 336 337 337 340 342 343 344 345 345 345 348 349 348 349 351 352 353 353 355 355 354 354 353 352 351 350 349 348 348 346 344 342 341 339 337 337 335 332 332 334 333 332 334 336 336 337 337 337 337 337 337 337 337 327 322 321 319 319 321 327
330 331 333 335 338 340 342 340 341 341 344 346 347 347 346 347 348 347 350 353 353 354 354 353 352 352 351 349 348 347 347 346 345 343 341 339 338 335 334 333 331 330 332 332 333 335 337 338 338 338 337 338 338 336 336 337 325 322 320 318 318 321 335
331 334 337 339 338 341 346 346 346 345 349 347 346 346 346 348 347 348 350 350 351 352 352 351 350 350 349 347 347 346 345 344 343 342 340 338 336 334 332 332 331 331 332 331 332 333 335 337 337 339 338 338 339 338 338 339 329 318 317 317 317 322 338
333 335 337 338 346 345 347 347 348 348 345 346 348 351 351 349 349 350 349 350 351 350 350 349 348 349 348 347 346 345 344 344 343 340 339 338 335 333 332 333 334 334 335 333 332 332 334 337 338 339 340 339 339 338 338 339 330 316 314 315 315 326 339
333 335 338 339 341 343 345 348 348 346 348 348 346 346 349 350 350 349 348 349 349 348 347 347 348 347 346 346 345 345 344 343 342 340 338 337 336 333 331 331 333 335 337 335 335 335 338 338 338 339 340 339 338 335 336 339 329 313 314 314 313 325 337
337 337 339 342 344 346 346 346 346 346 346 344 343 345 347 348 347 348 347 347 346 346 346 346 347 347 347 346 344 344 343 342 341 339 338 337 335 336 334 334 334 334 336 336 337 337 337 338 338 338 339 339 339 338 338 338 342 332 312 311 311 317 334
341 342 341 341 341 343 343 344 344 343 343 342 343 344 345 346 345 344 344 344 345 345 346 347 347 346 345 345 343 342 341 341 340 338 338 337 335 334 334 335 335 336 336 335 336 337 338 339 340 339 340 340 340 340 340 341 340 328 310 309 310 313 322
339 339 340 341 341 341 340 340 340 341 340 341 341 342 343 345 344 342 343 343 343 345 345 345 345 345 344 343 342 341 340 339 340 339 337 335 334 334 334 336 338 337 336 336 337 337 338 340 341 341 340 342 340 340 339 333 331 331 313 310 308 310 316
340 339 339 339 339 340 340 340 340 339 338 337 339 341 343 344 342 342 342 343 344 344 344 344 344 343 343 342 341 340 340 340 339 337 335 333 333 334 335 338 337 338 338 338 337 337 339 340 340 339 339 338 338 336 333 333 331 320 320 308 306 306 309
343 341 339 337 337 339 340 338 336 334 335 336 339 341 342 344 342 342 342 343 343 343 343 343 343 342 342 341 341 340 339 339 338 337 336 336 335 336 337 337 337 337 338 339 339 339 339 339 339 336 335 335 334 329 332 332 329 319 317 315 307 304 305
338 339 339 338 337 339 339 338 337 336 336 337 339 341 342 344 344 343 343 342 341 342 341 342 341 340 340 340 340 340 339 339 338 337 337 337 337 337 336 335 336 336 339 340 339 339 339 338 338 337 337 336 333 329 330 329 330 327 318 313 306 304 301
339 340 340 340 338 338 338 338 338 337 336 337 339 340 341 343 345 345 344 341 341 342 342 341 340 339 340 340 340 340 339 337 337 337 338 339 338 338 338 336 335 335 337 337 337 337 337 337 337 336 335 334 332 328 328 328 328 327 322 315 310 309 306
342 342 342 340 340 340 339 338 337 337 337 336 337 339 339 341 342 345 342 340 341 340 341 340 340 339 338 338 339 340 339 338 337 336 337 338 338 338 338 338 335 335 334 335 335 336 336 336 334 331 330 329 331 330 329 327 326 326 327 325 322 322 317
340 341 339 341 341 341 340 340 340 338 338 337 337 338 339 339 340 341 340 339 338 339 340 339 339 339 338 337 338 338 339 339 337 337 336 337 337 337 337 336 335 335 335 335 336 336 335 334 332 331 331 331 332 332 330 327 325 325 327 325 325 325 324
338 339 340 340 340 341 342 340 339 339 338 337 337 337 338 339 338 338 339 338 338 340 339 339 338 338 338 338 337 337 338 337 338 337 338 338 331 322 316 318 329 335 335 334 337 337 335 333 332 332 333 333 333 332 330 330 328 327 318 328 316 322 324
335 336 337 338 339 339 339 340 340 338 337 337 337 337 338 338 338 338 337 337 338 339 339 339 338 338 338 338 337 336 336 337 337 337 335 332 327 321 313 302 296 301 318 328 312 306 300 302 331 331 334 332 333 334 330 329 331 307 302 298 298 298 299
334 335 335 337 337 338 339 339 338 338 337 337 337 338 338 338 338 339 337 338 339 339 340 339 337 335 335 335 334 334 336 335 335 333 331 330 328 327 323 318 311 295 293 297 300 298 295 297 295 299 310 328 330 317 301 303 299 297 296 294 293 293 294
334 335 336 337 337 337 336 336 337 336 337 337 337 338 338 337 337 338 338 339 339 340 340 338 337 335 334 335 335 336 337 335 335 333 331 330 329 327 325 324 321 315 297 293 295 296 293 293 296 300 305 309 316 316 317 301 296 294 294 293 293 293 292

ECMWFFLT1_sfc_thetae_024.txt.gz
Theta_e
343 344 345 346 347 347 348 349 352 351 353 355 356 357 356 357 358 360 361 363 364 365 367 368 368 369 368 368 369 370 369 369 369 367 365 365 363 362 361 361 361 360 357 356 358 355 357 356 354 353 351 350 350 348 349 350 350 349 349 349 349 348 347
340 341 343 345 346 348 350 351 352 352 353 355 356 358 357 358 359 359 360 363 365 365 367 368 368 368 368 369 369 370 369 369 369 368 367 365 365 364 364 363 362 361 361 359 357 358 357 354 353 351 349 350 348 349 348 350 350 349 347 348 346 347 346
340 341 343 345 346 347 350 351 352 352 354 354 355 356 356 359 360 360 361 362 364 366 366 368 369 368 369 369 369 370 370 370 369 368 367 363 365 363 365 364 362 360 360 360 357 355 355 353 353 351 349 349 347 348 349 349 349 348 348 348 347 346 345
338 340 342 345 348 350 351 351 352 352 353 354 355 356 358 360 362 362 362 363 364 364 364 367 368 367 368 369 369 369 370 370 370 368 367 366 366 366 364 363 362 360 359 358 355 353 353 352 351 349 349 349 348 348 347 347 347 347 347 347 346 347 346
339 341 342 343 345 349 350 351 352 353 352 353 356 358 359 359 361 361 362 363 363 364 365 366 367 368 368 369 368 369 370 370 370 369 368 366 367 366 363 361 360 358 357 356 355 353 353 351 350 349 348 349 348 348 347 346 346 347 346 346 346 346 344
338 340 341 342 343 347 350 350 351 352 352 352 355 356 357 357 358 358 360 362 363 364 366 367 367 368 368 368 368 368 370 371 371 370 368 367 366 364 362 361 359 357 355 354 353 353 353 352 349 348 347 345 344 343 345 345 345 344 345 347 345 344 342
339 341 341 342 344 346 348 350 351 352 353 353 355 356 356 356 357 357 358 360 361 362 364 364 366 366 367 368 368 369 370 369 370 369 367 366 365 364 362 361 359 356 356 356 353 352 351 349 347 347 346 345 345 343 344 345 345 345 345 345 345 345 344
341 342 344 344 344 345 346 350 351 351 353 354 353 353 354 355 356 357 357 358 359 359 360 360 363 366 368 369 368 368 369 369 369 368 367 365 364 362 361 360 358 357 356 355 354 352 348 348 346 347 346 345 345 344 344 346 346 343 344 344 343 342 343
341 345 344 343 344 343 345 349 351 351 353 354 354 355 355 356 355 356 357 358 359 358 359 359 361 365 369 368 368 368 369 369 368 367 366 364 362 358 357 358 358 357 355 354 352 352 349 348 346 350 351 345 344 346 346 347 345 344 343 343 342 341 340
342 345 346 344 344 342 345 348 352 353 353 354 355 356 356 355 357 357 357 357 358 358 359 360 360 362 367 368 367 369 369 368 367 365 363 361 359 356 356 356 357 356 355 353 352 349 350 349 349 351 347 343 345 349 346 345 345 343 343 344 342 342 342
340 345 347 344 344 345 347 348 350 353 354 356 356 355 358 357 356 356 357 357 356 358 359 361 362 361 365 367 366 366 367 367 365 363 362 360 356 355 355 356 355 354 354 351 349 348 347 349 351 348 346 343 346 347 346 345 343 342 343 344 343 343 342
344 345 347 346 345 345 346 350 353 355 357 358 357 357 359 359 357 356 358 358 358 358 360 360 362 361 363 365 365 366 367 367 365 362 362 360 357 355 355 355 355 354 352 351 348 349 348 347 346 346 345 344 343 345 346 345 343 343 343 342 343 344 343
344 345 347 344 347 347 351 354 355 357 358 358 357 359 359 358 358 358 360 360 359 359 361 362 363 363 362 364 364 365 367 366 365 363 361 361 359 357 355 353 352 351 349 349 347 344 342 344 344 344 344 344 345 344 344 344 343 344 345 344 345 344 343
346 344 346 347 348 349 351 354 356 358 359 359 358 359 360 359 359 360 361 360 360 360 359 361 363 364 363 364 365 366 367 367 366 364 363 362 360 358 356 355 353 351 351 348 345 341 340 343 344 344 344 344 343 343 345 345 344 344 345 346 345 344 344
341 341 345 344 348 350 352 353 356 358 358 358 358 359 360 360 360 362 363 363 364 361 361 364 364 365 364 365 365 366 369 368 367 365 362 360 359 357 356 354 354 354 351 347 344 340 341 343 345 345 343 343 342 343 344 342 342 342 342 343 344 344 342
339 339 342 344 348 349 352 354 357 358 358 358 358 359 358 359 361 360 361 362 362 363 363 364 365 366 366 365 366 367 369 367 366 362 360 360 357 357 355 354 353 350 349 347 343 345 346 347 344 341 340 340 341 342 342 341 341 337 332 337 344 344 344
339 338 340 345 349 349 351 353 356 357 357 357 358 359 359 360 362 362 360 362 363 364 364 364 365 366 367 366 368 368 368 365 364 361 360 359 356 356 354 352 348 348 348 348 348 345 345 344 341 339 339 339 340 341 340 341 340 332 329 330 332 341 343
337 341 340 344 347 349 350 351 355 355 356 357 358 361 362 362 362 362 360 362 362 362 363 363 364 365 367 367 368 368 366 363 361 359 358 357 356 355 354 352 348 347 348 348 346 345 345 344 342 340 339 338 338 338 339 340 333 326 327 328 327 331 340
338 341 343 346 348 348 349 350 354 356 356 357 358 360 361 363 361 361 362 363 364 365 364 364 363 366 367 368 367 368 366 363 361 359 359 357 356 355 354 352 348 346 345 345 345 344 343 341 340 337 337 338 339 339 339 339 331 326 325 326 325 326 332
339 340 343 345 348 349 351 352 353 355 357 359 361 361 363 364 362 364 364 365 366 365 364 364 365 366 366 367 367 367 366 363 360 359 358 356 354 352 351 349 347 346 345 345 344 343 341 339 336 334 335 337 339 339 338 339 332 324 323 323 323 325 329
341 343 345 347 349 349 351 353 354 357 357 357 358 361 362 361 362 364 363 364 364 365 364 364 366 365 366 365 366 366 365 363 360 357 357 353 351 350 349 348 348 345 344 342 340 340 339 336 335 333 335 336 336 336 336 337 327 322 321 320 320 323 328
339 342 343 346 349 350 351 350 353 354 356 358 358 359 361 359 358 358 362 364 364 364 365 365 365 364 365 364 365 365 364 362 358 356 355 351 350 349 347 346 345 343 342 339 337 338 337 337 336 336 336 336 336 334 334 334 325 321 320 319 319 322 336
336 340 342 346 346 348 354 355 355 357 359 358 356 355 354 355 356 359 362 362 362 364 364 363 362 362 364 362 364 363 362 361 358 355 354 351 349 347 345 343 341 340 340 336 334 333 332 331 330 333 333 334 336 335 337 338 329 319 319 318 318 323 339
336 339 341 344 348 352 355 353 352 358 354 355 353 356 357 357 356 360 361 360 361 362 361 361 360 362 363 361 362 361 360 358 354 353 353 351 348 346 345 343 341 339 338 335 333 331 331 331 331 332 335 336 338 336 337 337 329 316 316 316 316 326 339
338 340 344 347 349 349 348 351 354 354 354 356 358 359 361 360 361 360 359 359 361 360 359 358 360 360 361 360 361 360 357 354 353 353 352 351 349 347 346 345 342 339 336 335 334 333 334 333 333 334 337 338 337 336 336 336 331 315 316 314 314 326 340
341 342 343 346 347 351 356 357 356 355 357 357 359 361 362 362 358 357 358 360 358 356 357 358 360 362 361 360 359 358 355 353 351 352 352 351 349 348 347 345 343 339 336 334 334 334 334 335 335 335 337 339 338 338 337 337 340 339 313 313 312 318 339
347 347 346 347 351 352 355 354 354 354 357 358 359 359 359 358 358 358 359 358 356 356 357 360 360 359 359 358 356 355 353 352 351 350 350 350 348 346 345 343 341 338 336 335 336 336 335 335 338 338 339 340 341 341 341 342 341 347 312 311 311 315 327
346 348 351 351 351 351 352 355 359 358 358 359 358 358 359 360 358 358 357 357 357 358 359 359 358 358 357 355 353 352 351 351 351 350 349 350 349 345 342 341 341 339 338 338 338 338 338 339 339 340 340 342 343 345 345 345 340 347 317 312 310 314 320
347 347 348 350 352 353 353 354 354 353 353 352 354 357 357 358 357 356 357 357 356 356 357 357 356 356 354 352 351 350 350 350 349 348 347 347 346 344 340 339 339 340 340 340 339 338 338 339 340 341 342 344 346 347 346 346 344 326 328 309 309 310 316
348 348 347 348 350 351 351 351 350 348 349 350 354 356 357 358 356 355 356 354 355 355 355 355 354 353 351 350 349 348 348 347 347 347 347 346 344 343 342 340 339 341 341 340 338 337 337 338 339 340 339 342 341 341 341 343 342 324 320 314 310 309 311
344 344 345 345 346 349 348 348 349 349 349 351 353 355 356 356 356 356 353 353 355 354 354 353 352 351 349 349 347 347 346 346 346 347 346 344 343 342 341 340 340 339 340 340 338 337 337 339 341 341 341 340 339 337 339 340 341 332 319 315 309 309 308
347 347 347 348 349 348 348 348 348 349 349 351 352 353 355 358 358 355 352 353 353 354 354 352 351 349 348 347 346 345 345 345 344 344 344 343 342 342 342 341 339 338 339 338 337 338 339 341 340 339 339 340 341 338 337 336 335 333 326 317 313 312 308
349 349 349 349 350 350 350 350 348 348 348 348 351 351 352 356 355 353 353 352 352 352 353 352 350 348 347 346 346 345 344 344 341 341 342 343 341 342 342 341 340 339 337 338 337 336 337 340 340 340 338 339 339 338 335 334 335 335 333 332 329 326 318
347 347 349 352 352 351 350 349 349 348 348 348 349 350 351 351 351 351 351 349 349 351 351 349 348 346 346 345 345 343 344 343 340 340 340 340 340 339 339 339 340 338 337 337 336 337 337 338 338 338 338 337 338 337 333 331 332 334 334 333 333 331 328
347 348 348 349 352 352 351 351 351 350 348 348 350 350 351 349 347 348 349 348 350 351 350 347 345 346 344 343 342 341 342 342 341 341 340 340 331 322 318 319 333 339 338 342 341 343 339 339 338 338 339 337 337 333 332 333 332 333 324 337 322 333 331
344 345 346 348 349 351 351 352 352 350 349 348 350 349 348 347 347 348 346 348 349 350 349 347 345 344 342 342 341 341 339 340 339 340 339 338 331 324 316 304 297 303 328 337 313 303 299 306 335 330 336 337 336 334 333 332 334 311 305 302 299 294 295
342 342 343 345 345 346 347 348 349 349 349 348 348 347 347 347 347 347 346 348 349 350 349 348 345 342 340 339 338 338 339 339 339 340 340 339 336 333 328 323 316 296 293 300 302 299 294 297 297 300 307 328 332 316 305 307 303 300 298 297 295 295 295
342 343 342 343 345 346 346 347 347 346 345 346 346 346 347 346 347 347 347 348 349 349 349 348 344 342 340 340 339 339 340 340 340 340 338 336 336 336 334 330 328 322 298 293 296 296 293 293 295 297 301 303 312 321 321 303 296 295 295 295 295 295 293

ECMWFFLT1_sfc_thetae_027.txt.gz
Theta_e
339 338 340 343 348 347 348 350 352 351 352 353 354 354 352 352 356 359 360 363 366 367 369 370 369 368 368 368 368 368 368 367 365 363 362 362 362 361 359 358 358 359 356 355 356 355 355 356 354 351 351 350 350 349 350 350 350 349 349 350 347 347 347
338 336 335 339 347 349 349 351 353 353 353 354 355 356 353 353 356 358 361 363 366 367 370 370 370 370 369 368 369 369 369 368 367 366 364 363 364 363 362 361 360 360 360 358 357 358 358 355 353 352 350 351 350 351 349 350 350 349 348 348 347 346 346
333 339 338 342 347 349 351 352 353 353 354 354 356 355 354 356 358 359 360 361 365 368 369 371 371 370 370 370 370 370 370 368 367 365 363 361 363 361 363 362 361 360 360 360 359 357 357 355 354 353 351 350 348 350 349 349 350 349 347 348 346 345 345
333 338 343 346 349 352 352 352 354 354 354 354 356 357 358 359 360 360 360 362 365 367 367 369 370 370 370 370 370 371 371 370 369 366 364 363 362 364 362 362 363 361 359 358 357 356 357 357 353 353 352 351 349 348 348 349 349 349 348 349 348 346 347
337 339 341 346 347 350 351 352 354 355 354 355 357 360 361 360 360 360 361 364 365 367 367 368 368 370 370 371 370 371 371 371 369 368 366 366 365 365 364 360 362 361 359 359 359 358 357 356 353 352 350 350 348 348 347 348 349 348 348 349 348 347 345
331 338 342 345 347 349 351 352 354 354 354 353 356 359 360 360 361 359 360 364 365 366 368 368 369 370 370 370 370 370 372 372 372 371 368 367 367 364 364 364 362 361 357 359 358 358 356 354 352 351 349 347 346 345 346 347 347 347 347 348 347 346 344
330 334 338 344 347 349 351 352 354 355 355 354 356 360 360 360 359 359 360 362 362 365 365 365 366 367 370 370 370 370 371 371 371 370 369 368 367 366 367 367 365 362 360 361 360 357 354 353 352 351 349 346 347 346 347 348 346 347 348 347 347 347 347
330 333 343 346 346 348 350 353 354 355 355 355 355 357 357 358 358 357 357 359 361 360 362 362 364 367 370 371 370 370 370 371 372 371 370 369 367 367 367 367 365 365 363 361 361 357 354 353 350 350 349 346 347 348 348 347 347 347 348 347 346 346 345
331 339 345 345 345 345 349 353 354 355 356 355 355 359 358 357 356 355 355 357 360 359 361 360 362 366 370 370 370 371 371 370 371 371 370 368 368 366 366 366 366 365 363 361 359 358 356 353 350 351 350 348 347 348 348 348 347 347 347 346 346 345 343
334 339 348 347 346 344 348 352 356 359 357 358 358 360 358 357 357 355 354 355 357 358 359 359 360 363 369 370 370 371 371 370 371 370 369 366 366 366 365 363 364 364 363 361 358 356 356 355 351 351 350 346 347 347 347 344 345 346 346 346 345 344 344
333 340 349 348 346 347 350 350 354 360 360 362 362 358 360 358 357 356 356 355 355 357 359 359 360 362 367 369 368 368 370 370 369 370 368 366 365 365 363 361 363 363 362 360 358 358 356 354 352 351 349 344 348 348 346 344 346 346 344 344 345 344 343
343 345 352 351 349 348 349 356 358 362 363 363 359 358 362 363 358 357 358 358 357 357 358 359 359 360 365 368 367 368 370 370 368 368 369 367 365 364 364 362 363 362 361 361 358 357 354 352 351 350 347 347 350 349 345 345 347 347 345 343 343 344 343
343 350 353 349 349 349 355 359 358 359 362 359 358 360 360 358 359 359 362 361 357 357 360 362 362 363 363 367 367 369 370 370 369 368 368 368 367 366 364 361 359 360 361 360 358 356 354 352 352 349 349 348 349 346 347 348 349 347 346 343 343 344 343
352 348 351 350 349 350 352 355 358 359 361 361 359 361 361 361 360 360 363 361 359 358 359 360 363 363 363 367 368 370 370 371 372 370 370 369 369 367 366 362 360 361 363 360 358 356 354 352 351 350 350 350 348 347 349 350 348 347 346 344 344 343 342
347 349 351 348 350 352 353 353 358 359 360 361 361 361 362 362 362 363 364 364 364 358 360 364 365 364 364 367 369 371 373 373 373 372 371 370 369 367 366 364 363 363 363 361 359 356 355 353 350 349 349 348 347 346 349 348 345 344 345 342 343 343 341
337 339 346 350 351 351 356 356 360 361 362 363 361 362 362 362 363 362 362 362 361 362 362 366 367 367 366 366 369 372 373 373 371 369 369 367 366 366 364 364 362 361 361 360 358 358 356 354 351 349 348 346 346 346 347 346 345 341 335 339 344 345 343
328 328 331 347 355 353 357 359 361 362 362 362 362 362 363 365 365 364 362 363 363 364 363 365 369 368 368 367 370 373 374 372 370 369 368 367 365 365 364 361 361 361 360 358 359 358 358 355 351 348 346 346 346 346 344 341 342 332 330 333 338 343 342
326 329 329 331 340 354 357 359 362 362 362 362 361 364 365 366 365 365 363 365 365 362 363 366 367 368 369 369 371 373 372 371 368 368 367 366 365 364 365 363 360 361 362 358 357 357 356 352 349 348 347 346 346 342 340 342 336 326 328 330 330 338 343
326 327 330 345 349 354 356 357 360 364 363 364 362 364 366 367 365 366 367 368 369 368 367 368 369 370 370 371 372 372 371 370 367 365 366 365 364 365 364 361 362 362 360 358 358 357 354 351 348 349 348 345 342 338 338 340 328 325 325 327 327 328 336
326 327 326 329 340 343 358 359 359 363 366 366 365 364 368 370 367 367 368 369 371 368 369 369 370 372 371 373 373 373 371 369 365 365 364 365 364 363 361 359 358 359 357 356 357 357 354 351 351 346 344 341 340 339 337 338 326 324 323 324 324 326 331
329 329 331 336 341 336 353 361 360 364 366 364 363 366 366 367 367 368 369 370 369 369 369 369 370 371 372 371 372 372 369 365 363 364 363 362 363 362 360 358 359 357 356 354 354 355 354 350 348 346 344 342 338 335 335 338 323 322 321 320 321 323 329
327 327 326 331 345 354 360 358 360 361 363 364 362 364 365 366 368 366 368 370 369 369 370 370 370 371 372 371 371 370 367 364 363 360 363 361 360 359 357 357 358 356 356 355 354 354 351 348 345 342 340 338 336 334 338 339 320 320 319 318 319 322 334
326 327 327 342 339 348 362 362 362 363 367 364 363 363 364 366 366 367 368 369 368 369 370 369 369 370 371 371 371 369 366 364 362 360 360 360 357 357 355 355 355 355 356 352 351 350 345 343 339 337 336 335 335 333 337 335 324 318 317 317 318 322 336
326 327 328 335 352 356 364 363 362 364 363 362 363 366 368 366 367 369 368 368 368 368 368 368 368 369 370 369 370 368 367 366 364 360 358 359 357 355 352 353 353 352 353 349 348 347 345 341 337 336 334 331 331 330 333 333 329 316 316 317 317 325 338
332 330 334 343 351 356 358 361 362 363 364 363 363 366 369 368 368 367 366 367 368 366 364 366 366 367 367 368 369 369 367 366 363 360 357 357 356 355 353 352 352 351 350 348 347 346 345 342 339 337 336 333 333 331 331 330 326 314 316 315 315 325 340
332 331 334 347 351 357 361 363 363 363 361 360 366 368 367 365 366 366 365 366 365 362 362 364 365 368 368 369 368 366 365 363 361 360 357 355 355 355 353 352 350 347 346 345 345 343 341 339 338 335 334 334 334 335 334 333 335 334 313 313 314 317 340
339 336 339 345 348 357 359 361 362 360 362 365 365 362 363 365 365 363 364 363 360 360 361 365 368 368 367 367 364 362 361 360 359 357 356 354 354 353 351 350 347 345 343 341 342 342 341 338 337 336 336 336 337 338 337 337 336 342 313 313 313 315 324
341 345 350 351 357 356 358 357 360 360 359 363 362 362 364 365 363 362 361 359 359 362 365 368 368 366 366 364 362 359 358 358 358 357 354 355 355 352 350 350 348 345 341 341 341 341 339 339 338 338 337 337 339 340 341 341 340 351 318 314 311 312 316
347 346 351 356 356 357 355 357 358 362 364 362 362 363 363 364 362 359 360 361 364 365 366 365 364 363 362 361 359 358 357 357 356 354 353 353 354 352 349 347 345 344 342 341 341 340 339 338 339 337 336 339 341 343 344 345 342 331 329 312 309 310 312
355 357 356 354 354 356 359 361 359 356 358 357 360 363 363 362 360 362 362 361 363 363 363 363 361 360 357 357 356 355 355 354 352 352 354 353 352 349 347 344 344 342 341 340 339 339 339 339 339 339 338 339 341 343 339 341 338 324 322 319 310 308 308
352 352 351 352 355 357 355 351 351 354 357 359 362 362 363 365 363 361 359 360 361 361 360 359 356 354 353 353 354 354 353 352 351 351 351 351 350 346 344 342 343 341 342 341 341 339 338 338 340 339 338 341 339 340 338 339 338 332 323 319 312 310 310
351 353 354 353 353 353 355 355 356 356 357 360 362 362 362 362 361 357 358 360 359 359 357 356 354 352 351 351 351 350 350 348 348 349 349 348 347 346 345 343 341 341 342 341 341 341 339 339 338 338 339 338 339 337 337 341 339 332 327 321 318 317 313
348 349 349 350 351 351 351 352 351 352 354 354 357 356 356 356 356 357 358 358 358 356 356 354 351 349 349 349 349 349 348 347 346 345 346 345 345 346 346 344 343 342 340 341 340 339 339 338 338 337 337 337 338 338 340 339 337 334 332 329 327 328 323
352 352 352 351 352 353 353 352 351 351 353 353 354 354 353 353 354 355 355 354 355 355 354 351 349 347 347 346 346 346 347 346 345 345 343 343 343 343 342 342 341 340 340 340 340 339 338 338 341 338 336 337 339 339 338 336 337 337 334 331 330 330 329
350 352 354 354 353 353 353 353 352 352 351 351 352 352 352 351 351 352 354 353 354 355 351 348 347 348 347 346 345 345 346 344 344 344 342 342 338 330 325 330 344 342 341 332 331 339 340 339 338 339 341 341 338 336 336 336 335 337 324 336 321 328 328
346 347 350 353 354 354 355 355 354 352 352 351 352 351 351 350 351 352 352 354 355 354 351 350 348 347 345 345 343 343 343 342 341 343 342 341 338 332 321 304 298 308 340 335 313 303 302 318 341 335 337 339 340 336 337 336 337 305 299 300 297 298 300
344 344 345 347 349 351 353 354 354 354 353 352 352 351 350 350 351 352 353 354 356 354 352 352 347 345 344 343 341 339 341 341 341 343 343 341 339 338 332 327 318 296 295 303 304 299 294 295 297 300 308 338 335 322 300 305 302 299 298 296 296 295 296
343 344 345 348 350 350 351 351 352 352 351 352 351 350 351 350 351 353 353 354 353 354 353 351 346 343 341 342 340 341 343 341 342 343 341 339 339 338 336 334 331 323 298 294 297 297 294 294 294 295 297 305 320 324 324 305 297 296 296 296 295 294 293

ECMWFFLT1_sfc_thetae_030.txt.gz
Theta_e
336 336 338 340 341 341 344 347 349 349 352 352 353 353 352 354 356 358 360 363 364 366 367 367 366 366 366 367 368 368 367 366 366 365 365 365 364 364 363 364 362 361 360 360 359 359 359 362 359 358 358 355 355 352 352 354 352 351 354 352 354 351 350
334 335 335 336 340 343 346 349 348 349 352 353 353 354 352 354 356 357 359 363 365 366 367 367 366 366 366 367 368 368 367 366 366 365 365 365 366 367 365 364 362 362 363 361 362 362 359 360 358 357 354 353 353 352 350 351 353 352 350 352 351 354 350
334 335 335 336 339 343 347 347 349 352 352 351 352 353 352 354 356 358 359 361 365 366 367 367 366 365 367 368 367 368 367 367 366 365 364 363 365 362 365 365 363 362 362 363 363 360 359 356 357 356 353 350 350 350 350 349 352 351 352 352 350 349 351
334 335 338 340 343 346 347 348 351 352 351 351 351 352 354 356 357 358 360 361 363 365 366 367 367 365 366 367 367 367 367 368 367 364 363 363 364 364 364 365 363 362 361 360 360 358 356 356 355 356 355 351 350 350 349 349 348 350 351 351 349 349 348
337 339 338 339 340 346 347 347 349 353 352 351 352 354 356 357 357 357 359 361 362 364 366 368 366 366 366 367 367 367 367 368 367 366 363 363 365 365 364 360 362 359 360 361 360 359 358 356 353 354 352 353 350 350 349 350 349 350 350 350 348 347 347
338 336 337 337 337 341 344 346 346 349 352 351 352 355 355 355 354 353 356 360 361 364 368 369 368 367 366 367 367 367 368 368 369 368 366 365 365 364 363 362 361 360 360 360 359 359 359 356 353 352 350 351 348 347 348 348 348 349 349 350 349 346 345
335 336 338 338 340 341 343 344 346 349 352 353 353 356 355 354 353 351 353 357 360 363 365 366 367 368 367 366 366 368 368 368 368 367 367 366 365 364 364 364 362 361 360 361 359 358 357 356 354 352 351 349 349 347 346 347 347 348 348 348 348 348 347
331 336 341 340 339 340 342 349 351 352 353 355 354 353 354 354 352 351 351 355 359 361 363 364 367 368 367 367 368 367 368 368 368 368 366 365 365 363 363 364 363 363 363 360 360 359 356 356 355 353 352 349 349 348 347 348 348 348 347 347 347 346 346
333 338 339 337 338 338 340 347 347 346 349 355 354 355 355 354 352 351 353 356 357 359 362 364 366 367 368 367 367 367 368 369 368 367 366 364 364 361 361 363 365 365 363 360 359 359 357 356 354 353 352 349 348 348 348 348 348 348 347 346 346 345 345
336 342 341 339 338 338 344 346 347 346 347 354 355 357 357 357 355 354 354 354 356 357 362 363 364 365 368 368 367 367 368 369 369 366 364 361 362 361 360 360 364 365 364 361 359 358 358 357 354 353 352 349 348 348 347 347 347 347 347 347 346 346 345
337 343 342 341 342 344 345 344 345 348 353 357 357 357 359 358 357 356 356 355 355 357 361 362 363 363 365 366 364 365 367 368 368 366 365 363 362 361 360 360 362 364 363 361 359 359 358 356 354 353 352 349 347 347 347 347 347 345 345 347 347 346 345
345 344 348 348 349 346 344 344 348 356 360 360 358 358 360 360 359 357 357 357 357 357 360 361 361 363 364 363 364 366 367 367 366 365 365 364 362 361 360 361 363 364 363 363 360 360 358 356 354 352 351 349 348 347 347 348 347 346 345 345 346 347 345
348 346 350 348 351 348 349 351 353 359 363 360 358 359 360 360 359 358 359 357 357 358 359 361 359 362 364 366 364 367 367 367 366 366 366 365 364 363 363 360 360 361 361 362 360 359 357 355 354 352 351 350 348 347 347 348 348 347 346 346 346 346 345
355 352 353 355 355 355 356 364 363 362 364 362 359 359 361 361 360 359 359 356 355 356 356 358 359 362 365 367 366 367 367 367 367 366 367 366 367 366 364 363 363 363 364 363 360 358 357 355 354 353 352 351 348 348 348 348 346 346 346 346 346 345 343
350 349 351 351 354 355 358 364 366 365 365 363 360 359 361 361 360 360 361 358 356 354 356 359 360 361 364 367 367 368 369 370 369 368 367 368 368 367 366 366 366 366 366 364 361 360 359 358 356 353 351 351 347 347 349 347 344 345 346 344 344 343 342
332 344 348 349 354 356 360 363 366 366 366 365 361 360 360 361 361 360 361 359 358 356 358 361 361 362 365 366 368 370 371 371 371 369 369 369 369 368 368 367 368 366 365 365 363 362 361 359 358 353 351 349 347 349 350 346 345 341 333 337 343 342 342
328 331 342 350 353 353 357 361 365 365 364 365 362 362 360 362 362 362 358 361 358 359 360 363 363 363 365 367 370 372 372 372 372 371 370 371 371 370 369 369 369 367 365 366 364 362 362 361 357 352 351 348 347 347 347 346 345 331 329 333 337 342 342
327 336 345 349 352 350 355 357 361 362 363 363 364 364 363 364 363 362 359 362 360 358 362 365 364 363 365 369 372 373 373 372 373 372 371 371 371 371 370 370 369 367 366 365 365 363 362 360 358 355 351 349 348 347 346 347 338 326 329 331 332 338 342
327 333 339 348 352 353 355 354 358 361 361 362 363 363 364 366 364 362 362 364 365 362 364 366 365 365 366 370 372 373 374 373 373 371 370 370 371 370 370 369 367 365 364 362 364 364 361 363 358 355 351 349 347 345 344 347 328 326 328 329 328 332 340
328 329 332 347 353 354 355 356 359 362 364 365 365 363 365 366 365 365 366 368 368 364 366 368 367 367 367 371 372 374 374 373 371 370 370 370 370 369 368 366 365 365 364 364 364 362 360 359 358 356 352 349 347 345 345 343 324 324 324 325 326 329 335
338 333 332 343 355 354 358 360 363 366 367 366 364 366 367 367 367 368 368 369 367 366 369 370 368 369 368 370 372 374 373 372 371 370 369 369 368 367 366 366 365 364 364 362 361 361 360 357 355 353 351 348 348 345 340 339 323 321 322 322 323 325 332
326 328 332 336 343 360 361 361 363 364 367 366 366 363 364 365 365 364 367 370 367 367 371 370 369 369 369 369 372 373 372 371 370 369 368 367 367 366 365 364 363 362 362 360 359 359 360 356 354 350 348 347 345 341 339 338 320 320 321 320 321 324 335
323 326 328 334 334 350 364 365 365 366 371 369 365 363 363 364 365 366 368 368 366 370 370 370 369 369 370 370 372 372 371 370 368 367 367 366 365 364 363 362 362 362 362 358 356 355 355 354 351 350 345 344 343 339 337 336 322 318 317 318 318 324 335
323 324 327 328 333 334 361 366 366 367 370 368 365 366 368 368 367 367 368 367 366 369 368 369 369 370 371 371 372 371 370 369 367 366 364 364 362 362 361 361 361 361 361 357 353 352 350 348 347 347 347 344 341 337 338 335 321 314 314 315 316 324 333
322 323 325 327 328 330 357 365 365 367 369 369 366 368 371 370 369 368 368 368 367 367 366 368 370 371 370 371 372 371 369 368 366 366 363 361 361 359 359 358 359 358 357 356 355 353 349 346 343 342 343 340 339 337 335 335 324 312 314 314 314 323 331
328 327 326 328 328 331 363 367 366 368 368 366 367 370 371 370 369 367 367 367 366 365 366 367 370 372 372 370 370 369 367 366 364 363 361 361 360 360 358 357 355 355 353 353 351 349 346 343 342 340 338 337 337 335 335 334 336 322 312 312 312 316 330
341 338 338 330 332 361 369 368 366 366 367 367 370 370 371 370 368 367 367 368 367 365 367 370 372 372 371 369 367 366 365 365 364 361 360 360 359 357 355 354 353 352 350 347 347 347 346 343 341 340 339 337 335 335 334 335 337 330 311 311 312 314 321
344 342 336 339 360 362 364 362 370 369 369 371 371 370 369 370 368 368 368 367 366 367 369 371 371 371 370 367 365 364 363 362 362 361 359 359 358 355 354 354 353 349 348 346 346 345 344 342 342 340 338 339 338 338 336 334 331 339 316 313 311 312 314
351 352 355 359 362 361 358 363 366 365 365 363 365 367 369 370 368 368 366 365 367 368 370 369 369 368 366 364 362 361 361 362 361 358 358 357 355 353 352 352 349 348 347 346 345 344 342 341 340 338 337 337 338 339 343 346 340 333 326 313 310 309 311
359 357 354 355 357 357 359 365 365 361 362 361 366 367 368 369 366 364 364 365 368 368 367 367 366 364 360 359 359 359 358 358 357 357 357 355 354 352 350 348 347 346 344 344 343 342 340 340 339 337 336 336 339 343 344 344 340 330 327 322 311 309 308
356 355 354 354 354 360 360 360 361 361 362 364 366 367 368 367 363 362 363 365 365 364 364 362 361 358 356 356 356 356 356 356 356 354 355 354 353 349 348 347 345 343 343 342 342 341 339 339 338 338 338 340 340 340 341 341 339 333 325 320 313 310 308
355 355 354 355 356 359 358 359 359 359 359 362 366 366 365 366 365 361 361 363 362 362 361 360 358 356 355 354 354 354 354 352 352 352 352 352 351 348 347 345 342 341 341 341 340 341 340 339 338 338 339 340 340 339 339 340 337 334 327 322 318 315 310
350 357 356 357 359 357 358 357 355 355 357 359 363 363 361 360 360 360 361 360 360 359 359 357 355 353 353 353 351 351 351 350 349 348 348 347 347 346 345 345 343 342 340 340 340 340 340 339 338 339 338 339 339 339 338 339 336 333 331 332 329 325 320
331 333 351 359 358 358 357 357 355 356 358 357 358 359 358 358 357 358 358 357 356 356 355 353 353 351 350 350 350 349 348 347 348 346 345 346 346 344 343 343 342 342 341 340 341 340 340 339 340 339 338 337 338 339 337 336 337 334 332 331 330 329 328
334 332 331 336 345 350 355 355 353 352 352 353 355 356 355 355 354 354 355 355 354 354 351 349 348 349 347 346 346 345 346 346 345 344 343 337 328 319 315 319 338 343 331 323 322 329 340 341 341 341 340 340 340 339 336 336 336 337 324 332 321 329 330
334 334 335 335 337 343 346 345 349 349 349 349 351 351 352 353 353 353 353 354 353 352 349 348 347 346 345 346 344 344 343 343 342 343 341 337 330 322 315 306 298 310 334 326 314 306 302 318 340 341 339 340 343 339 338 337 340 316 311 309 309 311 314
335 332 333 334 336 337 340 350 351 350 350 350 351 351 351 351 352 353 352 352 352 351 350 349 346 344 343 343 342 341 341 340 341 343 345 340 335 332 326 321 313 297 296 304 306 302 298 297 299 306 319 341 335 317 301 306 303 304 305 305 305 304 303
338 337 337 338 338 338 344 348 349 349 349 351 351 351 352 350 351 355 353 355 355 353 352 350 347 344 341 341 341 342 342 341 343 343 342 340 339 336 333 329 323 316 300 295 298 298 295 295 296 300 311 317 321 319 316 304 299 299 299 298 297 296 295

ECMWFFLT1_sfc_thetae_033.txt.gz
Theta_e
330 329 332 333 335 338 339 340 341 341 342 343 344 345 347 348 349 353 355 357 356 356 357 357 357 358 357 357 357 358 359 359 359 358 356 356 355 354 353 352 353 352 352 352 351 352 351 352 352 351 351 351 345 341 339 339 339 345 343 341 344 342 341
329 329 332 335 336 338 340 341 341 342 342 343 345 345 347 348 349 352 354 356 357 357 357 358 358 358 358 358 358 358 358 359 359 359 358 357 356 355 356 353 353 353 353 352 353 352 352 352 352 350 350 350 343 343 342 340 339 342 343 342 343 341 341
329 330 332 334 337 337 339 341 341 342 342 343 345 346 346 347 349 351 353 356 357 357 358 358 359 358 358 359 359 359 359 359 358 358 357 357 357 356 356 356 354 354 354 353 354 352 354 352 352 350 350 346 342 342 343 343 342 343 342 342 343 341 339
330 331 332 333 335 338 339 340 341 342 344 344 345 346 346 348 349 351 354 356 356 357 358 358 359 358 358 358 359 359 359 358 359 358 358 359 358 358 356 357 355 354 354 354 354 354 353 354 351 349 353 344 343 341 342 343 343 343 342 341 339 341 340
331 332 333 332 333 335 338 340 341 341 342 345 346 347 348 349 350 350 353 356 357 357 359 360 360 359 359 359 360 360 359 358 358 358 358 359 359 358 356 356 355 354 354 355 354 354 351 351 350 348 347 343 343 342 341 342 343 343 343 341 339 340 340
330 331 332 332 333 334 337 339 341 342 342 344 346 347 348 349 350 350 352 355 357 359 360 361 360 359 358 359 360 360 360 359 359 359 358 358 358 357 357 356 355 355 354 354 355 353 351 349 349 348 345 343 343 342 342 341 342 343 343 342 340 340 339
330 331 331 332 332 333 336 338 341 343 343 345 347 348 349 349 349 350 352 354 357 357 359 360 360 359 359 359 359 359 359 358 358 358 358 357 358 357 357 356 356 355 355 354 354 352 351 349 347 348 346 343 343 342 341 341 340 342 342 342 339 339 340
330 330 331 331 332 333 336 339 341 343 344 346 348 348 348 349 349 349 351 353 356 358 359 360 360 360 359 359 359 358 359 359 359 359 358 357 357 357 356 356 356 355 355 353 353 352 351 349 347 348 345 343 343 342 341 341 341 341 341 342 340 339 341
330 331 331 332 332 334 336 339 341 343 344 345 347 348 348 348 349 349 350 352 354 356 358 360 361 361 360 359 358 358 359 359 359 359 358 356 356 356 356 357 356 356 354 354 353 353 351 350 347 346 345 344 343 342 342 341 341 342 341 341 341 339 339
329 330 331 333 333 335 338 340 340 342 344 345 346 346 347 348 349 349 350 351 353 354 357 359 361 362 360 359 358 358 359 359 359 359 359 357 356 356 356 357 357 357 355 355 354 353 352 351 348 347 345 344 343 342 342 341 341 341 341 341 341 340 339
330 331 332 332 333 334 336 339 339 340 344 346 346 347 348 348 348 349 349 350 351 353 356 359 361 361 361 360 358 358 358 358 359 359 358 358 357 356 357 357 357 357 356 355 354 353 352 351 350 347 345 344 343 342 341 341 341 341 341 341 341 340 340
330 331 332 332 332 333 335 337 340 341 344 346 347 348 348 348 349 349 349 349 351 352 354 357 360 361 361 361 358 357 357 358 358 358 358 358 358 357 357 357 357 357 357 356 354 354 353 351 350 348 346 345 343 343 342 341 341 341 341 341 341 340 340
330 332 332 331 332 334 336 339 340 342 344 347 348 349 349 349 349 349 348 348 350 352 354 357 359 361 361 361 359 357 357 358 358 359 359 358 357 358 357 356 357 357 357 357 356 354 352 352 350 350 348 346 345 343 342 341 341 341 341 341 341 340 340
337 332 332 332 332 333 335 338 340 341 341 343 348 350 351 351 351 350 348 348 349 352 354 357 359 360 361 360 359 357 357 358 359 359 359 359 358 357 357 356 355 356 358 358 356 354 353 352 351 350 348 347 345 344 343 342 341 340 341 341 341 341 340
330 331 330 330 332 334 336 336 338 339 341 342 345 348 351 351 351 351 350 349 350 352 353 357 358 359 360 360 358 357 358 358 359 360 360 359 358 357 356 356 355 356 357 357 357 356 354 354 352 350 348 347 346 344 343 342 342 341 341 340 341 339 341
331 331 331 331 333 336 337 338 338 340 341 344 346 347 350 352 352 351 350 350 350 351 353 356 357 357 358 358 358 357 358 358 359 359 360 359 358 358 357 356 356 356 357 358 357 356 355 354 353 351 348 347 345 344 343 343 344 339 332 335 340 340 341
335 335 338 339 335 337 338 338 339 342 345 347 348 349 350 352 353 353 352 352 351 351 353 355 356 356 357 357 358 358 358 358 358 359 359 359 359 358 357 357 356 355 356 357 357 357 355 354 352 351 349 347 346 344 343 343 343 331 329 331 334 339 340
338 339 342 342 340 340 342 346 346 347 349 351 351 351 352 353 353 353 353 353 352 352 353 354 355 355 356 358 359 359 359 359 359 358 358 359 359 358 358 357 357 356 356 357 356 356 356 354 352 351 350 348 346 344 343 343 335 327 328 330 330 335 340
337 340 342 342 342 342 344 350 351 350 352 353 353 352 353 355 354 353 353 353 353 353 352 353 354 354 355 358 359 360 360 360 359 358 358 358 359 359 359 358 358 358 357 357 357 356 355 354 353 351 349 348 346 344 344 344 331 326 326 329 328 330 337
323 326 340 342 343 343 345 351 354 355 354 354 355 354 354 355 355 355 355 355 354 351 351 351 353 353 354 357 359 361 361 361 360 359 359 359 359 360 360 359 358 359 358 358 357 356 355 354 353 350 348 347 345 344 344 344 328 324 324 325 326 329 334
329 326 327 339 342 343 344 347 351 354 354 355 355 354 354 355 356 356 355 355 353 351 350 352 352 352 354 357 359 361 361 361 361 360 360 360 360 361 361 360 359 359 357 357 357 356 354 354 352 350 348 346 345 344 343 344 324 322 322 322 323 326 332
321 325 330 334 340 343 343 344 348 351 353 356 356 355 355 355 356 356 355 356 355 352 351 352 353 352 354 356 359 361 362 362 362 362 362 361 361 361 360 360 359 357 356 355 355 355 355 353 352 349 347 346 345 344 342 343 322 322 321 320 321 325 334
319 319 320 330 340 343 345 346 348 352 354 355 356 356 356 356 357 357 356 356 356 354 352 355 354 353 354 356 360 362 363 363 363 363 362 362 361 360 359 359 357 356 355 354 353 353 351 349 347 345 345 344 344 342 341 335 322 318 317 319 320 324 335
316 316 318 325 341 344 349 350 351 353 354 355 356 357 357 357 358 357 356 355 357 355 354 357 356 355 355 357 361 363 365 365 364 363 362 361 360 359 358 358 357 355 354 352 350 350 349 347 344 343 342 342 341 341 338 333 321 315 315 317 318 326 335
317 316 317 317 330 342 348 349 351 352 355 356 355 357 358 358 357 357 355 355 356 356 354 357 358 357 357 359 363 365 366 366 364 363 362 360 359 359 357 356 355 354 353 351 349 347 345 344 343 342 341 342 341 339 336 335 323 312 314 316 316 326 335
326 328 326 319 318 323 342 349 349 349 353 355 356 358 358 358 357 356 356 355 357 356 355 357 359 360 360 363 365 366 366 365 363 362 361 359 358 357 356 355 354 353 351 350 347 343 342 341 340 338 337 337 337 337 337 335 329 320 312 314 314 320 335
330 332 340 344 335 336 322 344 350 352 354 357 358 358 359 358 357 355 355 356 356 355 356 359 362 362 363 365 366 365 364 364 362 360 360 359 357 356 353 353 351 350 348 345 342 340 339 338 338 336 335 336 336 335 336 335 329 322 311 311 313 317 324
348 350 357 356 353 350 337 321 340 353 356 359 358 358 359 358 356 355 356 356 356 356 359 362 363 364 365 365 365 364 362 361 360 359 358 356 354 352 349 349 349 347 344 342 340 338 337 336 336 335 335 334 334 334 332 333 329 324 312 312 311 313 316
338 341 346 349 350 350 352 355 350 353 357 360 360 360 360 359 356 355 356 356 357 359 362 365 365 365 365 364 363 360 359 359 357 356 356 353 351 349 347 346 345 343 342 341 339 338 337 336 336 335 334 334 332 331 331 332 334 324 321 311 309 309 311
336 335 338 343 344 344 351 353 354 357 360 361 361 361 361 359 356 356 357 357 360 363 365 365 365 365 363 360 359 358 356 356 355 355 353 350 349 347 344 343 342 341 340 339 338 337 336 335 335 334 333 332 331 332 334 333 331 325 322 319 310 308 308
334 333 335 336 337 338 338 337 338 340 345 357 361 362 362 361 359 356 357 360 362 363 365 364 363 361 359 358 357 355 354 353 352 351 350 349 347 344 342 340 340 337 337 338 337 336 335 334 334 332 331 330 330 334 335 335 332 331 327 320 313 310 308
333 333 333 335 337 339 339 340 341 340 344 352 362 362 360 361 360 357 360 363 362 364 364 361 358 356 356 355 354 352 351 350 349 349 348 346 344 342 341 339 337 336 336 337 337 336 334 332 332 331 331 331 334 334 334 332 330 326 323 324 320 316 311
331 332 332 332 333 336 338 340 339 336 337 344 352 362 363 362 362 361 361 361 363 362 359 356 354 351 351 350 349 349 349 348 347 346 345 344 343 342 340 338 337 336 336 336 336 335 334 333 332 331 331 333 335 335 334 331 328 325 323 320 318 318 317
329 331 333 333 333 335 336 335 334 334 335 335 338 343 343 344 347 349 354 359 359 356 353 351 350 350 349 347 346 345 346 345 348 344 342 341 341 340 339 338 337 336 335 335 335 334 333 333 332 331 333 334 334 333 333 331 329 328 326 324 321 319 318
328 331 332 332 333 334 332 332 332 334 336 337 338 341 342 342 343 346 350 351 354 353 350 348 344 346 345 344 344 342 342 342 340 335 327 321 314 310 311 325 338 332 323 318 316 328 337 335 334 334 335 336 335 333 332 332 330 330 322 327 317 321 323
327 328 329 331 333 332 336 336 333 333 335 336 337 339 341 341 342 343 344 345 347 346 344 343 344 343 342 342 342 341 340 337 334 331 327 324 320 317 312 305 302 317 328 321 313 306 306 322 335 338 337 337 333 331 335 333 335 320 311 308 307 309 312
329 327 328 331 330 330 331 334 338 336 336 337 339 341 342 342 344 342 342 344 345 344 342 341 340 341 341 341 340 338 338 336 333 329 326 325 324 322 319 316 311 297 297 304 306 302 299 303 309 319 325 333 328 311 304 309 311 308 305 305 305 306 307
333 332 332 333 333 333 334 335 333 333 334 334 337 339 341 341 341 340 343 342 342 343 342 341 341 339 339 339 338 337 337 337 334 331 329 327 326 324 322 319 317 316 303 297 299 299 296 296 300 306 312 316 318 317 316 307 303 304 304 304 303 303 303

ECMWFFLT1_sfc_thetae_036.txt.gz
Theta_e
329 329 329 330 330 331 333 335 336 336 337 338 339 340 341 343 346 348 349 349 349 349 352 352 351 352 352 353 353 353 353 353 352 352 352 352 351 349 350 349 350 352 352 352 351 352 351 352 350 350 349 348 346 345 341 339 339 339 338 338 337 337 336
327 329 330 330 331 331 332 335 336 336 337 339 339 340 341 343 345 347 349 350 350 349 351 353 353 351 352 352 353 353 353 353 353 354 354 353 353 352 351 350 351 351 351 351 351 352 351 351 350 349 348 349 347 345 340 336 339 339 338 338 337 337 336
327 329 330 331 331 332 332 334 336 337 337 338 340 340 341 343 344 346 348 350 349 350 351 353 354 352 352 352 352 353 353 354 354 354 353 353 352 353 353 351 351 351 351 351 350 351 351 350 350 349 348 348 347 344 341 336 337 340 338 338 338 337 336
327 327 330 332 332 333 334 334 336 337 338 339 340 341 341 343 345 347 349 350 350 350 350 352 353 354 353 352 351 352 353 354 354 355 355 354 353 354 353 352 351 351 350 351 351 351 351 350 349 349 352 348 347 344 340 337 335 340 339 338 338 337 337
327 328 329 330 331 333 334 334 335 337 338 339 341 342 342 344 345 347 349 351 352 351 352 352 354 354 355 354 353 353 353 354 355 355 356 355 355 354 353 352 351 351 351 351 351 351 350 349 349 348 348 348 346 343 340 338 335 338 339 338 337 337 336
326 326 327 329 331 333 334 335 336 337 338 338 340 341 343 344 345 347 349 351 352 353 353 353 353 355 354 354 354 354 354 354 355 356 356 356 355 354 353 353 351 351 350 350 352 351 351 349 349 348 347 347 345 342 340 338 337 337 338 338 337 338 336
325 326 327 329 331 332 334 335 336 338 339 340 341 343 344 344 345 346 349 351 353 352 353 353 354 354 354 355 355 355 354 354 355 355 356 356 356 354 353 353 352 352 352 351 351 351 350 349 349 348 348 347 344 341 339 338 337 337 338 337 336 337 337
326 326 327 329 331 332 333 335 337 339 340 341 341 342 343 344 345 346 348 350 353 354 354 354 354 355 355 355 355 355 355 355 355 356 356 355 355 355 354 353 353 352 352 351 351 351 350 350 349 349 348 346 343 340 339 339 338 337 338 337 335 335 338
327 328 328 329 330 332 334 335 337 339 339 340 341 342 343 344 345 346 347 350 352 353 354 355 355 356 356 355 355 355 356 356 356 356 355 355 355 355 355 354 354 354 352 352 351 352 351 349 349 349 347 346 343 340 338 338 338 338 338 337 336 335 336
326 327 329 330 331 332 333 335 337 338 339 340 340 341 343 344 345 346 347 349 352 353 354 355 356 357 356 356 355 356 356 356 356 356 355 354 355 354 355 355 354 354 353 352 352 351 351 350 348 348 347 345 343 341 339 338 338 338 338 338 337 336 336
327 328 329 329 330 330 331 333 335 337 338 339 341 342 343 344 344 345 346 348 350 352 355 356 357 357 356 356 355 355 355 355 356 355 355 354 354 354 355 355 355 355 353 353 352 352 351 350 348 347 346 345 343 341 340 339 338 338 338 338 339 338 337
327 328 328 329 329 329 329 332 335 337 338 339 341 342 343 344 344 345 346 347 350 352 354 355 357 357 356 356 355 355 355 355 355 355 355 355 354 354 354 355 355 355 354 353 352 351 351 350 349 347 345 345 344 342 341 340 339 338 338 338 338 338 338
326 327 328 328 329 329 329 332 334 336 338 339 341 342 343 344 344 345 346 347 349 351 354 355 356 357 356 356 355 355 354 355 355 356 355 355 355 355 354 354 355 354 354 354 353 351 350 350 349 348 346 345 344 342 341 340 340 339 338 338 338 338 338
332 326 327 328 328 328 329 331 334 336 338 339 341 343 344 344 345 345 345 346 348 350 353 355 356 356 356 356 355 354 354 355 355 356 356 356 356 355 354 354 354 354 354 354 353 352 351 350 349 348 347 345 344 343 342 340 340 339 339 339 338 338 337
324 325 326 326 327 328 330 331 333 335 337 339 341 341 343 344 345 345 346 347 348 349 351 354 355 356 356 356 355 354 355 355 356 356 356 356 355 355 354 354 353 354 354 354 353 353 352 351 350 348 347 346 344 343 342 341 340 340 339 339 338 339 338
324 325 326 327 328 328 330 332 334 335 337 339 341 341 343 344 345 345 345 346 347 348 351 353 354 355 355 355 355 355 355 355 355 355 356 355 355 355 354 354 353 353 353 353 353 353 353 352 351 349 348 346 344 343 342 342 341 337 331 334 340 339 339
324 325 326 327 328 329 330 332 334 335 336 338 341 342 343 345 345 346 346 346 347 348 350 352 353 354 354 355 356 356 356 355 355 355 355 355 355 355 355 354 354 353 353 353 353 353 352 352 350 350 349 347 345 344 343 342 341 329 327 329 332 338 339
324 325 326 327 328 329 330 332 333 335 337 339 342 343 344 345 346 346 346 347 347 348 349 350 352 352 354 355 356 356 356 355 355 354 354 355 354 355 355 354 354 353 352 352 352 353 353 351 351 350 349 348 347 345 344 343 333 324 326 328 329 333 341
326 326 327 327 328 330 331 333 335 336 338 339 342 344 346 347 347 346 347 347 347 348 348 349 350 352 353 354 356 356 356 356 355 354 354 354 355 355 355 354 353 352 351 351 353 353 352 352 351 350 349 348 346 345 345 344 330 324 325 328 327 329 335
329 329 329 329 330 331 333 335 336 338 339 340 342 345 347 349 348 349 349 349 348 347 348 348 350 351 352 354 355 356 356 356 355 354 354 355 355 355 354 353 352 352 352 352 352 352 352 352 351 350 349 348 347 346 345 344 327 323 323 325 325 327 332
329 330 331 332 331 332 334 335 336 338 339 340 342 344 346 348 350 350 350 349 348 348 347 348 349 350 352 353 355 356 356 355 355 354 354 354 355 354 354 354 353 353 352 352 352 352 352 352 351 351 350 349 348 346 345 345 323 321 322 322 322 325 329
327 329 329 331 333 333 333 334 336 337 339 342 343 344 345 347 350 350 350 350 349 348 348 348 348 350 351 352 354 355 356 355 355 354 354 354 354 354 354 354 353 353 353 352 353 353 354 353 353 351 350 349 348 346 344 344 320 321 321 321 321 323 332
318 322 325 329 336 338 338 336 337 339 341 342 344 345 346 347 349 350 350 350 349 348 348 348 348 348 350 351 353 355 355 355 355 354 354 354 353 353 354 354 354 354 354 353 353 353 353 353 352 352 350 348 347 346 344 342 323 320 319 319 319 322 333
323 318 314 320 329 337 341 341 341 343 345 344 344 346 348 348 348 349 349 350 350 349 348 347 347 349 350 351 352 354 355 356 355 354 354 353 353 353 354 355 355 355 355 354 353 353 353 353 352 350 350 348 346 346 344 342 326 318 318 318 318 324 334
336 333 327 317 324 332 337 341 342 343 346 347 348 349 349 349 349 350 349 349 350 349 348 347 348 349 349 351 352 354 356 356 356 355 355 354 354 354 354 355 355 356 355 355 355 354 352 350 349 346 346 346 346 344 343 342 329 316 317 316 315 326 336
334 336 340 346 342 329 333 339 341 341 342 345 349 352 352 350 350 350 350 350 350 349 348 348 349 350 351 352 352 354 356 357 356 356 356 355 355 355 356 357 356 355 354 354 353 350 348 346 345 343 342 343 344 343 343 338 331 322 314 313 313 320 336
334 335 338 340 340 344 328 332 341 342 342 344 348 351 352 352 351 350 350 350 350 349 350 351 351 350 351 351 352 354 356 358 358 357 357 358 357 357 357 357 356 354 352 350 348 346 344 343 341 341 339 339 339 339 337 337 330 323 311 311 312 317 326
333 334 337 340 341 340 343 343 336 334 341 343 345 348 350 352 351 349 350 350 350 351 353 353 351 351 351 351 352 354 356 358 359 359 359 359 358 356 356 356 355 353 350 347 345 343 341 339 338 337 334 333 334 335 335 333 328 325 312 312 311 314 321
331 331 332 335 337 339 339 337 338 340 342 346 347 350 351 350 349 349 349 349 350 353 354 354 352 352 352 351 353 354 357 358 358 358 360 359 357 356 354 353 352 348 345 344 343 341 338 336 335 333 332 331 331 331 331 331 329 320 319 311 310 311 315
331 332 332 333 335 336 340 336 336 340 343 345 345 347 352 352 350 349 347 349 353 354 354 354 354 354 353 352 354 356 358 359 359 360 359 357 356 354 352 349 347 344 342 342 340 337 335 333 333 333 331 329 328 328 328 328 326 320 318 317 311 309 311
330 331 331 331 332 334 336 339 336 337 338 340 342 343 343 350 352 350 350 351 353 353 354 355 355 355 355 355 356 357 359 359 359 358 357 355 354 350 348 344 343 340 339 339 337 335 334 333 333 332 331 330 328 327 326 328 326 322 320 316 311 310 311
331 332 332 332 332 333 335 337 338 337 336 336 338 341 342 344 346 350 351 355 356 356 357 357 356 355 356 357 358 358 358 357 356 355 354 352 351 349 346 343 341 339 337 337 336 335 334 332 332 331 331 329 328 329 329 327 327 324 322 320 317 315 312
328 329 330 330 331 332 331 332 333 334 333 333 336 339 341 343 342 341 343 344 349 353 353 352 355 354 356 357 357 357 356 354 352 350 349 347 346 344 342 341 339 338 336 336 336 334 333 332 331 331 329 328 329 330 329 328 327 326 324 322 319 319 317
326 327 328 329 331 332 331 332 333 334 335 335 338 340 340 339 339 340 341 343 344 344 344 343 344 349 353 355 355 354 353 350 350 346 344 342 341 340 339 339 339 338 336 335 335 333 332 332 331 329 329 329 330 330 330 328 327 325 324 322 321 320 317
327 327 328 328 329 331 332 333 333 334 333 334 338 339 338 337 338 339 339 340 341 341 338 336 335 338 345 350 351 348 347 347 344 342 341 336 327 327 333 337 338 336 332 330 335 336 334 332 331 331 331 332 331 331 329 329 327 328 319 324 316 318 317
328 330 330 331 330 330 333 334 333 332 331 332 336 338 337 338 339 340 342 340 339 339 337 335 335 336 337 338 338 338 337 337 336 334 330 326 322 319 315 307 301 315 332 326 314 315 321 321 331 333 335 334 334 334 332 330 332 318 310 307 306 306 308
326 328 330 332 332 331 330 331 333 332 331 330 333 336 337 338 339 339 340 339 339 339 337 337 336 335 336 336 335 333 334 333 333 332 330 327 325 323 319 318 312 297 296 304 308 305 305 310 312 318 323 333 330 317 311 321 311 304 303 302 302 302 303
325 326 328 331 333 333 331 330 331 331 331 330 331 334 335 336 337 338 339 339 338 338 337 336 335 333 333 333 333 332 332 333 331 329 327 326 326 325 324 322 318 313 300 296 300 300 298 303 307 309 312 316 322 319 316 308 302 302 301 301 301 301 301

ECMWFFLT1_sfc_thetae_039.txt.gz
Theta_e
323 323 325 328 329 330 331 332 332 333 334 335 336 337 338 341 342 343 343 344 345 345 347 349 350 351 350 350 351 351 351 351 350 350 349 349 348 348 348 348 349 351 353 352 353 353 354 354 353 353 351 350 348 346 344 343 341 340 337 336 334 334 333
322 323 324 326 328 330 331 332 333 333 334 335 337 337 338 340 342 343 343 344 345 345 346 348 350 350 351 351 351 351 351 350 351 351 350 349 349 348 349 349 349 350 352 353 353 354 354 353 353 352 350 350 348 346 345 343 341 338 337 335 334 332 333
322 323 324 325 327 329 330 332 333 334 334 335 337 337 338 339 342 343 344 344 344 345 346 348 350 350 351 351 351 351 351 351 350 350 349 349 349 348 348 349 349 350 352 353 353 354 354 353 352 352 350 348 347 346 345 342 341 338 337 336 335 333 332
324 324 324 325 326 329 330 332 333 334 335 335 336 337 338 339 342 344 345 345 344 345 345 347 349 350 351 350 350 351 351 351 350 350 350 350 350 350 348 348 349 349 350 351 353 354 354 353 351 351 352 348 347 345 344 342 340 338 337 336 335 334 333
324 325 325 325 326 327 329 330 332 334 334 335 336 338 339 340 342 344 345 346 346 345 347 347 349 350 351 351 351 351 351 351 351 351 350 350 351 351 349 348 348 348 350 351 351 352 352 351 350 350 349 348 346 345 344 342 338 338 337 335 334 334 334
323 325 326 326 326 327 328 330 332 333 334 335 335 337 338 339 341 343 345 346 346 347 347 348 348 349 350 351 351 351 352 351 352 351 351 351 350 350 350 350 349 349 349 349 351 350 351 350 350 349 348 348 347 345 344 342 339 336 337 336 335 335 334
323 325 326 327 327 328 328 329 331 333 335 336 336 337 339 339 340 342 344 345 347 346 346 347 349 349 349 350 351 351 350 351 351 351 351 351 351 350 351 351 351 349 350 350 349 350 349 349 349 349 348 347 347 345 344 342 340 336 336 336 335 334 334
324 324 326 327 328 329 329 330 330 332 334 336 336 336 337 339 340 340 342 345 346 347 347 347 349 349 350 350 350 350 350 351 351 352 352 351 351 351 351 351 351 351 350 349 350 350 349 349 349 349 348 347 346 346 344 342 341 337 335 336 335 334 335
324 325 326 327 329 330 330 331 331 331 332 334 335 336 337 339 339 340 341 343 346 347 347 348 349 350 351 351 350 349 350 350 351 351 351 351 351 351 351 351 352 352 350 350 349 350 350 349 348 348 348 347 346 345 344 343 341 339 336 335 335 335 335
323 323 325 327 329 330 331 331 332 332 332 333 334 335 337 338 339 340 341 343 345 346 347 348 349 350 351 351 350 350 350 350 350 351 351 351 351 351 352 352 352 353 351 350 350 349 350 349 348 348 347 346 346 345 344 342 341 339 337 336 335 335 335
322 323 325 326 327 328 330 331 331 332 332 333 334 336 337 338 339 340 341 343 344 346 348 349 349 350 350 351 351 351 350 350 350 350 350 351 352 352 352 353 352 352 352 351 350 349 349 349 349 347 347 346 345 345 343 342 341 339 337 336 336 335 334
320 321 323 325 326 327 328 330 331 332 333 334 335 336 337 338 339 340 341 343 345 346 347 349 350 350 350 351 350 350 350 351 350 350 350 351 351 352 353 353 353 352 352 352 350 350 349 349 348 348 346 346 346 345 344 342 340 339 338 337 336 335 334
319 321 323 324 325 326 328 328 329 331 333 335 335 336 337 338 339 340 341 342 345 346 348 349 350 350 350 350 350 350 351 351 351 351 351 351 352 352 353 353 353 353 352 352 351 350 349 349 348 348 347 347 346 345 344 342 340 339 338 337 336 335 334
327 321 323 324 325 325 326 327 329 331 333 334 336 337 338 339 340 341 341 342 344 346 348 350 351 351 351 351 350 350 351 352 352 352 352 353 353 352 353 353 353 353 353 353 351 350 349 349 348 348 348 347 346 346 345 343 341 339 338 337 337 336 335
318 320 322 323 324 325 325 326 328 331 333 335 336 337 338 339 340 341 342 343 344 346 348 350 351 351 351 351 351 351 352 352 353 354 353 353 353 352 352 352 353 353 353 352 352 352 351 350 349 348 347 346 346 346 345 343 342 340 339 337 336 336 336
316 319 321 323 324 325 326 327 328 330 333 334 335 337 338 339 340 341 341 342 344 346 348 350 351 351 351 351 351 352 352 353 353 353 354 353 353 352 352 352 352 352 352 352 352 352 351 350 350 349 348 346 345 345 344 343 343 338 330 332 338 337 337
316 318 321 324 325 326 327 327 328 330 332 334 335 337 338 339 341 341 342 343 344 345 348 350 350 351 351 351 352 353 353 353 353 353 353 353 353 353 352 352 352 351 351 351 352 351 351 350 349 349 348 347 345 344 344 344 342 330 326 328 330 336 337
316 317 320 322 323 324 326 327 327 329 331 334 336 337 338 339 341 341 342 343 343 345 348 349 350 350 351 352 353 353 353 353 353 353 353 353 353 353 353 352 351 351 350 350 350 351 351 350 349 349 348 348 346 344 344 343 334 326 325 327 327 331 339
316 318 319 321 324 326 326 327 328 330 332 334 336 337 339 341 341 341 342 343 344 346 346 348 349 350 350 352 352 353 353 353 353 352 352 353 353 353 353 352 351 350 350 349 350 350 350 350 350 349 349 348 346 345 345 344 332 325 324 325 326 327 332
321 318 321 322 324 326 327 328 329 331 332 334 337 339 340 342 342 343 344 344 345 345 345 347 348 349 350 351 352 353 353 353 353 352 352 353 353 353 352 351 351 351 351 350 350 349 349 349 349 349 348 348 347 346 346 345 329 323 321 323 324 326 329
322 323 322 322 324 325 326 327 329 330 332 334 337 339 340 341 343 343 344 344 344 344 345 346 347 348 349 350 352 353 353 353 353 352 352 352 353 352 352 351 351 351 351 350 349 349 349 349 349 349 349 349 348 347 346 347 326 320 320 320 321 324 326
315 322 324 325 325 325 327 329 330 331 333 337 338 340 341 341 343 343 343 344 344 344 345 345 346 347 348 349 351 352 353 353 353 352 352 352 352 352 351 351 351 351 351 351 350 350 350 350 350 349 349 349 349 347 346 347 323 319 319 320 321 323 331
331 322 321 321 325 328 328 331 331 332 335 337 338 339 341 343 343 343 343 343 344 344 344 344 344 345 347 348 350 352 353 353 353 352 352 352 351 351 351 351 351 351 352 350 350 349 349 349 350 350 350 349 348 347 347 347 326 318 317 319 320 322 332
334 335 337 337 333 328 329 333 332 334 334 334 336 338 340 342 343 343 343 343 344 344 343 343 343 345 346 347 349 351 352 353 353 353 352 352 351 351 352 352 352 352 352 350 349 349 349 350 350 350 350 349 349 348 347 347 328 316 316 318 318 323 334
332 334 336 336 337 338 337 330 334 334 336 334 334 336 339 340 342 343 343 344 344 344 343 343 344 345 345 347 349 350 352 353 354 353 353 352 352 352 352 352 352 352 352 351 351 350 350 350 349 350 350 350 350 342 345 347 328 314 317 317 317 323 336
330 332 334 336 337 338 336 334 333 336 336 336 338 339 341 342 342 343 344 344 345 344 343 344 345 346 347 347 348 350 352 354 354 354 353 353 353 353 353 353 352 352 352 351 351 350 350 349 349 349 349 350 350 348 346 346 335 322 315 315 315 318 335
331 332 332 334 336 339 337 337 334 334 335 336 340 344 342 343 342 342 343 345 345 344 345 346 347 347 347 347 348 350 352 353 354 354 354 354 354 354 353 353 352 352 352 351 351 351 350 349 349 349 349 349 349 348 346 345 337 328 314 313 314 315 326
331 332 333 335 336 335 337 336 336 337 339 340 340 343 347 345 343 342 342 343 344 346 348 349 348 348 347 347 348 349 351 352 354 354 354 355 354 353 352 353 353 353 352 352 351 350 349 349 347 348 345 343 343 343 343 339 333 333 316 314 311 313 320
329 329 329 330 331 334 336 335 335 335 337 340 341 342 343 347 344 344 343 343 344 347 349 349 348 347 347 347 347 349 350 352 352 353 355 354 354 353 352 352 352 352 352 351 350 349 348 346 345 342 338 336 337 338 337 336 334 323 321 312 311 310 316
330 331 331 332 332 332 336 334 335 335 335 336 337 339 340 341 344 345 344 345 348 348 348 348 349 348 348 347 347 348 349 351 352 353 354 354 353 353 352 351 352 351 352 351 349 348 345 342 341 339 336 334 332 332 333 333 332 322 319 318 311 310 312
329 329 330 330 330 332 333 334 333 333 333 335 337 338 340 340 339 339 344 347 347 346 348 349 350 348 348 347 347 347 349 350 351 352 353 354 354 352 352 351 351 350 350 349 348 346 343 339 339 338 335 333 332 331 330 329 328 325 322 316 311 311 311
329 330 331 331 332 332 332 334 335 334 334 336 337 338 339 339 338 337 340 341 346 349 349 349 348 348 348 348 347 347 348 349 350 352 353 354 354 353 353 352 350 349 347 347 346 344 341 337 337 336 334 332 331 330 329 326 324 322 321 320 317 315 313
329 329 329 329 332 333 333 334 335 335 335 335 337 338 338 336 338 338 339 340 341 346 349 349 349 348 348 348 348 348 348 348 350 351 353 354 354 354 353 352 351 348 344 345 344 341 339 337 336 334 333 332 330 329 328 326 323 321 320 319 318 319 318
329 330 330 331 331 331 330 331 331 332 334 334 336 336 335 335 336 337 338 339 341 343 342 347 348 349 349 349 349 348 349 349 352 352 353 353 354 352 351 349 349 346 344 344 343 341 338 337 336 334 333 332 330 328 327 325 324 322 320 319 319 319 318
329 330 332 332 331 330 329 329 327 327 330 333 334 335 334 334 336 337 336 339 340 340 339 338 337 340 342 347 350 350 349 351 351 352 353 352 352 350 349 348 346 345 345 346 346 344 341 339 337 336 336 333 330 328 326 325 324 324 317 321 315 318 319
326 328 329 333 333 332 331 332 331 330 328 329 333 334 335 335 336 337 339 339 340 339 338 337 335 334 335 336 340 343 346 348 348 348 349 347 337 324 316 309 306 323 342 331 325 330 325 326 337 336 335 333 332 331 328 327 328 315 307 306 306 306 309
323 325 326 329 330 332 333 333 334 333 331 328 330 332 334 335 336 336 338 338 338 339 337 335 335 335 333 334 336 337 339 337 336 337 337 336 335 335 328 318 311 298 304 317 320 313 307 308 312 317 324 331 330 321 319 318 310 304 304 303 303 303 303
324 325 326 328 329 330 332 333 334 333 332 330 329 331 333 334 336 336 337 336 335 335 334 333 332 330 330 331 332 333 334 336 334 333 332 332 334 333 328 323 317 312 300 300 308 308 306 306 307 310 313 316 320 320 316 307 304 303 301 302 301 301 300

ECMWFFLT1_sfc_thetae_042.txt.gz
Theta_e
326 327 329 330 330 332 333 333 333 333 334 335 336 337 338 340 342 343 344 344 345 345 346 348 348 349 349 350 351 351 352 351 351 350 350 349 350 349 349 349 349 350 351 352 353 354 356 357 356 356 356 356 355 354 351 349 347 345 342 341 340 339 337
322 325 327 328 329 330 332 333 334 333 334 335 335 337 337 339 341 342 343 344 345 345 346 347 348 349 349 350 351 351 351 351 351 352 351 350 351 350 350 350 350 349 351 352 354 355 356 356 356 356 355 356 355 354 351 348 347 345 342 340 338 338 337
321 323 325 327 328 329 331 332 333 333 333 334 335 335 337 338 340 341 343 344 344 345 346 347 348 349 350 350 350 350 351 351 351 351 350 349 350 350 350 350 350 350 350 352 354 354 356 356 356 356 355 354 354 353 351 348 347 345 343 341 339 338 337
320 321 324 326 328 329 330 332 333 333 334 334 334 335 336 338 340 342 343 343 343 345 345 346 347 348 349 350 350 350 350 351 351 351 351 351 350 350 350 350 350 350 350 351 353 354 355 356 355 355 357 354 353 353 351 348 347 345 343 341 340 339 338
320 321 322 323 325 327 328 330 331 333 333 334 335 336 337 338 339 341 342 343 344 344 345 346 347 349 350 350 350 350 350 351 351 351 351 351 351 351 349 349 349 349 350 351 354 355 355 355 354 354 354 354 353 352 350 349 347 345 343 341 340 339 338
320 321 321 322 324 325 327 329 331 332 333 333 334 335 336 337 338 339 341 343 343 344 346 346 347 349 349 350 350 350 351 351 352 352 351 351 351 350 349 349 349 349 349 350 353 354 355 354 354 354 353 353 352 351 350 348 347 345 343 341 340 339 338
321 322 322 322 323 324 326 328 330 332 333 334 334 335 336 336 337 338 340 342 343 343 344 345 346 347 349 350 350 351 350 350 351 351 351 351 351 351 350 350 350 350 350 351 351 353 353 354 354 353 353 353 352 351 349 348 346 344 343 341 340 339 339
322 322 323 324 324 324 325 327 329 331 333 334 334 334 335 336 337 338 339 341 342 343 343 344 345 347 348 350 350 350 350 351 351 351 351 351 351 351 351 351 350 350 350 350 351 352 352 353 353 353 353 352 351 351 350 348 347 344 342 341 340 339 339
321 323 323 324 325 325 325 326 328 330 331 332 333 334 334 336 337 338 339 340 342 343 343 344 345 347 348 349 349 350 351 351 351 351 351 350 350 350 350 351 351 351 350 349 350 352 352 352 352 352 352 352 351 350 349 348 347 345 342 341 340 340 339
320 321 323 325 326 326 326 326 327 329 330 332 333 334 334 335 337 338 339 340 342 342 343 345 345 346 347 348 349 350 350 350 351 351 350 350 350 350 350 351 351 352 351 350 350 350 351 352 352 352 351 351 350 350 349 348 347 346 343 341 341 340 339
318 320 322 322 324 326 327 326 326 327 329 331 332 333 334 335 336 337 338 340 341 342 344 345 346 346 347 347 348 349 350 350 350 350 350 350 350 350 351 351 351 352 351 351 350 350 351 351 351 351 350 350 350 349 349 348 347 346 344 342 341 341 340
317 318 320 322 323 325 326 327 328 328 329 330 332 333 334 335 336 337 338 340 341 342 344 345 346 347 347 347 347 348 349 349 350 350 350 350 350 351 351 351 351 351 352 352 350 350 350 350 350 350 349 350 350 350 349 349 348 346 345 343 342 341 340
316 317 320 321 323 324 327 328 328 328 329 329 331 332 334 335 336 337 338 339 341 343 344 345 346 347 347 347 347 347 348 349 349 350 350 351 351 352 352 352 352 352 351 352 351 350 350 350 350 350 350 350 350 349 349 348 348 347 346 344 343 341 340
322 317 318 320 322 324 325 327 328 329 329 330 330 332 334 335 336 337 338 338 340 342 343 345 346 346 347 347 347 348 348 349 350 350 351 351 352 352 352 352 352 352 353 353 351 351 350 350 349 350 350 350 349 350 349 349 347 347 346 345 343 342 340
311 314 317 317 321 323 325 326 327 329 330 330 331 331 333 334 336 337 338 339 340 341 343 345 346 346 346 347 347 348 349 350 350 351 351 351 351 351 352 352 352 353 353 353 352 352 351 351 351 350 349 350 349 349 349 348 347 346 345 344 343 342 341
311 313 315 317 319 322 324 326 327 329 330 331 331 332 332 334 335 336 337 338 340 341 343 345 346 346 346 346 347 349 350 350 351 351 351 350 350 351 352 352 352 352 352 352 352 352 352 352 351 350 349 349 349 349 348 348 347 340 331 334 343 342 341
310 312 314 317 320 321 324 325 327 328 330 331 332 332 333 334 335 337 338 339 340 341 343 345 345 346 346 346 348 349 350 350 350 351 350 350 351 351 351 351 352 352 352 352 352 352 352 352 350 350 350 349 348 348 348 348 346 332 328 328 331 340 342
311 311 312 314 318 321 323 324 325 326 328 330 332 333 334 335 336 337 337 339 340 341 343 344 345 345 346 347 348 349 349 350 350 351 351 351 351 351 351 352 352 351 352 352 352 352 352 351 351 350 350 350 349 348 348 348 336 328 327 327 327 331 342
314 313 313 315 318 321 322 324 325 327 328 330 332 334 335 336 336 337 338 339 341 343 343 344 345 346 346 347 348 349 349 350 350 350 351 351 351 352 352 351 351 351 351 351 352 352 351 351 351 350 350 350 349 348 348 348 334 327 325 326 325 326 333
316 318 318 319 318 320 323 325 326 327 329 332 334 335 337 338 337 339 340 341 342 342 343 344 345 346 347 348 348 349 350 350 350 350 351 352 352 352 352 351 351 351 352 352 352 351 351 351 351 351 350 350 349 349 349 348 334 325 323 323 323 324 329
317 320 321 322 321 321 323 326 327 328 329 330 333 335 337 338 339 340 341 342 342 343 343 344 345 346 347 348 349 350 350 351 350 350 351 352 352 352 352 352 352 352 352 352 351 351 351 351 350 351 350 350 350 349 348 349 331 322 321 320 320 322 326
328 330 328 328 325 323 324 325 327 328 329 333 335 336 337 337 339 340 341 342 342 342 343 344 345 346 347 348 349 350 351 351 351 351 352 352 352 352 352 352 352 351 352 352 352 352 352 352 352 351 350 351 350 349 348 349 327 321 320 319 319 321 333
330 331 333 334 334 330 327 327 329 330 335 334 335 336 337 338 340 341 341 341 342 343 343 344 344 345 346 348 349 350 351 352 351 351 351 352 351 351 351 352 352 353 353 352 351 351 350 351 351 351 351 350 350 349 349 349 331 320 318 317 317 323 336
332 333 334 335 336 337 337 332 332 334 333 334 335 337 339 340 340 341 341 341 342 342 342 343 343 345 346 347 349 350 352 352 352 351 351 351 351 351 351 352 353 353 353 352 351 350 351 351 351 351 351 350 350 350 349 349 334 317 316 315 316 326 337
331 332 333 334 334 336 336 336 334 336 336 334 335 336 339 340 340 340 340 341 342 342 342 342 343 344 346 347 349 351 352 353 353 353 352 351 351 352 352 352 352 353 353 353 353 352 352 351 351 351 351 351 350 339 346 350 337 316 316 314 315 327 339
330 330 331 333 335 337 337 339 339 337 336 335 336 338 340 341 341 341 340 341 341 341 341 342 344 345 346 348 349 351 352 353 353 353 353 352 353 353 353 353 352 352 352 352 353 352 352 351 350 350 350 351 350 350 348 349 348 325 314 313 314 321 339
331 331 331 333 334 337 336 336 338 338 338 338 339 340 341 341 341 341 341 342 341 341 342 344 346 347 348 348 349 350 351 352 353 353 353 354 353 353 353 353 352 352 352 351 352 352 351 350 350 349 350 350 351 351 350 350 348 328 312 312 313 317 327
330 331 332 334 335 335 336 335 335 337 337 337 339 341 342 342 340 341 342 342 341 343 345 346 346 346 346 347 347 349 350 351 353 354 354 354 354 353 353 354 354 353 352 352 351 350 350 349 349 349 349 350 350 351 351 346 337 334 314 314 312 314 319
328 328 329 331 331 334 335 333 332 333 334 337 338 339 341 343 341 342 342 342 344 347 349 349 347 347 347 346 347 347 349 351 351 352 354 354 353 353 352 353 353 353 352 351 350 350 349 349 349 348 348 349 349 350 351 351 343 325 324 313 312 311 315
329 330 331 332 332 333 334 334 334 334 336 337 338 339 339 340 341 341 341 341 344 346 348 350 348 348 347 346 346 347 348 349 350 352 353 354 354 353 353 353 353 353 352 351 350 349 348 349 349 348 347 347 347 348 348 348 347 326 322 320 312 310 313
330 330 330 331 331 333 334 334 334 334 335 336 337 338 338 338 339 339 339 340 341 344 347 348 348 348 347 346 346 346 348 349 350 351 352 353 353 352 352 352 352 351 352 351 350 349 348 348 348 347 346 346 345 344 343 343 343 338 327 319 312 311 312
331 332 332 332 332 333 333 333 334 334 334 335 336 336 337 336 337 337 337 340 341 343 346 347 347 347 347 347 347 347 348 348 348 350 351 352 353 353 353 352 351 351 351 351 350 350 349 348 347 346 346 345 344 342 340 338 338 334 330 323 317 314 313
330 331 331 330 332 333 332 331 330 331 332 333 334 335 336 336 337 337 338 339 341 343 344 346 347 347 347 347 348 348 348 347 347 348 349 351 352 353 353 353 352 351 349 350 350 350 349 348 346 345 345 344 343 340 337 334 333 331 326 323 322 321 319
330 331 332 332 333 333 332 331 329 330 331 332 333 335 336 336 336 337 337 339 340 341 341 342 343 345 347 348 348 348 348 347 348 347 347 349 350 351 351 352 352 351 350 349 350 349 348 348 346 345 344 344 342 338 334 332 331 328 324 322 322 322 323
329 330 332 332 333 333 332 332 331 330 331 331 333 335 335 336 337 337 337 338 339 340 340 339 338 340 342 344 348 349 348 347 347 347 347 348 350 351 352 351 351 351 352 353 354 352 350 349 348 347 347 345 340 335 331 331 329 329 319 323 318 321 325
328 329 330 332 334 334 334 334 333 331 330 330 332 334 335 336 336 336 338 337 338 338 338 338 338 339 339 338 339 341 345 347 348 348 347 348 348 349 350 340 322 337 352 352 339 335 332 333 346 348 347 344 340 339 336 333 334 316 309 308 308 310 314
328 329 330 333 333 333 334 334 333 333 332 331 332 334 335 335 336 336 336 337 336 336 335 335 336 335 333 334 335 334 335 336 337 340 345 348 349 349 348 346 334 311 310 321 333 327 320 318 322 325 330 338 337 330 322 319 310 306 306 304 305 306 306
327 328 330 332 332 333 333 333 334 333 332 333 333 333 333 334 335 335 336 336 336 335 334 334 333 331 330 331 332 332 332 331 330 330 330 331 336 343 348 344 339 333 313 309 317 320 315 314 312 313 316 319 325 325 323 310 306 304 303 303 303 304 303

ECMWFFLT1_sfc_thetae_045.txt.gz
Theta_e
337 338 339 340 340 340 341 344 345 344 346 347 347 347 347 348 350 353 353 355 355 356 358 358 358 358 357 358 359 360 360 359 359 357 357 357 358 359 359 360 360 361 361 361 362 363 366 368 367 367 367 367 366 364 363 362 362 362 363 361 359 357 355
335 336 337 339 340 340 342 344 346 345 345 346 347 348 347 348 351 351 352 355 356 356 357 357 358 357 358 358 359 360 360 359 359 359 359 359 360 361 361 361 360 361 363 362 363 366 367 367 367 367 366 366 364 364 362 362 362 363 361 360 357 356 355
333 335 337 338 338 339 342 343 345 345 345 345 346 346 347 349 350 351 353 353 354 356 357 357 358 357 358 359 359 359 360 359 359 358 358 357 358 356 360 361 361 360 361 363 364 364 366 366 367 367 367 366 364 363 362 362 362 362 362 360 357 356 354
331 333 335 338 340 341 343 343 344 344 344 345 345 345 347 350 350 352 353 352 353 355 355 357 357 357 358 358 358 359 359 360 360 358 357 358 358 359 359 360 361 360 360 361 362 362 364 365 366 366 366 366 365 363 362 362 361 362 362 360 357 356 355
330 333 334 336 338 340 340 341 343 344 343 344 345 347 349 349 349 350 351 353 352 353 354 356 356 357 358 359 358 358 359 360 360 359 359 359 360 361 360 358 358 358 359 361 362 363 364 364 364 365 365 365 364 363 361 362 361 362 361 359 357 355 353
328 330 332 334 335 337 339 340 341 342 343 343 344 345 346 346 347 346 348 351 352 353 356 356 356 357 357 358 358 358 360 360 361 361 360 360 361 359 359 358 358 359 358 360 361 361 363 363 362 363 363 363 361 361 361 362 360 360 361 359 357 355 353
329 330 331 332 334 336 337 339 340 341 343 343 344 345 345 344 345 346 347 348 350 352 353 353 354 356 357 357 357 359 359 359 360 360 360 360 361 360 360 360 360 359 359 361 360 361 361 361 362 364 363 362 362 361 362 362 361 362 360 358 357 356 355
331 331 332 333 333 334 336 338 339 340 342 344 343 342 343 343 344 345 345 346 348 349 351 351 353 355 356 357 357 358 358 358 359 359 359 359 359 359 359 360 360 360 361 360 361 361 360 361 362 363 363 362 363 363 364 365 364 361 360 358 356 356 354
330 335 333 331 332 331 333 337 339 339 342 343 343 343 342 343 342 344 345 346 347 348 349 350 352 354 357 357 358 358 358 358 358 359 359 358 358 358 357 359 360 360 359 359 359 361 361 361 361 363 364 363 363 364 364 364 363 362 360 358 357 355 354
331 334 336 334 333 331 334 336 339 342 343 343 343 345 343 343 343 343 344 345 346 347 348 350 352 354 356 356 356 358 358 358 358 358 357 356 357 357 357 357 359 360 359 358 358 359 361 362 362 363 364 362 362 363 363 363 363 362 360 358 357 356 355
329 335 337 335 336 335 335 334 337 339 340 342 343 343 344 344 343 343 344 345 345 346 348 350 352 353 354 354 354 355 357 357 357 357 356 356 356 356 357 357 357 358 358 358 358 359 360 361 362 363 363 361 361 362 362 362 362 361 359 358 358 357 356
333 335 336 337 339 339 336 337 339 339 341 342 343 342 343 344 344 343 344 345 345 346 348 349 351 352 353 353 353 355 357 357 357 356 356 356 356 356 357 357 358 358 358 358 357 358 358 359 360 361 362 362 362 362 363 363 362 362 360 358 357 356 356
329 332 334 333 338 340 343 342 340 339 341 341 340 343 343 343 344 343 346 346 345 346 348 350 352 353 352 352 352 355 357 357 356 356 356 357 357 357 357 357 357 357 357 358 357 357 357 357 359 360 361 361 362 361 362 362 362 361 361 359 358 356 355
327 325 329 333 336 338 340 343 343 341 341 342 341 343 342 344 344 345 346 345 345 346 348 350 352 353 352 352 352 356 357 358 358 357 358 358 359 359 358 358 358 358 359 359 357 356 356 356 357 359 360 360 361 362 362 362 361 361 361 360 358 356 355
324 325 328 329 335 338 339 340 343 343 342 342 341 342 342 342 344 346 347 348 348 346 348 350 352 352 352 353 353 356 358 358 359 359 359 359 360 359 359 358 359 359 359 360 359 358 357 358 358 358 359 359 360 361 361 360 360 360 360 359 358 357 354
320 322 324 328 334 334 339 340 342 345 345 345 342 342 341 343 344 344 345 346 347 348 348 353 354 354 352 353 356 357 358 359 360 360 360 360 360 360 360 359 359 359 359 360 359 359 359 359 358 358 358 358 359 360 359 359 360 348 336 341 357 357 355
325 326 328 331 334 333 336 339 341 344 345 346 345 344 342 342 345 345 343 346 345 348 350 350 351 354 354 354 356 357 358 359 359 359 359 359 359 360 360 360 360 360 360 360 360 359 360 359 358 357 357 357 357 358 358 358 357 335 330 332 336 352 356
329 333 330 329 330 331 334 335 338 341 342 342 343 344 344 343 344 344 343 346 347 347 348 349 352 352 355 354 356 358 358 357 358 358 358 359 359 360 360 360 360 360 360 359 359 360 360 359 359 359 358 357 357 357 357 358 340 329 328 330 330 336 355
328 330 331 333 332 332 330 331 334 341 341 342 343 343 342 344 342 346 345 347 349 350 350 351 352 353 354 356 357 357 358 359 358 358 358 359 359 360 360 360 360 359 359 358 360 361 360 359 358 358 359 358 357 356 357 357 336 328 326 328 327 328 339
328 327 328 331 333 333 334 334 334 337 342 345 345 342 346 346 345 347 349 349 353 352 351 350 351 353 354 357 357 358 358 359 358 357 358 359 359 359 359 359 358 359 360 359 360 359 359 359 359 359 359 358 358 358 358 358 335 325 324 325 325 326 333
337 338 341 342 343 341 341 339 338 339 341 340 340 345 347 346 345 347 350 353 352 353 352 352 353 354 355 356 357 358 358 358 358 358 359 359 359 359 358 358 359 359 359 358 358 357 357 357 357 358 358 358 357 357 357 357 329 323 322 321 321 324 328
339 340 341 344 345 346 347 345 341 338 339 341 340 341 343 344 345 344 349 352 351 353 354 354 353 353 355 355 356 357 358 358 358 359 359 359 359 358 357 358 358 358 359 358 357 358 358 359 359 357 357 358 357 356 356 357 326 322 321 320 320 322 338
339 341 342 344 344 344 347 349 348 343 342 342 341 341 343 344 345 347 349 349 350 353 353 353 353 353 354 354 355 356 357 357 357 358 358 359 358 357 357 358 358 359 360 358 357 357 357 357 357 358 358 357 356 356 355 356 334 320 318 318 318 323 343
339 341 341 342 344 346 348 349 347 345 341 342 343 346 350 349 348 352 354 352 353 352 351 351 351 353 355 354 357 357 357 358 357 357 357 358 357 357 358 358 359 359 360 357 356 355 356 357 357 357 357 357 356 356 355 356 336 316 316 317 316 326 345
339 340 341 342 342 344 346 349 348 343 346 346 346 350 353 353 352 350 351 351 351 350 349 350 352 353 354 355 357 357 358 358 357 357 357 357 358 358 358 358 359 360 361 358 358 357 358 357 356 357 359 357 357 343 352 356 337 315 317 316 315 327 348
339 339 341 342 343 345 348 351 352 351 350 348 351 352 354 353 350 349 351 352 350 348 349 351 353 356 357 356 357 358 358 357 358 359 358 358 359 360 359 361 360 359 359 358 357 356 356 356 357 356 356 357 357 357 355 356 356 330 315 315 314 319 347
336 336 338 339 340 343 346 346 346 345 345 347 351 350 351 352 350 350 353 353 351 350 351 355 356 357 357 358 357 357 358 359 359 358 358 359 359 360 360 359 358 359 359 357 357 358 357 357 356 355 355 356 357 358 357 357 358 337 313 314 314 316 329
335 336 338 339 339 341 343 344 344 345 345 348 350 351 350 351 352 353 353 352 352 354 355 357 358 358 358 358 357 356 357 357 359 360 359 361 361 360 360 360 360 359 359 358 358 358 357 357 356 356 356 357 357 358 358 350 340 345 316 315 312 315 320
333 334 336 337 339 340 341 341 341 341 342 344 347 351 354 350 352 353 352 353 357 358 356 356 356 357 357 358 357 357 358 359 360 360 360 361 362 361 360 360 360 360 361 359 358 357 356 356 356 355 355 356 357 358 359 360 352 328 326 313 312 312 316
334 335 336 336 337 339 340 340 339 338 340 342 343 346 351 357 354 353 353 351 352 356 362 358 357 358 357 357 357 357 358 359 360 360 361 362 363 361 361 361 361 361 360 359 358 356 355 355 355 354 353 353 354 357 358 360 358 329 320 320 312 312 314
334 334 335 336 336 338 339 338 337 337 337 339 341 343 345 349 350 348 345 345 349 352 355 359 360 358 357 356 356 357 358 359 360 361 362 362 362 361 360 361 362 359 360 359 358 356 355 354 355 354 353 353 352 354 357 357 357 344 324 317 313 313 313
335 336 336 337 337 337 337 337 337 336 336 337 339 340 341 342 344 342 342 346 348 350 352 357 360 358 357 357 357 357 357 356 356 359 361 361 361 360 361 360 359 358 359 357 355 356 355 355 354 353 353 352 353 354 355 355 356 349 337 323 317 316 314
334 335 335 335 337 338 338 338 337 336 336 335 338 340 340 340 340 341 343 345 347 350 352 355 356 357 358 357 357 358 358 357 355 355 357 359 359 359 360 360 359 359 357 357 355 355 354 354 353 353 352 352 353 354 356 354 354 349 341 333 329 328 325
333 334 336 337 338 338 338 337 336 336 336 336 338 339 339 340 341 342 343 344 346 348 348 349 351 353 354 356 357 357 357 356 354 354 353 355 357 356 357 358 358 357 356 356 355 354 354 354 352 352 352 352 354 355 356 354 352 350 342 338 335 332 331
333 334 335 336 336 336 335 335 335 335 335 335 338 339 338 339 340 342 343 343 345 346 345 346 347 349 350 349 350 349 351 354 356 355 354 354 356 355 357 356 357 357 357 360 361 360 357 355 355 354 356 355 353 354 354 352 348 349 332 341 325 332 334
334 335 335 336 336 336 336 336 336 335 335 336 338 339 338 339 340 340 341 342 343 343 342 343 343 343 344 345 345 344 343 343 344 344 344 346 346 348 350 342 325 336 353 357 340 329 326 327 354 358 358 356 357 358 354 352 351 331 318 316 314 315 317
334 334 334 336 336 336 336 336 337 337 336 337 339 339 339 339 340 341 341 342 342 342 341 341 340 339 339 339 340 340 345 345 344 343 343 342 342 342 342 344 347 323 316 316 318 316 310 307 306 308 316 345 358 353 333 333 329 315 312 312 311 311 311
332 334 335 335 334 335 335 336 337 337 337 338 339 339 339 339 340 342 342 342 342 342 342 340 339 337 337 337 337 338 341 342 342 343 343 343 342 341 339 339 339 343 327 317 314 313 308 308 309 311 312 310 320 339 354 327 314 308 310 309 310 308 308

ECMWFFLT1_sfc_thetae_048.txt.gz
Theta_e
340 341 344 346 348 348 349 351 353 353 354 355 357 358 358 359 360 362 362 364 365 366 367 366 365 364 362 362 364 364 366 367 368 366 365 364 364 364 364 364 365 365 364 363 365 365 369 371 369 371 372 374 372 371 371 370 367 365 367 367 366 365 364
336 338 341 344 346 348 350 352 354 353 354 355 356 358 358 359 359 360 361 364 365 365 367 366 364 364 363 364 364 365 365 365 367 367 366 365 366 365 365 367 366 366 367 366 366 369 370 371 371 371 372 373 372 373 371 369 368 367 365 365 364 364 363
336 337 340 343 345 347 350 351 353 353 355 355 356 356 358 360 361 361 361 362 364 365 367 366 366 364 363 363 363 365 365 365 366 365 365 364 365 363 366 368 367 365 366 368 368 368 370 371 373 373 373 372 371 372 371 371 369 366 365 366 365 363 363
336 337 339 343 347 349 350 351 353 353 353 355 355 356 357 360 362 362 362 363 363 364 365 366 365 364 364 364 364 366 366 367 367 364 366 365 365 366 365 366 368 366 365 366 366 367 368 370 371 372 373 372 371 372 371 370 368 367 366 366 363 365 364
336 338 339 342 345 347 349 350 351 354 353 354 355 358 359 359 360 360 361 362 362 364 364 365 364 364 364 365 364 365 366 366 366 365 367 367 367 367 365 364 365 366 365 366 368 368 369 370 369 371 371 372 371 370 370 370 368 368 366 366 363 363 363
331 336 338 340 343 345 348 349 351 352 352 352 354 356 357 357 357 357 358 360 362 364 365 365 365 366 365 365 366 365 365 367 368 369 368 367 367 365 365 365 365 366 364 366 366 367 368 368 368 368 369 369 367 367 368 369 367 367 367 365 364 363 362
330 335 338 341 343 345 348 349 349 351 353 352 354 356 356 356 356 356 357 358 360 361 362 362 363 364 365 365 365 366 367 367 368 367 367 367 367 366 366 366 366 365 366 367 366 367 367 368 368 368 368 368 368 367 368 369 368 368 367 365 363 364 365
332 335 340 342 342 344 346 349 349 349 352 353 351 352 353 354 355 355 356 356 357 358 359 360 361 364 365 365 364 365 365 367 368 367 367 367 366 366 365 366 366 367 368 366 367 368 366 368 368 368 368 367 369 369 368 369 369 367 366 364 364 364 364
334 340 341 341 342 342 344 348 349 349 350 352 352 352 352 353 353 354 355 355 356 356 357 358 360 362 365 364 364 365 366 366 366 367 367 366 366 364 363 365 367 368 366 365 365 368 368 367 368 370 369 369 368 371 369 369 369 369 367 365 365 364 364
337 342 344 341 342 339 342 344 348 351 350 351 352 353 352 352 353 354 354 353 354 354 355 357 359 360 363 364 364 365 365 365 365 365 365 363 364 363 364 364 366 367 366 366 364 365 368 368 368 369 370 369 369 370 370 369 369 369 368 366 366 366 366
338 343 344 339 339 339 341 341 345 350 351 354 353 351 353 352 352 352 353 353 353 354 355 357 359 359 361 363 362 362 364 364 364 364 364 363 363 363 363 363 364 366 366 366 364 365 368 368 369 369 370 368 369 370 370 369 370 368 366 367 368 368 367
337 340 343 344 343 342 340 344 347 352 353 354 352 351 354 355 352 351 352 353 353 353 355 356 357 359 360 361 361 362 363 364 364 363 363 363 362 362 362 362 363 364 365 366 365 365 365 367 367 367 369 370 370 370 371 371 370 369 367 366 368 367 366
335 342 347 343 345 345 346 347 347 352 354 351 350 352 352 352 352 351 353 354 353 354 355 357 358 359 359 360 360 362 363 364 363 362 362 364 363 362 362 362 361 362 363 365 365 364 363 364 367 367 368 370 370 370 371 371 369 369 369 368 368 368 367
342 335 341 344 346 346 348 349 350 351 354 352 350 352 351 352 351 352 353 352 353 353 354 355 357 358 358 360 360 362 362 364 365 363 363 364 365 364 363 363 363 363 365 365 365 364 364 363 364 367 368 368 370 371 371 371 370 370 370 369 367 367 366
323 326 341 341 346 349 351 350 354 353 352 351 349 349 350 350 351 353 354 354 354 352 353 356 357 358 358 360 361 363 365 366 366 366 365 364 366 365 364 364 365 365 365 366 365 365 364 364 364 366 367 368 369 370 370 369 369 369 369 368 368 368 365
324 323 324 337 345 346 350 350 353 356 354 354 350 349 348 349 352 351 352 353 352 354 354 356 357 359 359 360 362 364 366 367 367 367 366 365 365 367 366 365 366 365 365 365 365 367 366 366 365 364 365 366 367 369 368 368 370 356 341 346 367 367 365
323 322 323 326 349 347 350 350 349 353 355 355 353 351 350 351 352 351 350 352 353 354 354 354 359 360 360 361 364 365 367 368 367 367 366 366 366 367 367 366 365 366 366 366 367 367 367 366 364 363 363 365 366 366 367 368 366 340 334 336 341 361 366
322 324 324 325 328 343 352 351 351 351 352 352 353 353 352 353 352 351 349 352 353 353 352 353 355 358 362 362 365 365 367 368 368 367 366 366 366 367 368 367 366 366 367 366 366 367 367 365 365 365 364 364 365 365 366 367 345 332 332 334 334 342 365
321 322 323 327 329 349 345 341 344 353 349 349 350 351 351 353 349 352 353 354 356 356 354 354 356 361 363 363 365 367 367 368 368 367 367 367 367 367 368 367 366 366 366 365 367 368 367 366 365 365 365 364 364 364 365 366 340 331 329 331 331 333 346
321 322 323 324 328 340 343 347 347 345 348 353 351 348 354 355 350 352 355 355 356 356 358 357 358 362 363 363 365 366 366 367 367 367 367 367 367 368 368 367 366 366 367 367 367 366 366 366 366 366 366 365 365 365 365 366 338 328 325 327 328 330 339
325 328 330 333 340 341 346 353 356 355 352 348 347 350 352 352 351 352 354 355 354 357 358 357 358 360 363 362 363 365 366 366 366 365 366 367 367 367 367 367 367 367 366 365 365 365 366 365 365 366 366 366 365 364 364 364 333 324 323 323 324 327 333
323 324 325 333 345 358 361 355 356 356 356 354 350 348 349 352 352 348 352 356 357 358 358 360 361 360 363 362 363 364 365 364 364 364 365 366 366 365 365 365 365 366 366 365 364 365 365 366 366 365 365 366 365 363 363 364 330 322 321 321 322 325 347
325 339 348 353 351 351 359 361 360 360 361 358 352 348 347 349 351 350 351 355 355 359 359 359 360 360 362 362 362 363 363 364 363 363 364 365 365 364 364 364 365 366 367 365 364 363 364 365 365 365 363 362 362 362 362 362 340 320 319 320 320 328 353
343 347 346 349 355 354 358 360 360 361 359 356 353 352 352 351 352 353 353 355 356 357 357 356 357 360 362 362 362 364 364 364 364 364 364 365 364 364 364 364 366 366 367 364 363 361 363 364 364 364 363 363 363 361 361 362 342 316 317 318 317 331 354
343 346 351 352 352 352 355 360 360 357 357 354 351 353 354 354 354 351 352 356 356 356 354 354 356 357 359 361 362 364 364 364 365 365 365 365 364 364 363 363 365 365 366 365 364 363 364 364 362 362 364 363 362 344 355 362 343 315 317 316 316 332 356
350 350 351 352 352 354 357 358 360 358 357 355 361 360 358 355 353 353 356 356 354 353 352 354 356 360 361 361 361 363 364 364 366 366 364 364 365 366 365 365 364 364 364 365 364 363 363 362 362 362 363 363 362 361 361 361 365 335 315 315 314 321 354
348 348 349 349 349 351 356 355 356 356 357 359 360 356 358 355 354 353 356 357 355 353 353 357 360 362 362 363 361 361 363 363 364 364 364 365 366 366 365 364 363 364 364 362 363 363 363 363 363 362 363 363 363 364 364 363 362 348 313 314 314 317 331
347 348 349 349 348 351 354 353 356 357 357 359 358 355 357 356 354 354 358 358 355 356 357 359 362 363 364 364 363 361 362 363 365 366 365 366 365 366 365 365 365 365 364 363 363 364 364 365 363 362 361 362 362 364 363 355 342 367 317 315 312 315 319
346 345 345 347 350 350 351 352 353 353 354 354 359 358 356 356 357 358 360 357 359 360 362 363 364 365 365 365 363 363 363 364 365 366 365 364 365 366 366 366 366 366 366 366 365 364 363 363 362 360 359 359 362 361 362 367 361 334 334 314 312 312 316
343 345 344 344 346 348 349 350 350 350 353 354 359 364 362 361 359 360 361 361 364 367 365 365 364 365 363 363 363 363 363 364 364 366 366 365 365 365 366 365 366 366 366 366 364 362 360 359 360 358 357 356 357 360 362 366 364 338 325 326 312 313 313
342 343 344 343 342 346 348 348 348 349 350 351 355 358 361 361 359 358 356 358 361 364 365 366 363 362 361 361 362 363 363 363 364 365 366 366 366 365 364 366 366 363 364 363 362 360 357 359 358 357 358 357 356 357 358 361 362 364 340 320 315 313 312
342 343 344 344 344 345 346 347 348 348 348 350 352 352 354 356 357 354 354 357 357 361 363 364 365 364 361 361 362 362 363 362 362 364 366 366 365 366 366 366 364 362 362 362 359 359 359 358 356 356 357 357 358 357 359 360 361 362 361 328 321 316 314
342 343 343 343 344 345 347 347 345 345 346 347 350 351 351 352 352 354 355 356 358 360 361 363 363 363 364 364 363 364 363 362 360 360 362 365 362 362 362 362 361 360 359 360 359 358 357 357 357 357 356 356 357 359 359 361 360 362 363 350 340 332 327
340 341 343 344 343 344 346 346 345 344 345 344 346 347 347 348 349 351 353 353 356 358 359 360 362 362 362 361 362 362 362 361 358 359 360 359 359 358 358 359 359 358 358 358 358 358 357 357 355 355 356 355 357 358 358 358 359 360 360 356 348 343 339
340 341 342 341 342 343 343 343 343 343 343 342 344 344 345 346 347 348 349 351 353 356 355 356 356 358 358 356 356 356 359 362 362 360 359 360 361 360 361 361 360 360 363 365 363 356 354 357 358 360 362 361 358 357 355 357 357 360 338 360 331 342 344
340 340 340 341 342 342 342 342 341 341 341 342 344 344 344 344 344 347 348 350 352 352 351 351 351 352 352 353 353 353 353 355 356 357 356 357 357 357 357 345 324 340 353 354 336 320 313 319 345 349 346 346 350 354 354 356 360 330 319 319 316 317 321
339 339 340 341 341 341 341 341 342 342 341 342 344 344 344 343 343 345 347 347 349 349 348 348 345 346 346 346 347 347 350 350 352 352 351 351 351 352 349 353 356 318 315 324 325 317 308 305 306 306 310 332 340 340 325 322 318 314 316 312 308 312 314
339 339 340 341 340 340 340 340 341 341 341 343 344 344 345 344 343 343 344 346 347 347 347 347 345 343 343 343 344 344 347 347 348 348 347 346 346 346 344 341 343 347 325 317 322 315 307 306 304 302 302 304 311 320 336 323 314 312 313 315 309 308 310

ECMWFFLT1_sfc_thetae_051.txt.gz
Theta_e
334 335 340 345 348 348 351 354 356 355 356 358 358 357 358 359 360 362 363 365 366 366 366 366 366 365 364 364 364 367 366 367 367 366 365 364 363 363 364 366 367 367 363 361 364 363 366 368 366 365 367 370 370 368 369 371 370 369 370 370 369 367 366
332 332 335 341 345 349 351 355 357 356 357 358 359 359 358 359 360 361 365 367 367 366 366 366 366 365 364 364 366 366 367 367 368 368 367 366 366 365 364 366 367 367 367 364 363 367 367 367 367 366 366 369 371 371 368 370 372 371 368 369 368 368 367
332 332 334 336 342 348 351 354 357 357 358 358 360 359 359 361 362 364 365 367 367 368 368 368 368 366 367 367 365 365 367 367 367 367 367 364 365 363 365 366 366 365 367 366 365 365 368 367 369 369 368 368 369 371 369 369 371 370 368 369 368 367 367
333 331 333 339 346 351 352 354 356 357 357 358 360 360 360 363 363 365 365 367 368 368 368 368 368 367 367 365 364 365 366 368 368 367 366 366 366 366 365 365 366 366 366 366 364 363 364 368 368 370 371 369 370 370 370 368 368 369 367 368 366 367 368
334 335 333 336 342 348 351 352 355 357 357 358 361 363 363 363 363 364 366 368 368 367 369 369 367 367 366 366 365 365 366 368 368 368 368 367 367 368 366 363 364 365 364 366 368 367 367 367 368 370 370 371 370 370 370 369 368 369 368 368 366 365 365
329 333 333 334 339 346 350 352 353 356 356 357 359 361 362 363 363 363 364 366 367 367 370 369 368 367 366 365 364 365 367 368 369 370 369 367 368 366 366 365 363 365 363 364 366 366 367 366 367 369 368 369 368 366 367 368 367 368 369 368 366 363 362
329 334 335 334 336 343 349 351 352 355 357 357 359 361 362 361 361 362 363 364 366 367 367 366 367 367 367 366 366 366 367 368 369 369 367 367 368 367 368 368 367 365 365 366 365 366 367 367 368 369 369 367 369 366 367 369 368 368 369 368 366 365 365
331 333 337 337 336 341 347 352 353 354 356 357 357 358 359 361 362 361 362 362 364 365 365 364 365 367 367 368 367 366 367 367 368 369 368 367 366 368 368 368 368 367 368 366 367 368 367 369 369 369 368 368 369 370 367 370 370 367 367 367 366 365 363
329 334 335 334 336 338 342 351 353 353 356 357 356 358 359 360 360 360 361 362 363 362 364 364 365 366 369 368 367 367 367 367 368 369 368 366 365 365 366 367 369 369 367 365 365 369 368 368 369 371 370 370 369 370 369 370 370 369 368 368 367 365 363
329 333 336 335 337 336 342 348 353 356 356 357 357 358 358 358 360 361 361 360 361 361 362 363 364 365 369 368 367 367 367 367 368 366 365 365 363 364 365 365 367 369 367 366 364 365 370 370 370 371 372 369 369 369 370 369 369 370 369 368 368 366 364
330 339 341 339 342 342 345 348 353 357 357 362 361 355 358 359 359 359 360 360 360 360 362 363 364 365 367 367 365 365 367 367 366 365 365 363 363 364 364 364 363 366 367 366 364 362 366 370 371 372 372 369 369 369 370 369 370 370 368 368 369 367 365
339 341 345 343 343 343 345 354 358 361 362 363 357 355 360 362 358 358 359 360 360 360 361 362 362 363 366 366 363 365 367 367 367 364 365 365 363 363 362 361 360 362 366 367 364 363 362 367 369 370 372 372 371 370 371 372 371 371 370 368 368 367 366
333 340 347 343 345 344 351 355 356 358 361 356 355 356 356 356 358 358 361 360 359 360 361 363 363 364 365 365 363 366 368 367 367 365 365 366 364 362 361 359 359 358 361 366 366 365 361 362 369 370 371 373 372 371 371 372 371 372 371 370 368 368 368
342 338 345 347 347 347 347 350 352 357 359 356 354 355 356 356 356 359 360 359 359 359 359 360 363 364 365 366 365 367 368 369 369 367 366 367 370 366 363 361 360 361 361 365 367 365 364 361 366 369 370 372 372 372 373 373 372 372 372 371 368 368 368
326 331 341 341 349 353 351 350 354 355 356 355 354 355 355 355 357 360 360 360 361 358 359 362 362 363 363 366 367 369 370 371 371 370 369 367 370 369 366 364 366 366 364 366 367 366 365 365 364 368 370 371 372 372 373 372 372 372 372 371 369 368 367
322 326 326 333 342 349 354 353 356 358 359 360 356 356 353 354 358 357 357 358 358 360 359 362 363 365 364 365 368 370 372 373 372 371 372 370 369 371 370 368 367 365 364 365 365 369 370 369 367 365 368 369 371 373 371 372 373 360 345 350 370 369 366
323 324 328 332 346 346 350 354 358 360 360 361 360 357 356 357 357 356 355 357 357 359 359 359 367 367 366 367 370 371 372 373 372 372 371 372 371 372 371 370 369 370 371 369 368 370 373 369 366 364 366 368 369 370 371 371 371 343 337 339 345 364 369
323 325 326 326 337 343 353 351 354 360 360 359 359 359 357 360 356 356 354 357 357 356 357 357 359 362 367 366 370 372 372 372 373 373 371 372 371 371 372 372 370 370 370 368 367 371 369 368 368 369 366 366 368 369 370 371 350 335 335 336 337 346 369
323 324 326 330 330 330 327 331 347 355 351 352 356 357 356 357 355 357 358 360 361 361 358 359 358 363 366 367 369 371 372 373 373 373 372 372 371 372 372 372 370 369 369 367 369 369 370 371 368 368 368 366 368 367 369 370 344 332 332 334 335 336 351
323 324 325 326 328 328 333 336 343 342 351 357 353 349 358 360 354 356 359 360 364 363 364 364 362 366 365 367 368 371 373 373 373 372 372 373 372 371 371 371 371 370 369 369 370 369 369 369 369 370 370 368 368 369 368 370 341 329 329 331 331 333 342
327 330 330 330 330 328 335 342 351 355 351 346 345 350 353 356 356 357 358 361 361 364 367 364 364 364 365 366 368 371 373 373 373 373 373 373 372 371 371 371 372 370 369 368 367 368 368 368 369 370 370 368 366 365 366 367 335 326 326 327 327 330 336
325 325 326 328 332 357 361 356 358 354 357 359 354 349 350 351 356 354 357 360 359 361 364 366 365 364 366 366 368 370 372 372 373 373 373 372 372 371 370 371 372 370 370 368 366 368 369 370 369 368 368 369 368 365 364 365 329 324 324 324 325 327 351
326 327 327 333 341 350 365 365 360 357 360 360 357 350 350 350 353 356 355 357 357 363 363 363 363 362 364 366 368 368 371 371 371 371 372 372 371 370 369 370 371 371 371 369 366 365 366 368 368 370 368 368 368 367 366 366 339 320 321 322 322 330 357
326 328 329 340 352 354 358 359 363 364 362 362 363 364 362 356 355 360 362 360 361 360 361 359 359 361 365 367 369 369 370 371 370 370 370 371 370 369 369 370 370 371 372 368 366 364 365 367 368 369 369 368 368 367 367 367 342 316 319 320 319 333 359
329 343 353 354 353 351 354 364 364 362 360 362 364 366 365 362 359 357 358 359 358 358 357 358 359 361 362 367 369 369 369 370 370 370 370 370 370 370 369 368 369 371 371 369 368 367 368 367 367 367 369 368 367 353 362 367 345 315 318 317 317 334 361
352 350 351 351 356 358 358 364 362 364 363 360 362 363 363 359 357 358 358 357 356 356 357 360 361 363 365 366 368 369 369 369 371 371 369 369 370 372 370 370 370 370 369 369 367 367 366 365 365 365 366 368 367 367 367 367 369 335 315 315 316 322 359
350 349 350 349 353 354 356 361 362 361 364 366 367 366 365 359 356 356 358 358 359 359 360 363 364 365 367 367 366 366 367 368 369 369 368 369 369 369 368 368 368 368 368 366 366 366 366 366 365 363 365 365 366 366 365 365 365 350 313 314 315 318 334
349 350 351 357 355 354 358 359 361 362 361 361 362 359 359 361 358 358 359 358 359 362 363 365 366 366 367 368 367 366 366 367 369 370 367 369 370 370 369 369 369 368 368 366 366 368 367 368 367 364 363 365 365 367 367 362 347 370 316 315 313 316 320
347 347 350 350 355 356 353 358 358 357 359 361 364 360 360 360 360 361 361 361 363 364 364 364 364 366 366 367 366 366 367 369 369 368 368 368 370 371 370 370 370 370 370 368 367 367 367 367 367 366 364 364 364 365 369 372 367 341 333 314 312 313 316
349 349 351 350 350 353 354 356 357 356 358 359 365 367 361 361 359 361 362 363 367 365 364 365 365 368 366 367 366 366 366 366 367 368 369 370 370 370 371 370 370 369 368 368 367 364 364 364 363 362 359 358 360 364 367 371 370 341 326 325 311 312 313
346 347 349 349 348 351 354 353 354 355 356 357 360 364 367 368 366 365 364 366 368 369 368 368 369 368 366 366 366 366 366 366 368 368 369 370 370 369 368 369 369 366 367 368 363 362 360 361 360 361 361 361 360 360 363 365 373 366 340 320 314 312 311
344 346 348 349 349 350 351 351 352 353 353 354 356 357 360 361 361 358 358 362 365 368 369 368 367 367 367 367 367 366 366 364 364 368 369 369 368 367 367 366 364 363 365 362 360 362 361 360 358 358 360 360 359 360 361 363 366 366 361 328 320 315 313
346 347 348 348 348 348 350 350 349 349 351 352 354 355 354 356 357 360 361 363 363 365 368 369 369 365 365 365 365 367 366 365 363 363 366 367 365 364 363 363 361 362 361 360 360 360 359 360 360 360 356 357 358 359 360 363 363 364 363 365 342 335 330
344 345 346 347 348 349 350 348 348 348 349 348 349 352 353 354 355 357 358 360 363 366 368 366 367 366 367 365 366 365 365 364 362 362 361 362 361 359 359 361 362 360 362 360 360 359 359 360 359 358 358 357 358 359 360 359 360 361 362 362 357 351 346
344 344 345 345 347 348 348 348 348 348 347 346 348 350 351 351 352 355 356 358 360 364 365 363 363 365 366 366 366 366 367 364 363 363 361 359 363 363 356 358 366 373 361 354 356 358 357 360 358 360 363 362 361 359 359 360 361 362 319 326 315 327 340
342 343 343 344 345 346 346 346 347 347 346 347 348 348 348 350 351 352 353 356 358 359 358 358 358 357 359 361 361 363 361 362 362 364 363 363 361 357 344 329 316 337 359 347 325 317 318 325 349 345 344 345 346 345 341 340 340 317 308 306 304 304 304
342 342 343 344 345 345 345 345 345 345 345 346 348 347 347 348 348 350 352 354 355 355 355 355 353 352 353 354 356 355 356 355 357 359 361 360 360 360 355 340 339 309 311 323 325 313 308 307 306 308 315 338 339 337 324 318 311 306 304 303 303 302 301
343 343 344 344 344 343 343 344 345 345 345 347 347 346 346 347 348 349 349 351 352 353 353 353 352 349 349 349 350 351 353 353 353 353 353 352 354 354 353 345 338 340 321 307 311 306 301 302 301 302 303 308 319 326 338 324 313 306 303 302 301 301 300

ECMWFFLT1_sfc_thetae_054.txt.gz
Theta_e
331 337 338 339 341 343 343 344 345 345 350 355 356 356 355 357 359 362 362 363 363 362 363 364 363 363 363 363 363 362 362 363 365 364 364 362 362 362 365 366 365 365 364 364 365 365 367 368 367 366 368 370 369 370 370 369 370 369 370 372 371 367 365
330 338 338 339 340 342 344 347 348 346 351 356 356 357 355 357 359 360 361 364 364 364 363 364 364 363 363 363 363 363 362 363 365 365 365 364 363 364 365 367 367 367 367 367 367 369 369 368 368 367 367 369 369 370 370 369 369 369 368 370 369 369 366
329 328 337 337 338 340 343 345 350 351 352 353 355 355 355 358 360 361 362 363 364 365 364 364 364 364 364 364 363 363 363 363 364 366 363 361 363 360 364 367 369 369 368 368 369 369 369 368 368 369 368 368 368 370 370 370 370 369 370 370 369 368 367
331 331 338 339 341 342 343 344 348 350 353 355 356 355 357 360 361 362 364 364 364 365 364 365 364 364 365 364 363 363 363 363 364 363 362 363 363 362 361 363 368 368 368 366 365 365 364 366 367 367 370 368 368 369 370 368 368 370 370 370 368 368 368
334 332 334 336 339 343 343 344 346 354 354 356 357 359 358 361 360 362 363 364 364 364 365 365 364 365 365 365 362 363 363 363 364 364 364 364 365 364 361 359 362 364 365 367 366 365 366 367 366 367 367 369 369 370 370 369 369 371 370 370 367 367 367
331 333 333 337 339 340 341 345 353 355 355 355 357 358 357 357 358 359 361 364 365 366 367 366 365 366 365 364 363 362 363 364 365 366 366 365 365 364 362 360 360 361 361 365 366 366 365 368 365 367 366 366 366 366 369 369 368 370 370 368 367 365 365
333 334 333 335 335 339 346 349 352 355 356 357 358 359 358 357 357 357 359 363 365 365 365 364 363 363 364 364 363 365 364 364 365 365 365 365 365 365 364 363 362 363 363 366 365 366 364 363 365 367 367 365 364 364 367 368 367 368 368 367 366 365 365
335 334 334 335 336 335 339 346 350 354 356 357 357 358 357 357 358 358 359 362 364 364 364 363 363 364 363 364 363 362 364 363 364 365 364 363 364 363 364 365 365 365 365 364 366 367 365 364 363 366 368 368 367 367 368 369 369 367 368 366 365 364 364
335 335 334 332 339 336 339 344 347 353 357 357 357 358 358 358 357 357 359 362 364 363 364 363 363 364 365 364 364 363 363 364 364 364 363 361 361 361 360 363 365 366 365 363 363 366 365 366 364 365 367 368 369 369 368 369 368 367 367 367 366 364 361
337 335 335 333 333 336 340 344 353 356 357 358 358 360 359 359 359 359 359 361 362 363 364 364 364 363 365 364 363 363 363 363 364 363 363 361 363 361 361 360 362 365 364 363 362 363 365 366 366 367 367 367 368 369 368 368 368 366 366 367 367 365 363
334 338 338 336 337 340 342 345 351 355 357 359 359 359 361 361 360 359 359 360 361 363 364 364 365 364 364 363 361 361 362 362 363 363 362 362 361 361 360 359 362 364 363 361 360 362 365 365 368 369 368 366 367 369 369 367 368 367 365 366 367 366 364
336 337 337 338 340 343 339 344 352 357 359 359 359 358 362 362 361 360 360 361 362 363 364 365 365 365 364 363 361 361 362 363 361 360 362 363 359 360 360 360 360 363 365 365 361 362 363 366 366 368 369 368 367 369 370 369 369 368 366 365 366 366 365
344 350 341 340 344 345 342 344 352 359 361 360 357 357 361 361 360 360 363 363 362 363 364 366 366 365 363 364 362 362 363 363 362 362 363 363 361 361 360 358 359 361 362 364 363 362 359 364 366 366 369 370 369 368 369 369 369 368 368 367 367 367 366
345 337 343 349 352 360 361 355 360 361 362 360 358 358 358 361 360 362 365 363 362 362 362 363 365 365 365 365 364 363 364 364 364 363 363 363 364 363 361 360 360 361 364 367 365 362 361 359 364 368 368 370 370 369 369 369 369 369 369 369 368 367 366
329 334 341 340 358 363 360 365 364 363 363 362 359 358 358 358 360 363 365 365 364 361 362 365 365 365 365 366 366 365 365 366 366 365 364 364 365 363 362 362 362 363 364 365 365 364 363 361 359 365 367 368 370 370 369 368 368 368 369 369 368 367 366
327 330 333 340 347 349 360 361 367 365 366 365 360 361 356 359 362 362 362 363 363 364 363 365 365 365 364 365 367 368 368 367 367 366 366 365 365 364 363 363 364 363 363 362 364 365 366 365 363 360 366 366 369 371 370 368 368 357 345 351 366 367 365
325 326 326 332 349 346 356 360 363 366 366 366 364 362 359 360 362 363 358 360 360 363 364 365 366 365 364 365 369 369 369 368 368 368 366 366 366 367 365 364 364 364 363 362 362 364 368 367 365 360 361 366 367 369 370 369 367 344 337 340 345 362 365
324 330 328 335 342 343 355 354 359 361 362 360 360 364 362 364 362 362 357 361 360 360 360 362 365 365 366 367 370 370 370 369 369 369 368 367 366 367 367 366 364 364 364 363 362 363 366 367 366 365 361 364 367 368 369 369 350 337 335 337 338 346 365
323 326 334 341 347 354 347 347 351 360 357 356 357 356 358 364 359 359 361 362 363 363 360 360 362 367 367 367 370 371 371 371 370 369 369 368 367 367 368 367 365 364 364 363 364 364 364 367 367 366 364 363 366 367 369 370 346 334 332 334 335 337 351
323 323 325 329 338 342 341 353 356 357 359 365 361 353 359 361 358 361 363 366 367 364 364 363 362 369 367 368 370 371 372 372 372 370 369 370 369 368 368 368 367 366 366 366 366 365 364 365 367 367 366 365 365 367 368 369 347 330 329 330 332 334 342
327 330 334 342 337 335 356 351 360 361 360 352 352 361 361 361 360 364 365 366 368 366 365 365 363 366 369 367 369 372 372 373 374 372 371 371 371 370 368 369 369 369 367 366 365 365 365 365 366 367 367 367 366 366 368 367 341 327 326 327 328 331 335
324 324 327 334 345 363 365 358 361 352 363 362 350 346 354 359 356 354 360 365 366 367 365 366 365 364 370 368 368 370 372 373 374 374 373 372 371 370 369 369 370 369 368 365 364 366 368 368 367 366 368 369 367 364 364 365 336 326 325 325 326 329 344
324 325 329 340 344 356 362 363 357 356 361 357 357 351 356 353 356 357 358 362 363 366 366 365 364 363 367 368 368 369 372 373 374 374 373 373 371 369 369 369 371 371 371 366 364 364 365 365 365 366 367 367 367 366 364 364 342 322 322 323 324 328 350
346 348 348 348 355 357 365 367 366 364 363 362 362 366 372 364 366 367 364 362 363 364 365 364 363 364 366 369 369 369 371 374 375 374 373 373 372 370 370 370 371 371 371 367 364 362 363 365 365 366 367 366 366 366 366 366 347 318 319 320 321 331 353
347 346 350 354 353 351 352 360 360 356 358 359 355 367 373 373 371 367 369 366 363 362 361 362 363 364 364 368 370 370 371 374 375 375 373 373 373 373 371 370 371 372 373 369 367 364 366 366 366 367 368 366 365 354 361 366 351 317 318 317 319 330 355
348 350 351 352 350 349 353 358 363 364 365 363 370 370 371 368 364 365 368 368 362 359 358 361 364 367 367 368 370 370 371 373 375 375 374 373 374 373 373 373 371 371 371 370 368 366 365 364 365 366 367 367 367 365 365 366 367 341 315 316 316 320 353
348 348 347 347 351 358 356 360 363 359 361 362 366 368 369 366 362 362 366 371 364 360 360 365 369 370 369 369 368 370 371 372 374 373 373 374 374 373 372 371 370 369 370 367 367 367 367 365 364 363 366 366 367 366 367 367 367 353 314 314 315 317 329
347 348 347 349 353 357 353 359 359 360 359 364 364 361 360 366 367 366 369 370 366 368 368 372 373 373 372 371 369 370 371 370 373 374 371 373 375 374 372 372 372 370 370 367 368 369 368 368 366 364 363 365 366 368 368 365 349 369 319 315 313 315 317
347 346 348 350 352 353 351 355 356 358 358 359 364 364 360 359 364 363 367 368 369 372 373 375 374 374 373 373 370 370 371 372 373 371 369 371 374 374 372 373 371 371 371 370 369 370 368 368 368 366 365 367 369 370 372 374 370 344 340 315 313 313 314
348 347 346 348 350 349 350 356 356 357 357 356 363 367 364 365 363 363 364 363 368 377 374 378 378 376 372 371 371 371 371 372 371 373 372 373 374 373 373 372 371 372 372 371 370 369 368 368 368 367 364 363 365 368 374 383 375 347 328 324 311 312 312
344 344 345 346 347 349 349 351 352 354 355 357 360 363 368 367 363 361 365 368 374 369 373 373 374 374 372 369 371 372 371 372 372 373 373 374 374 372 371 372 371 370 373 372 369 368 367 369 368 367 366 366 365 367 370 372 377 372 335 320 313 312 311
344 345 346 347 349 348 348 350 352 352 353 355 357 360 365 364 365 366 362 366 369 370 372 372 371 370 371 370 370 370 369 369 367 373 373 373 372 372 372 370 369 368 371 370 367 367 367 367 364 363 364 364 364 365 366 370 372 371 362 329 320 314 311
343 344 344 346 349 349 350 351 348 350 351 351 353 355 356 357 360 362 361 361 363 366 368 368 372 371 372 372 370 370 369 367 362 363 366 370 365 368 369 368 367 367 366 366 363 363 363 362 361 360 359 361 366 365 367 365 369 370 355 348 342 339 333
342 343 346 347 348 348 349 349 349 348 348 349 351 354 355 356 357 360 362 362 365 367 368 369 369 368 369 369 369 367 368 368 367 365 361 363 363 360 362 363 362 363 367 363 362 361 360 360 358 359 358 359 361 367 365 364 353 332 332 331 332 336 341
342 344 346 346 347 348 348 349 348 347 346 347 348 351 351 352 353 356 360 362 369 370 366 369 367 370 368 366 368 369 372 369 370 364 362 356 344 338 336 345 363 353 345 341 347 354 361 363 358 362 364 352 350 351 350 348 338 330 315 323 314 322 323
343 342 344 346 346 347 347 347 348 347 346 346 349 350 351 352 353 356 356 361 365 367 366 365 365 365 365 368 369 370 371 369 368 368 361 350 343 338 335 323 312 336 341 332 320 313 315 322 341 346 350 340 337 339 336 332 332 311 303 302 302 303 305
342 343 343 344 344 345 345 345 345 345 345 347 348 348 349 350 352 354 356 358 359 361 362 362 361 359 359 359 359 359 364 363 363 367 364 355 350 342 336 335 330 306 307 317 318 310 304 302 305 311 319 340 340 335 317 317 312 307 304 301 302 300 301
344 344 344 345 345 344 344 344 345 345 345 346 346 346 349 349 349 352 351 355 357 359 358 357 357 356 355 355 356 359 360 360 361 359 358 359 351 345 339 337 337 334 314 305 308 307 303 303 304 305 307 312 322 335 341 324 316 304 302 302 301 302 301

ECMWFFLT1_sfc_thetae_057.txt.gz
Theta_e
336 336 338 339 339 339 340 341 341 341 342 345 348 348 351 352 353 354 353 354 353 352 353 354 354 353 352 352 353 354 354 354 355 355 355 354 355 356 356 356 355 356 356 357 358 359 359 360 359 360 361 362 361 362 362 362 360 361 361 361 359 360 358
335 336 338 339 339 340 341 341 342 342 342 345 348 348 351 352 353 354 354 354 354 353 353 354 355 353 352 352 354 354 354 354 355 356 356 355 356 356 358 357 356 355 358 357 358 360 361 361 360 359 361 363 362 362 362 361 361 360 360 362 359 359 358
334 334 335 337 338 339 341 341 341 342 342 345 347 348 350 352 354 354 355 355 354 354 354 354 355 354 353 353 353 354 354 354 355 355 355 355 355 355 358 359 357 357 358 360 360 360 362 361 360 359 361 362 362 362 363 361 361 361 360 361 360 358 357
332 333 334 336 337 339 341 342 342 342 344 346 347 348 349 352 354 356 356 356 355 355 354 354 354 355 354 353 353 354 354 354 355 355 356 356 355 355 355 359 359 359 358 359 361 361 363 362 360 360 364 361 362 362 362 362 361 361 361 360 360 360 358
331 333 334 334 335 337 339 341 342 343 343 346 348 349 349 353 354 356 357 358 357 355 356 355 355 355 356 355 354 354 354 354 354 355 356 356 357 356 354 356 360 360 360 360 361 362 361 361 360 360 360 361 361 362 362 362 361 361 361 361 359 360 359
330 331 332 334 336 337 339 340 342 343 343 345 347 348 350 353 354 355 357 358 358 358 357 357 356 355 354 356 356 355 355 354 355 355 356 356 356 355 354 355 358 361 361 360 361 361 361 360 361 360 360 360 361 361 362 361 362 361 360 362 360 360 360
331 331 332 334 336 338 339 340 341 342 343 344 348 350 351 353 353 355 357 358 359 357 357 357 357 356 355 356 356 355 354 354 354 354 356 356 356 356 355 355 355 359 361 362 360 360 359 360 360 359 360 361 361 361 361 361 361 362 361 361 361 360 360
332 331 333 334 336 338 340 340 341 342 342 343 347 351 351 352 354 354 355 357 359 359 358 357 357 357 356 356 356 355 355 354 354 355 356 356 356 356 356 355 355 356 358 360 361 360 358 359 360 360 359 360 360 361 362 362 361 362 362 361 360 360 361
331 332 332 334 335 337 339 340 341 343 343 343 346 351 352 352 353 354 355 356 358 358 358 359 358 358 357 357 357 356 355 355 354 355 355 355 356 356 356 356 354 355 355 357 360 361 359 357 359 360 359 358 359 360 361 362 362 362 362 361 360 360 360
328 332 332 334 335 337 338 339 340 342 343 344 348 351 351 352 353 354 355 356 357 358 358 359 359 359 358 357 357 357 356 355 355 355 355 355 356 356 357 357 356 355 355 356 357 359 360 359 357 358 360 359 358 358 360 362 362 362 362 362 361 360 359
328 330 332 332 334 336 337 338 339 341 344 346 348 352 353 352 352 353 353 355 357 359 360 360 360 359 358 358 357 357 356 355 355 355 355 355 356 356 357 357 357 356 355 356 356 357 359 360 358 356 358 360 359 358 358 360 362 361 361 362 362 360 359
328 328 330 332 333 335 336 340 343 346 347 349 351 352 353 353 353 353 354 355 358 359 360 361 361 360 358 357 357 356 355 355 355 354 355 355 355 356 357 357 357 357 357 357 356 357 358 359 359 357 355 358 361 361 359 360 361 362 361 361 361 361 360
328 328 328 330 331 334 338 341 344 348 350 351 352 353 354 354 353 353 353 354 357 360 361 361 361 360 358 357 356 355 355 355 355 355 355 355 355 355 356 356 356 357 357 358 357 356 357 358 358 359 358 356 358 361 362 361 361 362 361 361 361 361 360
337 328 328 329 331 334 337 340 343 348 350 351 352 353 355 355 355 354 354 354 356 359 361 362 361 360 359 357 355 355 355 355 355 355 355 355 355 355 355 355 355 355 357 358 357 356 356 357 357 358 359 359 358 359 361 362 362 361 361 361 360 361 360
328 327 329 335 331 334 336 339 342 347 350 351 352 352 354 355 355 355 355 356 356 358 361 362 361 360 359 358 356 355 355 355 355 355 356 356 356 355 355 355 355 355 356 357 357 357 356 356 358 357 358 360 360 359 360 361 362 362 362 361 360 360 360
329 336 343 342 332 334 337 341 344 348 350 351 351 352 354 355 355 355 356 356 357 357 360 362 361 360 359 358 357 356 356 356 355 355 355 356 356 356 356 355 355 354 354 357 357 356 356 355 355 358 358 358 360 361 360 360 362 354 342 346 360 359 360
332 336 340 343 344 347 349 349 351 351 351 351 351 352 354 356 356 357 357 358 358 357 359 361 360 360 359 359 359 358 357 356 355 355 354 355 356 356 356 355 354 353 353 355 358 358 357 356 354 355 358 358 359 360 361 361 360 342 335 337 341 356 360
327 333 338 341 345 350 353 353 354 354 352 352 352 352 352 355 356 357 357 358 358 358 359 359 360 360 360 360 360 360 358 357 356 355 354 355 355 356 356 355 354 353 353 354 356 358 358 357 356 355 356 359 359 360 361 362 347 336 333 334 335 342 360
321 327 332 337 342 345 350 353 353 354 355 355 354 353 353 355 356 356 357 358 359 360 359 358 359 359 360 360 360 361 360 359 357 356 355 355 355 356 356 355 354 353 353 353 355 357 358 357 357 356 355 357 359 359 361 362 345 334 332 332 333 333 346
323 331 333 337 342 342 345 347 350 353 353 353 354 356 355 356 355 356 357 358 359 358 358 357 357 359 359 359 360 361 361 360 358 357 357 357 356 356 356 355 354 353 354 355 355 355 356 358 358 357 357 355 356 359 361 361 346 332 329 329 330 332 338
322 329 331 332 337 343 344 343 349 352 352 352 353 351 353 355 356 357 356 357 357 357 357 357 356 358 359 359 360 361 362 361 360 358 358 358 358 357 356 356 355 354 354 355 355 354 354 355 357 358 358 358 356 357 359 362 341 330 327 326 326 329 333
344 333 333 349 349 349 349 350 352 354 354 356 354 351 351 351 353 355 355 358 357 356 356 356 355 356 360 359 359 361 362 362 360 360 359 359 358 357 356 357 356 355 355 355 355 356 355 355 355 357 358 359 358 356 356 361 336 328 326 325 325 327 342
345 344 344 348 354 356 356 356 356 358 357 353 349 348 353 353 352 352 354 355 357 357 356 355 354 354 359 360 360 361 362 362 362 361 360 360 359 358 357 357 357 358 357 355 354 354 355 355 355 356 357 358 359 357 356 357 340 326 324 323 323 327 347
346 345 344 343 344 349 354 353 351 355 351 347 347 351 358 362 362 350 350 353 353 356 356 355 355 355 357 361 361 362 363 363 363 362 361 361 360 360 359 359 359 359 360 357 355 354 355 356 356 357 357 357 359 359 358 358 345 321 321 321 321 330 350
343 344 346 348 347 346 352 357 360 358 354 348 353 357 359 356 362 362 356 352 353 354 356 355 355 355 355 361 362 362 364 365 365 364 363 362 362 362 361 360 360 360 362 361 359 357 357 357 357 357 358 359 359 354 358 360 350 319 317 317 318 329 351
340 340 341 348 351 351 357 357 354 354 353 354 355 359 363 364 360 359 359 360 354 352 352 354 356 356 356 360 363 363 364 365 365 366 365 365 364 364 363 363 362 362 363 362 361 359 358 357 357 357 358 359 359 360 359 360 361 339 314 315 315 320 347
343 343 343 348 351 357 353 352 353 353 352 353 355 360 362 363 360 356 356 359 357 352 352 354 356 358 358 359 363 363 363 365 366 367 367 367 367 367 365 365 364 363 363 363 363 361 359 358 358 358 358 359 360 360 360 361 361 353 313 312 313 316 327
343 343 346 350 354 351 350 353 351 353 352 353 359 361 359 356 356 358 354 355 357 358 356 357 359 360 359 359 362 363 363 365 367 369 369 368 368 366 365 366 366 364 364 364 362 361 359 358 357 357 358 359 361 361 361 362 350 362 318 314 311 314 315
339 339 340 343 343 346 347 352 350 351 350 353 357 359 359 359 354 355 356 354 358 364 361 360 360 361 360 360 361 362 363 364 366 368 370 368 368 367 365 365 365 364 364 363 362 361 359 359 358 357 355 356 358 360 362 362 359 341 341 314 312 312 312
340 340 342 346 346 346 348 347 348 350 352 352 355 356 359 358 357 358 357 356 364 365 367 364 363 362 360 359 360 362 363 364 367 368 368 368 367 367 365 364 364 363 363 362 361 360 360 359 359 358 356 356 356 360 361 363 364 347 334 327 312 311 311
339 339 341 344 345 348 346 345 347 349 350 350 350 352 353 357 359 359 354 358 363 365 364 367 365 362 361 360 361 362 364 364 365 366 366 366 367 366 365 364 364 362 362 362 361 361 360 360 360 358 357 356 356 356 359 362 367 341 320 313 313 312 312
338 341 342 344 344 344 346 347 347 347 346 347 349 351 352 353 354 353 353 357 360 362 363 365 366 362 361 361 361 362 365 365 365 365 365 366 367 367 366 365 364 362 362 363 361 361 360 360 360 359 358 356 357 356 359 360 349 339 334 326 318 315 311
338 339 340 341 344 347 344 345 346 345 346 344 347 347 349 352 353 354 355 357 357 359 362 363 364 364 362 362 362 363 363 363 364 364 364 366 366 367 367 366 364 362 361 363 362 361 360 360 358 358 357 357 356 357 354 332 331 332 332 336 336 332 323
338 338 340 341 343 345 344 344 344 344 343 343 343 345 347 348 349 351 354 355 361 362 362 362 362 361 362 362 362 361 360 360 372 365 362 359 360 364 365 365 364 363 362 361 360 359 358 358 355 354 355 355 355 347 331 328 325 325 325 324 325 325 329
337 338 339 340 341 344 341 342 344 343 342 342 344 345 347 347 349 352 352 353 358 361 362 361 362 359 359 361 360 359 362 360 362 352 343 338 331 323 321 329 354 346 337 329 333 355 359 357 356 351 348 348 344 335 328 325 324 324 315 318 312 320 325
336 338 339 342 342 342 341 344 344 342 341 341 343 345 346 347 349 350 352 353 354 359 358 357 356 355 355 357 359 359 358 355 350 342 339 336 333 330 326 317 305 315 333 328 319 314 319 327 339 338 333 329 329 331 328 325 325 309 302 303 303 302 304
336 337 339 342 340 339 340 341 343 343 341 340 342 342 343 343 346 348 350 353 353 354 354 353 351 350 349 351 352 352 353 348 344 341 337 334 332 330 327 325 321 304 302 311 314 310 306 307 310 314 320 328 326 321 315 313 304 298 300 300 301 302 301
336 338 341 342 340 339 338 339 341 342 341 340 341 342 344 343 345 345 349 352 352 352 351 352 350 349 349 350 349 350 351 349 343 339 336 334 332 330 327 325 323 323 309 301 305 307 306 307 308 309 311 316 321 324 319 305 299 298 297 299 299 299 299

ECMWFFLT1_sfc_thetae_060.txt.gz
Theta_e
333 334 335 336 336 337 337 338 338 339 339 340 342 343 344 345 345 345 346 346 347 347 348 349 349 349 349 349 349 349 349 348 348 348 348 348 352 349 348 350 350 349 351 352 354 354 356 357 357 357 358 359 360 360 361 361 360 360 359 358 357 357 356
332 334 335 336 336 336 337 338 339 340 340 341 342 344 344 345 346 345 346 347 347 347 348 349 350 349 349 349 349 349 349 349 349 350 350 349 351 352 351 350 352 351 351 354 355 355 356 356 357 357 357 359 359 360 361 361 360 358 358 357 356 356 356
331 333 335 336 336 336 337 338 339 340 341 341 343 344 345 345 347 346 347 347 347 347 349 349 350 349 349 349 348 348 349 349 349 349 349 349 349 351 353 351 352 353 353 354 356 356 357 356 356 357 357 357 358 359 360 360 360 359 358 357 356 356 355
331 332 334 336 337 337 338 339 339 340 342 343 343 345 345 346 348 348 348 348 348 347 347 349 350 349 349 348 348 348 348 349 350 350 350 351 350 351 353 353 352 352 354 354 356 357 358 357 356 356 361 357 358 358 360 360 360 359 357 357 357 356 355
332 333 334 335 335 336 338 339 339 340 341 344 344 346 347 348 349 350 350 350 350 348 349 349 350 351 351 350 349 349 349 349 350 351 351 352 352 352 352 353 353 352 353 355 356 358 358 357 356 356 357 357 357 358 358 359 359 359 358 356 356 356 355
331 332 333 334 335 337 338 339 340 340 341 342 344 345 347 348 350 350 351 351 350 351 350 350 350 351 350 350 350 350 350 350 351 351 352 352 352 352 351 353 354 354 352 354 357 357 358 358 357 356 356 358 358 358 358 358 359 358 358 356 355 356 355
331 332 333 335 336 337 338 339 340 341 341 343 345 347 348 349 349 350 351 351 352 350 350 350 351 351 351 351 350 350 350 350 351 351 352 352 353 352 352 353 355 355 354 354 355 357 357 358 358 357 357 357 358 358 358 358 358 358 357 356 355 356 357
331 332 333 335 336 337 338 339 340 341 342 342 343 345 346 349 350 351 351 352 352 352 351 351 351 351 352 352 351 350 350 351 351 352 352 351 352 352 352 352 354 356 356 354 355 357 357 357 358 358 357 356 357 358 358 358 358 358 357 356 356 355 357
332 333 333 335 336 338 339 339 340 341 341 341 342 344 346 348 349 351 352 352 353 352 352 353 352 352 352 352 352 351 351 351 351 352 351 351 351 352 352 353 352 355 357 356 355 357 357 357 357 358 357 357 357 357 357 358 358 358 358 356 356 355 355
331 331 333 335 336 337 338 339 340 340 340 340 341 343 345 346 349 350 352 353 353 353 353 353 353 353 352 352 352 352 352 351 351 351 351 351 351 351 352 353 353 353 355 358 358 357 357 358 358 357 357 356 356 356 357 357 358 358 358 357 357 356 356
330 331 332 333 334 335 337 338 339 339 340 340 341 343 344 345 347 349 351 353 354 354 355 355 355 354 353 352 351 352 352 351 351 351 351 351 351 352 353 353 353 353 353 355 357 358 357 357 358 357 357 356 356 356 357 357 358 358 358 358 358 357 357
329 330 331 332 333 334 335 336 338 339 339 340 342 343 344 345 347 349 351 352 355 355 355 355 356 355 354 353 352 351 351 351 351 351 350 351 351 352 352 353 353 353 353 353 354 357 358 357 357 357 357 357 356 356 357 358 358 358 358 358 358 358 357
329 329 330 331 332 334 335 335 337 338 339 340 341 343 345 345 346 348 350 351 354 356 356 356 356 355 354 354 353 352 351 351 352 352 351 351 351 352 352 353 353 353 352 353 353 353 356 358 357 356 356 357 357 356 356 357 358 358 358 358 358 358 358
336 329 330 331 332 332 333 335 336 337 338 339 340 343 346 347 347 348 349 350 353 355 356 357 357 356 355 354 353 352 352 352 353 352 352 352 352 352 352 353 353 353 353 353 352 352 353 355 357 357 356 356 357 357 357 356 356 358 358 359 358 358 358
329 328 329 329 330 332 333 334 335 337 338 339 340 342 345 347 348 349 350 351 352 354 355 357 357 356 355 355 353 353 353 354 354 354 353 353 352 352 352 352 353 353 354 353 352 353 352 353 355 356 356 355 355 356 358 357 356 356 358 358 358 358 358
328 328 328 328 329 331 333 334 336 337 338 340 340 342 346 347 348 349 350 350 352 354 356 357 356 356 356 355 354 354 354 354 354 354 353 353 352 352 352 352 352 353 353 353 353 352 352 352 353 354 355 355 354 354 355 357 358 350 339 343 358 358 358
327 327 328 328 328 329 332 334 336 337 338 340 341 343 347 349 349 350 351 351 352 353 356 357 356 356 356 355 355 355 355 355 354 354 353 353 352 352 352 352 352 352 352 352 353 353 352 352 352 353 354 355 355 354 354 355 356 341 335 335 338 354 358
325 326 327 328 328 329 332 335 337 338 339 341 343 345 347 350 351 351 351 351 352 353 356 357 357 356 356 357 356 356 355 355 354 354 353 353 352 352 352 352 351 351 351 351 351 353 353 352 352 352 353 354 355 355 355 355 342 334 333 333 333 339 357
325 326 328 328 328 331 333 335 338 342 343 344 345 347 349 351 351 351 352 352 353 354 355 357 357 357 357 357 357 356 356 355 354 353 353 353 353 353 352 351 351 350 350 350 351 352 352 352 352 351 352 353 353 354 355 356 341 333 330 331 331 331 342
331 330 331 329 331 332 334 336 339 343 347 348 349 350 351 354 353 353 354 354 354 354 354 355 357 358 357 358 358 357 357 355 354 353 353 353 352 352 352 351 350 350 351 351 351 350 351 352 352 352 351 351 352 353 354 355 342 331 328 328 328 330 334
337 335 336 338 340 341 341 344 346 346 347 349 350 350 351 353 354 355 355 355 354 354 354 354 355 357 358 358 358 358 357 356 355 353 353 353 352 352 352 352 352 351 351 351 350 350 350 351 351 352 352 351 351 352 353 355 338 329 326 325 325 327 330
340 344 344 345 344 344 346 348 349 349 349 352 353 351 352 353 355 355 354 355 355 355 355 354 354 355 357 357 358 358 358 357 355 354 354 353 352 351 351 352 352 351 352 351 351 351 351 352 353 353 353 353 352 351 351 354 335 327 325 324 324 326 339
342 344 347 349 350 348 348 349 349 350 350 348 349 350 351 353 354 355 354 354 355 355 355 355 354 354 356 357 358 358 359 358 357 355 354 353 352 351 351 351 352 352 353 351 351 350 350 350 351 353 354 354 353 352 352 353 340 325 323 322 322 324 343
348 349 349 348 348 349 350 351 352 354 351 352 353 354 354 353 351 352 353 353 354 354 354 354 354 354 355 356 358 359 359 359 359 357 356 354 353 352 352 352 353 353 354 352 351 350 351 351 351 352 354 354 354 355 353 353 343 322 320 320 320 328 346
346 348 348 348 348 348 350 351 352 352 353 353 352 352 355 353 351 348 350 352 352 353 353 353 354 354 354 356 358 359 359 360 360 358 357 356 355 354 353 353 353 353 354 354 353 352 352 352 351 351 352 353 354 352 354 355 346 318 319 318 319 328 347
341 342 345 348 350 349 350 351 349 349 350 352 353 355 355 354 355 356 350 349 349 351 352 353 354 354 355 356 358 359 359 360 360 359 359 357 357 357 356 356 355 354 354 354 354 352 352 352 351 351 352 353 353 353 354 355 356 334 317 317 317 320 346
342 342 343 346 348 354 348 348 347 346 348 350 352 354 355 353 352 351 353 352 348 348 350 351 352 353 354 356 358 359 359 360 360 360 360 360 359 358 358 357 356 355 355 354 355 354 353 352 352 351 352 353 354 354 354 356 356 343 315 315 316 317 327
342 342 343 345 351 349 345 346 346 346 348 349 351 353 354 353 350 350 350 349 349 351 354 351 352 353 353 354 358 359 359 360 360 361 361 361 360 359 358 359 358 357 356 356 355 354 354 353 352 352 352 353 354 355 355 357 350 355 317 316 314 315 316
339 339 339 340 342 346 345 344 345 345 345 348 349 350 351 354 354 350 349 346 349 354 356 355 352 353 354 353 357 358 359 360 361 361 362 361 361 360 359 359 359 358 357 356 356 355 355 354 354 353 352 352 353 355 356 356 354 340 336 315 313 312 313
338 340 340 342 343 344 345 343 344 344 345 346 346 347 348 350 351 355 352 345 352 355 359 356 354 354 354 354 356 358 359 360 362 362 363 363 362 361 360 360 360 359 359 358 357 356 355 355 355 354 353 352 351 354 354 356 358 343 331 328 312 312 311
336 337 339 340 342 345 343 343 342 342 342 343 344 344 345 347 347 350 347 348 354 355 355 355 354 354 354 354 355 357 358 359 361 363 364 364 363 361 361 360 361 359 359 359 358 357 356 355 355 354 353 351 351 351 354 356 344 332 319 321 316 312 310
334 336 337 339 340 342 342 342 343 341 341 340 342 343 345 345 345 345 346 350 354 356 355 357 355 354 353 354 355 357 359 359 361 363 364 364 364 364 363 362 361 360 359 359 358 358 357 355 355 354 353 352 352 352 351 339 337 333 329 324 319 315 311
332 334 335 336 339 343 340 341 340 340 340 339 340 341 345 345 346 347 348 350 352 358 356 357 355 356 354 354 355 357 359 359 360 361 363 363 364 364 364 363 362 360 358 359 358 357 357 356 354 354 353 353 353 348 334 331 329 332 334 333 328 325 320
331 333 335 337 338 341 338 339 338 337 338 338 339 340 343 344 344 346 347 349 351 355 354 357 356 354 355 355 355 357 358 358 368 363 360 359 359 360 361 363 363 360 359 359 359 357 357 356 356 354 355 354 350 332 328 325 325 325 325 327 330 331 331
329 331 332 335 337 338 336 338 339 337 336 336 338 338 339 341 343 346 346 348 350 352 353 353 355 352 353 354 355 355 359 359 363 356 345 331 321 314 313 315 327 350 348 335 341 361 360 358 358 357 358 357 339 332 326 324 323 324 316 320 316 325 325
329 330 332 335 337 336 336 340 339 336 335 335 337 338 338 338 340 344 346 348 349 350 350 348 347 347 348 350 351 353 353 350 347 343 338 332 327 324 321 314 303 306 327 332 322 319 334 336 349 348 340 333 329 330 330 326 325 307 300 300 300 302 304
327 329 331 333 334 335 335 335 340 338 337 335 337 337 338 338 340 341 345 347 348 348 347 346 346 345 345 348 346 344 344 341 339 338 336 334 332 330 328 326 320 303 301 309 311 306 303 304 307 314 322 330 324 318 313 312 304 299 300 299 300 299 300
329 329 331 332 333 334 335 334 336 336 337 335 336 336 336 337 338 340 345 347 347 348 346 345 347 345 345 346 343 341 340 339 337 336 334 333 332 331 330 328 325 323 308 301 305 305 303 303 304 306 308 311 316 319 317 306 300 299 299 300 299 300 298

ECMWFFLT1_sfc_thetae_063.txt.gz
Theta_e
331 332 333 334 334 335 335 335 335 336 337 338 338 340 342 343 344 345 345 345 345 345 347 349 349 350 349 350 350 350 350 349 349 347 347 347 347 346 345 346 345 346 349 350 351 352 354 355 356 356 356 356 356 357 358 359 358 359 358 357 357 356 355
329 331 332 334 335 335 335 336 336 337 337 338 338 339 341 342 344 344 345 345 345 346 347 348 349 349 350 350 350 350 349 348 349 349 347 347 349 347 346 346 347 346 348 350 351 353 353 354 355 355 355 356 356 357 357 358 358 357 357 356 356 355 355
329 331 332 334 335 335 336 336 336 337 337 338 338 339 340 342 343 344 344 345 345 346 347 348 349 349 350 350 349 349 349 348 347 347 346 346 347 348 347 347 348 347 347 349 351 352 354 354 354 355 355 355 356 357 357 357 358 358 357 356 355 355 354
329 330 332 334 335 336 337 337 337 337 338 338 338 339 340 342 343 344 345 345 345 345 345 347 348 349 349 349 349 348 348 348 348 347 347 347 346 349 348 347 347 349 347 348 351 353 354 354 354 354 358 355 355 356 357 357 358 358 357 355 355 355 354
329 330 332 333 334 335 336 337 337 337 337 338 339 341 341 342 343 344 345 345 345 345 346 347 348 349 350 350 349 349 349 348 348 347 347 347 347 348 349 348 347 348 349 349 351 353 353 353 353 354 355 355 355 355 356 357 357 357 357 355 354 354 354
328 329 330 332 333 335 336 337 338 338 337 338 339 340 341 342 343 343 344 345 345 346 347 347 347 349 348 349 349 349 349 349 348 348 347 347 347 346 348 350 349 348 349 350 352 352 353 353 353 353 353 355 355 355 355 356 357 357 357 355 355 354 353
328 329 330 332 333 335 336 337 338 338 339 339 340 341 342 342 342 343 344 344 345 345 345 346 347 348 348 348 348 348 347 347 348 348 348 347 348 347 347 349 351 350 350 351 351 353 353 353 353 353 353 354 354 354 354 354 355 357 356 355 354 354 354
328 329 331 332 334 335 336 337 338 339 339 339 339 340 341 343 343 343 343 344 345 345 345 346 347 347 348 348 348 347 347 347 348 348 348 347 347 348 348 348 349 351 351 349 351 353 353 354 354 354 353 353 354 354 354 354 355 356 356 355 354 354 354
329 330 331 332 334 335 336 337 337 338 338 339 339 340 341 342 343 343 344 344 345 345 345 347 347 348 349 348 347 347 347 348 347 348 347 347 347 348 348 349 349 351 351 351 351 353 354 354 355 354 354 353 353 354 354 355 355 355 355 355 354 353 353
328 329 331 333 334 336 336 337 337 337 337 338 339 340 341 342 343 344 345 345 346 345 346 346 347 348 348 348 348 348 347 347 348 347 347 347 348 348 349 350 350 351 352 352 352 351 353 355 355 355 354 353 353 353 354 355 355 355 355 355 354 354 353
328 329 330 331 332 334 335 336 336 337 337 338 339 340 341 342 343 344 345 346 346 347 347 347 348 348 348 348 348 348 347 347 347 347 347 347 348 348 349 350 350 351 352 353 353 352 352 353 354 354 354 354 353 353 353 354 355 355 355 355 355 354 354
327 329 329 330 332 333 334 335 337 337 337 338 339 340 342 343 344 345 346 347 348 348 348 348 349 349 348 348 348 348 347 347 347 347 347 348 348 348 349 350 350 350 351 352 353 353 353 352 353 354 354 354 355 354 354 354 355 355 355 355 356 355 355
327 328 329 330 332 333 334 335 336 337 338 338 339 340 342 343 344 345 346 347 349 349 349 350 349 349 349 349 348 348 348 348 348 348 348 349 349 349 349 349 350 351 350 352 352 353 353 353 353 354 354 354 354 354 354 354 354 354 355 355 355 355 355
335 328 329 330 332 332 333 334 336 336 337 338 339 339 341 343 344 345 346 347 349 350 351 351 351 350 349 349 348 348 348 349 349 349 349 349 350 349 349 350 350 350 351 351 350 351 353 354 354 354 354 354 354 354 354 354 354 354 355 355 355 355 355
326 327 328 329 331 332 333 334 335 336 337 338 339 339 340 342 343 345 347 348 350 351 351 352 351 350 350 349 349 349 349 350 350 350 350 350 349 349 349 350 350 350 350 350 350 351 351 353 355 354 353 354 354 354 354 354 354 354 355 354 355 355 355
326 327 328 329 330 332 333 334 335 336 337 338 338 338 339 341 342 344 345 347 350 351 352 353 352 351 350 350 350 350 350 350 351 350 350 350 349 349 349 349 350 350 350 350 350 350 350 350 352 354 354 353 353 354 354 355 355 348 338 341 355 355 355
325 326 327 329 330 331 333 334 335 336 337 337 338 339 339 341 342 343 345 347 349 350 352 353 352 352 351 350 351 351 351 351 350 351 350 350 350 349 349 349 349 349 349 350 350 350 350 350 349 350 352 353 353 353 353 354 354 339 333 332 336 351 355
324 325 327 328 330 331 332 333 333 335 336 337 338 339 340 341 342 343 344 345 347 350 353 353 353 352 352 352 352 352 352 351 351 350 350 350 350 350 349 349 349 348 349 349 349 350 350 349 349 349 349 351 352 353 353 353 341 334 332 331 330 336 354
325 326 327 328 329 331 331 332 333 335 337 338 339 339 340 342 343 343 344 345 347 350 351 352 353 353 353 353 353 353 353 352 351 351 351 350 350 350 350 349 349 348 348 348 349 350 349 349 349 348 349 349 349 350 352 353 339 332 330 330 329 329 337
324 326 327 328 329 330 331 333 334 336 337 338 339 340 341 344 344 345 346 347 348 349 350 351 352 353 353 354 353 354 353 353 352 351 351 352 351 351 350 349 349 349 349 349 349 349 349 349 349 349 348 349 348 349 350 351 340 331 327 327 327 327 331
323 323 324 326 327 328 329 331 333 335 336 338 340 340 341 343 345 346 347 348 348 349 350 351 352 352 353 353 354 354 354 353 353 352 352 352 352 351 350 350 350 349 349 349 349 348 348 349 349 349 350 349 349 349 349 350 336 328 325 323 323 325 327
335 333 332 330 330 330 330 331 333 335 336 339 342 341 342 343 347 347 347 349 349 349 350 351 351 352 353 353 354 354 354 354 353 353 353 352 352 351 350 350 350 349 350 350 350 350 350 349 350 349 349 350 350 349 348 350 333 327 324 322 321 323 336
344 343 343 342 342 342 342 342 341 344 348 344 344 344 344 347 349 349 349 349 349 349 350 350 351 352 353 354 355 355 355 355 354 353 353 352 352 351 351 350 350 350 351 349 349 349 348 348 349 349 349 350 350 349 349 349 338 325 321 320 320 322 338
345 346 346 347 347 348 349 349 351 352 349 349 348 347 349 350 351 350 349 349 350 349 349 350 351 353 354 355 356 356 356 356 355 354 353 353 351 351 351 352 352 351 352 350 349 348 349 349 349 349 349 349 349 350 349 349 341 325 320 318 318 326 341
345 346 346 346 348 348 349 350 351 352 352 352 351 350 350 351 351 351 350 351 350 351 350 350 351 352 354 355 357 357 357 357 356 355 354 353 352 352 352 351 352 352 352 352 351 350 350 350 349 348 349 349 349 345 348 350 343 326 321 318 316 326 342
340 343 344 345 346 346 348 350 349 348 348 349 349 350 351 349 351 352 351 351 351 351 350 351 352 353 354 356 357 358 358 358 357 356 355 354 354 353 353 353 352 352 351 351 351 351 350 350 349 348 348 349 350 350 350 350 351 343 320 318 315 318 341
339 342 344 344 345 350 345 346 346 345 345 346 349 351 352 353 352 351 350 349 348 350 351 352 353 354 354 355 356 357 358 358 358 357 357 356 355 355 354 354 352 352 351 351 351 351 350 350 349 349 348 349 350 350 351 352 352 349 321 316 315 315 325
339 340 342 347 350 347 343 343 343 343 343 345 347 350 352 352 351 349 348 345 344 346 349 350 352 353 352 353 354 355 357 358 358 359 358 358 357 355 354 354 354 352 351 351 351 350 349 349 349 349 348 349 349 350 350 352 345 353 326 317 314 314 315
336 337 339 340 342 345 342 340 339 340 340 343 344 346 348 350 350 348 345 344 344 348 350 352 350 350 352 352 353 354 356 357 357 358 359 358 358 356 354 354 353 353 352 351 350 349 349 349 349 348 348 348 348 349 350 351 349 336 343 319 314 313 312
335 337 339 341 342 342 342 339 338 338 339 341 342 343 344 346 347 348 345 342 345 347 350 350 351 349 350 351 352 354 355 356 357 358 359 359 358 357 355 354 354 353 353 352 350 349 349 349 349 348 348 347 347 348 350 351 352 339 331 333 316 314 312
333 334 336 337 340 342 340 338 337 337 338 339 340 342 343 343 344 345 343 343 347 350 351 351 349 348 349 349 350 352 355 356 357 357 358 358 358 356 355 354 355 353 353 352 351 350 349 349 349 349 348 348 348 348 350 352 353 344 332 330 321 314 312
331 333 335 337 338 340 338 338 337 337 337 337 339 341 343 342 342 342 339 342 346 348 351 354 349 346 348 348 349 351 354 355 356 357 357 358 358 358 357 356 355 354 354 353 352 352 351 350 350 350 349 349 349 349 351 346 338 333 329 328 324 318 312
327 329 331 332 336 339 336 336 336 336 337 336 335 337 340 340 341 340 340 344 346 349 351 353 352 351 349 347 348 349 352 354 355 356 357 357 358 358 358 357 357 355 353 354 353 352 352 352 350 350 350 350 350 350 342 337 335 334 331 328 327 325 320
325 327 329 331 334 337 334 334 333 334 334 334 333 334 335 337 337 339 340 342 345 347 349 351 352 350 347 345 346 350 352 353 362 360 357 354 353 354 355 356 358 356 355 354 354 354 353 353 352 351 351 351 351 343 334 331 331 333 333 330 329 325 323
325 325 327 329 331 335 333 333 334 330 333 332 332 333 334 334 336 339 339 342 344 345 348 349 350 346 347 347 347 349 354 354 359 356 343 327 321 312 311 314 319 338 351 345 346 356 357 356 355 354 355 355 349 339 333 329 330 333 323 332 323 329 330
324 325 326 328 330 330 333 336 333 331 331 330 331 333 334 333 335 338 340 341 342 344 346 345 344 341 342 345 346 347 351 352 349 342 335 331 326 320 316 310 302 304 320 330 320 315 317 330 355 358 357 351 337 334 340 337 333 305 301 302 303 304 307
324 324 326 327 328 328 330 332 336 334 332 330 331 332 332 333 333 336 339 341 341 342 342 342 342 340 341 342 343 345 347 345 341 337 334 333 331 329 327 325 318 301 300 306 307 303 302 314 323 328 333 341 328 315 310 308 302 300 299 299 299 299 299
323 323 327 327 326 327 328 330 331 332 333 331 332 331 332 332 334 334 338 341 341 340 339 340 340 339 340 340 339 342 342 342 340 337 335 333 333 333 331 328 325 321 306 299 302 302 299 298 301 306 310 312 316 316 314 306 301 300 300 299 298 297 296

ECMWFFLT1_sfc_thetae_069.txt.gz
Theta_e
338 339 340 340 341 341 341 343 344 344 346 348 349 349 350 351 352 353 353 354 354 355 356 356 356 356 356 356 357 358 358 358 358 357 357 357 357 358 358 358 358 360 359 360 361 363 366 368 368 368 369 369 369 369 370 370 369 368 369 369 367 366 366
336 337 338 339 340 341 342 344 345 345 346 348 348 350 350 351 353 353 354 355 355 355 356 356 356 357 357 357 358 358 358 358 358 358 358 358 359 360 360 360 359 361 362 362 363 366 367 367 367 368 368 369 368 369 368 369 369 369 368 369 366 364 364
334 336 338 339 339 340 343 343 345 345 346 346 348 349 349 352 354 354 354 354 355 356 356 356 357 357 357 358 358 358 358 358 357 357 356 356 357 356 359 360 360 360 360 363 365 365 366 366 367 368 368 367 366 368 369 368 369 368 369 370 367 364 364
333 335 338 339 341 342 343 344 344 344 345 346 347 348 350 353 354 355 355 355 355 355 355 356 357 356 357 358 357 358 358 358 358 356 356 356 356 357 358 359 360 360 360 360 361 363 363 365 365 366 367 367 368 368 368 368 367 368 369 369 366 365 364
334 336 337 339 339 341 342 342 343 344 344 346 347 350 350 352 352 354 355 355 354 354 355 356 356 357 358 358 357 357 358 358 358 357 357 357 359 359 358 356 357 358 359 360 362 363 364 364 363 364 365 366 366 367 367 368 367 369 368 367 364 363 362
332 334 336 338 339 340 341 342 343 343 344 344 346 348 349 350 351 351 352 354 354 355 356 357 356 357 357 358 358 357 359 359 359 359 358 358 358 357 356 357 356 357 357 359 360 360 362 362 362 363 362 363 363 363 364 366 366 367 367 366 364 363 362
332 334 335 337 338 339 340 341 342 343 344 345 346 348 349 348 349 350 351 352 353 354 354 354 355 356 358 358 358 359 358 358 359 358 358 358 359 358 357 358 358 357 358 360 359 360 360 361 362 363 363 362 363 362 364 366 366 367 368 366 364 363 364
334 334 337 337 338 339 340 342 342 343 344 345 345 346 346 347 348 349 350 351 352 353 353 353 354 357 357 358 358 358 359 358 358 358 358 357 357 357 357 358 358 359 359 358 359 360 358 360 361 363 362 361 363 364 364 367 368 366 367 365 364 363 362
333 336 336 336 337 338 340 342 342 343 344 344 344 346 346 347 347 348 350 351 352 352 352 353 354 356 358 358 358 359 359 359 358 358 358 357 356 355 356 357 358 359 358 356 357 360 359 359 359 362 363 362 363 365 365 366 366 366 365 365 365 364 364
332 336 338 337 338 338 340 342 343 344 344 344 345 346 346 346 348 348 349 350 351 351 352 353 354 355 357 357 357 358 359 358 358 357 357 356 356 356 356 356 357 358 357 356 356 357 359 360 360 362 364 362 363 364 364 364 364 365 365 365 365 365 365
330 338 339 337 337 339 341 341 342 344 344 345 346 345 347 347 347 348 349 350 350 351 352 353 355 354 356 356 355 356 357 357 357 356 356 356 356 356 356 356 356 357 357 356 356 357 358 360 361 362 362 360 361 362 363 363 364 364 363 364 365 365 364
331 335 339 338 339 340 339 342 344 346 347 347 345 344 347 348 347 347 349 350 351 351 352 352 354 354 355 354 354 355 357 357 356 355 356 356 355 356 356 356 356 356 357 357 356 357 357 359 359 360 361 361 361 362 363 364 364 365 364 362 364 365 364
329 332 336 337 340 340 344 345 346 347 348 345 343 344 346 346 347 347 350 350 351 351 352 353 354 354 354 354 354 356 357 356 356 356 356 357 356 356 356 355 355 355 355 357 357 356 356 357 359 360 360 361 361 361 363 364 364 365 365 364 364 364 365
333 331 333 337 339 341 342 346 347 347 347 345 343 345 345 346 346 347 350 349 350 351 352 352 353 354 354 354 354 356 357 357 357 357 357 357 359 358 357 356 356 357 357 357 357 356 356 356 357 359 360 360 361 362 363 364 364 364 365 365 364 364 364
321 326 332 333 339 343 343 342 346 347 346 345 345 345 345 345 346 349 351 350 351 351 352 354 354 354 354 354 354 357 358 358 359 358 359 358 359 358 357 357 357 357 358 358 357 356 357 358 357 358 359 360 361 362 362 362 362 363 364 363 364 364 362
316 318 323 330 336 337 343 344 345 348 348 348 345 345 344 345 347 348 348 349 349 351 352 354 354 354 353 354 355 358 359 359 359 359 359 359 359 359 358 358 358 357 357 357 357 358 358 359 358 358 358 358 360 361 362 362 362 355 341 346 362 364 362
321 317 318 327 333 338 341 343 345 348 348 347 347 347 345 347 347 347 346 349 349 351 352 354 355 355 354 354 357 358 359 359 359 359 358 359 359 359 359 358 358 358 358 358 358 358 359 358 357 357 357 357 358 359 360 360 360 341 334 334 338 357 363
332 326 321 320 327 335 340 341 344 346 346 345 345 347 347 348 347 347 346 348 348 350 352 352 353 353 355 356 357 358 358 358 358 358 358 358 358 359 359 359 358 358 358 358 357 359 359 358 357 358 357 357 357 357 358 359 345 334 332 332 331 339 360
340 333 326 324 325 333 336 338 342 345 344 345 345 345 346 348 346 347 348 350 350 351 351 351 351 353 355 355 357 358 358 358 357 357 357 358 358 358 359 358 358 358 357 356 358 358 358 358 357 358 358 357 358 357 357 358 340 331 330 331 330 329 342
342 336 330 328 326 328 336 341 342 345 346 348 348 347 348 349 347 349 350 352 353 351 353 353 353 355 354 356 357 357 358 358 357 357 357 358 358 358 358 357 357 357 358 357 358 358 357 357 358 358 359 358 358 359 358 358 342 329 327 327 327 328 333
343 340 331 331 332 331 339 344 345 346 348 346 347 349 349 349 349 351 352 353 352 353 356 354 354 355 355 355 356 357 357 358 357 357 357 358 358 358 357 357 358 357 357 356 356 357 357 356 357 357 358 358 357 358 357 357 337 326 324 323 323 325 330
343 344 339 333 336 339 343 341 343 343 345 347 347 347 348 348 349 349 350 352 352 353 354 354 355 354 355 355 356 356 357 357 357 357 358 358 358 357 357 357 358 357 358 357 356 357 357 358 357 357 357 358 357 356 356 357 333 326 323 322 322 324 344
344 346 345 340 338 340 347 346 347 345 350 348 347 347 347 348 349 349 351 351 352 355 354 354 354 354 355 355 355 356 356 356 356 357 358 358 357 357 356 357 357 358 359 357 356 355 355 357 356 358 357 357 357 357 357 357 340 323 321 320 319 325 351
346 348 347 340 341 345 347 347 348 351 346 348 347 349 351 351 350 353 353 352 354 355 354 353 353 355 356 354 356 356 357 357 357 357 358 358 357 356 357 357 358 358 359 357 355 354 356 357 357 358 358 357 357 357 357 357 345 321 319 318 317 331 353
345 347 349 345 340 341 343 348 348 348 350 349 348 352 355 354 353 352 353 354 353 352 352 352 353 355 356 356 357 358 358 358 358 358 358 358 358 358 357 357 358 358 359 358 357 356 358 358 357 357 359 358 357 349 353 357 348 322 319 317 315 330 355
342 345 348 349 345 345 350 353 352 347 348 346 350 352 354 353 351 351 352 353 352 351 352 353 356 357 358 358 359 359 359 359 360 360 358 358 359 360 359 360 359 359 359 358 358 357 357 357 358 357 357 358 358 357 356 356 358 351 318 316 314 319 352
342 345 346 348 350 351 348 349 348 346 346 350 355 352 352 351 350 352 354 354 353 352 353 357 360 360 361 361 360 360 360 360 360 360 359 360 360 360 360 360 359 359 359 358 358 358 358 358 358 357 358 358 359 359 358 358 358 358 318 315 313 315 326
341 344 347 348 351 352 352 347 350 350 350 354 351 351 352 353 353 353 355 353 353 355 357 361 363 363 363 363 361 361 361 361 362 362 360 362 362 362 361 362 361 361 360 359 359 359 359 360 359 358 358 359 359 360 360 357 346 360 326 316 313 313 314
335 338 342 345 347 349 351 353 353 351 350 348 349 350 351 351 353 353 354 353 356 357 359 361 361 363 363 363 361 362 362 363 363 362 361 362 363 363 362 363 362 362 362 361 360 360 359 359 358 358 357 359 359 360 362 363 359 335 351 318 313 311 311
333 335 338 343 346 347 350 351 352 352 353 349 351 353 353 352 355 355 355 355 360 361 361 362 362 363 362 362 362 363 363 363 364 364 364 364 365 364 363 363 363 362 362 362 360 359 358 357 358 357 356 356 357 359 361 364 363 343 331 339 313 312 310
330 332 335 338 342 346 348 349 351 352 353 356 359 358 358 358 357 357 356 363 364 363 362 362 362 361 361 360 361 363 363 364 364 364 365 366 366 364 363 364 364 361 363 361 360 359 357 357 358 357 357 356 357 358 360 362 362 363 346 329 322 313 311
330 333 335 337 340 343 346 348 349 350 351 353 357 360 363 362 361 359 362 363 365 365 365 364 362 361 360 361 362 362 363 363 364 366 366 366 365 364 364 363 362 361 362 361 359 359 358 357 357 357 358 357 358 359 360 362 363 362 363 341 334 324 314
328 331 333 335 338 342 343 345 345 346 348 349 352 355 357 360 362 363 363 364 365 366 368 366 364 363 364 364 363 364 363 363 361 362 364 365 364 364 365 364 364 363 361 361 359 358 358 358 358 357 356 357 359 360 361 362 362 362 361 362 357 352 341
326 328 332 335 338 341 343 344 345 345 346 347 350 352 354 356 358 360 362 364 365 365 366 365 364 363 363 363 364 364 365 364 363 364 363 364 364 363 363 364 364 363 362 360 360 359 358 358 357 357 358 357 359 360 360 360 361 362 361 361 360 359 357
326 328 330 332 336 342 342 344 345 345 345 346 349 351 353 354 356 359 363 364 366 368 366 364 365 366 364 363 362 361 362 363 364 363 363 365 367 345 336 350 364 364 364 365 366 364 361 360 360 361 362 361 361 360 360 361 360 362 341 362 340 354 359
325 327 329 331 335 340 343 344 346 346 345 346 349 350 351 352 354 357 358 363 367 371 367 363 364 367 367 366 365 364 362 362 362 362 361 362 353 341 329 308 299 310 347 367 339 333 329 334 362 363 363 362 363 366 362 362 363 335 325 325 321 321 324
324 326 327 329 332 335 339 342 344 345 345 346 348 349 349 350 351 354 356 359 362 367 369 369 367 365 365 364 365 362 365 364 363 365 364 359 353 350 344 340 329 300 295 304 309 307 309 312 313 317 329 359 366 336 306 307 304 308 310 311 310 311 310
325 326 327 328 330 332 335 338 340 341 342 344 345 346 348 348 348 351 354 357 359 361 365 368 367 366 365 366 364 362 364 364 362 360 358 355 354 353 350 349 345 336 305 297 300 299 294 293 295 301 309 315 335 341 335 308 299 298 299 299 299 298 298

ECMWFFLT1_sfc_thetae_075.txt.gz
Theta_e
336 340 342 344 344 344 350 353 355 354 355 356 357 356 355 356 358 361 361 363 365 366 367 367 366 365 363 362 363 363 362 361 361 360 361 362 363 362 362 361 360 360 357 358 361 357 360 362 362 363 364 366 367 367 369 371 370 367 369 370 369 367 366
336 335 341 345 345 344 353 355 355 355 355 356 358 358 356 357 359 359 361 364 366 366 366 367 367 365 364 364 364 364 363 362 362 362 362 363 366 365 363 363 361 361 361 359 359 362 363 363 362 363 363 366 366 368 367 369 370 369 366 368 367 367 368
334 336 340 340 342 347 353 355 356 355 356 356 357 357 357 359 360 361 363 364 366 367 367 368 368 367 366 365 364 363 362 362 362 361 361 360 364 363 365 365 362 361 361 361 360 360 361 364 366 365 364 364 363 366 367 368 370 368 367 368 367 366 368
336 338 341 342 345 349 353 354 356 355 356 357 357 358 358 361 362 364 364 366 366 367 366 367 367 365 364 365 363 363 362 362 363 361 361 363 363 365 364 364 365 362 362 360 358 358 358 362 365 366 367 365 363 363 366 366 365 368 367 368 366 365 367
332 335 338 340 344 348 350 353 354 356 356 357 358 360 360 361 361 363 364 365 366 366 367 367 366 365 365 365 362 361 361 362 362 362 363 363 365 366 364 362 363 361 361 362 361 360 362 362 361 364 365 366 363 364 364 365 364 366 367 368 366 364 364
327 331 336 338 342 343 342 351 354 355 355 355 357 359 359 360 360 361 363 365 366 367 369 369 367 365 364 363 361 361 363 363 364 365 364 364 365 365 364 364 363 363 358 361 360 360 360 361 361 362 364 363 361 358 361 364 364 364 366 367 366 363 360
327 329 333 339 339 338 341 349 352 355 356 355 357 360 360 359 360 361 362 363 365 366 366 366 365 365 364 363 362 363 362 361 363 363 363 364 365 365 366 365 365 363 360 363 360 361 360 360 363 363 363 361 362 358 360 364 363 364 365 367 366 365 364
328 329 332 337 340 341 344 345 351 354 355 355 356 357 358 359 360 360 361 362 363 364 365 365 364 364 364 364 362 362 362 362 363 363 364 363 364 365 365 365 364 365 364 359 361 362 361 362 361 362 362 361 360 362 359 364 366 361 362 365 365 365 363
328 332 331 333 336 338 340 345 348 352 355 354 354 356 358 358 358 359 360 361 362 363 364 364 363 364 365 363 363 363 364 363 364 364 364 362 364 363 363 364 366 366 364 360 360 362 362 363 362 364 364 363 362 364 362 365 363 363 362 363 365 365 362
329 331 335 335 336 336 340 342 350 354 355 354 355 356 357 358 359 360 360 361 362 361 363 363 363 362 364 363 363 365 365 364 364 362 362 362 362 362 362 363 366 365 364 361 359 360 363 364 364 365 366 363 363 364 364 364 364 364 362 362 364 365 365
326 333 335 334 336 336 339 340 348 355 355 358 356 354 357 357 358 359 359 360 360 361 363 363 364 363 364 364 363 362 363 363 362 361 362 361 360 361 361 362 363 365 364 362 359 359 362 363 365 367 367 363 363 365 366 365 366 366 361 361 364 366 365
334 337 336 336 338 337 337 346 353 357 359 358 355 355 358 359 358 359 360 360 361 361 362 361 362 363 364 363 362 363 364 363 361 361 361 361 360 360 362 361 360 363 364 363 360 359 361 363 363 365 367 368 366 366 368 368 367 367 365 360 361 364 364
327 337 337 334 338 337 346 358 356 356 359 355 354 355 357 358 358 358 360 361 361 362 361 362 362 363 364 363 362 363 364 363 361 361 362 362 360 361 362 360 358 359 362 363 360 358 358 362 364 364 366 368 368 367 369 369 368 369 368 364 362 363 364
335 330 338 343 346 347 346 350 357 358 357 356 355 354 356 358 357 358 359 359 361 361 360 361 361 362 364 363 362 364 364 365 364 361 363 364 365 363 361 359 358 359 361 363 361 358 358 359 362 363 364 367 368 369 370 371 369 371 371 368 364 361 364
324 325 330 331 338 343 345 347 357 358 356 356 355 354 355 356 357 359 360 361 362 360 361 363 361 362 363 364 363 366 368 368 366 364 365 365 366 363 362 361 361 361 362 365 362 359 358 358 359 363 364 366 367 368 367 368 368 369 369 369 366 363 361
325 324 326 328 335 339 345 348 353 359 358 360 356 356 353 355 358 357 358 359 359 361 361 362 362 363 363 364 365 368 369 369 370 367 367 366 366 367 365 363 363 360 360 363 363 364 362 361 359 360 363 364 366 367 366 366 369 364 353 358 368 365 360
331 333 333 334 338 338 344 346 350 357 360 360 358 356 354 356 358 358 357 359 359 360 361 362 364 364 365 365 367 369 370 370 370 368 368 368 368 368 368 368 366 367 367 366 366 367 368 362 358 357 360 363 365 366 366 364 365 350 340 342 350 365 364
332 334 335 336 339 342 345 344 347 351 356 357 356 356 355 358 357 357 356 358 358 358 360 361 362 363 366 366 368 370 371 370 370 369 369 369 369 370 369 368 367 368 367 364 365 368 365 362 361 363 359 360 363 364 365 365 354 337 337 339 339 352 367
334 334 334 338 340 344 346 346 345 351 354 356 355 353 354 355 355 358 358 360 360 361 360 361 362 364 366 367 369 370 371 372 371 370 369 370 371 371 370 369 368 366 365 363 366 367 367 367 362 362 361 359 363 361 364 365 343 333 334 336 336 337 355
340 339 338 339 344 341 345 354 357 357 352 359 358 354 355 357 355 358 359 360 362 361 364 364 364 365 365 368 369 370 372 372 372 370 370 371 372 372 370 369 368 368 367 367 368 368 367 364 365 365 367 363 363 366 363 365 341 331 330 333 333 335 343
342 343 344 345 347 349 353 356 357 359 358 355 354 358 356 353 355 359 359 361 360 362 366 363 364 365 366 366 369 370 371 371 372 371 372 372 372 372 371 370 370 369 368 366 366 367 368 366 366 366 366 364 362 363 362 360 333 328 327 328 329 332 339
340 342 343 345 347 350 353 354 357 358 360 361 351 353 357 354 354 355 358 360 360 361 363 365 366 365 367 367 368 369 371 370 370 371 372 372 372 371 370 370 370 370 369 367 365 367 368 369 368 367 367 366 364 361 361 360 326 327 326 325 327 329 354
339 342 344 347 348 349 353 356 357 359 361 360 356 349 355 355 354 355 357 359 359 362 362 363 364 364 366 366 368 369 370 370 369 371 371 372 371 370 370 370 370 370 371 367 365 364 365 368 366 369 367 367 367 363 362 362 336 324 322 323 323 332 360
340 343 345 347 350 351 353 355 358 359 357 355 354 351 358 357 355 357 360 359 361 361 360 360 361 364 366 366 368 369 371 371 371 371 370 371 370 370 370 370 371 370 371 368 365 360 363 366 366 367 368 366 366 365 364 362 346 319 320 321 320 339 362
338 340 344 347 349 349 350 354 357 356 358 356 350 351 359 362 357 354 357 359 359 360 358 358 362 364 366 366 368 370 370 371 371 371 370 370 370 370 370 370 371 370 371 368 366 364 363 364 364 365 367 366 366 362 362 363 348 317 319 318 318 340 365
336 340 343 347 350 351 353 355 356 356 355 352 352 352 359 359 356 356 357 358 359 358 358 360 363 367 369 368 369 370 370 371 372 372 370 371 371 372 371 371 370 370 369 367 367 364 361 360 361 362 362 363 364 364 365 365 363 335 316 316 316 326 365
336 339 343 345 348 350 351 354 354 356 355 355 357 352 355 358 356 356 359 360 360 359 359 362 366 368 369 369 368 369 370 370 371 370 370 371 370 370 369 369 369 368 368 367 365 364 363 360 360 358 361 361 363 362 363 364 367 345 315 315 316 320 337
333 336 341 346 348 350 352 351 354 357 356 356 353 354 356 357 360 361 362 360 359 361 362 365 367 368 370 369 368 368 368 369 371 371 369 372 372 371 369 370 369 368 367 366 366 366 365 365 363 359 359 361 362 364 363 363 357 364 318 316 314 318 322
329 331 336 342 347 351 353 351 353 354 354 352 353 355 355 355 360 360 362 359 363 364 365 366 367 369 370 370 367 369 370 369 369 369 368 369 371 370 368 369 369 369 369 368 367 366 365 366 365 363 361 362 362 364 369 374 370 345 336 315 313 314 318
329 332 336 339 345 351 353 354 355 354 353 352 354 356 357 359 360 361 361 362 366 366 366 368 368 369 369 368 368 367 367 367 369 370 369 370 371 371 370 369 368 368 368 368 365 363 363 364 365 363 360 360 362 365 368 373 371 344 332 326 313 313 315
328 330 333 337 343 350 353 354 354 354 354 354 358 360 362 360 360 361 363 365 369 368 366 367 368 368 368 366 366 367 368 368 369 369 368 370 371 370 368 369 368 366 367 368 365 363 363 364 365 364 362 362 362 363 364 366 367 370 339 323 316 314 313
327 330 334 337 342 346 352 355 355 355 357 356 358 360 364 362 360 362 364 368 368 367 367 367 367 367 367 367 366 365 366 366 366 368 367 368 369 369 369 368 365 365 366 365 364 364 363 363 361 360 362 361 363 362 363 365 366 368 359 331 323 319 315
326 330 333 334 337 342 347 354 353 355 356 357 357 356 355 358 359 364 367 368 366 365 368 368 368 367 367 366 365 367 366 366 364 365 365 367 367 368 368 368 367 365 364 364 362 363 362 362 361 360 359 361 362 363 364 365 367 366 365 354 344 341 333
326 329 332 335 336 339 342 347 350 353 356 357 361 362 360 360 363 365 366 366 365 364 369 368 368 366 367 366 365 365 365 365 366 365 364 365 366 365 365 366 366 364 364 364 362 361 361 361 359 360 361 360 361 363 363 363 365 366 369 363 355 352 346
325 329 332 334 335 336 339 342 346 350 354 356 360 362 366 363 362 365 366 366 366 370 369 367 370 369 369 367 367 365 367 366 365 365 365 365 366 367 381 375 365 365 366 369 368 367 363 362 363 363 363 363 363 362 361 365 363 366 346 370 339 353 355
324 327 331 334 335 336 336 338 341 342 346 352 356 360 361 364 365 366 364 366 367 369 367 369 369 368 368 368 367 368 365 365 364 365 365 366 363 356 335 308 300 317 367 361 319 306 307 329 362 360 368 365 365 358 364 364 372 319 321 322 326 327 329
323 325 329 333 333 333 333 335 338 339 340 345 352 355 358 360 362 364 366 367 369 369 369 369 365 364 365 367 366 365 366 366 366 366 368 368 368 365 357 352 336 300 297 309 310 302 296 295 298 305 316 366 364 337 309 312 306 305 307 308 309 312 318
325 326 329 332 331 332 332 332 334 336 338 342 349 351 352 354 356 359 363 365 371 368 369 368 365 363 364 365 367 369 369 366 367 367 367 366 369 371 364 363 356 344 306 297 302 299 296 296 295 296 301 307 330 353 348 314 304 305 306 305 305 307 310

ECMWFFLT1_sfc_thetae_078.txt.gz
Theta_e
339 338 339 339 340 347 347 348 349 349 350 351 352 352 351 353 356 358 358 361 362 363 363 364 364 363 361 361 362 362 361 360 360 359 359 359 357 358 361 360 360 361 359 361 359 358 361 365 366 364 366 369 369 370 373 373 372 370 375 374 372 375 372
334 335 337 338 342 346 347 348 348 348 350 351 353 353 352 354 357 357 359 362 363 363 363 364 365 364 363 362 361 362 361 361 361 362 362 362 362 363 363 364 362 363 363 362 364 364 364 361 368 364 366 368 367 371 369 373 373 372 370 373 372 372 372
335 336 336 337 342 345 348 348 350 349 350 351 353 353 351 356 358 358 360 361 362 364 364 363 364 364 364 363 361 361 361 361 362 362 360 359 362 357 362 365 364 363 361 363 367 364 363 361 366 367 366 365 364 370 370 371 373 371 372 373 371 370 372
335 335 337 340 345 347 348 347 347 348 350 351 351 351 353 357 358 360 361 361 361 363 363 363 362 362 363 363 362 361 361 361 361 359 358 360 360 361 362 364 365 361 360 359 360 362 358 362 362 367 368 366 367 367 368 368 368 370 370 371 371 370 371
336 336 336 340 341 341 342 346 348 350 349 350 353 356 356 358 357 358 360 361 363 362 363 362 361 363 363 363 360 360 360 360 361 360 359 360 363 364 363 360 362 359 360 358 359 363 365 364 362 364 365 368 366 367 368 369 368 370 370 370 370 368 368
334 336 341 340 339 341 341 342 346 349 349 349 351 354 356 355 355 356 358 361 363 364 364 365 364 364 362 362 361 360 361 361 362 362 361 362 364 363 362 362 360 360 358 360 359 359 366 362 362 362 362 363 361 361 363 365 365 366 369 369 368 366 363
334 334 334 338 340 343 343 343 345 347 350 350 350 356 355 354 355 356 358 361 364 364 363 364 363 362 362 363 362 363 361 360 361 360 361 360 363 363 363 364 363 360 359 362 359 358 359 362 362 364 363 361 362 360 361 365 364 364 367 368 368 369 368
334 334 336 342 341 340 340 347 348 347 349 349 351 352 354 355 356 356 358 360 363 364 364 364 363 363 364 364 362 361 361 359 360 361 361 359 360 362 363 363 363 363 362 360 362 360 356 360 361 364 364 362 362 362 362 366 366 363 365 366 367 366 364
333 336 337 341 342 341 343 344 344 346 348 348 349 348 349 351 354 356 357 360 363 363 364 364 364 365 366 364 363 362 360 360 360 360 360 358 359 359 360 362 362 364 362 357 358 361 358 359 358 363 364 363 363 363 363 365 365 363 364 365 366 365 363
329 333 338 338 340 340 343 343 345 347 347 346 345 349 352 355 357 356 357 360 363 363 364 364 365 364 364 363 361 360 361 360 360 359 358 358 359 359 361 362 361 363 362 357 357 358 361 360 359 363 365 363 364 363 362 365 363 362 363 365 366 365 365
328 334 335 335 337 341 344 345 346 348 348 349 349 350 355 358 358 358 359 360 361 363 365 365 365 364 363 362 360 359 360 358 359 359 358 357 358 359 360 362 362 361 360 358 356 357 359 361 361 363 365 362 363 363 361 364 363 362 361 363 364 365 364
327 336 334 335 339 339 338 342 346 350 350 350 348 349 358 360 358 358 359 360 362 363 364 365 365 364 363 362 360 359 360 359 359 358 358 358 358 359 359 360 361 360 361 359 356 358 357 360 360 361 363 362 362 364 363 364 364 364 362 360 361 364 364
329 337 337 337 343 342 343 344 348 352 353 351 350 353 357 358 358 358 361 361 361 363 364 365 365 365 363 362 358 359 360 358 358 359 359 359 359 359 360 359 359 360 359 360 357 355 356 357 360 362 363 363 362 362 364 364 364 365 365 363 361 362 364
340 332 337 339 339 342 343 344 349 351 354 356 353 354 355 357 358 360 362 360 361 362 363 364 365 365 364 362 360 360 361 361 360 359 361 361 361 362 361 359 359 362 363 363 359 355 356 356 358 362 363 363 363 362 365 365 364 366 367 365 363 362 363
326 327 332 333 347 349 344 354 353 354 355 356 354 354 355 356 357 360 363 361 362 361 362 365 365 364 363 363 361 361 363 363 363 362 363 362 363 362 361 360 361 363 364 363 360 356 355 358 358 359 361 364 364 363 364 365 365 365 366 365 364 362 361
325 328 328 331 339 342 350 355 355 358 359 358 355 356 353 356 359 360 360 361 360 362 363 365 364 364 363 362 363 365 365 365 364 363 364 363 363 363 362 362 362 361 363 363 362 360 357 357 360 359 360 363 365 365 364 365 365 360 351 355 363 362 358
331 330 332 335 341 343 346 350 355 362 369 363 360 359 357 359 359 358 358 359 360 362 363 365 364 364 364 364 366 367 366 366 364 364 363 364 364 364 364 363 363 362 363 364 363 361 361 358 360 359 359 360 363 363 364 365 364 349 339 342 349 361 361
331 332 333 334 337 340 342 342 350 352 359 359 359 363 359 362 360 358 356 360 360 360 361 362 364 364 365 367 367 369 367 366 366 364 364 365 365 364 365 365 364 363 363 363 362 363 362 359 359 360 361 360 362 362 363 364 355 337 336 339 340 351 362
331 334 336 336 338 341 340 343 349 355 356 351 352 350 355 360 357 359 359 361 362 362 361 362 362 364 366 367 367 369 368 367 366 365 364 365 366 366 365 365 365 363 362 362 363 364 363 361 359 359 361 361 361 361 363 363 345 334 334 336 336 338 355
339 339 340 341 341 341 347 348 350 351 355 361 360 353 354 358 356 361 361 363 366 364 363 364 363 365 365 367 368 369 370 369 367 366 365 366 367 367 365 364 364 364 363 362 365 364 364 362 361 360 361 362 363 362 362 363 341 331 331 333 333 336 344
337 338 340 341 343 344 347 350 353 354 355 353 357 359 352 354 355 361 363 364 364 364 365 366 365 365 366 367 368 370 370 370 368 367 366 367 367 367 366 364 365 365 364 361 363 364 364 362 361 361 362 361 363 364 361 361 333 328 328 329 330 333 340
334 337 338 340 342 345 349 348 350 349 351 357 356 355 357 349 351 352 359 363 365 363 365 367 367 366 366 367 369 369 371 370 369 369 367 367 367 367 366 365 365 365 364 360 359 362 366 366 363 362 362 361 360 358 361 360 328 327 327 327 328 331 350
335 337 339 341 343 344 348 350 351 351 356 356 358 358 358 358 346 352 355 359 360 363 363 366 367 366 366 366 369 369 370 370 369 369 368 367 366 366 366 365 365 366 366 361 359 359 362 363 362 364 361 360 360 359 360 364 332 324 324 325 325 332 356
332 335 337 339 342 345 348 350 352 354 354 354 355 356 361 361 361 357 358 359 361 362 361 362 365 367 366 366 368 369 369 370 370 370 369 368 366 366 366 367 365 364 366 363 360 359 361 363 364 364 362 360 360 358 361 364 339 319 321 323 322 338 359
328 331 335 337 339 341 344 348 351 352 353 354 352 357 360 361 362 359 358 360 360 361 359 360 364 366 366 366 368 369 370 370 370 371 369 370 369 368 369 367 365 364 366 363 362 362 365 365 364 362 363 361 361 358 360 360 346 316 321 319 319 336 360
325 328 332 336 338 341 344 348 350 352 353 353 357 362 362 360 357 357 358 360 359 357 357 358 362 366 368 368 368 369 370 369 370 370 369 370 371 371 371 370 366 366 366 365 362 360 361 362 364 363 362 362 362 363 363 360 361 331 318 318 318 325 360
326 329 331 334 336 340 341 345 348 350 352 356 360 360 360 358 354 354 360 360 358 357 358 361 363 368 369 369 367 368 369 369 370 369 369 370 370 371 371 369 367 366 366 363 362 361 359 359 361 361 363 362 363 362 363 363 363 342 315 316 317 320 337
325 327 330 333 336 338 341 344 347 350 352 356 359 358 358 358 357 358 363 360 358 360 362 364 366 368 370 370 369 368 367 367 370 371 368 370 371 371 370 371 370 368 367 364 364 363 361 359 358 358 360 362 363 363 362 362 354 352 318 317 315 317 324
321 323 326 330 334 338 341 343 346 349 353 356 356 358 358 354 355 359 364 360 361 363 365 367 367 370 371 371 369 370 370 370 371 370 368 369 372 371 370 371 369 369 369 367 365 364 363 362 360 358 358 360 361 363 365 367 361 337 332 316 314 315 318
322 324 326 330 334 337 340 342 347 350 355 358 358 360 362 358 357 362 364 363 366 366 368 369 369 371 371 369 369 370 370 370 370 371 369 371 371 371 370 370 370 369 369 368 365 363 363 363 361 359 356 356 358 361 366 370 372 336 328 325 313 314 315
320 322 324 327 331 336 339 342 347 352 357 358 362 364 366 366 363 369 366 368 369 368 368 369 369 370 370 369 369 369 370 370 370 371 371 372 372 371 370 369 369 368 369 368 366 364 362 363 362 360 357 356 357 359 364 368 371 353 333 323 317 315 314
321 323 324 326 329 335 338 340 346 350 353 360 363 365 367 369 366 369 369 373 370 370 369 370 370 369 369 369 368 369 368 368 367 370 371 372 371 371 370 368 367 366 368 367 365 364 363 362 361 361 360 359 359 360 363 367 366 362 346 328 322 319 316
320 322 324 326 328 335 336 338 343 346 351 355 359 361 366 358 364 376 377 373 371 369 371 371 370 367 368 369 368 369 367 366 364 366 367 369 369 369 369 368 366 365 365 364 362 362 362 363 361 361 360 360 360 361 363 364 365 366 353 341 335 332 330
318 321 325 327 330 336 334 336 340 344 348 353 358 362 366 368 369 376 373 369 366 365 371 371 369 368 368 368 367 366 367 366 363 363 362 364 365 363 364 365 366 364 364 362 362 362 361 361 360 360 361 360 359 360 361 362 363 365 361 348 344 341 341
319 322 325 325 329 335 332 333 336 342 344 348 354 359 360 365 366 368 371 372 370 368 367 369 366 367 368 367 366 364 364 366 365 365 363 364 366 367 376 370 366 365 364 366 367 365 362 361 362 363 363 362 361 360 359 360 361 362 347 355 333 343 347
320 323 324 325 332 334 332 331 334 338 340 342 346 349 354 357 360 364 367 369 373 372 368 368 368 367 367 366 365 364 363 364 365 365 362 363 360 343 327 308 300 310 367 364 325 316 320 341 363 365 362 360 363 365 362 363 363 341 329 322 320 322 326
320 322 323 326 328 330 330 330 332 336 338 340 340 342 343 345 347 352 358 362 364 367 370 371 367 365 366 365 364 361 363 364 364 365 365 365 360 352 346 343 331 302 297 307 311 305 300 301 307 321 339 364 362 334 310 327 323 314 312 315 316 316 316
323 324 325 326 328 328 329 329 329 332 335 337 338 339 341 342 342 344 346 355 361 359 363 368 366 365 364 365 364 361 361 365 364 364 365 365 362 358 354 352 345 337 307 298 302 301 298 298 300 302 312 329 340 349 347 322 311 310 308 312 313 314 314

ECMWFFLT1_sfc_thetae_081.txt.gz
Theta_e
336 336 337 338 339 339 340 341 342 341 342 343 344 344 346 346 348 349 349 351 350 349 351 353 355 354 352 352 352 352 350 349 349 347 347 348 350 348 346 347 348 352 351 351 351 352 354 354 355 361 361 361 360 363 360 363 363 363 363 363 363 369 358
334 336 337 338 337 338 340 342 343 343 342 344 345 345 347 347 348 350 350 351 351 351 351 352 355 354 353 352 352 352 350 349 350 351 348 349 350 352 349 349 347 352 353 351 350 353 354 355 354 359 360 361 360 362 363 362 362 362 362 362 360 360 362
334 335 336 337 337 338 339 343 344 345 344 345 346 346 347 348 349 351 351 352 352 352 353 352 354 354 353 352 351 352 351 349 350 349 347 347 348 352 352 352 349 351 354 354 352 352 355 353 357 358 359 360 360 361 363 363 363 363 362 362 362 360 359
334 334 336 338 338 339 341 343 344 345 346 346 347 347 347 349 350 352 354 353 353 353 353 353 353 354 353 352 352 351 351 350 349 350 349 348 348 350 354 354 353 352 354 355 356 353 354 352 357 357 364 358 358 361 362 363 364 363 363 362 361 362 361
334 335 336 336 337 340 343 343 344 344 346 347 348 349 349 350 351 352 354 356 355 354 355 355 355 355 355 353 353 353 352 350 350 350 350 350 351 349 352 355 354 354 354 356 357 356 353 352 351 357 359 358 358 360 361 363 363 363 362 363 360 361 361
334 335 335 336 337 341 343 343 344 344 345 347 347 348 350 350 352 352 354 356 357 357 357 357 356 356 355 354 353 353 353 352 351 351 350 351 351 350 350 355 356 355 355 355 357 357 354 353 351 357 358 358 358 360 360 361 362 363 362 362 361 360 361
334 334 334 335 337 341 342 343 344 344 345 347 348 349 350 350 351 353 354 356 357 357 357 357 357 357 357 356 354 354 353 352 352 352 352 352 353 352 351 354 357 357 356 355 354 357 355 354 352 354 357 358 359 359 359 360 361 362 362 361 360 360 359
334 333 334 335 339 342 343 343 343 344 345 346 347 348 349 350 351 352 353 356 357 358 358 358 358 358 358 358 356 354 353 353 354 354 353 352 353 354 353 354 356 357 356 354 353 354 356 354 354 354 356 357 358 358 359 359 359 361 361 360 359 359 361
333 334 334 336 339 342 343 342 343 343 344 345 345 346 348 349 350 351 353 355 357 357 358 359 359 359 359 358 357 355 354 354 353 354 353 352 353 354 354 355 356 357 355 354 353 352 354 356 355 354 356 356 357 356 357 358 358 359 359 359 359 358 359
333 333 335 338 340 340 341 342 342 343 344 345 346 346 348 349 350 351 352 355 356 357 358 359 359 359 359 358 357 356 355 353 353 353 353 352 353 354 355 356 357 358 356 355 355 353 352 356 356 356 355 355 356 356 356 357 358 358 358 359 359 359 358
333 334 335 336 337 337 338 340 341 343 344 344 345 347 349 350 349 350 351 353 356 358 359 360 360 360 359 358 357 356 355 354 353 352 353 352 353 354 356 357 357 358 356 355 355 354 352 354 355 356 356 356 355 356 355 356 358 357 357 358 359 359 359
331 333 335 335 336 337 338 339 341 343 344 345 346 347 348 349 350 350 351 352 356 359 360 361 361 361 360 359 357 356 355 354 353 352 352 353 353 354 356 357 358 358 358 356 354 355 354 352 353 356 357 356 357 356 356 357 358 357 356 357 359 359 359
330 331 334 335 336 338 338 339 340 342 344 345 346 347 348 349 350 350 351 351 355 359 361 361 361 361 360 359 357 356 355 355 353 353 353 353 353 354 355 356 357 357 357 358 355 354 354 352 352 354 357 357 357 357 356 356 357 357 356 356 357 358 358
337 331 335 336 336 336 337 339 341 342 343 345 345 346 348 349 350 350 350 351 354 359 361 362 361 361 360 359 358 356 356 355 355 354 353 353 354 354 355 356 357 357 357 358 355 353 353 353 352 352 356 357 357 358 357 355 357 356 356 355 356 357 358
331 332 332 334 335 337 337 338 340 342 343 344 345 345 345 347 349 351 351 353 355 358 360 362 361 361 360 359 358 356 356 356 355 355 354 354 354 354 354 355 357 358 357 357 355 354 353 354 354 352 353 356 357 357 358 355 356 357 356 355 355 356 357
333 334 335 337 339 342 344 345 341 342 343 344 344 343 344 346 348 350 351 353 355 357 360 362 361 360 360 359 358 357 357 356 355 355 354 354 353 354 355 355 356 357 356 356 355 353 353 353 354 354 353 354 355 356 357 357 356 355 347 349 356 355 356
335 335 336 338 341 342 343 343 342 342 342 342 345 346 343 352 350 352 354 355 356 357 360 361 361 361 360 359 359 358 357 356 355 354 354 354 354 354 355 355 356 356 356 356 355 354 352 352 352 354 355 355 355 354 356 358 357 346 338 340 345 355 355
333 335 337 338 339 341 343 344 343 341 342 347 349 347 346 341 343 349 354 356 356 357 359 361 361 360 360 360 360 358 357 356 355 354 354 355 354 354 355 355 355 355 356 356 355 355 353 351 352 353 354 356 356 355 355 356 350 337 335 337 338 347 356
332 334 335 336 339 340 343 344 346 348 348 348 348 347 347 349 348 344 343 351 357 359 358 359 360 360 360 360 359 358 357 356 355 354 354 355 355 355 355 355 355 354 355 356 356 356 354 351 352 353 354 355 356 355 356 356 345 334 333 334 335 337 351
329 332 334 335 337 339 341 344 345 345 351 351 351 347 346 346 347 347 348 345 346 355 358 358 359 360 360 360 359 359 358 357 356 355 355 356 356 355 355 355 355 354 355 357 357 355 354 353 351 353 353 354 356 357 358 357 345 331 330 331 332 334 341
323 326 329 331 333 335 338 340 344 346 347 350 352 357 352 346 345 347 349 349 349 353 357 357 358 359 359 359 359 359 359 358 357 356 356 356 356 356 355 354 355 355 355 356 356 355 354 353 351 352 354 355 356 357 358 360 339 328 328 327 328 331 337
322 323 324 328 330 332 334 337 340 343 346 350 351 351 359 355 352 348 347 351 355 356 356 357 358 358 359 359 359 359 359 359 357 357 356 356 357 356 355 355 355 355 355 355 357 357 356 355 353 352 353 355 356 356 357 359 333 327 326 326 326 330 344
322 323 325 327 330 332 335 337 338 340 344 345 348 349 350 352 354 354 348 352 356 357 357 356 357 358 359 359 360 360 361 360 358 357 356 356 356 356 356 355 355 356 357 355 355 356 355 354 354 353 353 353 356 356 356 357 335 325 324 324 325 329 348
322 323 324 327 329 332 333 335 337 340 342 344 347 350 352 353 353 353 353 351 352 355 356 356 356 358 359 359 361 361 361 361 360 358 357 356 356 357 357 357 356 356 358 356 354 355 356 356 355 355 354 352 353 356 356 356 339 321 322 322 322 333 350
320 322 323 325 327 329 331 333 337 340 342 343 345 348 352 353 354 354 353 353 353 355 355 355 355 358 359 359 361 362 362 362 361 360 359 357 357 358 358 357 357 357 358 358 355 354 357 357 356 355 355 354 354 354 355 356 343 318 321 320 320 332 351
319 321 322 324 326 328 331 335 336 338 339 341 343 347 349 351 352 353 354 354 353 352 354 356 356 358 361 361 362 363 363 363 362 361 360 359 358 358 359 359 358 357 357 357 357 354 355 357 357 355 355 356 355 355 354 353 354 331 318 318 318 323 351
319 320 321 322 324 329 329 331 334 335 338 340 343 346 348 351 352 352 353 354 353 352 353 357 357 358 361 362 362 363 363 364 363 362 362 361 360 360 360 360 359 358 357 356 357 355 354 356 357 357 356 356 356 355 355 355 353 339 315 315 316 318 334
318 319 322 324 326 326 327 329 332 335 338 340 343 347 350 352 352 351 352 352 351 352 355 357 357 358 362 361 361 362 364 364 365 365 364 364 362 360 359 361 360 359 357 357 356 354 353 354 356 356 356 357 357 356 356 355 346 352 318 316 314 316 320
317 317 318 319 321 324 327 326 330 334 337 339 342 347 351 354 354 354 353 351 352 354 355 356 357 358 362 362 361 362 363 364 364 364 366 365 364 362 360 361 360 359 358 356 355 354 353 354 356 356 356 356 356 356 357 357 354 339 336 316 313 313 316
316 317 318 320 322 324 327 327 331 334 336 338 342 347 351 354 356 357 354 353 354 354 355 357 357 358 361 361 361 362 363 364 365 366 366 365 365 364 362 361 361 360 358 357 355 354 352 353 354 355 355 355 355 356 356 357 359 340 331 328 313 312 313
316 317 318 319 322 325 326 327 331 333 334 336 340 345 351 357 358 359 358 359 356 353 356 357 357 357 359 361 361 361 362 364 364 365 365 365 366 364 363 362 362 360 359 358 356 354 353 352 352 352 353 353 354 355 356 357 358 357 337 326 318 314 313
316 318 319 321 322 324 326 329 331 331 331 333 338 343 349 354 358 358 359 362 360 358 358 358 357 356 358 360 361 361 362 362 363 364 364 365 366 366 365 364 363 361 360 359 356 355 354 352 351 351 351 351 353 354 355 357 357 357 350 332 325 319 315
316 318 319 320 322 325 326 329 328 329 330 331 336 342 345 346 351 353 355 357 364 362 360 358 357 356 358 360 361 361 362 362 362 363 364 364 365 366 366 365 365 363 360 359 358 356 355 353 351 351 349 349 350 352 353 355 356 357 352 344 338 333 328
315 317 320 322 323 325 325 327 327 327 328 330 335 338 340 342 343 345 346 349 358 363 361 358 357 357 358 360 361 361 362 362 360 361 363 363 364 364 365 365 366 364 361 360 359 357 355 354 352 351 350 349 349 349 351 353 355 357 354 346 342 339 335
316 318 320 321 322 324 322 325 327 327 327 329 331 332 335 339 341 343 343 345 353 360 360 359 357 358 359 361 361 361 360 362 362 362 363 363 363 364 366 365 366 364 363 365 364 362 358 356 355 354 354 352 350 349 349 350 352 357 340 348 329 337 339
316 318 321 322 322 322 322 325 327 326 325 326 327 329 331 334 337 340 342 344 350 355 356 359 359 358 359 360 361 361 359 360 361 362 362 363 362 362 340 316 304 314 356 363 351 341 336 336 355 357 357 355 355 354 351 351 354 338 325 319 316 316 321
316 318 321 322 320 321 321 325 325 325 324 324 326 326 328 331 334 337 340 342 348 350 352 354 357 359 359 359 359 357 359 359 360 360 361 361 360 355 347 339 331 305 298 304 325 333 326 323 328 332 337 353 356 350 335 336 335 322 313 314 312 312 312
318 320 322 322 319 321 322 324 321 322 322 323 324 324 326 329 333 334 337 341 348 348 349 352 353 351 347 350 349 344 341 346 349 349 355 359 357 349 346 346 341 333 309 299 301 306 308 313 319 319 322 328 338 345 344 326 320 316 309 311 311 311 310

ECMWFFLT1_sfc_thetae_084.txt.gz
Theta_e
335 335 336 337 337 338 339 337 337 338 338 337 338 338 338 339 340 341 339 343 343 343 344 345 348 347 346 346 347 346 344 341 342 342 345 341 341 341 343 344 344 347 347 346 345 344 345 353 355 357 358 358 357 358 357 359 357 356 359 358 357 358 356
333 334 335 337 338 338 339 338 338 338 338 338 338 339 339 339 340 341 340 341 343 343 345 346 348 347 346 345 346 346 344 342 342 344 345 345 343 341 343 344 346 347 348 347 346 346 346 350 355 356 358 358 357 358 358 358 358 355 358 358 357 356 355
333 334 335 336 337 338 339 339 338 339 338 338 339 339 339 339 340 342 342 341 342 344 346 347 349 348 347 346 345 345 345 344 342 342 342 344 344 343 342 343 345 348 349 348 347 347 349 348 353 355 357 357 357 358 359 357 358 358 357 357 357 357 356
333 333 334 336 338 339 340 340 339 339 340 339 339 340 340 341 342 343 344 343 342 344 344 347 349 349 348 347 346 346 346 345 343 343 342 344 345 345 344 342 343 346 349 348 349 349 351 350 350 353 361 356 357 357 359 357 358 358 358 358 356 356 356
333 334 334 335 337 338 338 339 339 339 340 340 340 341 341 342 343 343 345 345 344 344 346 347 350 351 351 350 348 347 347 346 344 344 344 343 345 347 345 343 342 342 348 350 349 350 350 351 350 351 356 356 356 356 358 358 358 358 358 358 356 357 356
332 333 334 335 337 338 339 339 340 340 340 340 340 341 342 343 344 344 345 347 346 346 347 348 349 351 350 350 350 349 349 348 346 346 345 344 343 345 346 345 344 343 343 348 351 349 350 351 351 351 352 356 356 356 357 358 358 358 358 358 356 357 356
332 333 334 335 336 338 339 339 340 341 341 342 342 343 344 344 344 345 346 347 347 346 346 347 349 350 351 351 350 350 348 348 348 346 346 345 344 344 346 347 347 345 344 347 350 351 348 349 349 352 353 354 356 355 356 357 358 359 358 358 356 356 357
333 333 334 335 336 337 339 339 341 342 342 342 343 343 343 344 345 346 346 348 348 348 347 347 348 350 351 352 351 350 349 349 349 348 347 346 345 344 344 347 349 348 347 346 348 352 350 348 348 349 353 354 354 355 356 356 357 359 358 358 357 356 358
333 334 334 335 336 337 338 339 341 342 342 342 343 343 344 345 345 346 347 348 349 349 348 349 349 350 351 352 351 350 350 350 349 348 347 346 345 345 345 345 348 351 349 348 348 352 352 351 349 348 349 353 354 354 355 356 357 358 359 358 357 356 357
331 332 334 335 337 338 339 339 341 341 342 342 343 343 344 345 346 347 348 350 350 349 350 350 351 351 351 351 351 351 350 349 349 348 347 346 346 345 345 345 346 351 351 350 350 350 353 353 351 350 348 350 353 354 354 355 356 358 359 358 358 357 356
332 332 333 334 335 337 339 339 340 340 341 342 343 344 345 345 346 347 348 350 351 351 352 352 353 352 351 351 351 351 350 349 350 349 348 347 346 346 346 346 346 348 352 352 351 351 351 353 353 351 349 349 352 353 354 355 356 356 358 358 359 358 357
331 332 333 334 335 336 338 339 340 341 341 342 343 344 345 346 346 347 349 350 353 353 353 353 354 354 353 352 352 351 350 350 350 349 349 348 347 347 347 347 347 347 351 353 352 352 351 351 353 353 350 350 351 353 354 355 356 356 356 358 358 358 357
332 334 334 333 334 336 338 339 339 340 341 342 343 344 345 346 346 347 348 350 352 354 355 355 355 355 354 354 353 352 352 351 350 350 350 350 349 349 348 348 349 349 349 353 353 352 351 350 351 353 352 351 351 352 354 354 355 356 356 356 357 357 356
343 338 339 339 336 335 337 338 339 340 340 341 342 344 345 346 347 347 348 349 352 354 355 356 356 355 355 355 354 353 353 353 352 351 351 351 351 350 350 350 350 350 351 353 352 352 352 351 350 351 353 353 352 352 353 354 354 355 355 355 355 356 356
335 336 337 339 339 339 338 338 339 339 340 341 342 342 343 345 346 347 348 349 352 354 355 357 356 356 355 355 354 354 355 355 354 354 352 352 351 350 350 350 351 352 352 353 353 354 353 353 351 350 351 353 353 353 354 353 354 354 355 354 354 355 355
331 333 335 336 336 337 338 340 341 341 341 342 343 343 343 344 345 346 347 348 350 353 356 357 356 356 356 355 355 356 356 356 355 354 353 352 351 350 350 350 351 352 352 353 353 353 353 353 352 350 350 351 353 353 354 354 354 352 344 347 354 354 355
324 326 328 331 334 336 337 339 340 342 343 344 343 343 343 345 346 347 348 348 349 351 356 357 356 356 356 356 356 356 356 356 355 355 353 352 351 351 350 350 351 351 352 353 354 354 353 353 351 351 350 350 352 353 354 354 354 343 336 337 342 352 353
320 322 324 327 330 332 334 337 338 339 341 342 343 346 345 344 346 347 348 349 349 350 355 358 357 357 357 357 357 357 356 356 355 354 354 353 351 351 350 350 350 351 351 353 353 354 354 352 351 351 350 350 351 353 354 354 347 335 333 335 335 343 354
322 323 323 325 327 330 332 335 335 338 340 340 341 343 345 347 348 347 348 349 350 351 352 356 358 357 357 358 358 358 357 356 355 354 354 353 352 351 351 350 350 350 351 352 353 354 353 352 351 350 351 350 349 351 353 354 344 334 331 332 333 334 346
320 322 323 324 325 327 329 332 334 336 337 339 343 343 346 346 345 349 349 348 349 350 350 350 354 358 358 358 358 358 358 357 355 354 354 353 353 352 351 350 350 350 351 353 354 353 352 352 351 350 350 350 350 350 352 353 344 332 328 329 330 332 338
318 320 321 323 324 326 329 330 331 334 336 337 342 345 343 345 346 345 347 348 348 351 351 351 351 355 358 358 359 359 358 357 356 355 354 353 353 352 351 350 350 351 351 352 353 353 352 352 350 350 350 351 351 350 351 352 339 328 326 325 326 329 335
317 319 319 321 322 325 326 327 331 333 336 341 342 344 347 347 348 347 345 346 348 348 349 349 350 353 357 358 359 358 358 357 356 355 354 353 353 352 351 351 350 350 352 352 353 354 354 353 352 350 350 350 351 351 350 352 333 327 325 324 324 328 341
318 318 319 321 322 323 326 327 329 332 338 339 340 342 343 347 350 347 346 345 345 348 349 349 349 351 356 358 359 359 359 358 357 355 354 354 352 352 351 351 351 351 353 352 352 353 353 353 352 352 350 350 351 351 351 352 338 325 322 322 323 327 344
319 319 320 320 322 323 325 327 329 332 336 336 337 340 341 343 345 346 344 345 347 347 347 349 350 352 354 357 359 360 359 359 358 356 355 354 352 352 352 353 353 352 353 352 352 352 353 354 353 353 352 351 351 351 351 352 342 322 321 321 321 331 345
317 319 319 320 320 322 324 326 328 331 333 336 336 338 340 342 343 345 347 347 348 351 351 350 350 351 352 356 359 360 360 360 358 357 356 354 354 353 353 353 353 353 353 353 353 353 354 355 354 353 352 352 352 353 351 352 344 321 321 320 319 330 347
315 316 318 319 321 324 325 328 327 328 330 334 336 338 340 341 343 346 349 351 352 352 351 352 354 355 356 356 358 360 360 360 359 358 357 355 355 355 354 355 354 353 353 353 353 353 353 354 354 353 353 352 352 353 353 353 354 338 319 319 318 322 347
317 317 317 319 321 326 324 326 327 328 330 333 335 337 339 341 343 345 347 350 351 352 354 355 355 355 356 357 358 360 360 360 360 358 358 357 356 356 356 355 354 354 353 352 353 353 352 353 354 353 353 353 352 352 353 354 354 346 319 317 317 318 330
317 317 318 321 323 324 324 325 327 329 330 332 333 336 337 339 340 343 347 350 352 355 359 359 356 355 355 356 358 359 360 360 360 360 359 359 358 356 355 356 356 355 354 353 353 352 351 352 352 353 353 353 352 352 351 353 348 354 323 318 316 317 319
316 315 316 318 319 322 324 323 326 327 328 330 332 334 336 339 341 344 346 348 353 357 357 357 358 358 355 354 357 359 359 360 360 359 360 359 358 356 355 355 355 355 355 353 352 352 351 351 351 352 352 352 352 352 352 352 351 339 340 318 315 314 315
316 317 316 319 320 321 324 322 325 326 327 328 330 333 335 336 335 338 340 342 347 347 348 349 352 356 356 354 355 358 359 360 361 360 360 360 359 357 355 355 355 355 355 354 352 351 351 351 350 351 351 351 351 352 352 353 353 338 332 331 314 314 313
314 316 317 318 319 322 323 322 323 325 325 326 327 328 330 330 330 333 335 339 342 342 343 345 349 354 356 354 354 356 359 360 360 360 360 360 359 357 356 355 355 354 355 354 353 352 351 351 350 349 350 351 351 351 352 353 353 353 336 326 318 314 313
314 316 318 320 319 321 322 322 323 322 322 324 325 325 327 327 328 329 332 336 338 340 341 344 348 352 354 355 354 356 358 359 360 360 361 361 360 359 358 356 356 355 355 354 353 353 351 350 350 349 349 350 351 351 353 353 353 353 351 333 324 317 313
313 314 317 318 320 321 320 322 321 320 321 321 322 323 324 324 326 328 331 333 336 338 340 343 347 350 353 354 353 355 357 358 359 360 361 361 361 361 360 358 357 356 354 355 354 353 352 351 349 349 349 349 350 352 353 353 353 353 353 348 339 333 325
312 314 317 320 320 321 320 321 318 318 319 320 320 322 323 323 324 326 329 332 334 336 338 342 346 347 351 354 354 354 357 358 357 358 360 361 361 360 360 359 359 357 355 355 355 353 352 351 350 349 349 349 350 351 352 352 353 353 353 351 346 341 335
312 314 317 319 319 320 319 321 318 318 319 319 320 321 321 322 323 325 327 329 332 334 335 341 344 347 350 355 354 354 355 357 358 359 360 360 361 361 362 360 359 358 359 360 359 358 355 354 353 352 352 351 351 350 350 351 351 353 337 352 334 342 343
312 314 317 319 318 318 319 322 319 318 319 318 320 321 321 321 322 324 326 327 330 332 334 340 343 346 349 353 354 354 355 356 358 359 359 360 360 360 353 337 324 348 361 360 347 339 335 334 352 355 354 352 352 353 351 351 354 338 327 325 320 319 323
314 314 315 318 316 316 318 320 320 318 318 318 320 320 320 320 321 322 324 325 328 330 334 339 341 345 348 346 348 350 355 356 357 358 359 360 360 359 355 347 328 302 302 321 337 331 321 319 323 328 334 350 352 346 331 330 331 326 320 317 314 314 314
315 315 316 317 316 317 319 320 318 317 318 319 320 319 320 320 321 321 322 324 326 329 333 338 337 340 344 342 341 341 343 350 356 357 358 359 360 359 355 349 343 334 310 299 310 322 318 315 312 312 317 324 334 346 350 329 319 314 310 314 313 312 311

ECMWFFLT1_sfc_thetae_087.txt.gz
Theta_e
334 334 335 336 335 336 335 335 335 335 335 335 335 336 336 336 336 337 339 340 341 340 342 344 344 345 345 344 343 342 343 342 341 340 339 337 338 338 339 341 342 343 343 342 343 344 345 346 349 353 355 356 356 356 356 356 356 357 354 354 354 355 354
333 334 335 336 336 336 336 336 336 336 336 335 335 336 337 336 336 336 338 340 341 341 341 343 344 344 345 345 344 343 342 342 342 343 341 340 340 339 340 340 341 342 343 344 343 344 343 344 348 351 353 355 356 356 356 355 355 354 353 353 353 352 354
333 334 334 335 336 336 337 337 337 337 336 336 336 336 336 337 337 336 338 339 340 341 341 343 344 344 345 345 344 343 342 342 341 341 340 340 339 338 340 341 341 342 344 345 344 344 345 343 346 350 353 354 355 355 355 355 355 355 353 353 354 353 352
333 334 334 335 336 337 338 337 337 337 337 337 336 336 336 337 337 337 338 339 339 340 340 342 344 344 344 344 344 344 343 342 341 341 341 341 341 339 339 341 342 342 343 344 346 346 346 344 345 349 357 353 354 354 355 355 355 355 353 353 353 354 353
333 334 334 334 335 336 337 338 337 337 337 338 337 338 337 338 338 338 337 339 340 340 341 341 344 345 345 345 345 345 345 343 341 340 340 341 342 341 338 339 341 342 343 345 346 347 345 344 344 347 351 353 354 354 354 355 355 355 354 353 353 353 353
332 333 333 334 335 336 337 338 339 338 338 337 337 337 338 338 338 338 338 339 340 341 341 341 342 345 344 344 344 344 345 345 344 342 340 340 341 341 340 339 340 342 344 345 347 346 346 345 345 346 349 353 354 354 354 355 355 355 355 354 353 353 353
331 333 333 334 335 336 337 338 339 339 339 339 339 339 339 338 338 338 339 338 340 340 340 341 342 343 345 345 344 344 343 343 344 343 341 340 340 341 342 341 341 341 343 346 347 347 346 346 346 345 348 351 353 353 353 354 355 355 355 354 353 352 352
330 332 334 334 335 336 337 338 339 340 339 339 339 338 338 338 338 338 339 339 339 340 341 341 342 343 344 345 345 344 343 343 344 344 343 341 339 340 340 342 343 341 341 341 346 347 347 346 347 347 347 348 352 353 353 353 354 355 354 354 353 352 354
331 332 333 334 335 336 337 338 339 339 338 338 338 338 338 339 338 338 339 340 340 340 340 342 343 344 345 345 345 345 344 344 343 344 343 341 341 340 340 341 342 344 342 340 340 346 347 347 347 347 347 347 349 351 352 353 353 354 355 354 354 353 353
330 331 332 334 335 336 338 338 339 339 338 338 338 337 338 339 339 339 339 340 341 340 340 342 343 345 345 346 346 346 345 345 345 344 343 342 342 341 341 341 341 344 344 343 341 341 346 347 346 346 346 348 349 350 351 352 353 354 355 355 354 354 353
329 331 332 333 334 335 336 337 338 338 338 338 338 338 338 339 339 339 340 340 341 342 342 342 344 344 345 346 346 346 346 346 346 345 344 344 343 342 342 342 341 343 344 345 344 343 343 346 347 345 344 346 348 349 350 351 352 353 354 355 355 355 355
333 334 332 332 333 333 335 337 338 338 338 339 339 339 339 339 340 340 341 341 342 343 343 343 344 344 345 346 346 347 346 346 346 346 345 345 345 344 343 343 343 342 344 346 345 345 344 344 346 348 345 345 345 348 350 351 352 353 353 355 355 355 355
325 329 332 335 336 337 337 339 337 338 339 339 339 339 340 340 340 341 341 342 343 344 344 345 345 345 345 346 346 347 347 347 347 347 347 347 346 346 345 344 344 343 342 345 346 347 346 346 346 348 348 347 346 346 348 350 352 352 353 354 355 355 355
326 324 326 330 333 335 336 337 337 339 341 339 340 340 341 341 341 342 342 342 344 345 346 346 346 345 345 345 346 346 347 348 348 348 348 348 348 347 346 345 344 344 344 344 344 346 347 347 346 347 349 349 348 347 348 349 350 352 352 353 354 355 355
319 320 322 324 327 329 332 335 337 337 338 339 340 340 341 342 342 343 343 344 345 346 347 348 347 346 346 346 346 346 348 349 349 349 349 349 348 347 347 346 345 345 344 344 344 346 347 348 348 347 347 349 349 349 349 349 350 352 352 352 353 354 354
318 319 320 321 324 326 328 330 334 336 338 339 340 340 341 342 343 343 343 344 346 347 349 349 348 347 347 347 347 348 349 349 350 349 349 349 348 348 347 347 346 345 345 344 345 345 346 347 348 348 347 348 349 349 350 349 350 350 343 345 353 353 354
317 318 319 320 322 324 325 327 330 333 335 338 339 341 343 343 343 344 345 345 346 348 350 351 349 349 348 348 349 349 350 350 350 350 349 349 349 348 348 348 347 346 345 345 345 345 346 347 347 348 348 347 348 349 350 350 350 341 335 336 341 352 353
316 317 318 319 321 322 323 325 327 330 333 335 339 340 341 341 344 343 344 344 346 349 351 352 351 350 350 350 351 351 351 351 351 351 350 350 349 349 349 349 348 347 346 346 346 347 347 347 347 348 348 348 348 348 350 351 344 334 332 333 334 342 353
318 318 318 319 320 321 322 323 325 328 331 334 337 340 341 343 343 342 346 344 346 348 351 352 352 352 352 352 352 352 352 352 352 352 351 351 351 350 350 349 348 347 347 347 348 348 348 348 348 348 349 349 347 347 349 350 341 332 330 331 331 333 345
317 319 320 320 320 321 322 324 325 327 330 334 337 340 343 345 345 345 345 346 347 348 347 351 352 352 352 353 353 353 354 353 353 353 353 353 352 351 350 349 348 348 348 348 349 348 348 349 349 349 349 349 348 348 348 349 341 331 328 328 329 330 337
315 318 319 319 320 321 322 323 325 326 328 332 336 338 339 340 343 346 345 344 343 344 345 345 347 351 354 353 354 354 354 354 354 353 353 353 353 352 351 350 349 349 349 349 348 348 348 349 349 349 350 350 350 348 348 349 337 329 326 325 325 328 333
315 317 318 319 319 321 322 324 325 327 329 334 335 336 338 338 341 343 345 347 345 344 344 344 344 345 347 349 352 353 355 355 354 354 354 353 353 352 351 350 350 349 349 349 349 349 350 350 350 350 350 350 350 349 348 350 332 328 325 323 323 326 338
318 317 317 320 321 322 325 326 326 328 331 333 334 336 336 338 340 342 344 346 346 344 344 344 343 344 345 348 349 350 351 353 355 354 354 354 353 352 352 351 350 350 350 349 348 348 348 349 350 351 351 350 350 349 349 349 337 325 323 322 322 325 340
318 319 318 320 321 322 324 325 326 328 331 332 334 334 335 337 338 340 343 346 346 345 345 344 344 346 346 347 349 350 350 350 350 354 355 354 353 353 352 352 352 351 351 349 348 348 349 349 350 351 351 350 350 350 349 349 341 323 320 320 320 329 341
317 319 320 318 320 320 322 324 326 329 330 330 330 332 335 337 339 340 341 344 347 348 348 347 346 347 347 347 350 351 351 351 351 351 354 355 354 354 353 352 352 352 352 351 350 349 350 350 350 350 351 351 351 351 349 349 343 323 320 319 318 328 343
316 317 317 320 321 322 323 325 325 327 327 327 328 330 333 336 337 340 342 343 346 349 352 354 354 352 352 351 351 352 353 354 352 354 356 356 355 355 354 354 353 352 351 351 351 350 350 350 350 350 351 352 351 351 350 349 350 341 319 317 316 320 344
318 318 317 318 319 324 322 324 324 326 326 326 327 328 331 333 334 337 340 341 343 345 345 345 346 349 352 354 355 353 352 355 357 357 358 358 357 356 356 355 353 353 352 351 351 350 350 349 350 350 350 351 352 351 351 351 350 346 320 316 315 316 328
317 316 319 320 322 322 322 323 323 325 325 325 327 327 327 328 329 331 333 336 338 339 340 342 342 344 346 349 352 355 356 356 358 360 360 359 358 356 355 355 355 354 352 352 351 349 349 349 349 349 350 351 352 352 351 351 343 351 325 317 314 314 317
315 315 316 317 320 321 322 321 322 323 322 324 325 324 325 325 325 327 330 330 332 335 337 338 340 342 344 347 351 354 356 356 357 358 360 359 358 356 355 355 354 353 353 351 350 349 349 349 349 349 349 350 351 352 352 352 349 334 341 318 314 313 313
315 316 315 318 321 322 322 321 322 321 321 322 324 323 324 324 323 325 327 326 329 332 335 336 338 340 342 346 350 354 356 357 358 359 359 359 359 357 355 354 354 353 353 352 350 349 348 349 349 348 348 348 349 351 351 352 352 338 330 331 314 313 312
314 314 315 317 319 321 322 321 321 320 320 321 322 322 323 323 322 323 323 325 328 330 333 334 336 338 341 345 349 351 354 356 357 358 359 359 359 356 355 354 354 352 352 352 350 350 348 348 348 348 348 347 348 349 350 352 351 351 337 326 320 314 313
314 315 315 317 319 320 321 321 322 319 319 320 321 320 322 322 322 321 322 325 327 328 331 332 334 337 341 345 347 348 352 354 355 357 358 359 359 358 357 355 354 353 352 351 351 350 349 348 348 348 347 347 348 348 350 351 351 350 349 335 328 320 314
312 313 314 315 319 321 319 320 320 319 319 319 320 320 321 320 321 322 323 324 325 327 329 331 333 337 340 343 345 347 351 353 354 355 357 358 358 358 358 356 355 353 352 352 351 350 350 349 348 348 347 347 348 348 349 350 350 350 350 346 341 336 328
311 313 315 316 318 320 318 318 319 319 318 318 319 319 320 320 320 321 322 323 324 326 327 329 333 336 339 341 344 348 351 352 354 354 355 357 357 357 356 356 356 354 352 352 352 351 350 349 348 348 348 348 348 348 349 349 350 350 350 349 344 341 336
312 313 314 315 317 319 316 318 319 319 318 318 319 319 319 319 320 321 320 321 323 325 325 328 332 336 338 340 344 347 348 349 352 353 355 356 356 357 358 356 356 355 355 356 356 355 353 351 351 351 351 350 349 348 347 348 349 351 336 349 332 339 339
312 313 314 316 317 316 316 319 320 319 318 318 318 318 318 318 319 320 320 321 322 324 324 327 331 335 335 337 341 344 344 344 348 352 353 355 356 356 356 349 336 346 356 355 344 336 333 332 351 354 353 351 352 352 349 349 351 334 325 323 320 318 321
311 313 314 316 316 314 315 318 320 319 317 317 318 318 318 318 319 319 319 321 321 322 323 326 330 332 332 333 335 338 341 342 345 349 353 355 356 356 354 354 347 318 316 322 332 328 320 317 321 326 333 348 352 347 332 332 330 323 317 316 313 313 314
312 313 315 316 315 315 316 317 318 316 316 316 317 317 317 317 317 317 318 320 321 321 322 325 328 328 329 330 332 335 338 341 343 345 349 353 355 356 354 354 352 347 322 311 315 319 313 313 313 315 317 322 333 344 349 327 317 316 312 312 311 311 311

ECMWFFLT1_sfc_thetae_090.txt.gz
Theta_e
332 333 333 334 334 334 334 335 336 335 334 334 335 336 337 338 339 340 340 341 342 342 343 344 345 345 345 345 345 345 345 344 343 341 340 339 339 340 343 345 346 346 346 346 347 348 350 352 353 356 357 358 359 360 360 360 360 360 360 361 360 360 358
332 333 333 334 334 334 335 335 336 336 335 335 335 336 337 337 338 338 340 341 342 342 343 343 345 345 345 345 345 345 344 344 343 345 342 341 342 340 342 344 346 346 346 347 347 348 350 350 351 353 355 358 359 359 359 359 360 359 359 358 358 358 358
332 333 334 334 334 335 335 335 335 336 336 335 335 336 336 337 338 338 339 340 341 342 343 343 345 345 345 346 345 344 344 344 343 343 341 339 339 339 341 343 345 346 346 347 347 346 349 348 349 351 354 355 357 358 359 359 359 359 358 358 358 357 356
331 333 334 335 336 336 336 336 335 336 336 336 336 336 336 337 338 339 339 340 341 342 341 342 344 344 345 345 345 344 343 344 344 343 342 342 340 340 340 341 343 344 345 345 347 347 348 347 347 349 356 354 356 357 358 358 358 359 358 358 358 357 357
329 332 334 335 335 336 336 336 336 336 336 337 337 338 337 338 338 338 339 340 341 341 342 342 343 345 345 346 345 345 344 343 343 343 343 343 343 341 340 340 341 342 343 345 347 349 348 347 346 347 350 354 354 356 357 357 358 359 358 358 357 357 357
327 330 333 334 335 336 337 337 337 336 336 336 336 336 337 337 338 337 338 340 340 342 342 343 343 345 344 345 346 345 345 344 344 344 343 343 343 341 340 340 341 341 341 343 347 347 347 347 346 347 348 351 354 355 356 357 357 358 358 357 357 357 357
325 329 331 334 335 336 337 337 338 338 338 337 337 338 338 337 337 337 337 338 340 340 341 341 342 343 344 345 345 346 345 344 344 343 343 343 342 342 342 341 342 342 343 345 344 347 346 346 346 346 348 350 353 354 355 356 357 358 358 357 357 357 358
324 328 329 334 336 336 337 338 338 339 339 338 337 337 337 337 337 337 337 337 339 340 340 341 341 343 344 345 345 345 345 345 344 344 343 342 341 342 342 342 342 342 344 343 345 347 346 346 347 347 347 349 351 353 355 355 356 357 358 357 356 356 356
323 326 328 332 336 336 337 338 339 339 338 338 337 337 337 337 337 337 337 337 338 339 340 341 341 343 344 344 344 344 345 345 345 344 343 341 341 340 341 342 342 343 342 342 344 348 348 347 347 348 347 348 350 352 354 355 356 357 357 357 357 356 356
321 322 326 328 334 336 337 338 339 339 339 338 337 337 337 337 337 338 338 337 337 338 339 341 341 342 343 344 344 344 344 344 345 344 343 342 341 340 340 341 342 345 342 342 342 346 349 349 348 348 348 347 349 351 353 354 355 356 357 357 357 357 357
320 322 323 324 327 331 336 338 338 338 339 339 338 338 338 337 337 337 338 338 337 338 339 341 342 342 342 343 343 344 344 343 343 343 343 343 342 341 340 340 341 343 344 343 342 343 346 350 350 348 348 348 348 349 351 353 354 355 355 357 357 357 357
319 320 321 323 324 326 329 333 336 338 340 340 339 338 338 338 338 337 338 338 339 338 339 340 341 342 341 342 342 343 344 344 343 343 343 343 343 343 342 341 341 341 343 344 343 343 343 346 348 348 348 348 349 349 350 352 354 354 355 356 357 357 357
319 318 320 321 323 324 326 328 331 335 337 339 339 339 339 338 338 338 338 339 339 340 340 340 341 342 341 342 342 343 343 344 344 344 343 344 344 344 344 343 342 341 341 344 344 344 343 343 346 349 348 348 349 349 350 351 353 353 354 355 356 357 357
322 318 319 321 322 323 323 325 328 331 335 338 340 341 339 339 339 339 339 338 339 340 340 340 341 341 342 342 342 343 343 344 345 345 345 345 346 345 344 344 343 343 343 343 343 343 344 344 344 346 348 348 348 348 350 351 352 353 354 355 355 356 356
317 317 318 319 320 322 323 324 326 328 331 335 338 340 342 341 339 340 340 340 340 341 341 342 341 341 341 342 342 343 345 346 346 347 347 347 347 346 346 345 345 345 344 344 344 344 344 345 345 345 346 348 348 348 348 349 350 352 353 354 355 356 356
316 317 318 319 320 321 323 323 325 327 329 332 334 337 340 342 344 340 340 340 340 341 342 343 342 341 341 341 343 344 346 347 348 348 348 347 347 347 347 347 347 345 345 344 344 345 346 346 347 346 346 347 348 349 348 348 349 348 342 344 353 355 355
316 317 317 319 319 321 322 323 324 326 328 330 332 335 337 339 342 344 343 341 341 342 343 343 343 343 342 342 344 345 346 347 348 348 348 348 348 348 348 348 348 347 346 346 345 345 346 346 346 346 347 347 347 348 349 349 349 340 333 335 339 351 354
315 316 319 319 319 320 321 322 324 325 327 329 332 334 335 337 339 342 343 345 344 343 344 344 344 343 343 344 345 346 346 347 348 348 348 349 349 349 349 349 348 348 347 346 345 346 346 345 345 346 347 347 347 348 349 350 343 333 331 332 333 341 354
314 316 318 319 319 319 320 322 324 325 326 329 331 333 336 338 338 339 341 345 345 348 346 345 345 345 345 345 346 346 347 348 348 348 349 349 350 350 350 349 349 348 347 346 347 347 346 345 345 346 347 347 347 347 348 350 339 331 330 331 331 332 344
315 316 316 318 319 319 320 322 324 326 328 330 332 334 336 338 338 339 343 345 347 346 349 347 347 346 346 347 347 347 348 348 348 348 349 350 350 350 350 349 349 349 349 349 349 347 346 346 346 346 347 347 347 348 348 349 340 330 327 328 328 330 336
314 315 316 316 318 319 320 321 323 325 327 330 332 333 333 334 337 340 341 344 347 346 347 350 348 348 348 348 348 349 349 349 349 349 350 350 351 350 350 350 350 350 350 349 348 348 347 347 346 347 347 347 348 348 348 349 336 327 325 324 324 327 332
313 314 315 316 317 319 320 321 323 324 326 332 332 331 332 333 336 339 340 344 348 347 346 346 350 350 350 350 350 350 351 350 350 350 351 351 351 351 351 351 350 350 350 350 350 350 349 350 349 348 348 348 349 348 348 349 332 326 324 323 323 325 338
314 315 316 318 318 320 323 323 324 326 328 330 330 330 330 332 335 338 340 342 345 348 347 346 346 347 350 354 353 353 353 353 352 352 352 353 352 351 351 351 351 352 353 351 351 350 349 349 349 350 350 350 350 349 349 350 337 324 322 321 321 325 342
316 316 316 318 320 320 322 324 325 327 328 329 328 329 329 331 335 336 339 341 343 342 350 347 347 348 350 350 352 354 356 356 355 354 354 353 352 351 351 351 351 351 350 350 351 350 350 350 350 351 351 350 350 350 350 350 342 324 319 319 319 329 343
316 316 317 317 319 320 321 323 325 325 326 327 326 327 328 329 331 334 337 338 339 341 342 340 343 345 347 349 351 353 354 355 355 355 354 353 352 351 350 350 350 351 350 349 348 349 352 352 351 351 352 351 351 350 350 351 344 324 319 318 317 328 345
313 316 317 318 318 322 323 325 325 324 323 324 324 326 327 327 327 330 333 335 338 338 336 336 338 340 344 345 350 352 352 353 354 353 353 352 352 352 351 352 352 351 350 350 349 349 350 351 352 351 351 352 352 352 351 351 352 344 319 317 315 320 345
314 316 317 318 317 322 323 323 323 323 323 324 325 326 324 324 324 326 328 331 332 333 333 335 337 338 340 343 345 347 352 352 352 352 352 353 352 352 353 353 353 353 351 349 350 351 351 351 351 351 351 352 352 353 353 353 352 350 321 316 314 316 328
312 313 316 318 319 321 322 322 323 323 324 323 322 325 323 323 322 323 325 327 328 328 329 332 334 337 338 340 342 346 349 353 355 353 352 353 353 352 353 355 356 355 354 353 352 352 351 352 351 351 351 352 352 353 353 352 343 353 328 317 313 313 318
310 311 313 315 316 318 320 320 321 322 322 323 322 324 322 322 322 322 324 324 325 326 328 330 333 335 337 339 341 345 349 352 355 357 355 353 353 353 353 355 356 356 356 355 354 352 351 351 351 351 350 351 352 353 354 355 352 334 345 321 313 312 313
310 311 312 314 316 318 320 320 321 322 323 322 323 323 322 322 321 322 322 323 324 325 327 329 331 334 335 338 341 344 347 350 352 355 358 358 356 355 354 356 357 356 356 355 354 352 351 351 351 351 350 349 350 352 353 355 355 339 330 334 315 312 311
309 310 311 313 315 318 319 319 320 321 322 323 322 323 322 322 321 321 321 322 323 325 326 327 329 331 334 336 339 342 345 347 349 351 354 358 359 357 356 356 357 355 356 355 354 353 352 351 351 350 350 349 349 350 352 354 354 355 339 326 321 314 312
309 310 311 313 314 316 319 320 319 319 321 321 322 322 323 322 321 319 320 322 323 323 325 327 328 330 333 336 339 340 342 344 346 350 354 356 359 359 359 358 357 356 356 355 354 353 352 352 351 350 350 350 350 351 352 353 354 354 353 335 328 320 314
309 310 310 311 314 318 318 318 317 317 319 320 321 321 320 320 320 321 321 321 322 323 324 326 327 330 332 335 337 339 341 342 346 349 352 355 357 359 360 359 358 357 355 355 354 353 352 352 351 351 350 350 350 351 352 352 353 353 354 352 346 340 331
308 309 311 312 313 316 317 317 316 316 318 319 320 320 320 320 320 321 321 321 321 322 323 324 327 328 331 334 337 337 339 341 345 347 347 350 354 356 358 358 358 357 355 354 354 353 352 352 351 350 350 350 351 351 351 351 352 353 353 353 350 346 343
308 309 310 311 313 316 315 317 317 317 318 320 320 318 319 319 320 320 320 319 320 321 321 323 326 328 330 334 335 334 336 338 340 342 344 347 352 356 358 358 357 357 357 359 358 357 355 354 353 353 354 353 352 351 350 350 351 352 336 351 334 343 346
307 308 310 312 313 314 315 318 318 317 319 320 318 317 318 318 319 320 319 319 319 319 319 322 324 327 330 331 332 332 333 334 335 338 341 344 346 352 356 349 334 346 358 357 342 335 331 331 353 356 355 354 355 355 352 351 353 334 323 321 318 318 323
306 307 309 311 312 312 314 316 318 319 320 319 317 317 317 317 317 318 318 318 318 318 319 319 322 325 325 327 328 329 331 332 334 336 339 343 345 348 352 356 353 318 319 332 340 329 320 315 318 322 331 350 355 349 332 332 329 325 316 314 312 313 313
307 308 310 312 312 313 314 316 318 318 318 317 316 316 316 316 316 317 317 316 317 318 318 318 320 322 322 323 326 329 331 332 331 332 332 335 340 343 348 354 354 356 328 316 317 319 314 310 310 311 312 316 330 346 354 329 317 317 312 312 311 311 310

ECMWFFLT1_sfc_thetae_093.txt.gz
Theta_e
338 338 340 341 341 340 340 342 344 343 343 344 345 345 346 347 349 351 350 352 353 354 355 356 356 356 356 356 358 359 359 358 358 356 354 355 355 357 356 356 358 361 359 359 361 362 366 368 367 368 369 369 369 369 369 370 370 369 370 371 371 370 370
332 336 339 340 340 341 342 343 344 344 343 343 344 346 346 347 349 349 350 353 353 354 355 354 355 355 356 356 357 359 358 358 358 358 356 356 357 357 357 359 359 361 362 361 362 365 366 365 365 366 367 368 368 370 369 370 370 370 369 370 369 369 370
330 332 335 338 340 340 342 343 344 344 345 343 343 344 345 348 350 350 350 351 352 353 355 354 355 355 355 357 357 357 357 357 357 355 354 352 353 351 354 358 358 358 358 361 363 362 362 363 364 365 366 366 366 369 369 369 370 369 370 370 368 367 370
329 330 334 337 340 342 343 343 343 344 344 344 343 343 345 349 350 351 351 350 351 352 353 353 354 354 355 356 356 356 356 357 357 354 354 354 353 352 353 355 357 357 358 358 358 359 358 361 362 363 364 365 366 368 368 367 367 369 370 370 367 367 368
329 331 332 334 338 340 341 342 343 344 344 344 344 345 346 347 347 349 349 350 350 350 351 352 352 353 355 355 354 355 355 356 356 355 355 354 355 354 352 350 352 353 355 357 360 360 361 360 359 361 361 364 364 366 367 368 367 369 369 370 367 367 366
328 329 330 332 335 338 340 341 343 343 343 343 343 344 344 345 346 346 347 349 349 350 352 353 352 353 353 354 354 353 356 356 357 357 355 355 355 352 351 351 351 352 352 355 357 357 359 359 358 358 358 359 360 360 362 365 365 366 368 368 367 366 363
327 330 331 332 334 339 340 342 342 343 344 343 344 345 344 344 344 345 346 346 348 349 350 350 351 352 354 354 354 355 355 354 355 355 354 354 354 353 352 352 353 351 352 355 355 357 356 358 359 359 359 357 360 359 362 365 364 366 367 368 368 367 367
325 327 331 332 334 337 341 343 343 343 343 343 343 343 343 343 344 344 344 345 346 347 348 348 349 352 353 354 354 353 354 354 354 354 354 353 353 352 352 352 352 353 354 352 354 356 354 356 356 358 357 357 359 361 361 364 366 364 365 366 365 366 365
324 327 329 331 332 335 337 342 344 344 343 343 343 343 343 343 343 343 344 345 346 346 347 348 349 351 354 353 354 354 353 354 354 353 353 352 351 350 350 351 352 353 352 350 350 354 354 354 354 358 359 357 358 361 361 364 363 363 364 364 365 365 363
322 324 327 330 332 334 335 338 340 343 346 345 344 344 343 343 344 343 344 344 345 345 346 348 349 350 352 352 352 353 354 354 353 352 351 350 350 350 350 350 351 353 351 350 350 351 354 355 354 357 359 357 358 360 360 362 362 362 363 364 365 365 366
322 323 325 326 328 331 334 335 336 339 342 346 348 343 344 344 343 343 343 344 344 345 346 348 349 349 350 350 350 351 352 352 352 352 351 350 350 350 350 350 350 351 350 350 349 351 352 355 356 357 358 354 356 358 359 359 361 362 361 362 364 365 364
322 322 323 325 326 327 330 333 336 338 339 341 343 346 346 346 344 343 344 344 345 344 346 347 348 349 349 349 349 350 351 352 351 351 351 350 350 350 349 350 350 350 351 350 349 350 351 353 354 355 357 356 356 358 359 361 362 363 363 360 362 364 364
322 322 322 323 325 326 328 330 333 336 339 340 341 343 347 344 344 343 345 345 344 345 346 347 348 349 349 349 348 350 352 351 351 351 351 352 351 350 350 349 349 349 349 350 350 349 349 350 353 356 356 357 357 356 359 360 360 363 364 363 363 363 364
324 322 322 323 324 325 325 328 331 333 336 338 340 341 344 346 349 345 346 345 345 345 345 346 348 348 349 349 349 351 352 352 352 351 352 353 354 353 351 350 349 349 350 351 350 349 349 348 349 353 354 356 356 357 360 361 360 362 364 364 362 362 363
319 320 320 320 322 323 325 326 327 330 332 335 338 340 340 342 347 349 353 348 347 345 345 347 347 348 348 349 349 352 354 354 353 353 353 353 354 353 352 351 351 350 350 351 350 349 349 349 349 350 352 354 356 357 357 357 358 359 361 362 362 362 360
317 318 319 319 320 322 323 324 327 328 331 333 335 337 338 340 343 346 349 351 347 347 346 347 348 349 347 347 350 353 353 355 355 354 354 354 354 355 354 353 353 351 350 350 349 350 351 351 351 349 350 351 354 356 355 355 357 354 344 347 360 361 358
316 317 318 319 320 321 323 324 325 327 328 330 332 335 337 339 341 344 348 350 352 352 348 348 349 349 348 348 351 353 354 355 354 355 355 355 355 356 355 354 354 353 353 352 351 351 352 351 350 349 349 349 350 352 352 353 352 341 334 334 338 354 360
314 316 317 318 320 321 321 322 324 325 327 329 330 332 332 335 339 342 344 348 351 353 355 348 347 347 350 350 353 354 354 353 354 354 355 356 355 355 356 355 355 355 355 353 351 353 352 350 350 351 350 349 350 349 350 352 343 333 331 332 332 340 356
315 315 316 317 318 320 320 321 323 325 326 329 330 331 332 333 335 337 340 344 350 355 356 355 348 349 350 350 352 354 354 355 355 355 355 356 356 357 357 356 355 354 354 351 353 353 352 352 351 351 351 350 351 350 350 351 339 331 329 330 330 330 342
316 316 317 317 318 318 320 322 323 325 327 329 331 331 331 332 332 334 338 343 348 354 355 356 356 351 350 352 354 354 355 356 355 354 355 357 357 357 357 356 355 355 354 354 355 354 353 352 352 352 353 352 352 353 352 352 341 329 327 327 327 328 334
314 316 317 317 317 317 320 322 323 325 326 329 331 331 330 329 330 332 334 339 345 346 353 355 356 354 352 353 353 354 355 356 355 355 357 357 358 358 357 356 357 356 355 354 354 354 354 352 352 353 353 352 352 352 352 351 336 327 325 324 324 326 331
313 314 316 318 318 319 320 322 323 324 325 330 330 329 329 328 329 330 332 339 342 343 347 348 354 356 357 354 355 354 355 355 355 356 357 357 357 357 356 357 358 357 357 355 354 355 355 355 354 353 353 353 353 351 351 352 332 326 323 322 322 325 341
314 315 316 318 319 320 321 323 324 326 327 327 328 327 327 328 329 329 332 336 338 341 345 344 344 346 354 357 356 355 356 355 354 356 356 357 357 356 356 357 357 358 359 356 354 353 354 355 354 356 354 354 354 352 353 353 338 323 321 321 321 326 347
315 315 316 317 320 321 322 323 324 326 327 327 326 327 328 328 328 329 332 333 336 338 340 339 337 339 344 351 357 360 359 358 357 357 357 358 357 356 357 358 359 358 360 357 355 353 354 356 356 356 356 355 354 353 353 354 343 321 319 319 319 331 350
314 315 316 317 318 319 321 323 324 325 326 326 324 325 327 327 328 329 330 331 332 334 335 333 332 335 339 343 348 353 359 360 361 358 357 357 357 357 357 358 359 360 362 359 358 356 358 357 356 356 357 356 355 350 352 355 346 321 319 318 317 330 352
314 315 316 317 318 320 322 324 324 323 323 324 325 326 326 326 326 329 329 329 330 330 330 329 330 331 335 339 343 347 351 357 359 361 360 358 359 360 359 361 359 360 359 358 359 358 358 357 358 356 357 357 357 356 355 355 357 348 318 317 315 319 350
314 315 315 316 317 321 321 322 322 322 323 324 326 325 325 325 326 327 328 328 328 328 328 328 330 332 333 335 338 341 345 352 358 359 360 361 361 361 361 360 359 359 359 358 358 358 358 357 357 357 357 357 358 358 357 357 357 358 317 316 315 316 328
312 314 315 317 318 319 319 320 322 323 322 324 323 325 324 324 325 327 327 327 327 327 327 328 329 331 332 333 335 338 343 346 350 356 358 361 362 361 361 362 362 361 360 358 358 359 358 358 357 356 356 358 359 359 359 357 347 359 325 316 314 314 316
311 311 312 314 316 317 317 319 320 321 322 322 322 324 325 324 324 325 327 326 327 328 328 329 329 329 330 332 336 340 343 347 349 348 351 357 360 360 359 361 362 362 362 361 359 359 358 357 357 356 355 356 358 359 361 362 359 335 348 318 314 312 313
311 312 312 313 314 316 317 317 320 321 323 323 324 325 325 324 323 325 326 326 327 328 329 329 328 329 329 330 333 338 342 345 347 349 350 350 352 357 359 359 359 360 360 360 358 356 355 355 356 355 354 355 356 359 361 364 363 342 332 336 313 313 312
310 311 311 311 313 316 317 316 317 319 322 323 324 325 325 324 323 324 324 325 326 327 328 328 328 327 328 329 331 334 339 343 345 348 349 349 350 349 353 357 358 358 359 359 358 357 356 356 356 356 356 356 356 358 360 362 362 362 344 327 319 313 312
310 311 311 312 313 315 316 316 317 318 320 322 325 324 325 323 323 322 324 326 326 327 327 327 326 326 327 329 330 332 335 338 341 343 348 351 351 352 352 355 357 357 358 358 357 357 357 356 356 356 357 356 358 358 360 361 363 362 362 339 329 321 314
309 310 311 311 313 315 315 316 315 317 319 320 323 324 323 322 323 323 324 325 324 325 325 326 325 325 326 327 329 331 333 336 338 340 342 346 351 354 355 357 359 359 358 359 358 357 356 356 356 356 356 356 357 359 359 360 361 362 362 362 355 348 337
308 310 311 312 313 314 314 315 316 316 318 320 323 324 324 322 322 323 323 323 323 323 323 324 325 324 324 325 327 330 333 334 337 338 338 342 346 349 352 355 358 359 359 360 359 358 357 357 356 356 357 357 358 358 358 358 360 361 361 361 360 357 353
309 310 311 311 313 314 313 314 315 317 318 319 322 324 323 321 322 322 322 322 322 322 321 322 324 324 324 325 327 328 331 332 333 334 336 338 342 346 349 351 353 356 360 364 365 363 360 359 359 360 360 361 360 360 359 360 360 361 340 361 338 354 358
308 309 310 312 313 314 314 315 316 317 318 320 323 324 323 321 321 322 321 321 321 321 320 321 321 322 323 325 326 327 327 328 329 332 334 336 337 339 342 341 326 336 351 356 345 335 331 332 360 364 364 361 362 365 361 360 363 339 325 322 321 320 324
307 308 309 311 312 312 313 315 316 317 318 320 323 324 322 320 320 320 320 320 320 320 320 320 320 320 321 323 324 324 325 325 327 330 332 333 334 335 336 339 343 320 316 320 331 330 319 314 318 321 326 355 363 358 335 333 331 328 319 314 314 314 313
308 309 310 312 312 313 314 315 316 317 319 321 323 323 322 320 319 319 319 319 318 319 319 319 319 319 320 321 322 323 324 325 326 328 329 330 332 333 334 336 337 341 328 322 318 315 313 311 311 312 315 318 330 351 367 335 318 317 313 310 311 311 311

ECMWFFLT1_sfc_thetae_099.txt.gz
Theta_e
344 346 347 347 345 344 346 348 350 350 352 353 353 352 351 352 354 355 355 361 365 366 366 367 366 366 363 360 361 362 361 361 362 361 359 357 355 356 356 357 359 360 358 357 358 357 361 363 362 362 364 366 367 369 372 371 373 371 377 373 370 373 370
340 341 341 343 348 345 346 349 350 350 350 350 352 353 354 354 354 355 356 361 365 366 367 368 368 367 364 363 362 363 363 361 362 362 360 360 359 357 357 359 357 360 360 357 355 359 361 360 362 363 362 365 364 368 367 370 372 373 370 374 368 372 372
337 340 340 343 344 344 347 347 350 349 348 348 350 350 351 353 355 357 358 360 362 365 366 366 368 367 368 366 363 363 363 361 361 360 359 355 358 353 357 360 358 356 357 357 357 355 358 360 363 364 363 362 360 364 366 366 368 368 370 376 369 370 373
336 338 340 343 347 348 349 349 349 350 351 350 351 352 352 357 357 359 358 359 362 365 366 364 367 365 366 367 364 364 364 363 361 359 358 355 355 356 355 357 359 355 355 355 354 354 353 358 360 363 363 362 361 362 363 363 363 365 367 371 370 370 374
336 338 340 341 343 346 348 349 351 352 350 350 351 352 352 353 355 355 357 361 362 363 363 361 360 363 364 366 363 363 364 363 360 358 358 356 357 358 354 353 355 355 353 355 356 356 357 356 357 359 360 363 361 361 362 362 362 364 366 368 367 367 368
333 335 338 340 342 342 344 348 349 352 350 352 355 352 352 351 354 356 358 360 360 358 360 362 364 363 363 363 363 361 366 366 364 362 358 358 357 354 355 355 351 354 351 353 352 355 355 354 355 357 357 356 356 354 358 360 360 360 363 365 365 363 360
332 334 337 340 342 344 345 348 348 348 352 352 354 355 354 355 354 356 355 355 356 355 355 361 359 359 364 362 363 363 365 365 365 361 358 358 356 356 356 357 356 353 353 355 353 353 355 356 357 357 356 353 355 352 356 360 359 360 362 364 365 364 363
331 332 335 337 339 342 345 348 350 347 351 355 351 351 350 351 354 355 355 354 356 355 357 356 353 356 362 364 362 360 363 363 364 363 360 357 356 356 355 357 357 356 354 350 354 354 353 358 357 356 355 353 353 356 353 359 361 357 358 361 362 363 358
331 331 331 333 336 340 344 348 350 351 351 351 352 351 352 351 353 352 355 353 353 353 354 355 355 356 364 363 363 363 361 362 363 364 361 357 354 353 352 354 357 358 354 350 351 355 354 354 356 357 358 356 355 358 356 360 358 358 357 359 360 361 357
328 329 330 331 334 337 340 343 347 348 352 351 353 354 354 356 355 357 355 352 351 352 354 356 356 357 361 362 362 363 362 362 360 359 359 354 353 352 352 349 353 357 354 352 349 350 355 355 354 356 360 357 356 357 359 358 359 359 356 356 358 359 361
327 328 328 329 330 332 333 336 340 342 346 350 351 351 352 351 352 353 356 355 355 351 351 353 357 357 362 361 361 360 364 361 359 356 357 354 352 351 350 349 347 351 353 352 349 348 352 355 355 357 357 355 356 356 358 357 359 360 356 354 356 358 358
329 327 327 328 329 329 329 331 336 340 342 344 346 349 352 354 352 355 355 355 356 354 353 355 356 356 356 359 358 360 360 361 361 356 355 355 352 350 350 349 347 347 350 351 350 349 347 352 352 352 355 358 358 357 359 360 360 361 359 353 353 354 356
328 328 327 327 328 328 329 329 331 335 338 340 342 345 349 350 351 351 355 357 357 357 356 358 355 358 354 358 358 361 359 358 358 357 355 355 355 353 351 350 348 346 347 350 350 348 346 346 352 352 352 356 358 356 358 360 359 362 362 358 354 353 356
329 326 327 327 327 327 328 328 329 331 335 336 338 341 344 346 346 349 351 353 356 356 353 356 359 356 355 355 358 360 361 361 361 359 358 357 361 358 352 350 349 350 349 350 350 348 346 344 346 351 352 353 356 357 357 359 359 360 362 361 355 351 351
324 324 326 325 326 327 328 326 328 329 331 333 336 338 340 342 344 348 350 352 355 356 357 359 359 355 357 356 357 362 364 364 362 363 361 361 361 360 356 353 354 354 353 352 350 349 348 346 344 346 350 352 354 356 354 352 356 356 358 359 358 353 347
323 323 324 324 326 326 328 328 330 329 330 332 334 335 337 339 342 344 346 348 352 355 356 357 355 356 356 356 358 359 361 364 364 364 363 362 363 366 363 358 355 351 352 351 350 353 355 353 348 344 346 350 354 355 353 350 351 356 349 352 357 356 346
323 323 324 325 327 326 328 329 329 330 330 330 331 332 333 337 340 341 343 346 349 352 355 358 355 353 357 355 356 358 360 362 362 365 365 367 364 365 366 365 362 362 361 357 355 357 362 357 350 346 343 345 350 352 352 350 347 345 337 338 344 354 355
322 323 324 325 326 327 328 327 329 329 329 329 330 330 332 336 337 337 339 345 346 350 356 356 354 356 356 355 355 357 357 360 362 364 363 364 366 366 368 367 365 364 363 357 355 362 356 355 355 356 350 347 347 349 351 351 347 333 334 336 336 346 358
323 323 324 325 326 327 327 328 329 330 329 331 332 333 333 333 335 337 340 344 347 351 352 352 353 353 356 356 356 357 356 357 360 364 364 362 364 366 366 367 366 364 361 358 360 359 362 363 358 359 358 353 352 348 349 350 343 331 330 333 334 335 347
322 324 324 324 325 326 328 329 330 330 332 332 332 332 331 333 333 336 339 343 346 348 349 349 351 351 351 355 355 356 360 358 355 359 363 364 364 363 365 366 366 364 362 361 362 361 360 360 361 361 363 360 358 357 352 352 345 329 327 329 330 332 339
321 322 323 324 325 325 328 329 330 331 331 331 332 332 333 333 333 334 337 340 341 343 345 347 348 348 349 351 354 358 359 360 356 356 358 364 363 363 365 364 366 365 363 360 359 361 361 360 361 361 362 361 359 359 354 352 337 326 325 325 326 329 335
319 320 321 322 324 325 327 327 328 330 330 334 332 332 333 332 333 332 335 339 340 342 343 344 345 346 348 349 353 355 355 355 356 358 358 363 363 362 361 364 365 365 365 362 358 359 360 362 362 361 360 361 360 358 357 356 334 324 324 323 324 328 347
319 320 320 322 322 324 326 326 327 329 332 332 333 332 331 333 334 332 332 335 338 341 341 342 340 341 343 347 348 350 351 353 353 355 357 357 354 357 357 359 362 363 365 362 360 356 356 359 360 363 361 361 361 360 360 358 344 323 321 321 322 330 353
318 319 319 320 322 322 326 326 325 326 329 331 333 333 333 333 332 333 333 333 334 337 339 338 338 338 340 340 342 344 348 350 352 353 354 352 352 353 357 357 356 355 362 361 359 358 355 355 359 361 362 361 360 359 360 360 349 321 318 318 319 335 356
316 317 317 318 319 319 321 324 324 326 327 328 328 330 334 334 334 333 332 332 332 335 337 337 337 337 338 339 340 342 344 347 350 352 351 349 351 353 352 354 354 357 358 358 357 357 358 358 357 358 359 359 360 359 358 359 351 319 318 316 317 334 358
316 316 316 317 318 320 322 323 324 323 324 323 326 329 332 331 331 332 332 332 332 332 334 336 336 337 339 340 341 341 342 345 348 349 350 350 351 353 353 355 356 356 357 356 357 356 356 356 356 358 358 357 358 359 359 359 361 349 316 316 315 321 357
316 315 316 316 317 321 319 320 320 320 322 325 327 326 328 330 329 329 331 332 331 330 331 333 336 337 338 339 340 340 341 344 346 346 349 351 353 353 352 354 356 356 354 353 355 355 356 355 355 354 358 358 359 359 359 360 360 368 316 315 314 317 331
315 316 317 318 320 319 319 318 319 321 321 324 323 324 326 328 328 329 330 330 330 332 331 333 334 336 338 338 338 340 342 343 345 346 347 350 353 354 353 355 358 355 353 353 352 352 354 357 358 356 357 360 358 359 362 364 358 363 323 315 313 314 317
313 314 315 317 318 319 318 318 319 318 319 320 321 323 325 325 327 328 329 328 330 331 332 332 333 335 335 336 336 338 340 343 344 345 346 347 350 350 352 354 355 357 356 354 352 351 353 356 359 358 357 359 361 360 364 367 363 344 353 318 312 312 313
315 315 315 315 316 318 319 319 319 318 319 319 322 323 324 326 326 327 328 330 332 332 332 332 333 334 333 333 334 336 339 341 343 343 346 348 350 351 351 352 353 354 356 356 354 354 352 353 354 355 355 356 358 360 360 363 365 354 341 345 314 311 312
313 314 314 315 315 318 318 318 318 319 320 320 322 323 325 325 325 326 326 330 334 333 332 332 331 331 331 332 333 334 335 337 340 344 345 346 347 347 348 349 349 347 351 351 350 351 350 352 354 355 355 354 354 357 361 363 366 362 353 334 323 313 310
313 315 314 315 316 317 318 317 318 318 319 321 323 323 324 324 324 324 326 330 332 333 332 331 331 330 331 331 332 332 333 333 336 342 344 343 345 346 347 348 349 349 349 346 345 347 349 347 349 352 353 354 356 356 358 360 360 361 362 348 331 320 312
314 314 315 315 316 317 316 317 316 317 318 319 322 322 322 323 323 325 327 328 329 330 331 332 331 330 330 331 330 332 333 334 334 336 338 340 341 342 343 346 349 350 347 346 344 345 345 346 348 350 351 352 354 355 356 359 358 356 357 360 357 352 345
314 314 315 316 316 317 316 316 316 317 318 318 320 321 322 323 324 325 326 326 327 330 331 330 330 328 328 329 331 331 331 332 334 334 334 336 338 337 340 342 344 345 348 346 347 344 342 340 341 344 346 348 351 353 355 356 356 354 353 356 357 358 358
314 315 315 315 316 316 315 316 316 317 317 317 319 320 321 322 323 325 326 326 327 329 329 328 328 328 328 328 329 330 331 331 332 332 330 331 335 337 340 341 340 339 340 344 347 347 345 342 343 344 344 345 349 351 350 353 352 355 341 356 331 343 351
313 313 314 315 315 315 315 316 315 315 317 318 319 320 321 322 323 325 325 326 327 328 328 327 327 326 326 327 328 330 330 330 329 329 331 331 331 334 336 337 324 332 339 338 337 327 318 318 334 339 343 344 346 349 349 350 355 336 322 316 313 311 312
312 312 312 313 313 313 314 314 315 315 316 317 319 319 320 321 323 324 325 326 327 327 327 327 325 324 325 326 327 328 328 329 330 332 332 331 331 333 333 334 339 315 309 318 325 321 314 307 305 306 311 328 338 340 327 324 320 314 315 311 309 309 309
312 312 312 313 313 313 314 315 315 315 315 317 318 318 319 319 321 323 324 326 327 327 327 326 325 323 323 324 325 326 327 328 330 331 331 332 332 332 330 331 330 333 320 307 310 312 306 304 303 303 303 305 313 327 340 326 315 312 310 311 312 311 308

ECMWFFLT1_sfc_thetae_102.txt.gz
Theta_e
345 345 348 347 346 346 347 347 349 349 351 350 348 344 344 345 351 354 356 361 361 361 362 363 365 365 364 362 362 363 363 363 364 362 362 362 362 364 361 360 360 365 362 362 363 364 366 368 364 365 369 369 370 372 374 373 375 372 374 374 374 374 375
342 342 344 345 344 344 345 347 353 349 350 349 348 351 347 347 351 352 357 362 362 361 360 362 365 365 364 363 362 364 363 363 363 365 362 365 366 366 363 364 364 366 370 365 366 368 368 366 365 365 366 368 367 372 370 372 374 373 371 374 370 374 373
339 341 343 345 343 340 342 344 347 352 352 349 349 348 349 353 353 354 358 361 363 363 362 362 365 365 364 364 362 362 363 362 362 360 359 356 358 354 358 363 362 361 359 362 366 362 363 363 371 369 366 364 363 370 371 371 373 371 373 375 371 369 373
338 340 342 344 344 346 345 346 346 350 352 351 351 352 353 358 358 356 357 360 362 364 363 361 362 363 363 363 362 362 361 362 361 358 357 356 355 355 357 361 361 359 361 358 355 355 355 362 363 369 367 367 367 364 366 367 366 369 371 374 373 370 374
337 340 341 343 345 345 347 346 347 349 351 354 350 354 353 355 355 355 353 357 362 362 364 362 362 362 363 362 358 358 360 360 360 359 358 357 359 357 355 353 356 355 358 356 360 360 367 361 361 363 365 369 364 367 366 367 366 369 370 371 372 370 370
334 336 339 340 342 343 347 347 350 352 349 349 352 350 351 355 357 356 357 359 362 358 360 363 365 363 362 361 360 358 361 363 362 362 360 360 360 355 353 354 354 355 353 355 356 355 363 358 358 359 359 358 357 357 359 361 361 363 368 369 369 367 364
332 335 338 341 342 344 345 347 348 350 352 350 357 356 355 354 353 357 355 357 358 355 358 356 357 362 363 363 362 362 361 359 361 357 358 356 357 356 355 355 356 353 352 356 355 355 353 357 358 360 360 358 359 356 359 364 363 363 367 368 369 370 370
331 334 337 337 339 342 345 347 348 352 355 355 353 352 354 353 353 355 356 353 355 356 357 358 355 359 361 362 362 359 359 360 359 358 357 354 353 354 355 354 355 357 356 352 356 355 351 354 353 358 358 357 358 359 360 364 367 359 363 364 366 365 360
330 332 332 335 337 338 340 344 348 351 352 353 354 354 355 354 353 353 356 356 353 354 355 359 357 354 357 361 361 362 359 360 360 359 356 352 351 350 351 353 354 356 354 350 350 354 355 354 352 358 359 357 359 359 361 364 361 360 361 362 364 363 360
328 329 331 333 335 335 336 338 342 348 350 349 350 352 353 355 356 355 355 357 356 355 354 353 355 358 355 353 358 358 357 361 361 358 355 352 350 349 349 350 352 355 353 351 350 350 354 356 354 358 362 358 360 360 357 363 359 357 358 364 363 363 364
328 328 329 330 331 332 334 334 336 340 347 347 349 349 351 354 355 356 358 357 354 356 357 354 354 354 354 356 358 356 356 354 355 356 357 353 350 349 349 348 350 354 352 351 348 349 350 355 358 359 360 355 357 361 358 358 359 359 356 357 359 361 360
328 327 327 328 328 329 330 332 333 336 342 346 347 348 350 351 353 356 358 357 355 351 353 353 353 354 355 356 359 357 355 355 353 351 354 355 351 349 349 348 347 350 353 352 350 349 350 352 352 356 358 356 355 357 360 359 360 361 360 355 355 358 358
327 327 327 327 328 328 331 331 331 333 336 341 344 345 347 351 351 351 350 350 353 354 357 360 357 357 356 356 358 359 360 358 356 351 350 353 352 350 349 348 346 346 348 352 351 348 346 349 351 353 357 357 356 355 358 360 359 362 363 361 357 355 357
329 326 328 328 328 328 328 330 330 331 332 335 340 341 344 349 350 349 350 351 352 357 357 357 359 358 360 358 356 356 357 359 355 350 350 354 355 354 349 347 347 347 348 351 350 347 346 345 348 352 352 356 356 356 358 360 359 361 363 362 359 356 357
324 324 326 326 327 328 328 327 330 331 331 333 336 338 340 343 342 347 352 353 355 356 354 355 355 356 356 359 357 356 357 356 358 359 357 355 355 357 355 352 351 352 351 352 349 347 346 346 344 349 350 352 355 356 356 356 358 358 360 361 360 357 353
323 323 324 325 326 326 328 328 330 331 332 332 331 333 335 338 341 344 347 348 352 354 354 355 354 355 357 355 353 355 358 358 359 359 356 354 355 360 364 358 358 350 351 351 351 351 351 350 348 345 349 349 353 355 355 355 355 356 349 351 359 358 352
322 323 324 325 326 326 328 328 329 330 331 331 331 330 334 336 338 341 342 344 350 354 354 353 353 357 355 355 354 355 357 360 359 356 356 358 358 359 362 365 363 360 360 357 355 354 357 352 349 345 343 348 349 352 351 352 352 346 337 338 344 356 356
322 323 323 325 326 327 327 327 328 329 330 331 330 331 332 334 336 338 339 342 343 346 351 353 353 353 355 354 355 357 357 356 359 360 361 363 363 365 365 367 366 361 364 359 355 363 360 354 352 352 347 343 346 347 349 351 348 334 333 335 335 345 356
322 322 323 324 325 326 326 327 328 329 330 331 333 335 335 334 333 336 339 341 342 345 344 347 347 350 352 355 355 354 353 356 358 359 358 358 361 360 356 357 358 357 352 351 355 356 359 360 357 355 354 349 349 345 347 350 342 332 329 332 333 334 346
321 323 323 323 324 325 326 327 328 329 331 333 332 330 332 336 333 334 337 342 344 344 345 343 343 345 346 351 352 352 353 354 354 354 356 357 356 357 356 354 354 354 356 357 353 351 356 355 357 359 359 356 354 355 351 348 343 330 326 328 329 331 337
320 321 322 322 323 324 324 324 326 328 329 331 332 332 331 331 332 334 334 336 337 340 343 341 340 341 341 343 345 347 349 349 352 353 355 356 356 355 355 354 354 354 356 355 353 351 351 350 354 356 359 358 356 355 354 349 336 327 324 324 325 329 334
318 319 319 320 322 324 325 324 323 325 328 330 332 331 331 332 332 333 334 335 334 338 341 341 341 339 341 341 342 343 345 347 348 350 353 354 353 353 353 354 354 353 356 354 352 352 354 352 352 354 358 358 357 354 355 353 335 326 321 321 323 327 343
319 319 319 320 319 322 324 324 324 326 329 328 328 327 328 334 334 334 334 334 333 337 339 339 338 337 338 339 340 342 343 345 346 347 350 353 351 351 353 354 351 351 356 354 354 354 352 352 355 358 358 357 358 359 358 358 345 328 318 319 320 326 346
318 318 317 317 319 319 323 322 322 323 324 327 329 329 330 331 332 334 334 334 333 335 335 335 335 335 337 336 337 339 343 346 347 347 348 351 349 351 351 353 357 357 358 356 356 354 352 353 353 355 357 357 357 356 359 358 353 332 316 316 318 331 347
316 317 316 316 315 316 319 321 321 321 323 324 324 326 329 333 335 331 331 332 332 333 333 333 333 334 336 336 337 337 340 343 346 346 347 349 351 351 350 351 353 356 359 359 358 356 355 355 354 355 356 356 357 361 360 359 350 333 317 315 315 329 349
315 315 315 315 316 319 319 322 321 318 318 319 322 324 326 325 327 329 330 331 332 332 333 333 334 335 337 338 338 337 339 341 346 346 345 348 350 352 352 352 353 355 357 356 358 356 356 356 356 355 355 356 356 355 355 359 359 353 324 312 312 319 350
315 315 315 315 316 321 318 319 318 317 318 322 327 321 321 324 324 325 328 329 329 329 330 334 335 335 335 335 335 336 338 340 342 343 345 349 350 352 354 352 352 354 356 357 356 355 355 354 354 355 356 357 358 358 358 360 362 354 323 313 311 314 331
313 314 315 318 319 319 318 318 320 320 320 321 319 320 321 323 325 326 327 327 327 329 331 333 334 334 335 335 334 335 336 337 339 340 342 348 350 350 351 354 353 353 356 356 356 354 353 353 355 354 354 356 359 361 363 360 356 359 331 314 310 310 314
314 313 313 314 315 316 317 317 318 317 319 320 321 321 321 321 323 324 325 325 327 328 332 333 333 333 334 335 334 335 336 338 337 337 339 343 348 348 349 351 349 350 354 355 353 353 352 354 355 355 355 357 358 359 360 364 359 345 354 324 310 310 310
314 314 313 314 314 315 316 316 317 317 318 319 321 322 323 324 323 324 323 325 329 329 332 334 333 334 333 333 333 333 334 334 336 339 341 345 349 349 349 351 351 351 350 353 352 350 350 350 351 351 350 350 354 354 357 359 363 351 349 341 311 310 309
313 314 314 313 314 317 317 315 315 315 317 319 321 322 323 323 322 323 323 327 330 332 330 331 331 332 332 331 331 332 332 333 336 338 339 344 343 343 345 346 348 348 350 351 349 348 346 347 350 349 349 348 347 347 350 356 361 363 357 335 316 309 309
314 315 314 315 315 316 315 315 316 316 316 318 320 320 323 322 322 322 325 326 329 328 328 329 331 332 331 330 330 330 331 330 331 333 337 335 338 342 344 344 347 350 350 349 348 347 346 346 347 348 348 348 348 348 351 353 356 359 365 352 335 322 311
314 314 315 314 316 316 316 316 315 315 316 316 319 319 319 319 320 322 324 326 325 325 328 329 330 330 330 331 328 329 330 330 329 330 331 333 334 335 335 336 341 350 351 349 347 347 346 345 344 344 344 346 349 351 353 355 358 359 361 364 364 358 344
314 314 315 316 316 317 316 315 315 315 315 316 317 318 319 319 320 321 322 322 324 325 327 327 328 326 327 327 328 328 328 329 331 331 330 331 331 330 331 334 335 337 340 339 341 342 342 342 342 342 341 341 343 345 346 348 352 355 357 359 360 360 359
313 314 314 314 315 315 315 315 314 315 315 315 316 317 318 318 319 320 321 322 322 325 325 326 327 329 327 326 326 326 331 329 330 329 329 329 332 331 335 333 332 336 337 338 343 342 337 336 337 339 338 339 340 341 341 343 344 348 342 356 338 351 359
313 313 313 314 315 315 315 315 315 315 315 315 317 317 318 318 319 320 320 321 322 324 325 325 326 327 327 327 327 327 326 328 327 328 329 329 328 330 332 334 323 330 336 335 337 328 319 319 333 336 336 336 337 338 338 340 345 327 313 311 313 315 318
312 312 312 313 313 313 314 314 315 315 315 316 317 317 317 318 318 320 320 322 323 324 324 325 325 325 325 326 326 327 328 326 327 329 331 330 331 332 332 332 339 314 310 319 326 320 313 309 308 309 312 325 329 331 322 320 318 313 313 313 311 306 305
313 312 312 313 313 313 313 314 314 314 315 315 316 316 317 317 318 320 320 322 322 322 322 323 324 324 324 323 325 328 328 326 327 327 327 329 330 331 331 330 330 333 321 305 308 309 304 303 304 305 306 307 312 322 329 320 312 309 309 309 308 307 304

ECMWFFLT1_sfc_thetae_105.txt.gz
Theta_e
342 343 345 344 343 345 346 347 347 349 341 340 344 340 339 341 345 349 351 351 353 352 353 356 355 355 355 355 355 356 355 355 358 355 357 356 357 357 357 360 358 358 358 359 359 358 359 360 358 360 362 362 363 363 365 368 368 369 367 367 365 369 364
342 343 344 345 345 345 346 348 350 349 350 342 344 341 339 340 346 349 351 351 353 353 353 356 357 356 356 355 356 355 355 355 358 359 357 358 360 358 358 358 358 358 357 359 358 361 359 362 361 360 361 363 364 366 366 366 366 366 365 365 365 364 365
336 340 341 342 343 346 346 345 345 348 350 351 350 344 345 345 346 349 352 352 352 354 354 355 357 357 358 356 355 355 355 356 357 357 355 356 357 359 357 358 358 358 361 359 359 360 361 361 358 361 362 360 363 365 365 365 365 365 366 364 363 363 363
338 339 343 343 344 346 346 347 348 350 350 352 351 349 347 348 353 351 354 353 353 354 353 355 357 358 358 357 355 355 355 355 356 357 355 355 355 354 355 357 357 358 357 357 359 357 359 357 360 360 367 359 360 364 364 364 365 365 365 365 362 362 363
335 338 338 339 341 342 345 346 345 347 348 351 353 352 351 354 355 356 357 356 355 355 355 356 358 359 359 359 357 357 356 355 355 356 355 354 354 352 352 354 354 354 355 355 355 354 354 354 356 361 360 358 359 360 362 362 362 363 363 366 363 362 363
334 336 337 340 341 343 344 347 346 349 350 349 348 351 352 352 351 353 354 358 359 358 358 357 357 359 358 359 357 356 356 356 356 355 355 354 352 351 350 351 353 352 354 354 355 351 356 354 354 358 357 360 358 359 359 360 361 362 362 364 363 362 363
333 336 335 337 338 340 343 343 346 349 350 348 350 355 352 355 349 349 354 356 358 359 359 358 359 359 357 356 357 355 355 355 355 355 355 354 354 350 349 349 352 351 351 354 352 351 357 353 354 355 356 355 356 354 356 356 356 360 360 361 361 361 361
329 331 333 333 334 335 339 346 346 348 351 353 349 353 351 354 353 351 353 354 354 349 355 358 356 353 353 352 351 352 357 355 355 355 355 354 352 352 349 349 350 351 350 351 351 350 351 352 354 354 355 354 353 353 353 355 354 356 359 358 360 359 362
329 331 331 332 332 333 335 342 344 345 345 348 351 352 353 353 353 353 353 353 351 352 352 354 354 357 354 352 351 352 352 356 355 355 354 353 351 351 351 350 349 352 350 349 350 351 349 350 350 353 353 353 353 353 353 355 355 355 358 357 358 357 357
326 328 329 331 333 333 333 339 346 346 346 346 347 351 351 352 352 354 354 355 352 352 352 355 357 357 354 353 352 352 351 349 353 355 354 352 351 349 349 349 349 352 350 349 348 350 350 348 348 349 352 352 352 352 351 355 355 355 354 357 357 357 356
325 326 327 331 332 330 331 332 338 341 342 343 345 345 347 350 350 350 353 355 354 353 354 353 352 354 352 351 352 353 350 350 353 352 354 352 350 349 348 347 348 349 349 349 347 347 349 350 348 347 352 352 350 352 349 354 354 352 352 355 357 357 356
325 326 326 329 332 329 328 329 331 336 340 341 342 342 344 345 347 349 351 352 352 351 353 354 353 353 354 354 356 354 351 351 352 354 354 355 352 349 348 347 346 348 349 349 347 345 346 349 349 348 349 351 350 352 351 351 353 351 350 350 353 356 356
325 325 326 327 329 328 329 328 329 330 333 340 343 343 346 347 348 348 348 350 354 356 356 357 357 354 352 352 354 354 352 354 352 353 354 353 353 351 349 345 346 346 348 349 348 346 344 345 349 350 349 351 351 350 353 351 352 352 351 349 349 351 354
327 324 325 325 326 327 327 328 328 328 329 331 333 339 342 345 349 351 351 351 354 355 354 354 359 357 357 355 355 355 355 357 357 356 354 354 353 352 353 351 352 345 345 350 348 347 346 344 345 349 351 351 351 350 351 352 352 351 353 352 351 350 350
322 323 323 324 325 327 327 327 327 327 327 329 331 332 336 341 345 350 350 351 353 354 354 356 355 355 356 356 354 354 355 353 354 356 356 356 355 354 353 354 357 355 350 346 349 349 347 346 345 345 349 352 351 350 350 351 353 353 353 354 353 352 350
321 321 322 323 324 325 326 327 328 327 328 328 329 330 332 335 337 340 345 348 351 349 351 353 355 355 353 352 352 353 356 353 353 355 354 354 353 354 355 357 357 355 355 353 352 347 347 346 343 345 345 348 351 350 350 350 352 355 349 351 355 352 352
321 321 322 323 324 325 326 327 327 327 326 327 327 329 330 332 333 336 338 340 344 346 350 353 351 352 352 353 354 354 355 356 354 353 353 353 355 357 355 353 353 355 353 352 353 351 350 349 344 341 345 345 348 350 350 350 351 346 337 338 344 354 352
320 321 322 322 323 323 324 325 326 326 327 328 328 329 330 330 331 332 335 339 340 340 343 344 346 348 349 349 350 352 353 354 356 355 357 358 357 353 352 353 351 352 352 352 352 351 352 350 349 348 343 343 346 348 350 350 348 337 334 335 336 345 354
319 320 321 321 322 322 323 323 324 326 327 326 326 328 330 331 330 331 333 335 339 341 339 339 340 343 345 346 346 347 349 352 353 354 354 355 356 353 353 354 352 352 352 353 353 352 349 348 349 348 351 347 341 344 348 349 342 333 332 333 333 334 346
318 319 320 320 320 320 321 322 324 325 327 327 327 328 329 333 331 331 333 334 336 339 338 338 338 338 340 343 344 345 347 348 349 350 353 354 353 354 355 353 352 351 352 354 355 352 350 350 349 348 348 349 349 343 344 346 343 330 328 328 329 331 337
318 319 319 319 319 320 320 321 322 323 324 327 327 327 329 329 331 332 332 332 334 337 337 336 336 336 338 338 340 345 345 346 346 348 350 352 352 351 352 353 352 353 352 353 353 351 350 350 349 349 349 350 351 351 347 346 338 328 325 324 324 328 333
316 317 318 320 319 320 319 320 322 324 324 327 323 323 325 330 331 331 331 332 333 334 334 334 334 334 336 336 338 339 342 345 345 344 348 351 350 349 349 350 351 351 353 354 353 352 352 351 351 350 350 350 351 353 352 353 337 329 323 320 321 325 337
315 314 316 320 320 319 319 318 319 322 328 323 322 322 323 325 333 332 331 330 332 332 331 331 331 333 335 335 335 338 337 346 345 345 344 348 349 348 347 348 349 351 351 350 351 351 351 350 351 351 352 352 355 354 352 352 342 331 326 318 317 322 333
314 313 312 314 317 318 318 319 318 318 325 323 321 320 322 326 330 330 329 329 329 331 329 329 329 332 335 334 335 335 335 338 348 345 345 346 347 348 349 350 350 351 355 354 352 352 352 352 352 353 353 352 353 356 353 353 346 324 319 322 318 324 331
313 313 313 314 314 314 316 320 322 321 320 319 318 318 320 326 328 328 327 328 328 331 330 329 329 331 331 333 334 335 336 336 341 342 344 345 346 347 347 348 348 349 352 354 356 354 353 354 352 353 353 354 354 360 356 353 345 329 331 330 325 325 332
311 312 312 314 314 315 319 321 318 316 316 317 317 320 320 322 324 329 328 326 327 326 328 330 330 331 330 331 332 333 336 336 338 338 337 341 344 346 348 351 351 349 350 352 353 354 355 355 354 353 354 355 355 356 359 352 351 347 325 325 323 321 337
312 311 311 312 315 324 316 316 316 316 316 317 318 319 320 321 323 324 327 326 324 324 325 330 331 333 333 331 331 332 332 333 335 335 335 337 342 346 348 349 349 349 349 348 351 354 353 353 353 353 353 353 355 356 358 354 353 351 327 320 320 318 325
311 311 311 318 323 319 315 316 316 315 315 315 318 320 320 320 322 322 323 321 323 323 324 332 330 331 330 331 331 332 332 332 334 336 335 336 338 339 343 346 348 348 346 350 351 350 351 352 351 351 352 353 354 356 360 360 361 354 330 319 316 314 313
310 310 310 311 312 316 316 314 314 313 313 316 319 319 319 320 320 321 322 319 323 325 326 332 332 330 329 331 332 332 331 331 332 333 334 335 336 339 341 344 345 345 348 348 350 349 349 350 351 352 352 352 353 354 353 357 359 347 351 327 316 313 310
312 311 311 312 314 315 317 312 313 313 314 317 319 319 320 319 319 321 322 320 322 324 326 326 325 326 329 333 330 329 331 332 331 330 331 334 338 336 332 335 340 346 345 345 346 346 345 346 347 347 347 348 348 349 349 352 355 350 345 344 326 317 313
311 311 311 312 313 317 313 311 313 314 315 316 317 317 319 318 317 319 319 319 322 323 322 324 325 327 330 327 327 328 328 329 328 327 329 332 331 329 332 335 334 338 342 343 343 341 342 343 345 344 344 345 345 346 348 350 350 351 349 339 331 322 315
311 312 312 313 313 313 315 314 314 314 314 315 315 315 318 317 316 315 317 319 321 320 320 323 324 324 324 326 327 328 327 325 326 327 328 328 328 331 334 330 331 337 346 345 343 341 341 341 341 341 341 340 341 343 346 349 351 352 354 355 349 333 315
311 312 312 312 313 316 314 315 314 314 314 314 315 315 316 315 317 318 318 319 319 319 319 320 323 324 324 324 326 326 325 325 326 326 327 327 328 328 329 329 330 331 335 339 337 336 337 338 337 336 335 336 337 338 340 341 344 346 349 354 354 349 341
311 311 312 312 314 315 313 313 311 312 313 314 314 315 315 316 316 317 318 319 320 319 319 321 322 322 322 323 324 326 325 324 330 328 326 326 326 326 327 328 329 328 327 329 330 331 332 332 331 330 331 331 333 334 334 335 338 341 343 347 348 345 348
311 310 310 311 312 314 312 312 312 313 313 314 314 314 315 315 316 318 317 318 319 319 319 319 322 323 322 322 323 323 328 327 326 325 326 324 325 325 326 325 327 328 329 330 331 333 333 329 328 332 332 332 332 331 330 331 332 336 331 332 318 322 326
309 310 311 311 311 311 311 313 312 312 314 313 314 314 314 314 315 316 317 317 318 319 318 320 320 319 320 321 322 323 325 327 324 324 325 325 324 325 326 332 321 321 327 328 332 327 319 318 326 330 330 330 331 332 330 329 332 324 313 308 307 307 306
310 310 310 309 309 309 310 310 314 314 313 313 314 314 314 315 316 315 317 317 318 319 319 318 318 319 318 321 321 323 325 326 324 324 322 322 323 325 324 324 325 313 312 314 319 313 307 306 305 306 310 322 326 327 321 319 315 310 307 305 303 301 301
310 309 309 310 309 309 310 312 312 312 312 311 313 313 314 315 316 317 317 317 318 318 317 317 318 316 317 318 319 322 327 327 325 324 323 322 322 321 321 321 322 324 315 311 311 310 305 302 301 302 304 306 310 318 323 318 311 307 303 300 300 301 300

ECMWFFLT1_sfc_thetae_108.txt.gz
Theta_e
337 339 340 341 340 342 344 335 331 332 334 336 338 338 340 345 346 347 347 349 347 346 351 349 350 351 352 352 354 352 352 353 353 351 352 351 353 354 354 355 353 352 353 354 353 355 356 359 358 360 359 359 360 359 358 359 361 365 362 364 360 359 356
336 340 339 340 341 342 343 342 345 338 333 336 338 338 341 344 347 347 347 349 348 347 351 350 350 351 353 353 354 353 352 352 355 357 353 354 356 355 357 356 354 354 356 356 356 355 357 357 357 359 359 361 360 359 359 362 363 362 362 361 359 360 359
335 337 339 340 341 340 342 342 343 343 343 345 344 338 339 344 347 347 347 349 349 348 352 352 350 352 352 353 352 353 352 352 355 355 353 353 354 355 356 357 356 355 357 358 358 357 359 357 357 358 359 360 359 360 361 362 363 363 362 360 360 360 358
335 337 339 341 342 342 342 342 342 345 344 346 345 348 348 346 347 348 349 349 349 349 350 353 351 352 352 353 353 352 352 352 354 354 354 354 354 355 354 356 356 357 356 356 358 359 360 358 357 357 364 359 360 360 362 362 362 362 362 361 358 359 358
335 338 340 341 342 344 345 342 342 344 347 350 348 350 350 352 351 349 349 350 351 350 351 354 354 353 354 354 354 354 353 352 353 354 353 354 355 355 354 354 355 356 357 356 357 357 357 357 356 357 360 357 359 361 362 361 361 362 360 361 359 358 359
332 332 333 336 340 344 346 346 347 347 347 346 348 350 350 351 352 352 352 351 351 352 351 353 354 354 354 354 354 354 354 353 353 354 353 353 352 353 353 354 354 355 355 356 357 355 352 355 355 357 359 357 357 360 361 360 360 361 360 361 361 360 360
329 330 331 332 337 342 344 345 346 347 347 350 352 353 352 352 350 350 352 352 354 352 352 353 355 356 355 355 354 354 353 353 353 353 354 352 352 351 351 352 354 353 353 354 353 354 351 351 354 357 358 357 356 357 358 358 359 359 359 359 360 359 359
329 329 330 331 338 342 342 343 345 347 349 349 349 351 352 352 350 350 351 351 352 353 353 354 355 357 357 357 356 354 353 353 353 354 353 352 351 351 349 349 352 352 351 352 351 350 350 351 351 356 356 356 355 355 356 357 357 358 358 358 358 358 360
328 329 329 331 333 341 343 343 344 346 346 347 349 349 351 348 346 347 349 351 352 352 353 354 355 357 357 356 355 354 354 354 353 353 352 353 351 351 350 349 349 351 350 351 351 351 350 351 351 352 353 354 354 352 353 354 354 354 356 356 357 357 357
327 328 329 330 332 337 341 342 343 343 343 344 345 347 348 350 348 348 349 350 350 350 353 354 354 356 353 353 353 352 352 352 353 353 353 352 352 351 350 349 348 350 349 349 350 350 349 351 351 351 351 351 351 351 350 351 352 352 353 355 355 356 355
326 327 327 328 329 330 335 338 339 339 341 342 343 345 346 347 347 347 349 351 350 350 352 353 354 353 351 351 352 352 350 350 352 352 352 352 352 351 350 349 348 349 349 348 348 349 348 349 350 351 351 351 351 350 350 350 351 351 351 353 355 355 355
325 326 326 327 327 328 328 329 333 338 340 341 343 344 345 345 347 347 349 350 350 351 352 354 353 352 349 349 347 345 347 349 349 350 352 352 351 351 350 348 347 347 349 349 347 347 348 347 347 349 350 350 350 350 350 350 351 351 351 351 353 354 354
325 325 326 326 327 326 327 328 329 330 333 340 342 343 345 347 347 348 349 351 352 353 353 354 353 352 349 349 351 347 348 348 350 352 352 351 350 349 348 346 345 344 347 349 348 346 346 347 346 347 348 350 350 350 350 349 350 351 351 350 351 353 353
326 324 325 325 325 325 325 326 328 330 331 332 335 342 344 345 347 348 349 349 349 350 351 353 354 351 349 349 350 347 346 346 349 352 351 352 352 351 350 351 354 352 348 347 346 346 345 345 346 346 346 347 349 350 350 349 348 349 350 349 348 349 351
321 322 324 325 325 325 324 325 326 327 328 330 331 332 337 343 344 346 346 346 346 347 347 349 352 352 350 348 348 346 348 349 350 351 352 354 349 349 351 353 355 353 352 349 347 348 346 345 345 346 346 345 346 348 349 349 349 349 349 349 347 347 346
321 322 322 323 324 325 324 324 325 326 328 328 330 331 332 333 336 341 343 344 345 345 347 348 352 350 350 350 350 350 350 350 353 352 352 351 351 351 352 354 354 354 354 352 352 349 349 347 344 343 346 346 346 346 348 348 350 352 346 348 350 347 347
320 320 321 323 324 324 325 325 325 326 327 328 328 329 330 332 334 337 338 339 341 343 346 347 347 348 349 349 350 350 351 350 348 349 349 350 351 352 352 353 352 351 352 351 350 348 348 347 345 341 342 345 346 346 347 348 349 344 336 337 342 350 348
318 318 319 321 322 322 324 325 324 323 324 326 328 329 329 330 332 334 336 337 338 341 344 344 344 343 344 346 347 349 350 351 351 351 353 354 352 351 350 350 350 351 350 350 350 349 352 347 345 345 343 342 343 346 348 348 347 335 333 334 334 343 351
317 317 318 319 320 321 321 323 324 323 323 324 326 328 329 331 331 332 334 336 337 338 339 339 341 341 342 343 345 345 347 348 349 351 351 351 353 352 351 350 349 348 349 349 350 351 348 348 347 345 346 344 341 342 345 348 342 333 331 331 331 332 343
316 317 317 317 318 318 319 321 322 324 323 322 325 329 330 332 331 332 335 335 335 334 334 335 336 337 337 341 343 344 345 345 346 347 349 350 350 350 351 350 349 350 350 351 352 350 349 349 348 347 346 346 345 343 342 343 343 332 328 328 328 330 333
315 316 315 315 315 316 317 319 320 320 319 321 323 324 328 328 329 330 331 331 330 331 331 333 333 334 334 335 337 339 343 343 344 344 347 349 348 348 348 348 348 349 350 351 351 350 349 348 348 348 350 349 348 348 348 346 338 329 325 324 325 327 331
316 316 315 315 315 314 314 316 319 319 318 322 318 319 323 327 329 329 329 330 329 328 329 329 330 331 333 332 334 334 335 343 342 342 344 346 346 346 346 346 345 346 349 351 351 350 350 349 349 349 348 349 349 348 347 351 336 330 324 321 322 325 334
318 317 316 315 314 313 314 315 319 320 318 317 319 320 322 327 328 327 328 328 328 327 327 327 327 328 329 330 331 333 334 336 343 343 343 345 344 343 344 345 345 346 348 348 350 349 349 349 349 350 349 349 350 349 349 350 340 329 323 318 318 323 333
317 315 314 314 314 315 316 316 316 318 316 317 318 319 323 326 326 325 325 326 326 326 326 326 326 326 327 327 329 331 332 334 336 336 336 340 343 344 344 345 345 345 347 346 348 350 352 352 351 351 351 351 350 351 350 351 348 326 323 321 316 327 332
312 312 312 312 313 315 316 317 317 317 317 316 316 318 320 322 325 324 323 324 322 324 325 325 326 325 326 326 328 330 331 331 333 333 332 333 337 343 345 345 346 348 347 346 347 348 351 354 353 352 352 353 352 356 354 352 349 328 318 318 316 326 336
309 310 312 314 315 315 316 316 315 315 315 315 315 318 320 321 322 326 323 322 321 320 320 324 326 327 326 326 327 328 330 329 331 332 332 331 332 335 339 346 347 347 347 346 345 347 351 353 353 352 353 354 354 355 354 354 353 347 321 314 314 317 339
310 312 313 314 316 320 313 312 313 313 314 315 316 317 319 320 321 321 321 320 318 320 321 323 327 327 325 325 327 327 327 327 328 329 329 330 331 334 337 340 342 345 345 345 346 348 349 349 350 351 351 352 353 353 353 356 355 351 331 321 316 315 326
310 312 315 320 321 316 311 312 311 313 315 315 317 318 318 319 320 320 318 316 316 318 321 322 323 323 323 323 326 328 327 327 328 330 329 330 331 331 334 334 337 341 343 343 345 345 345 346 347 348 348 349 351 352 351 352 354 352 341 331 320 314 312
308 309 309 310 311 316 313 310 311 312 313 315 316 316 317 317 319 319 316 314 315 318 320 321 321 322 324 329 329 328 328 328 329 328 328 329 331 330 328 329 333 334 342 343 344 344 342 343 344 345 344 344 345 346 347 348 351 345 348 334 325 321 314
309 310 310 311 312 313 316 311 312 312 313 313 314 314 315 315 316 318 316 312 316 318 320 319 319 321 323 325 323 325 327 328 329 325 325 328 329 328 327 329 331 334 343 344 343 341 339 339 342 342 341 340 341 342 344 346 348 346 342 340 327 319 316
308 309 309 310 312 315 312 311 311 312 312 312 312 312 313 313 313 315 313 313 318 318 316 318 319 320 321 321 322 323 325 324 322 323 324 325 326 327 328 328 328 329 332 336 338 335 333 335 338 338 337 337 337 337 339 342 343 343 342 336 331 324 321
309 309 309 309 310 313 312 312 312 312 312 312 313 312 315 313 311 312 312 315 318 317 316 318 319 320 320 321 321 322 323 323 322 322 324 325 326 327 328 326 327 327 327 329 329 329 329 332 334 333 331 330 331 333 335 337 338 338 339 344 343 338 327
307 308 308 308 312 314 311 311 311 312 312 312 312 312 314 312 313 314 315 317 317 317 316 317 318 320 320 318 320 320 321 321 321 322 324 324 324 325 327 325 324 324 327 326 325 325 328 329 331 330 328 329 328 329 332 332 332 333 335 339 342 342 337
307 306 307 309 312 311 309 308 308 310 311 311 311 311 312 313 312 313 314 314 315 316 315 318 318 318 316 317 318 320 321 322 328 328 323 323 323 322 322 323 325 324 324 324 324 324 325 327 327 326 326 326 327 328 328 327 327 329 332 335 336 333 331
306 307 307 308 309 310 306 310 310 310 312 310 310 310 311 312 313 314 314 314 315 315 315 316 320 318 315 316 316 317 322 322 321 322 322 320 320 322 322 323 324 323 322 323 324 327 326 323 323 327 325 326 326 326 325 325 325 327 323 328 315 317 320
307 307 307 308 310 307 309 313 309 311 311 309 309 310 312 312 313 314 316 316 316 315 314 318 318 316 314 315 316 317 318 319 319 320 322 320 319 320 321 329 317 315 319 320 327 319 308 310 319 321 319 320 322 324 324 323 325 318 308 304 303 303 302
306 305 305 306 305 306 306 308 313 311 310 309 311 311 312 312 314 314 316 317 316 316 315 314 316 318 316 318 316 318 321 320 320 321 320 318 319 319 319 319 318 309 309 312 315 309 302 301 302 305 309 315 315 318 315 313 309 305 303 301 301 299 298
306 305 306 306 304 306 310 310 309 309 309 308 310 310 311 313 314 315 316 316 316 316 316 315 315 314 314 315 315 319 321 319 321 322 322 319 317 317 317 316 315 318 311 308 308 308 304 302 302 302 303 305 308 312 316 313 309 305 302 300 298 297 296

ECMWFFLT1_sfc_thetae_111.txt.gz
Theta_e
338 338 340 340 336 331 328 331 333 334 336 337 338 339 340 343 343 344 345 345 345 344 346 345 346 347 347 348 348 349 351 350 352 348 349 349 349 349 350 350 350 350 350 350 352 353 355 358 358 359 358 358 358 358 356 356 357 361 359 361 358 357 353
337 338 340 344 341 340 339 336 333 334 335 337 338 339 340 342 344 343 344 345 345 345 347 345 347 347 348 347 349 348 349 350 352 354 351 351 353 351 351 352 351 350 350 351 352 353 355 356 358 358 358 358 358 358 357 357 357 358 360 359 356 354 354
336 338 339 341 341 338 338 339 339 336 334 335 337 339 340 342 344 344 344 346 345 345 347 346 348 348 348 348 348 349 349 349 351 352 350 350 350 352 353 353 352 351 351 352 353 354 356 355 356 357 357 357 357 357 357 357 358 360 359 358 358 357 354
337 337 340 342 344 343 339 340 342 342 339 336 336 338 339 342 345 345 345 346 345 345 347 346 347 348 349 349 349 349 349 349 351 352 352 350 351 352 353 353 353 352 352 353 355 355 357 356 355 355 361 356 356 357 357 358 359 360 360 358 356 357 356
338 339 340 341 342 341 340 340 341 342 343 345 344 343 339 342 345 345 345 346 346 345 348 348 348 349 350 351 350 351 351 350 350 352 352 351 352 352 352 354 353 353 353 354 355 356 355 354 354 354 355 356 356 356 357 358 358 359 358 357 356 355 355
335 336 338 341 341 342 343 343 345 345 343 345 347 346 346 343 345 345 345 348 347 347 348 349 348 350 349 351 351 351 351 351 350 352 352 351 351 352 352 353 354 354 353 353 356 355 355 355 354 354 354 356 356 357 357 357 358 359 357 357 357 356 356
330 332 335 341 343 344 345 345 348 347 347 349 351 351 350 348 345 345 346 347 349 347 348 350 350 349 349 350 351 352 351 351 350 351 352 351 351 352 352 352 354 354 355 354 354 355 353 353 354 354 354 355 355 356 357 356 357 357 357 356 356 355 354
330 332 337 341 343 344 345 346 347 348 348 348 349 349 348 349 349 348 347 348 349 349 349 350 351 351 351 351 351 351 351 352 352 351 352 351 350 351 351 351 352 353 353 353 354 354 353 351 353 354 355 355 354 354 356 357 356 357 356 355 354 355 358
332 334 338 340 341 342 344 345 346 347 347 346 348 347 347 345 346 348 349 350 351 350 349 352 353 353 352 352 351 351 352 352 352 351 351 351 350 350 350 351 351 352 351 351 352 353 353 351 351 353 354 355 354 353 354 355 356 356 356 355 355 355 356
330 332 335 338 342 342 343 343 344 344 343 343 344 345 346 345 345 347 349 349 349 351 353 353 353 355 354 353 351 350 350 351 352 352 351 351 351 350 350 350 349 351 351 351 351 351 351 351 350 350 352 353 354 353 353 353 354 354 355 355 355 354 354
329 330 331 334 336 339 340 339 339 339 339 341 342 343 344 345 346 347 347 349 350 351 352 352 352 350 348 348 347 347 347 348 350 351 351 351 351 351 351 350 349 348 349 350 349 350 350 349 349 348 349 351 352 352 351 351 352 352 352 353 354 354 355
327 328 328 328 329 332 332 335 339 340 340 341 342 343 344 345 345 344 346 347 350 350 351 351 352 349 347 346 347 347 347 347 348 350 351 351 352 352 352 351 350 348 348 349 348 348 349 348 348 349 348 349 350 351 351 350 350 351 351 351 352 352 353
325 325 327 327 328 330 332 332 334 338 340 340 342 342 343 344 344 345 348 348 348 347 349 349 349 350 348 347 346 345 346 346 347 347 349 350 351 352 352 351 350 349 348 349 349 348 347 348 347 349 349 349 349 349 350 350 349 349 349 349 349 350 351
326 325 325 326 327 328 328 329 331 333 338 340 342 343 344 346 346 347 347 347 349 350 351 350 349 349 348 348 347 344 345 346 347 349 349 348 348 350 350 351 349 348 348 348 347 347 347 347 347 347 348 349 349 350 350 349 349 348 348 349 349 349 349
322 322 323 324 324 326 327 327 329 330 332 333 335 337 341 344 345 345 344 345 345 346 346 348 350 349 347 346 346 346 346 347 347 348 349 349 349 348 348 351 349 349 346 346 346 348 347 347 346 346 346 347 348 349 350 349 349 349 348 348 348 348 347
321 322 322 323 323 324 325 326 327 328 330 331 332 334 336 338 340 341 342 342 343 344 345 349 349 349 347 346 345 346 347 347 348 348 347 347 348 348 348 348 349 352 349 347 345 345 346 345 345 345 345 344 344 346 348 349 349 352 345 347 350 347 348
321 321 322 323 324 324 325 325 326 327 328 329 330 331 333 335 336 337 338 339 340 341 343 345 345 347 347 347 347 348 348 348 348 347 346 347 347 347 348 348 348 348 350 350 348 346 346 346 343 343 343 344 344 343 344 346 348 344 336 335 339 349 347
319 320 321 322 322 322 323 323 324 325 327 328 330 332 332 333 333 334 334 337 338 340 341 341 341 341 341 343 345 345 347 350 350 350 349 349 350 348 348 350 349 348 347 346 349 348 350 346 344 342 341 342 343 344 344 345 345 335 333 333 333 341 349
318 319 320 321 322 321 321 321 322 324 327 329 330 331 332 333 332 332 332 333 336 337 337 337 338 338 338 339 341 343 344 345 346 347 347 347 347 349 348 348 346 346 346 347 346 351 348 346 346 344 343 342 339 341 344 345 340 333 331 331 331 331 340
317 318 319 320 320 319 318 318 318 321 324 327 329 331 331 332 330 330 332 332 332 332 332 333 333 333 334 336 338 341 343 343 344 344 345 347 347 347 347 347 345 346 348 349 349 348 348 348 346 345 343 344 343 342 341 342 343 331 328 328 328 328 332
316 317 316 316 316 317 316 315 315 317 320 323 328 328 329 328 328 327 328 328 328 329 328 328 329 329 330 332 334 336 339 343 342 342 344 345 346 346 346 346 344 344 346 348 348 346 346 346 345 346 348 348 348 346 346 347 339 331 325 323 323 325 329
315 315 314 314 314 315 315 315 315 316 318 325 324 326 327 326 328 327 326 327 326 326 326 326 326 327 329 329 332 333 334 337 340 338 340 343 344 344 345 345 345 345 347 347 347 348 348 348 347 346 347 347 347 347 346 348 337 333 328 322 320 324 332
314 312 312 312 314 314 315 316 317 320 321 320 322 324 324 325 326 327 327 326 326 325 325 325 325 325 327 328 329 331 331 333 334 334 334 336 339 341 342 343 344 345 347 345 345 346 348 349 349 350 349 349 348 346 346 348 342 332 327 324 320 323 332
312 312 313 313 314 314 314 315 317 319 318 318 318 319 322 323 324 323 322 321 321 321 322 324 324 325 326 325 328 328 328 329 330 330 331 330 331 334 338 342 345 344 347 344 342 343 346 349 350 349 350 350 349 350 349 349 347 334 325 323 320 327 334
311 312 313 314 314 314 314 315 317 317 317 316 316 317 320 321 321 320 319 319 318 318 318 319 322 323 323 324 325 327 327 327 329 328 328 327 328 331 333 335 340 345 346 344 343 343 346 351 350 351 352 353 353 356 354 352 349 334 326 318 317 325 334
311 312 312 313 314 314 316 317 315 314 314 314 315 318 319 319 320 322 318 317 317 316 317 318 319 321 321 322 324 326 328 326 328 328 327 326 327 329 332 336 336 337 342 343 343 345 346 348 348 348 348 350 350 351 352 353 352 346 323 319 317 317 332
312 312 312 313 315 319 313 313 314 313 313 313 315 317 319 319 316 316 317 315 314 316 316 317 319 320 321 324 325 325 326 325 324 326 325 326 327 329 331 330 332 336 339 341 343 343 342 343 344 343 342 342 343 343 346 349 349 347 324 321 320 318 323
313 314 315 317 318 315 312 312 312 312 312 313 315 317 317 317 317 315 313 312 313 314 316 317 317 318 320 322 321 323 324 325 327 326 326 327 328 325 326 328 331 337 342 343 341 338 338 339 341 340 338 338 340 342 343 346 345 344 332 321 315 316 316
308 308 309 310 312 315 313 310 310 311 311 312 313 314 314 316 316 315 312 310 312 315 316 318 317 318 319 321 321 322 323 324 325 324 325 327 327 323 325 325 327 329 334 335 334 331 331 334 336 336 334 334 336 338 340 341 343 336 338 326 315 311 316
307 308 309 310 312 312 315 310 310 310 310 311 312 312 312 313 314 315 313 309 312 315 317 315 316 317 319 321 319 320 321 323 324 322 321 324 325 326 324 324 325 326 328 328 329 327 327 329 332 331 330 330 331 333 336 337 337 337 333 332 321 315 312
307 308 309 310 311 314 312 310 309 309 310 310 311 311 311 310 312 313 312 311 315 317 314 315 317 318 318 317 317 318 319 320 320 321 320 321 323 324 325 323 323 323 324 325 324 324 324 325 328 328 328 328 327 328 330 333 333 332 333 331 327 322 317
307 308 309 310 310 311 310 309 309 309 309 309 310 311 312 309 310 311 310 312 314 314 313 316 317 316 317 316 317 316 317 318 319 322 323 323 322 325 324 322 323 324 323 321 321 322 323 325 326 326 325 324 324 325 326 329 329 328 330 335 334 328 321
306 307 308 308 311 312 308 309 308 310 310 309 308 309 311 309 311 311 311 313 313 313 313 314 317 317 316 313 314 315 316 317 320 321 321 321 321 321 324 323 320 320 322 320 318 320 323 323 324 323 321 320 319 320 322 322 324 325 326 327 325 324 324
305 306 307 308 309 308 306 305 306 308 309 308 307 308 310 311 311 312 312 314 314 312 311 315 316 315 312 313 313 315 317 317 324 323 318 319 321 319 318 319 321 319 318 317 318 319 319 319 320 320 318 316 317 317 318 319 320 322 322 321 319 317 317
306 306 306 306 307 309 305 308 309 308 309 307 307 308 310 311 312 313 313 314 314 313 313 316 317 316 313 313 312 313 320 320 317 317 318 318 319 319 317 318 319 319 316 316 320 321 318 316 316 318 315 315 315 316 316 318 318 321 315 314 306 306 308
305 304 304 306 307 307 310 310 308 308 309 306 306 309 312 311 312 312 314 313 313 314 315 316 316 314 313 314 314 315 316 318 317 316 318 317 317 319 320 329 313 314 316 317 322 314 311 311 315 317 315 313 315 317 316 316 319 311 301 298 297 296 296
304 304 304 304 304 305 307 308 310 310 309 306 310 311 312 312 311 311 312 312 312 312 312 312 315 313 312 315 314 318 321 318 317 317 316 317 315 317 317 317 318 308 307 312 316 311 304 302 303 304 307 315 313 317 314 311 305 299 297 297 296 296 296
305 304 305 305 305 308 309 308 308 308 309 307 309 309 309 310 310 310 311 311 310 310 310 310 311 310 310 312 315 320 321 316 317 319 319 317 314 315 318 315 313 316 309 305 306 305 302 302 302 301 301 303 307 313 315 311 301 298 298 298 298 298 298

ECMWFFLT1_sfc_thetae_114.txt.gz
Theta_e
337 337 335 327 326 328 330 332 333 334 336 337 338 338 340 342 343 344 344 344 345 344 345 346 345 346 347 348 349 350 351 350 351 350 350 351 352 352 352 352 353 353 353 353 354 355 357 359 360 360 361 361 360 361 360 361 362 362 362 364 363 363 359
335 336 338 333 326 327 329 332 333 335 336 337 338 338 340 342 343 343 344 344 345 345 345 345 346 346 346 348 349 350 351 350 352 354 352 352 354 353 353 353 353 353 353 354 355 356 358 358 360 360 360 361 361 361 361 361 361 362 363 363 364 362 361
336 337 338 338 329 327 329 331 332 334 335 337 338 338 339 342 343 343 344 344 344 344 346 346 347 346 347 347 348 349 351 351 352 353 350 351 352 352 353 354 354 354 354 354 355 355 358 358 359 360 360 360 360 361 361 361 361 361 362 363 364 363 361
336 336 338 341 340 336 332 332 333 334 336 337 338 338 339 342 343 344 345 345 344 344 344 345 346 346 347 347 348 348 349 351 352 353 352 352 352 353 353 354 354 354 353 353 355 356 357 358 358 359 363 360 360 360 360 361 361 361 362 363 363 362 362
337 338 339 340 339 338 336 333 333 334 335 337 339 341 340 341 344 344 345 346 345 344 345 346 347 347 348 348 348 349 349 350 351 353 353 352 353 354 353 353 354 354 354 354 356 358 358 358 357 358 359 360 359 359 360 360 360 362 362 363 362 362 362
336 337 338 340 340 340 340 339 335 335 335 336 338 339 340 341 344 344 344 347 346 347 347 347 347 349 348 348 349 349 350 350 351 353 353 353 353 353 353 354 355 355 353 354 357 357 357 357 357 357 357 357 358 358 359 360 360 361 362 362 362 362 361
336 337 338 340 341 340 342 344 345 343 341 340 341 341 341 341 343 344 345 345 347 345 346 347 347 348 348 349 349 350 349 350 350 350 353 353 353 353 353 354 356 355 356 356 356 357 357 356 357 357 357 357 358 358 359 360 360 361 361 361 361 361 361
334 336 340 342 344 344 344 344 345 347 348 347 345 345 341 341 343 345 345 346 348 347 347 348 348 348 349 350 350 349 350 350 351 351 352 353 352 353 353 353 355 356 357 355 356 357 356 357 357 358 357 357 357 358 359 360 360 360 360 360 360 359 359
336 339 341 342 342 342 344 345 345 345 346 346 346 346 345 344 344 345 347 349 350 348 348 350 351 350 351 350 350 350 351 351 351 351 351 352 352 352 352 353 354 356 356 356 356 357 357 356 356 357 357 357 358 358 358 359 359 360 360 360 359 359 359
334 336 339 340 341 342 344 345 346 344 344 344 344 344 345 346 347 348 348 348 350 349 350 351 353 353 352 351 351 351 351 351 352 351 351 351 352 351 352 353 353 355 354 354 355 355 357 357 356 355 355 356 357 357 357 358 358 359 359 359 359 359 359
333 335 337 338 339 340 342 342 342 342 343 343 343 344 345 346 347 347 347 347 349 351 353 353 354 354 353 352 352 352 351 351 352 351 351 351 351 352 352 352 352 353 353 353 353 354 354 355 355 354 354 354 355 357 357 357 357 358 358 358 359 359 359
331 332 332 335 338 339 339 340 340 341 341 342 343 343 344 344 345 347 348 349 350 352 353 354 354 354 353 353 352 351 351 351 351 351 351 352 352 352 352 352 352 351 352 353 352 353 352 353 353 353 352 353 355 356 357 357 357 357 357 357 358 358 358
329 329 330 330 330 332 335 337 338 339 340 341 342 343 344 344 344 346 347 348 349 350 351 351 352 351 352 352 352 351 351 351 351 352 352 353 353 353 353 352 352 351 350 352 352 351 351 351 352 353 353 353 353 354 355 356 355 356 356 356 356 356 357
329 328 329 330 330 332 333 335 337 338 340 341 340 342 343 344 346 346 346 346 348 349 351 350 349 349 349 349 349 348 350 350 351 352 352 351 350 350 350 351 352 353 353 352 351 350 350 350 350 351 352 352 352 353 354 354 354 354 355 355 355 354 354
324 325 326 327 328 330 331 332 332 334 337 340 341 341 342 344 344 344 345 345 345 347 347 349 348 346 346 346 346 347 347 348 349 350 349 347 346 347 348 350 350 352 351 351 351 350 351 351 350 350 350 351 351 352 353 352 352 353 353 353 353 353 352
324 324 324 325 327 328 330 331 332 333 334 336 339 340 341 342 341 341 340 340 342 343 346 347 346 346 345 344 344 345 348 347 348 347 347 346 345 345 347 349 350 349 351 351 350 349 351 352 351 350 349 349 350 350 350 351 352 353 346 347 353 353 352
323 324 324 325 326 327 328 330 331 332 332 333 335 336 336 337 338 338 338 339 340 340 343 344 343 343 343 343 345 345 346 347 347 347 346 345 345 345 346 347 350 350 350 349 349 349 350 350 348 347 347 347 348 348 347 349 350 344 336 335 339 351 353
323 324 324 324 325 326 328 328 329 330 331 332 333 334 334 334 334 334 335 337 338 340 340 339 339 339 340 342 343 344 346 348 347 347 347 346 347 347 347 347 346 347 351 349 347 348 348 349 349 349 348 347 346 346 347 348 346 334 333 334 333 340 352
321 323 324 325 325 326 327 329 329 329 329 330 330 331 332 332 331 331 332 333 335 336 336 337 337 338 338 339 341 342 344 345 346 347 347 347 347 347 347 348 347 347 348 349 350 349 348 348 348 348 348 348 348 347 346 346 341 332 329 330 330 330 341
321 322 323 322 322 323 325 327 327 327 328 328 329 330 330 331 329 329 330 330 331 331 332 331 333 334 334 335 337 340 341 342 343 344 345 346 346 346 346 346 346 347 349 349 349 347 347 347 347 346 347 348 348 348 349 349 344 332 329 326 326 327 332
319 319 318 318 319 322 322 323 325 325 326 328 328 327 327 327 328 327 327 327 327 328 328 328 329 329 331 332 334 335 336 335 335 338 341 344 345 345 346 345 345 346 347 348 348 347 346 347 347 347 348 347 346 346 346 348 337 331 328 324 321 322 329
317 317 316 318 318 320 321 322 323 324 325 329 327 327 328 327 328 327 326 327 327 327 327 327 327 328 329 329 330 331 332 333 333 333 334 337 339 340 342 344 345 345 347 347 346 348 349 348 349 348 348 348 348 347 346 349 333 331 329 325 324 323 334
317 315 316 317 318 318 320 322 322 323 324 323 324 324 325 325 324 323 322 321 322 322 323 324 324 326 327 329 329 329 329 330 330 331 331 333 334 335 337 339 342 345 348 345 345 346 347 347 348 349 348 349 350 349 348 349 339 325 321 319 319 328 338
314 315 316 316 317 318 319 320 320 322 321 321 321 322 322 322 321 320 319 319 319 319 320 321 321 324 326 326 328 329 330 330 329 328 330 330 331 333 335 338 341 344 348 345 344 345 347 349 349 351 351 351 350 348 348 350 333 320 319 318 317 326 338
314 314 315 316 317 316 316 317 318 319 320 320 319 320 321 320 319 318 318 318 317 318 317 318 320 321 323 325 327 328 328 329 329 328 328 329 330 332 334 336 338 342 346 346 345 345 346 346 342 342 343 346 346 347 348 346 336 320 318 317 316 328 340
312 313 314 316 316 317 318 320 318 316 317 317 318 319 318 319 319 320 316 316 317 316 317 318 319 321 323 324 325 326 328 328 329 329 329 329 329 330 332 338 342 343 344 344 344 343 344 344 341 338 340 343 345 346 346 342 338 332 317 314 317 322 341
313 314 313 314 316 319 314 314 314 314 315 316 317 318 317 316 315 316 317 316 315 316 317 318 320 321 322 323 324 324 325 327 327 327 328 330 329 330 331 333 336 339 338 337 337 338 339 341 341 338 337 339 340 342 344 342 339 336 318 314 314 320 332
312 313 315 318 318 315 312 312 312 312 313 314 316 317 316 316 316 315 314 314 314 316 317 318 319 321 322 322 322 324 323 325 327 327 329 331 329 327 327 329 332 333 334 334 334 333 333 335 336 334 334 335 337 338 338 341 339 341 326 314 312 314 322
311 312 312 312 312 315 313 310 310 311 311 312 313 314 316 317 316 314 313 312 313 315 318 319 319 320 321 321 321 323 323 324 324 325 327 331 330 327 326 327 328 329 330 330 330 330 330 331 332 331 331 330 333 335 335 336 337 333 337 320 310 311 313
311 311 311 312 312 312 313 310 310 310 311 312 313 312 314 316 316 316 314 312 315 317 319 317 318 319 320 321 320 320 322 323 324 325 325 329 330 329 326 326 327 327 327 327 328 328 328 329 329 328 326 326 326 328 331 333 333 333 331 329 316 313 310
310 310 311 311 312 314 311 310 309 310 310 311 312 312 313 314 315 316 313 313 317 316 316 318 320 320 318 317 318 319 319 321 322 324 325 326 328 329 328 327 327 324 325 326 325 326 325 327 328 325 325 323 322 323 325 329 329 328 329 327 322 315 311
309 311 311 311 311 312 310 310 310 310 310 310 311 312 314 313 314 314 313 315 316 315 315 319 320 321 318 317 318 317 319 319 322 323 322 324 325 329 327 326 328 326 324 324 325 325 325 327 326 323 323 321 320 321 323 325 325 326 326 327 325 322 315
309 310 310 309 311 312 309 310 309 310 311 310 310 312 313 313 314 314 315 315 315 315 316 321 321 320 318 315 316 317 319 319 323 322 320 322 322 324 327 327 323 325 325 325 324 324 325 323 323 322 321 320 319 320 322 322 324 324 323 322 320 320 319
308 309 310 310 311 310 309 309 309 310 311 310 310 312 313 313 313 313 314 315 315 315 318 320 320 316 315 315 316 318 321 320 324 322 319 320 322 322 322 323 323 322 323 324 323 322 322 322 322 320 319 318 319 319 321 321 322 321 316 316 316 316 317
309 309 309 308 309 310 308 309 310 310 311 310 310 312 312 312 313 313 313 314 315 316 318 318 317 316 315 316 317 318 322 322 320 320 320 320 321 321 322 322 321 321 321 322 325 324 321 320 321 321 319 319 319 319 319 321 320 319 309 311 305 309 315
308 308 307 308 309 309 311 312 310 311 311 309 310 312 312 311 312 312 313 313 314 315 316 317 315 314 314 317 317 320 321 321 319 318 320 319 320 321 323 324 313 318 323 324 323 312 304 308 318 319 319 319 320 321 320 319 319 306 298 298 297 298 299
307 307 306 307 307 308 309 309 312 312 311 310 312 312 312 311 311 311 311 312 312 313 313 314 314 313 313 316 317 320 321 319 319 320 319 319 319 319 322 322 319 305 306 312 316 310 304 295 297 302 307 319 320 320 310 306 301 297 297 297 298 297 296
307 307 307 308 308 308 309 310 311 311 311 310 312 311 311 311 310 310 311 311 311 311 311 312 312 311 313 315 316 317 319 317 317 318 318 317 318 319 321 319 318 319 310 305 306 306 302 302 302 300 302 305 309 317 319 309 301 296 296 296 295 296 295

ECMWFFLT1_sfc_thetae_117.txt.gz
Theta_e
339 336 336 337 335 336 338 340 342 343 345 346 347 348 349 350 353 354 354 355 356 357 357 358 359 360 359 360 361 362 362 363 363 361 361 361 362 364 363 363 363 365 362 361 362 363 364 367 367 367 368 368 367 368 369 370 369 368 369 370 369 369 368
338 336 334 335 335 337 338 341 343 343 344 345 347 349 349 350 352 352 354 356 356 357 357 357 358 359 359 360 360 362 362 362 363 364 362 364 365 365 365 366 365 366 367 365 365 367 367 366 367 368 367 368 367 369 367 368 369 369 368 369 368 368 369
339 338 335 334 335 336 339 341 342 343 344 345 346 347 348 351 352 353 354 354 356 357 357 356 357 357 359 360 360 361 361 361 362 361 360 358 360 359 364 366 365 364 364 366 368 366 366 366 369 369 368 367 365 368 368 368 368 367 368 369 368 366 369
340 339 338 336 337 339 340 341 343 343 344 345 345 346 348 352 352 354 355 354 355 356 356 356 356 355 357 358 358 360 361 362 362 359 358 359 360 361 363 364 365 365 364 364 363 365 362 367 367 369 369 368 367 367 367 367 367 368 368 370 367 367 368
342 343 342 338 335 337 338 340 342 343 344 346 348 349 349 351 351 352 354 354 353 354 354 355 354 356 357 358 356 357 359 360 362 361 361 361 363 363 361 359 361 362 363 363 366 366 367 367 365 367 368 370 368 368 368 369 368 370 370 370 368 366 365
340 342 344 341 340 338 339 339 340 343 343 346 347 347 348 348 350 351 353 354 354 355 356 356 355 356 356 356 356 355 359 362 364 365 363 363 363 360 360 361 361 362 361 363 364 364 365 365 365 365 363 363 363 363 364 366 366 367 369 370 368 366 363
341 343 344 345 343 340 340 341 341 341 345 346 349 349 347 347 350 350 351 353 354 353 353 354 354 356 356 356 356 357 357 357 361 361 362 362 362 362 363 363 364 362 362 365 364 364 363 364 365 366 365 363 364 363 366 369 367 368 370 370 369 369 369
338 340 344 345 345 343 343 345 344 345 345 345 347 347 346 346 348 351 352 353 355 355 354 355 354 356 358 358 356 355 356 356 358 360 361 360 361 361 362 362 363 365 365 362 364 365 363 364 363 365 365 364 365 367 366 369 371 367 368 368 368 368 364
339 339 342 344 345 345 346 347 347 347 346 346 346 347 349 350 350 352 354 355 355 355 356 357 357 355 359 358 358 357 356 357 357 358 358 356 357 356 356 359 361 364 363 361 361 365 364 364 363 366 367 365 366 368 367 370 368 368 368 368 368 367 364
339 339 341 346 348 348 348 347 349 349 349 349 349 349 349 350 352 354 355 355 356 355 357 357 358 358 359 358 358 357 357 358 357 355 355 354 355 355 356 355 359 362 361 361 361 361 366 365 365 367 368 366 367 368 368 368 367 367 368 369 368 368 368
340 342 342 343 343 344 345 346 347 349 350 351 350 351 352 352 353 354 355 356 356 356 358 357 359 358 357 358 358 359 358 356 356 356 356 355 355 355 356 356 356 360 360 360 359 361 363 366 367 367 367 363 365 366 368 367 368 368 366 366 368 368 365
338 340 340 341 342 342 344 345 347 348 349 350 351 351 353 353 353 354 356 356 357 358 359 359 362 361 361 361 359 360 360 360 358 356 357 356 356 356 356 356 357 357 359 359 359 361 360 362 363 363 366 365 365 365 367 368 368 369 368 365 365 367 366
335 336 339 340 340 342 342 344 345 346 346 348 350 351 351 353 355 355 355 356 358 360 359 362 361 361 360 360 360 360 361 360 358 358 357 358 357 358 358 358 357 357 356 359 359 359 358 358 360 363 363 364 364 362 365 366 366 368 369 367 366 366 367
332 333 336 338 339 340 341 342 344 345 346 347 348 349 349 350 350 351 352 352 353 355 355 354 357 355 357 357 357 357 357 358 359 361 361 360 361 360 359 359 359 359 359 359 359 357 357 356 355 359 360 361 361 363 364 365 365 366 368 367 365 364 364
331 332 333 333 335 339 340 341 342 343 345 346 346 346 348 348 349 350 351 351 351 352 352 352 354 352 350 352 354 357 358 358 358 361 362 360 360 359 359 359 359 360 360 360 359 357 358 358 357 357 358 359 361 362 362 360 361 362 364 364 364 363 361
331 331 330 331 332 334 337 339 341 343 343 343 343 345 346 346 345 345 345 346 347 348 348 350 351 350 348 347 349 351 352 354 355 355 356 356 355 356 358 358 359 357 358 359 359 359 360 360 359 358 357 358 360 361 359 359 359 363 355 356 361 363 360
329 329 329 331 332 333 335 336 338 340 340 341 342 343 341 340 341 343 343 344 345 346 348 351 350 347 346 346 348 350 350 349 349 352 353 353 352 353 354 355 357 358 357 357 358 359 361 359 357 357 356 355 356 356 356 356 357 355 340 338 341 355 358
327 327 328 330 332 332 333 334 333 334 335 336 337 338 338 339 341 340 339 339 341 343 346 348 347 346 345 346 348 349 349 350 348 348 348 349 349 350 352 354 355 356 356 355 356 358 357 356 358 359 357 356 356 354 354 355 347 334 335 336 334 343 355
327 327 328 330 331 331 331 331 331 332 332 333 333 335 337 337 335 334 335 335 338 340 341 342 342 342 342 344 346 349 351 349 349 349 349 349 350 350 351 351 352 351 352 355 356 356 356 357 356 357 357 358 358 357 356 356 338 331 332 332 331 331 344
326 326 328 329 330 329 329 330 330 331 330 330 332 333 334 335 334 333 333 335 336 336 336 336 337 337 338 340 343 345 346 348 349 349 350 351 350 350 350 352 351 352 355 355 355 355 354 353 355 356 357 357 357 358 356 357 338 329 328 329 329 329 337
325 325 325 326 327 327 327 327 328 329 329 330 331 332 332 330 332 331 333 333 332 333 333 334 333 333 335 337 338 341 342 343 344 345 347 348 348 347 347 348 349 350 351 353 353 354 354 355 354 355 354 354 354 355 354 347 324 323 321 322 326 326 338
326 326 325 326 326 327 327 327 328 328 329 331 330 330 329 328 329 328 328 330 331 332 332 332 332 332 333 333 334 336 338 340 341 340 341 344 346 347 346 346 347 346 349 350 352 353 354 355 354 354 354 356 356 356 352 340 322 321 320 319 323 328 353
326 325 326 328 329 328 329 328 329 329 329 327 327 326 325 326 327 326 327 328 329 331 331 332 332 331 332 333 334 336 337 338 338 340 341 342 343 342 343 345 346 348 350 348 350 351 351 351 352 353 354 354 354 350 343 342 327 319 317 318 321 338 356
327 326 325 326 327 326 327 327 328 329 328 327 326 326 326 326 326 326 326 327 328 328 329 330 330 331 332 331 333 334 335 337 338 338 340 341 342 343 343 345 348 349 350 348 344 342 343 344 345 346 347 348 348 348 344 342 331 316 315 318 321 343 353
325 326 326 326 326 325 326 326 326 326 326 325 323 325 327 327 326 324 325 326 327 327 328 329 330 331 331 331 333 334 335 336 337 338 340 340 341 344 345 345 346 347 348 347 344 341 342 343 342 344 346 346 344 342 342 340 336 317 315 316 319 338 352
324 324 324 324 326 327 327 328 326 323 322 321 322 325 326 325 324 324 322 323 325 326 327 328 330 332 333 333 333 334 335 336 337 337 338 340 339 341 342 344 343 343 344 343 343 343 342 343 342 341 344 345 345 341 340 340 340 331 313 313 316 322 342
324 324 324 324 323 325 323 323 322 321 320 322 323 322 324 324 322 322 322 322 322 322 324 328 330 331 332 333 332 333 334 335 336 335 335 337 336 338 338 339 339 340 340 340 341 340 339 339 339 337 338 338 339 340 341 340 339 334 314 313 313 316 329
322 322 323 324 324 323 321 320 320 320 320 322 322 323 324 324 323 323 322 321 320 322 325 328 329 330 331 331 332 332 333 334 335 334 333 336 335 334 334 337 339 338 338 338 338 339 339 338 335 331 330 333 335 336 337 339 337 339 321 314 312 311 316
322 321 320 321 321 321 320 319 318 318 319 320 321 322 322 323 323 322 322 320 322 323 325 326 327 328 328 329 330 332 333 335 335 335 334 332 333 332 332 333 334 337 340 339 337 336 335 335 334 331 330 331 334 335 336 336 337 331 333 318 310 309 310
321 320 320 320 319 319 320 318 318 317 318 319 322 323 324 324 322 322 321 321 324 325 325 325 325 327 326 327 328 329 330 332 334 335 336 335 334 332 331 331 333 335 336 337 335 333 332 331 331 329 327 328 330 334 336 336 335 334 329 327 314 309 307
319 319 318 318 317 319 319 317 317 317 318 319 322 323 324 324 321 321 321 323 326 326 324 324 324 323 323 324 325 327 328 330 331 332 333 334 333 330 329 329 330 330 334 334 333 332 330 329 329 329 329 329 329 331 333 335 336 336 333 328 324 315 311
318 318 318 318 318 319 318 318 317 317 317 319 320 321 323 323 323 321 321 324 325 326 325 324 324 323 323 322 323 324 326 326 326 329 331 332 332 331 329 329 328 329 331 331 330 330 329 328 327 326 327 327 329 330 331 333 334 333 333 333 331 327 318
317 317 317 317 319 319 318 317 317 317 317 318 320 319 319 321 321 323 325 325 323 324 325 324 324 323 323 322 321 323 325 325 325 325 328 330 329 329 328 328 328 329 329 329 327 328 327 325 325 325 324 326 327 329 330 330 329 329 330 332 332 332 334
317 317 318 319 319 320 319 318 318 318 318 318 320 321 321 321 322 324 324 323 323 324 325 324 323 322 321 321 322 322 323 323 324 325 325 328 328 325 325 326 327 327 326 326 326 325 325 325 324 323 324 324 327 328 328 327 326 326 327 327 327 329 332
318 318 318 318 319 320 318 319 318 319 318 318 320 320 320 320 321 322 323 324 325 325 324 323 324 323 321 321 322 322 324 323 323 324 325 328 329 329 330 326 325 327 327 330 330 329 325 325 324 325 325 326 327 327 325 326 325 324 310 315 306 313 323
317 318 317 318 319 319 320 320 319 318 318 318 320 320 320 320 321 322 321 323 324 324 323 323 323 322 321 322 322 322 323 323 323 326 326 326 326 327 327 321 307 316 328 325 322 305 300 308 325 325 328 327 326 328 325 324 324 305 299 298 297 297 297
317 317 316 316 316 317 318 319 319 319 318 318 320 320 319 319 319 320 321 322 323 323 323 322 321 320 320 320 320 322 323 324 324 326 328 328 327 327 325 323 323 302 301 314 316 305 294 292 294 298 306 326 326 323 307 307 302 298 296 295 296 295 295
318 318 317 316 315 317 318 318 319 318 318 319 320 319 319 318 318 319 319 321 321 322 322 321 320 319 318 319 320 321 323 323 324 324 324 325 326 326 325 323 323 324 306 301 305 301 296 296 297 298 300 301 307 320 326 311 301 296 295 295 294 295 295

ECMWFFLT1_sfc_thetae_120.txt.gz
Theta_e
337 338 340 339 337 338 339 341 344 344 346 349 352 351 351 352 355 357 357 360 360 359 361 361 361 361 360 361 362 362 363 364 366 363 362 363 363 364 364 363 364 365 363 360 362 363 367 369 369 370 371 370 369 369 370 369 368 366 369 371 368 368 367
336 338 339 340 339 339 341 343 346 345 347 349 351 353 352 353 357 357 358 361 361 360 361 360 362 361 361 361 361 363 363 363 365 364 363 363 366 367 366 367 366 367 366 365 365 366 367 368 370 369 369 369 367 370 367 369 369 369 369 370 369 370 370
338 339 340 342 340 340 342 343 345 346 348 348 348 350 351 355 358 360 360 360 361 360 362 361 362 361 362 361 361 362 362 361 362 361 362 360 362 360 365 368 366 364 363 365 368 365 364 368 370 371 370 367 366 369 369 370 369 369 371 372 368 367 373
340 339 341 344 345 345 345 345 346 347 348 347 348 349 353 358 359 361 361 359 360 359 360 359 360 359 360 361 360 361 361 362 362 360 359 360 361 362 364 366 367 367 365 365 364 364 362 367 367 370 369 369 369 368 368 368 368 369 370 372 368 371 370
342 342 342 343 343 343 344 345 347 349 350 351 353 354 356 357 358 359 360 358 355 355 357 357 356 358 360 361 359 359 360 360 360 360 361 361 363 365 364 362 362 364 365 364 366 365 367 365 366 368 368 370 369 369 369 367 369 370 371 371 368 369 368
340 342 343 343 343 343 344 345 346 349 349 351 353 353 353 355 357 357 359 360 357 357 358 358 356 357 358 359 358 357 360 361 362 362 360 363 364 362 362 362 362 364 362 364 365 364 365 365 365 365 365 364 363 364 365 366 367 368 371 371 370 368 363
341 344 344 343 342 342 344 345 344 346 351 352 354 354 353 354 357 356 357 358 359 356 356 356 355 358 359 358 358 359 359 358 360 358 358 359 361 361 362 364 365 362 363 365 364 365 364 363 366 366 364 363 365 363 366 367 367 368 371 371 370 368 367
341 342 344 343 342 341 342 344 344 345 349 352 353 353 352 352 354 356 358 359 361 360 360 358 355 357 360 360 358 357 358 358 358 358 357 356 357 358 360 363 364 366 366 363 365 366 363 365 364 365 365 364 365 366 366 368 369 366 367 369 368 369 365
345 346 344 342 342 342 342 344 345 345 349 352 353 354 353 354 355 357 359 360 362 361 363 363 361 356 362 360 359 359 357 357 357 357 357 354 354 354 355 359 363 366 364 360 361 365 365 363 363 366 368 366 366 369 368 369 368 367 368 369 368 369 366
346 346 349 347 347 347 349 347 347 348 350 351 353 354 353 354 357 358 359 361 362 362 364 364 362 359 364 362 360 358 356 357 356 354 354 352 352 352 353 353 357 360 361 359 358 360 364 365 365 368 369 367 368 369 369 370 368 367 368 368 369 367 366
341 344 346 347 350 351 350 348 348 350 351 353 353 353 355 355 357 358 359 361 362 362 364 362 363 361 362 362 360 359 356 354 354 353 353 351 350 351 351 352 352 357 357 356 356 358 362 364 365 367 369 364 366 368 369 368 368 368 366 366 367 367 363
340 341 342 345 346 346 347 350 353 354 354 354 353 353 355 356 357 358 359 361 362 362 362 362 364 364 365 364 360 362 361 359 357 354 354 352 350 350 351 350 351 353 355 355 355 358 358 362 362 361 364 365 366 367 369 369 369 370 369 365 365 364 362
340 341 342 344 345 347 348 348 351 354 356 356 354 353 354 355 356 357 357 359 360 362 362 363 364 363 364 363 362 364 365 362 357 357 355 356 354 352 352 352 351 351 351 353 353 354 354 354 358 360 361 362 361 360 364 366 365 368 367 365 364 363 363
340 341 342 345 344 344 345 346 348 350 353 353 354 356 357 357 356 357 358 358 359 361 363 364 364 363 364 363 362 365 364 363 363 363 361 360 362 359 356 354 354 355 355 355 355 353 352 352 352 356 358 359 359 360 362 363 363 366 367 366 363 362 361
337 338 341 342 343 343 343 345 347 348 349 350 352 352 354 353 353 355 355 355 358 359 359 360 362 362 363 363 363 364 364 364 365 364 365 365 365 364 361 359 359 360 360 361 357 352 352 353 351 352 354 357 358 359 358 356 359 360 363 363 363 362 359
335 337 339 341 342 344 343 344 345 346 348 350 348 350 350 351 352 351 352 353 354 357 359 359 359 360 359 361 362 364 364 362 362 362 364 363 363 363 364 362 362 360 361 360 360 359 359 358 356 354 353 355 358 360 357 356 355 364 367 365 363 362 358
336 336 338 340 341 342 344 345 345 345 346 347 348 350 350 350 351 351 352 353 354 355 357 359 358 359 359 358 359 359 361 360 359 361 362 362 363 363 362 363 362 362 362 362 362 362 364 363 359 356 352 353 354 355 355 354 352 362 346 348 352 361 362
335 336 338 337 338 341 344 343 342 344 345 346 348 346 346 347 348 348 349 350 352 352 354 356 356 356 355 354 355 355 355 357 358 357 358 361 361 361 362 362 362 362 363 361 360 362 360 360 361 361 359 355 355 353 352 351 339 334 338 344 343 351 360
333 335 337 337 336 338 338 340 341 343 345 345 343 344 345 346 346 348 348 351 352 353 353 353 353 354 353 352 352 352 353 354 355 354 355 357 358 359 360 360 359 359 360 361 363 361 360 361 359 360 361 360 359 356 354 354 332 332 335 335 336 337 351
333 334 335 335 334 333 334 334 334 336 335 335 337 339 340 341 342 345 348 348 348 348 349 348 350 351 350 350 351 353 355 355 355 355 355 355 354 354 355 356 357 359 360 361 362 361 360 360 360 361 362 363 362 362 361 358 332 328 330 332 332 333 339
332 332 333 334 332 331 330 330 331 332 331 332 335 336 337 336 337 338 339 338 338 340 342 344 344 344 344 345 347 351 354 353 354 355 355 355 355 354 355 355 356 356 358 360 360 360 358 359 358 359 360 361 361 360 357 343 324 324 325 326 327 329 336
331 331 332 332 330 331 331 331 332 331 330 333 334 334 333 333 335 335 335 337 336 336 336 337 337 339 344 345 346 346 347 347 349 351 351 351 352 352 352 352 354 353 355 356 359 357 359 359 357 357 359 361 361 358 352 339 320 322 322 322 324 328 349
332 331 330 331 332 332 332 333 332 332 332 331 330 331 332 333 334 334 334 335 334 335 335 335 335 337 340 342 343 345 346 347 346 347 349 349 349 349 349 350 350 353 355 354 354 355 357 355 355 358 359 359 360 358 352 343 325 318 317 319 320 335 358
331 330 329 330 332 331 332 332 332 331 331 331 330 331 333 332 332 331 331 331 333 333 333 333 333 335 338 338 340 342 342 344 346 346 347 348 348 349 350 351 351 350 351 351 350 351 350 350 351 353 354 353 352 351 348 343 328 316 314 315 316 337 361
328 328 327 328 328 326 325 328 330 330 332 330 329 331 334 334 333 330 329 329 330 332 331 331 332 334 337 338 340 341 342 344 345 346 346 348 349 349 348 348 347 349 350 347 345 344 346 347 348 347 346 344 342 344 345 344 334 316 314 313 313 333 357
326 325 325 326 327 329 329 329 329 328 328 329 331 331 332 332 331 331 329 329 329 329 330 331 333 334 336 338 340 340 342 344 345 347 347 346 348 348 348 348 348 348 348 346 345 342 345 345 345 343 343 343 343 341 341 340 336 327 313 311 313 315 345
327 326 326 327 328 332 329 328 328 327 328 329 330 329 330 330 329 329 329 328 328 327 329 333 334 334 334 335 336 338 339 339 342 341 342 344 345 345 345 345 345 344 344 342 343 342 342 340 340 339 338 341 342 342 341 341 338 330 312 311 311 312 325
328 328 330 331 331 329 327 326 326 326 326 328 328 328 329 329 328 328 329 328 326 328 330 331 332 334 336 336 335 335 337 337 338 339 336 338 340 340 341 343 344 344 342 341 342 342 340 338 336 334 334 336 337 339 339 337 336 337 319 312 309 310 313
329 328 328 328 328 327 326 324 323 323 324 324 324 325 326 327 326 326 327 326 327 329 330 331 331 332 334 335 335 336 337 340 339 338 338 338 337 337 336 338 341 342 343 341 341 340 338 337 336 334 332 334 336 338 340 341 340 331 333 315 309 308 312
330 330 329 328 327 327 327 325 325 324 326 326 328 327 327 327 325 325 324 324 327 328 329 330 330 331 332 333 333 334 334 334 336 339 340 339 339 338 338 337 337 338 338 339 338 336 336 334 335 334 333 332 333 336 339 341 339 332 329 326 314 311 309
330 330 328 328 327 328 327 325 325 324 325 326 328 328 329 328 326 325 324 325 327 326 326 327 329 330 329 329 330 332 333 335 335 336 336 336 336 336 335 336 336 335 337 338 335 335 334 333 333 332 332 332 333 334 336 339 338 338 333 327 321 316 314
328 328 328 327 327 327 326 325 325 324 323 324 326 326 328 326 327 326 326 327 328 327 325 325 325 326 326 327 329 329 331 330 330 332 334 333 333 333 333 333 332 332 333 334 333 334 333 331 331 330 332 330 331 333 334 336 336 337 338 336 333 327 317
326 326 325 326 326 326 325 324 322 323 323 322 324 324 324 325 325 326 328 328 326 327 328 327 325 325 325 325 325 327 331 330 329 329 330 331 330 329 330 331 331 332 331 331 330 330 329 329 329 329 328 329 332 332 333 333 334 334 335 337 336 337 337
324 325 326 326 325 325 324 323 323 324 324 323 325 325 325 326 326 327 327 325 327 327 328 326 325 324 324 324 324 326 326 327 325 329 329 330 330 328 328 329 330 330 330 330 330 330 327 327 327 326 328 328 330 331 331 331 330 330 331 329 329 331 333
324 324 324 324 324 324 324 324 324 324 323 322 323 323 323 322 322 324 326 326 327 328 327 325 324 325 323 324 325 325 327 326 326 327 329 328 332 329 333 331 328 328 328 330 331 329 329 329 328 327 327 328 330 330 329 329 327 325 309 316 305 313 324
322 322 324 325 325 326 325 325 325 323 322 321 322 322 322 323 324 325 324 327 328 328 327 326 326 325 324 326 326 326 325 326 326 328 328 328 327 328 329 319 308 316 331 327 321 306 300 307 325 325 331 329 328 328 328 326 323 303 297 295 295 295 296
320 320 321 322 322 323 323 324 325 325 323 322 322 321 321 322 323 324 325 327 327 327 326 326 325 324 324 325 325 325 326 325 326 327 329 329 327 328 327 326 328 301 298 310 311 303 295 294 295 299 305 323 329 323 306 307 301 296 294 295 294 293 293
322 321 320 320 320 320 321 322 323 323 323 323 322 322 323 323 323 324 324 325 326 326 326 325 324 323 323 323 323 323 326 325 326 326 326 325 325 326 325 324 325 325 306 298 303 301 296 295 295 295 298 299 308 324 326 309 299 294 295 294 294 294 293

ECMWFFLT1_sfc_thetae_123.txt.gz
Theta_e
336 337 338 339 338 338 339 340 342 342 344 346 347 347 349 349 353 353 355 357 359 360 361 363 362 361 362 363 363 365 365 366 364 365 363 361 362 362 363 362 364 362 360 361 360 364 366 367 365 366 368 366 368 367 368 369 370 365 368 370 368 367 365
334 335 336 337 338 338 340 341 342 344 345 347 347 348 349 349 352 352 354 357 359 360 360 362 362 360 360 362 362 365 365 365 365 364 363 365 365 367 365 364 362 364 366 362 363 365 367 369 369 368 369 368 367 370 367 368 368 367 368 369 367 370 369
335 335 336 336 337 338 340 340 342 345 346 346 347 346 347 350 352 354 354 354 357 359 359 359 362 360 360 361 360 362 363 363 365 364 361 359 361 363 364 366 365 360 363 364 364 364 366 367 370 369 369 367 365 367 368 367 368 366 372 375 368 366 369
335 335 337 338 339 340 341 343 344 346 346 346 346 346 348 350 352 353 354 354 353 356 357 358 358 358 359 360 360 360 360 363 363 362 361 361 359 362 362 367 365 364 362 363 362 362 360 367 364 369 370 368 367 365 367 368 365 366 370 371 366 370 371
335 336 337 337 337 338 339 341 342 345 346 348 348 351 349 349 351 351 352 352 350 351 354 355 354 356 358 359 357 358 359 359 361 362 361 360 360 360 362 362 361 363 362 362 364 365 365 365 363 370 364 368 369 369 366 367 368 367 371 370 366 368 367
335 336 337 337 338 338 339 340 342 344 345 346 348 347 348 349 351 351 351 351 350 350 353 354 353 354 356 356 356 355 358 359 361 363 360 360 362 359 360 361 359 360 362 361 363 361 365 363 364 365 361 362 363 363 363 364 364 366 370 367 365 366 362
336 337 338 338 337 339 339 340 341 343 347 346 347 349 347 349 352 351 351 349 350 348 349 350 351 353 355 355 355 355 356 356 357 357 360 361 361 361 361 360 361 358 361 362 362 361 361 361 364 364 363 361 362 362 363 367 366 366 369 367 368 369 368
341 340 339 339 339 338 338 341 342 344 346 348 346 347 345 348 350 350 354 354 353 352 352 352 350 353 356 356 354 352 354 355 355 357 357 359 361 361 360 361 361 361 362 360 362 364 360 362 362 364 362 363 362 363 365 367 370 366 367 367 369 366 363
343 343 343 344 341 339 340 341 342 344 347 349 349 350 348 348 351 353 355 355 354 352 352 354 353 351 357 354 355 354 353 353 354 354 354 354 357 355 357 360 361 363 362 360 360 364 363 361 360 361 365 363 362 366 366 370 365 365 365 366 368 367 365
345 345 341 340 342 340 342 342 343 343 346 348 350 349 348 350 356 358 356 358 356 353 353 354 353 353 357 355 355 354 353 352 352 351 351 350 351 354 355 356 360 361 361 360 359 359 363 363 362 363 367 363 367 365 366 368 364 363 365 367 370 369 366
345 347 345 343 341 340 341 341 341 345 347 354 355 354 353 351 355 359 360 361 361 356 357 354 353 352 355 356 355 354 352 351 350 349 349 348 348 349 351 352 356 360 359 358 356 359 360 363 364 366 365 360 365 368 365 369 365 365 364 365 366 365 363
348 349 349 350 348 344 343 346 346 347 351 355 355 354 357 358 359 361 362 363 365 362 361 359 356 357 359 358 354 356 356 354 350 348 349 349 347 347 347 349 351 355 357 357 356 357 358 360 360 364 366 363 365 366 366 367 368 367 367 365 365 364 363
348 347 347 349 350 351 352 352 350 353 356 355 355 355 357 358 359 361 362 362 363 365 365 364 362 359 360 358 355 357 358 354 351 349 348 349 348 347 348 347 348 349 352 355 355 355 355 358 360 361 363 363 364 364 367 368 365 369 369 366 365 363 363
344 346 345 348 348 349 349 352 354 355 357 357 355 355 357 358 359 361 362 361 362 364 364 365 365 363 363 362 357 358 358 356 355 355 351 350 352 350 348 347 348 349 350 352 353 351 352 352 354 359 360 362 360 360 364 366 364 366 367 366 364 361 360
339 339 342 344 347 348 349 348 349 351 350 354 356 357 358 357 358 361 361 362 364 363 363 366 366 366 366 364 359 360 362 360 359 359 358 358 356 352 352 351 350 350 351 351 350 348 350 350 349 351 355 357 357 358 356 354 357 358 361 363 363 363 358
338 339 341 341 342 345 348 349 349 349 350 350 351 353 355 356 358 358 358 359 361 362 365 365 366 365 365 364 363 364 366 364 363 363 364 363 363 363 360 356 354 351 351 350 350 352 353 353 351 349 349 350 354 355 352 351 351 360 367 366 366 360 355
339 340 340 341 343 344 347 350 351 350 348 349 349 351 351 354 356 356 358 358 358 360 363 365 363 365 366 365 367 368 368 367 366 367 366 367 367 368 367 365 360 357 358 355 355 355 357 353 349 348 348 347 349 350 350 350 350 358 345 348 355 361 360
337 339 341 342 344 345 347 348 349 348 348 350 351 351 352 353 354 354 355 356 357 359 361 361 361 361 363 364 367 366 366 365 365 365 364 365 366 367 369 368 366 365 364 360 357 359 355 352 353 353 349 346 347 347 347 348 341 336 339 344 344 357 362
338 339 342 344 344 345 346 346 346 348 349 350 350 352 354 356 354 353 355 355 358 360 360 360 359 360 361 362 363 362 361 361 359 359 360 363 366 367 368 367 365 365 365 364 366 362 362 360 357 356 355 351 349 345 346 354 334 334 335 335 336 339 354
339 339 340 340 340 339 341 342 342 342 342 344 347 347 349 351 349 348 351 352 354 355 355 356 356 358 358 359 358 358 358 358 358 357 357 359 361 363 364 365 365 366 366 367 368 367 366 363 360 358 359 357 355 354 353 350 333 329 330 332 334 336 343
336 336 335 335 336 338 340 340 340 341 341 340 341 343 343 342 343 345 345 345 344 345 346 349 349 350 354 355 356 356 357 357 358 357 357 357 357 358 358 358 361 362 365 366 365 366 366 365 361 360 361 362 358 358 349 337 323 325 327 327 328 331 344
335 335 334 335 336 337 338 338 339 338 338 339 339 338 338 338 340 339 339 342 342 342 344 345 345 346 349 350 351 353 355 356 355 357 357 357 357 358 357 358 359 358 362 364 366 361 358 358 357 356 354 357 355 347 347 335 320 320 321 321 324 332 354
335 333 335 336 337 336 336 336 336 336 337 338 337 336 336 338 339 338 338 338 339 339 341 343 345 345 346 348 350 351 352 352 353 354 355 353 351 356 356 357 358 360 361 360 361 357 353 353 354 352 350 350 352 347 344 341 324 317 316 318 318 336 357
335 335 336 336 336 335 335 335 334 334 334 335 335 336 337 337 336 336 336 335 336 336 336 338 340 342 343 345 346 347 349 350 350 349 349 350 349 351 355 356 357 357 358 355 350 348 351 353 352 349 348 348 348 350 343 336 325 316 314 315 315 329 354
333 334 334 334 334 333 334 335 336 336 336 334 332 334 335 335 334 332 332 332 333 334 334 335 336 339 342 343 345 344 346 346 349 349 348 348 349 350 352 352 352 351 352 351 350 350 351 350 348 347 349 346 345 346 343 338 332 316 314 314 313 329 349
331 331 331 332 333 333 334 336 336 334 334 334 334 335 335 333 331 330 329 331 333 333 333 334 335 337 341 342 346 348 346 348 349 348 347 347 347 348 349 350 348 348 349 347 348 349 351 350 347 344 344 347 345 343 342 340 338 327 313 312 313 316 340
330 330 330 329 329 332 329 330 329 331 332 334 333 330 329 327 328 329 330 329 330 331 334 336 337 336 338 340 342 343 343 344 345 345 346 347 347 348 348 347 346 346 347 345 346 344 344 344 344 341 341 344 343 342 342 341 340 331 312 311 312 313 324
327 327 328 329 330 328 327 328 328 327 327 330 330 330 331 332 331 330 330 329 328 329 331 334 336 340 339 338 336 339 341 338 340 340 340 344 345 344 344 344 345 344 342 341 341 342 342 341 342 341 339 340 340 339 338 339 339 340 319 313 311 312 315
329 326 328 329 330 328 327 325 322 322 325 326 328 330 331 331 331 330 330 329 329 331 332 329 330 334 335 337 338 339 340 340 338 337 336 337 340 342 340 341 343 343 343 342 341 340 339 339 339 339 338 339 340 342 343 344 340 335 335 317 312 311 315
328 325 327 327 326 325 326 325 325 324 324 324 327 328 330 331 329 329 329 330 332 333 333 332 334 334 333 335 334 336 336 336 337 338 338 338 339 338 338 338 340 339 340 339 338 337 337 338 339 338 336 336 337 340 341 341 336 332 332 329 316 314 311
327 327 327 326 325 327 326 326 326 326 328 328 329 328 329 330 329 328 327 329 331 331 331 331 331 331 330 331 332 333 334 334 337 338 338 339 339 337 337 338 337 335 337 339 336 335 336 336 338 337 337 335 337 337 338 340 338 334 334 330 325 317 318
328 328 328 327 327 327 327 327 327 326 325 325 326 327 328 327 328 327 327 329 329 329 329 330 330 330 329 329 330 331 331 331 332 333 334 335 335 335 336 335 335 336 335 336 335 335 335 335 334 334 335 334 336 336 337 337 339 338 338 336 335 330 320
328 327 326 326 328 327 326 326 323 323 324 324 326 326 326 327 326 326 327 328 326 327 328 328 329 328 327 327 327 330 331 329 328 329 330 331 331 330 332 332 332 332 332 332 333 333 332 332 331 327 329 331 333 334 334 336 336 336 335 334 334 335 341
329 328 328 328 327 328 326 326 324 324 324 324 327 327 327 327 327 329 329 329 330 329 328 328 327 325 325 324 327 326 328 328 330 331 327 327 329 329 329 331 332 330 331 331 331 331 329 329 330 328 330 330 331 332 331 332 331 329 329 326 325 327 330
328 328 330 326 326 327 326 327 326 325 323 323 325 326 326 326 326 326 327 328 329 329 330 328 326 326 325 325 327 327 329 325 323 327 330 328 333 329 328 326 327 331 330 328 329 326 325 328 329 330 329 330 331 330 330 329 325 323 309 317 305 313 323
328 327 327 327 327 326 326 326 325 324 323 324 326 327 327 327 327 329 328 330 331 330 329 328 327 327 327 329 328 327 325 327 327 330 330 326 329 328 326 313 306 316 328 326 317 304 301 310 323 322 327 330 327 328 326 324 322 303 296 295 295 296 296
327 328 326 326 326 325 326 326 325 324 323 323 324 324 325 326 327 329 329 330 330 330 329 329 327 326 325 327 328 327 329 328 329 330 332 331 330 328 326 328 324 299 299 309 309 302 294 294 295 299 305 326 327 316 306 306 300 296 295 295 294 294 294
330 330 329 328 326 325 324 325 325 326 325 325 325 325 325 324 326 328 327 329 330 329 329 329 327 326 326 326 323 323 328 328 328 327 328 328 329 329 327 325 327 328 303 297 303 301 295 295 295 295 298 299 309 327 321 305 297 295 296 295 295 295 294

ECMWFFLT1_sfc_thetae_126.txt.gz
Theta_e
336 337 341 342 337 337 338 340 341 340 342 343 346 345 345 349 355 356 355 358 360 359 360 362 363 362 362 363 365 366 368 368 369 366 364 363 364 363 361 359 358 362 361 361 363 366 367 368 366 364 367 366 368 371 373 373 373 366 371 374 374 373 371
333 333 336 339 339 339 340 341 342 340 342 343 345 350 346 348 353 354 356 358 360 359 359 360 362 361 362 364 363 366 367 365 365 369 364 372 369 369 366 363 363 367 370 366 366 370 368 364 366 367 367 367 366 371 367 371 372 372 368 373 373 379 373
333 334 336 337 339 338 341 339 341 341 343 342 344 345 347 351 352 355 357 356 359 360 359 359 362 360 362 364 364 365 364 362 362 361 360 359 362 358 363 367 364 363 361 363 368 364 363 367 369 371 369 366 364 370 370 370 371 368 372 374 370 368 373
333 334 336 339 342 343 342 343 343 343 343 343 345 345 347 353 351 356 354 356 357 358 359 358 358 357 359 362 361 363 364 365 364 359 357 361 359 360 362 366 367 361 365 362 361 361 360 363 364 370 369 368 370 367 367 367 364 368 371 375 372 370 375
334 334 336 337 337 338 338 340 341 344 345 348 350 349 350 349 349 352 355 356 356 356 356 357 356 356 358 359 357 358 359 361 362 362 358 360 362 362 359 358 360 359 361 361 363 365 370 366 362 367 366 372 365 368 368 369 366 370 372 372 371 368 370
331 334 335 335 337 337 339 339 339 342 343 347 348 346 346 347 349 350 353 354 354 356 356 356 354 357 356 356 355 355 358 362 366 366 363 360 362 356 357 358 356 360 358 358 359 361 362 362 362 366 361 364 363 361 361 364 363 362 369 372 368 366 363
334 335 335 335 336 336 337 339 339 340 346 348 349 348 346 346 349 348 350 350 351 353 352 352 350 354 357 356 357 358 357 356 359 360 360 358 358 359 359 359 360 358 358 363 360 359 361 360 364 366 362 359 363 358 363 367 365 366 370 370 370 370 373
338 336 336 336 336 336 336 339 339 343 346 347 346 347 345 346 347 348 351 352 353 353 354 354 350 354 357 359 355 353 354 355 355 357 360 357 357 359 357 356 359 361 360 358 360 361 357 360 359 362 361 358 359 365 361 366 370 362 364 366 368 366 362
343 348 337 336 336 337 337 338 340 342 344 346 348 349 350 353 351 351 356 353 354 353 356 357 355 352 357 357 357 356 354 355 355 355 356 356 357 356 355 357 356 360 359 357 356 361 360 357 357 364 364 362 367 367 367 373 365 365 368 369 368 366 361
344 346 348 351 339 338 340 338 340 341 344 347 350 350 350 355 360 357 358 355 356 353 357 355 352 356 359 356 355 353 353 354 354 352 352 352 354 354 356 356 356 359 356 356 356 357 361 358 358 362 368 363 366 368 366 367 365 363 364 366 367 366 368
341 344 345 346 345 347 341 337 338 343 344 350 351 349 357 354 365 357 359 357 356 355 353 350 351 351 354 354 355 355 354 351 351 351 350 350 351 354 354 353 355 358 357 356 357 358 357 363 361 364 364 357 361 364 365 366 364 365 360 361 365 366 363
343 341 345 346 348 345 342 350 354 350 352 353 352 352 359 356 360 361 364 359 358 359 353 355 357 361 359 358 355 359 360 358 351 350 350 349 348 349 351 353 354 354 356 356 356 358 357 358 357 360 363 362 362 367 367 367 367 368 366 360 361 363 362
340 340 345 347 349 346 349 345 347 352 350 348 355 349 353 353 355 358 361 361 358 362 358 362 359 363 361 357 356 359 360 357 349 349 348 349 348 347 348 349 349 355 354 355 355 354 355 355 359 362 363 363 361 360 366 367 364 371 369 367 367 364 364
344 344 349 353 353 349 349 346 348 350 353 352 353 354 355 354 354 359 359 360 363 362 360 361 360 362 363 359 359 360 358 355 357 358 356 353 357 355 347 346 347 350 355 357 355 353 351 355 355 355 362 362 359 361 366 369 366 368 371 370 365 361 363
339 341 344 345 346 349 354 351 353 353 351 349 351 356 357 351 356 361 363 360 364 364 365 366 363 362 364 361 360 362 361 362 363 365 366 364 363 355 355 356 352 354 355 355 353 351 353 352 354 356 356 360 364 362 359 361 363 362 365 365 366 365 357
340 341 342 342 343 346 352 353 355 356 353 349 352 352 350 354 355 357 356 355 363 367 368 369 367 364 364 363 362 365 364 365 366 365 368 368 361 367 363 356 361 351 350 352 351 356 360 357 356 350 353 355 358 357 355 354 355 364 367 366 362 360 358
335 339 342 342 342 343 341 346 351 352 351 351 351 348 346 346 355 355 359 360 362 365 368 368 369 368 367 366 366 368 366 366 366 367 366 365 370 368 366 368 370 366 368 361 359 358 370 368 354 348 347 347 349 351 351 352 348 357 348 349 359 360 362
333 337 339 341 342 344 344 347 348 350 350 351 352 351 349 347 346 351 358 359 360 365 365 364 364 363 364 362 363 363 364 368 368 367 368 368 369 370 370 370 370 370 369 362 353 366 356 352 354 358 351 347 347 345 351 347 336 332 336 342 345 358 366
336 337 336 343 343 343 344 346 348 349 349 350 352 354 358 355 352 354 355 357 360 362 362 359 354 353 355 357 354 354 359 362 366 368 368 368 368 369 369 369 368 368 367 363 362 357 363 363 356 356 358 352 356 351 348 344 330 330 333 334 334 338 361
335 337 340 339 339 341 345 346 347 348 350 351 353 353 354 355 354 354 356 359 360 356 355 355 355 356 356 354 357 357 358 356 360 363 363 366 367 367 368 368 367 367 367 365 367 366 363 358 364 362 358 356 354 352 346 341 328 326 328 330 331 336 347
337 337 336 339 338 341 343 344 344 344 344 345 347 349 350 350 352 352 351 352 353 354 353 352 351 351 350 352 352 354 358 357 353 351 358 360 360 361 361 360 361 362 364 362 356 353 354 362 361 360 357 355 352 348 341 331 321 323 324 325 328 332 353
336 337 337 339 338 339 342 341 340 339 340 342 344 345 346 346 349 348 348 352 351 349 348 349 348 346 348 349 351 352 353 355 354 352 351 354 358 358 357 359 359 357 353 353 353 351 356 357 357 356 356 356 353 349 338 331 319 319 320 320 323 333 355
336 336 337 337 337 337 338 338 338 339 339 339 341 341 343 345 346 345 345 346 346 347 347 347 346 347 350 352 352 353 354 354 353 353 354 356 354 355 355 354 354 352 353 351 352 354 353 351 353 352 354 354 351 346 339 333 322 317 316 317 318 339 355
336 335 335 335 336 336 336 337 338 338 338 337 336 338 340 341 341 341 340 341 343 343 344 345 343 345 347 348 350 352 352 352 351 349 346 349 351 352 354 353 353 351 352 348 349 348 348 349 348 348 349 350 348 342 337 333 324 315 314 315 316 334 350
334 334 334 334 334 333 334 335 335 335 335 334 332 333 335 336 335 335 335 337 337 338 338 338 340 342 344 347 349 350 352 351 351 349 348 348 347 350 349 349 349 351 351 349 348 348 348 348 347 347 347 347 345 344 340 338 332 316 314 314 314 328 342
332 332 332 333 334 335 335 335 334 332 331 330 330 331 332 333 333 333 332 333 334 333 333 334 336 339 341 343 347 349 350 352 349 350 348 347 347 349 349 349 349 348 346 347 348 347 349 348 345 343 344 345 343 342 342 339 336 326 313 312 314 317 336
331 330 330 331 332 336 333 332 331 329 330 331 330 329 329 330 330 330 331 332 332 332 334 337 339 339 339 340 341 341 342 345 345 347 347 346 347 347 350 350 350 349 349 348 348 348 347 344 341 340 341 344 342 341 341 339 337 331 313 312 313 315 326
329 328 329 329 331 329 327 327 326 326 327 330 329 329 329 330 330 329 328 328 328 328 330 335 336 337 338 340 340 340 341 341 342 344 347 349 350 346 343 349 349 348 349 346 345 345 344 341 341 338 338 337 335 337 338 339 341 339 322 314 312 313 319
329 327 326 325 324 323 322 323 324 321 323 326 330 331 329 329 328 327 328 327 326 327 330 335 336 336 337 338 339 341 341 341 342 343 344 343 344 343 344 343 342 343 345 342 343 343 341 343 341 338 337 337 337 339 339 340 338 335 334 319 313 313 316
325 325 324 323 321 321 323 323 324 324 328 329 329 328 326 329 331 332 329 329 331 329 329 331 332 332 334 335 335 338 339 341 342 343 343 344 342 341 337 340 344 345 347 347 344 339 340 344 342 339 336 335 337 340 340 337 335 335 335 329 318 315 315
324 321 319 318 318 323 324 323 322 322 325 327 328 330 331 330 330 329 328 330 333 332 331 330 330 332 332 333 334 334 334 339 342 342 342 342 343 342 340 339 338 336 336 340 336 339 339 344 339 338 341 342 339 337 338 337 334 333 334 331 327 319 317
325 323 322 323 325 326 327 326 325 324 324 323 324 327 331 333 329 327 327 330 331 331 331 330 330 329 328 330 332 332 332 331 331 334 338 337 339 339 340 335 338 339 345 341 336 336 338 338 339 341 339 343 339 339 338 336 336 335 337 338 336 333 321
326 324 324 326 328 328 325 323 322 323 324 324 326 326 325 325 325 327 329 330 326 327 331 332 332 330 329 330 328 330 333 334 336 329 331 332 331 332 336 339 337 336 342 337 333 336 336 334 335 332 335 338 339 336 338 337 333 330 328 329 328 328 332
328 327 328 328 328 327 325 325 325 326 326 326 327 326 325 325 327 330 331 327 326 327 329 328 327 326 323 323 326 328 329 330 333 336 328 329 327 326 327 329 329 328 325 326 326 326 326 326 328 327 328 329 335 337 331 325 323 321 321 321 322 324 325
328 327 328 327 328 329 328 325 324 324 323 323 325 326 328 327 326 327 329 328 329 332 330 328 326 325 324 325 327 329 333 330 332 328 331 327 324 320 320 323 327 325 322 322 323 324 322 322 321 323 327 325 325 327 324 323 320 318 307 310 306 313 320
329 327 326 327 328 328 327 327 326 325 325 325 326 327 326 326 328 330 329 330 330 330 328 327 331 328 328 329 331 329 329 332 327 336 334 329 324 324 320 313 304 316 325 320 311 304 307 312 320 320 328 321 317 319 324 319 319 304 298 295 295 296 297
326 326 326 326 325 326 325 324 324 324 324 325 327 326 326 328 328 330 329 331 331 331 329 328 331 330 328 331 330 330 330 332 331 333 334 334 331 330 326 322 319 300 300 310 309 300 295 295 297 302 310 327 319 311 304 304 300 296 295 295 295 294 294
328 328 328 329 327 326 325 324 324 324 324 325 325 325 326 326 328 330 329 330 330 329 329 329 331 329 329 326 326 328 330 332 331 331 337 333 336 333 330 329 325 321 304 296 301 299 296 296 296 296 299 304 315 322 313 302 297 295 295 295 295 295 293